# Wetter Temperatur Luftdruck Luftfeuchtigkeit Sichtweite Windgeschwindigkeit Windrichtung Zeit
1 Snow -11 1003 85 8000 5.7 80 21:42 28.01.2020
2 Snow -11 1003 92 5000 5.1 80 21:23 28.01.2020
3 Snow -11 1003 92 5000 5.1 80 21:23 28.01.2020
4 Snow -11 1003 92 4700 5.7 80 20:58 28.01.2020
5 Snow -11 1003 92 4700 5.7 80 20:40 28.01.2020
6 Snow -11 1003 92 5000 5.1 90 20:21 28.01.2020
7 Snow -11 1003 92 5000 5.7 80 19:39 28.01.2020
8 Snow -11 1003 92 5000 5.7 80 19:20 28.01.2020
9 Snow -11 1003 92 5000 5.7 80 18:58 28.01.2020
10 Snow -11 1003 92 5000 5.7 80 18:58 28.01.2020
11 Snow -11 1003 92 5000 6.2 80 18:39 28.01.2020
12 Snow -11 1003 92 5000 6.2 80 18:21 28.01.2020
13 Snow -11 1003 92 4800 5.7 80 17:57 28.01.2020
14 Snow -11 1003 92 2900 5.7 80 17:37 28.01.2020
15 Snow -11 1003 92 2900 5.7 80 17:19 28.01.2020
16 Snow -11 1003 85 3900 6.2 80 16:46 28.01.2020
17 Snow -11 1003 85 7000 6.2 70 16:27 28.01.2020
18 Snow -11 1003 85 3800 5.7 80 15:59 28.01.2020
19 Snow -11 1003 85 3800 5.7 80 15:41 28.01.2020
20 Snow -11 1003 85 2400 6.2 80 15:18 28.01.2020
21 Snow -11 1003 85 6000 6.2 80 14:45 28.01.2020
22 Snow -11 1003 85 7000 6.7 80 14:20 28.01.2020
23 Snow -11 1003 85 5000 7.2 80 13:57 28.01.2020
24 Snow -11 1003 85 2000 6.7 80 13:38 28.01.2020
25 Snow -11 1003 85 2000 6.7 80 13:19 28.01.2020
26 Snow -11 1003 85 2000 6.7 70 12:42 28.01.2020
27 Snow -11 1003 85 2000 6.7 70 12:42 28.01.2020
28 Snow -12 1004 92 1800 6.2 70 12:22 28.01.2020
29 Snow -12 1004 85 6000 6.2 70 11:48 28.01.2020
30 Snow -12 1004 85 8000 6.2 80 11:23 28.01.2020
31 Snow -13 1004 92 8000 6.2 80 10:58 28.01.2020
32 Snow -13 1004 84 9000 6.7 80 10:39 28.01.2020
33 Snow -13 1004 84 9000 6.7 80 10:20 28.01.2020
34 Snow -13 1004 84 6000 6.7 80 09:42 28.01.2020
35 Snow -13 1005 84 8000 6.7 80 09:21 28.01.2020
36 Snow -13 1005 84 8000 6.7 70 08:56 28.01.2020
37 Snow -13 1005 84 10000 6.2 70 08:38 28.01.2020
38 Snow -13 1005 84 10000 6.2 70 08:18 28.01.2020
39 Snow -13 1005 84 4500 6.2 70 07:36 28.01.2020
40 Snow -13 1005 84 4000 5.7 70 06:49 28.01.2020
41 Snow -13 1006 84 6000 5.7 70 06:25 28.01.2020
42 Snow -14 1006 84 6000 5.7 70 05:42 28.01.2020
43 Snow -14 1006 84 7000 6.2 70 05:24 28.01.2020
44 Snow -15 1007 84 9000 5.7 70 03:57 28.01.2020
45 Snow -15 1008 84 6000 6.2 70 02:58 28.01.2020
46 Snow -15 1008 84 10000 6.2 70 02:25 28.01.2020
47 Snow -15 1008 84 10000 5.1 70 01:56 28.01.2020
48 Snow -15 1009 77 7000 5.1 80 01:22 28.01.2020
49 Snow -15 1009 84 6000 5.1 90 00:45 28.01.2020
50 Snow -16 1009 84 5000 5.1 70 00:24 28.01.2020
51 Snow -16 1009 84 4600 5.1 70 23:46 27.01.2020
52 Snow -16 1010 84 10000 5.7 70 23:28 27.01.2020
53 Snow -16 1010 84 10000 5.7 70 23:28 27.01.2020
54 Snow -16 1010 84 10000 4.6 70 22:45 27.01.2020
55 Snow -17 1010 84 10000 4.6 60 22:22 27.01.2020
56 Snow -17 1010 84 10000 4.6 60 21:58 27.01.2020
57 Snow -17 1010 84 10000 4.6 60 21:39 27.01.2020
58 Snow -17 1011 84 9000 4.6 60 21:19 27.01.2020
59 Snow -17 1011 84 9000 4.6 60 21:19 27.01.2020
60 Snow -17 1011 84 9000 4.6 70 20:57 27.01.2020
61 Snow -17 1011 84 9000 4.6 70 20:38 27.01.2020
62 Snow -17 1011 84 10000 4.6 70 20:20 27.01.2020
63 Snow -17 1011 77 9000 4.6 70 19:57 27.01.2020
64 Snow -17 1011 77 9000 4.6 70 19:57 27.01.2020
65 Snow -18 1011 84 10000 5.1 70 19:38 27.01.2020
66 Snow -18 1011 84 10000 5.1 70 19:20 27.01.2020
67 Snow -18 1012 84 10000 5.1 70 18:40 27.01.2020
68 Snow -18 1012 84 10000 5.1 70 18:40 27.01.2020
69 Snow -18 1011 84 10000 5.1 70 18:21 27.01.2020
70 Clouds -18 1012 84 10000 5.1 70 17:58 27.01.2020
71 Clouds -18 1012 77 10000 5.1 70 17:38 27.01.2020
72 Clouds -18 1012 77 10000 5.1 70 17:19 27.01.2020
73 Clouds -18 1012 77 10000 5.1 70 16:56 27.01.2020
74 Clouds -19 1012 84 10000 5.1 70 16:37 27.01.2020
75 Clouds -19 1012 84 10000 5.1 70 16:19 27.01.2020
76 Clouds -19 1012 84 10000 4.6 70 15:41 27.01.2020
77 Clouds -19 1012 84 10000 5.1 70 15:20 27.01.2020
78 Clouds -19 1012 84 10000 4.6 70 14:57 27.01.2020
79 Clouds -19 1012 84 10000 4.6 70 14:39 27.01.2020
80 Clouds -19 1013 84 10000 4.6 70 14:20 27.01.2020
81 Clouds -19 1013 84 10000 5.1 70 13:42 27.01.2020
82 Clouds -19 1013 84 10000 5.1 70 13:22 27.01.2020
83 Fog -19 1013 84 10000 5.1 70 12:57 27.01.2020
84 Fog -19 1013 84 10000 5.1 70 12:57 27.01.2020
85 Fog -19 1013 84 10000 5.1 70 12:57 27.01.2020
86 Clouds -19 1013 77 10000 5.1 70 12:39 27.01.2020
87 Clouds -19 1013 77 10000 5.1 70 12:20 27.01.2020
88 Clouds -19 1013 77 10000 5.1 70 11:42 27.01.2020
89 Clouds -19 1013 77 10000 5.1 70 11:42 27.01.2020
90 Clouds -19 1013 84 10000 5.1 70 11:21 27.01.2020
91 Clouds -19 1014 84 10000 4.6 70 10:55 27.01.2020
92 Clouds -19 1014 84 10000 4.1 60 10:36 27.01.2020
93 Clouds -19 1014 84 10000 4.1 60 10:18 27.01.2020
94 Fog -19 1014 84 10000 4.1 70 09:39 27.01.2020
95 Fog -19 1014 84 10000 4.1 70 09:19 27.01.2020
96 Clouds -19 1013 84 10000 4.1 70 08:47 27.01.2020
97 Clouds -19 1013 91 10000 3.1 70 08:23 27.01.2020
98 Clouds -19 1013 84 10000 3.6 60 07:55 27.01.2020
99 Clouds -19 1013 84 10000 3.6 60 07:36 27.01.2020
100 Clouds -20 1013 83 10000 3.1 70 06:55 27.01.2020
101 Snow -18 1013 84 10000 3.6 70 06:32 27.01.2020
102 Clouds -20 1013 83 10000 2.6 80 05:37 27.01.2020
103 Clouds -20 1013 83 10000 2.6 80 05:37 27.01.2020
104 Mist -20 1013 83 2300 4.1 50 04:20 27.01.2020
105 Clouds -21 1013 83 10000 3.6 40 03:23 27.01.2020
106 Clouds -20 1013 83 10000 2.1 350 01:32 27.01.2020
107 Clouds -20 1013 83 10000 1.5 340 00:59 27.01.2020
108 Clouds -20 1012 83 10000 1.5 310 00:37 27.01.2020
109 Clouds -20 1012 83 10000 1.5 310 00:19 27.01.2020
110 Clouds -19 1012 84 10000 2.1 350 23:41 26.01.2020
111 Clouds -19 1012 84 10000 4.1 350 23:19 26.01.2020
112 Clouds -19 1012 84 10000 4.6 350 22:55 26.01.2020
113 Clouds -18 1012 84 10000 4.1 340 22:37 26.01.2020
114 Clouds -18 1012 84 10000 4.1 340 22:18 26.01.2020
115 Clouds -18 1011 84 10000 5.7 350 21:56 26.01.2020
116 Clouds -18 1011 84 10000 5.7 350 21:38 26.01.2020
117 Clouds -18 1011 84 10000 4.1 350 21:19 26.01.2020
118 Clouds -18 1011 91 10000 4.1 350 20:55 26.01.2020
119 Clouds -18 1010 84 10000 4.6 350 20:36 26.01.2020
120 Clouds -18 1010 84 10000 4.6 350 20:18 26.01.2020
121 Clouds -17 1010 84 10000 5.1 340 19:56 26.01.2020
122 Clouds -17 1010 84 10000 5.7 340 19:36 26.01.2020
123 Clouds -17 1010 84 10000 5.7 340 19:18 26.01.2020
124 Clouds -17 1009 84 10000 5.7 340 18:41 26.01.2020
125 Clouds -17 1009 84 10000 5.7 340 18:22 26.01.2020
126 Clouds -17 1009 84 10000 6.2 340 17:58 26.01.2020
127 Clouds -16 1008 84 10000 6.2 330 17:38 26.01.2020
128 Clouds -16 1008 84 10000 6.2 330 17:19 26.01.2020
129 Clouds -16 1008 84 10000 6.2 330 16:58 26.01.2020
130 Clouds -16 1008 84 10000 6.2 330 16:39 26.01.2020
131 Clouds -16 1008 84 10000 6.2 330 16:20 26.01.2020
132 Clouds -16 1011 91 0 2.16 337 15:55 26.01.2020
133 Clouds -16 1011 91 0 2.16 337 15:36 26.01.2020
134 Clouds -16 1011 91 0 2.16 337 15:18 26.01.2020
135 Clouds -16 1011 91 0 2.16 337 14:39 26.01.2020
136 Clouds -15 1009 88 0 2.55 346 14:19 26.01.2020
137 Clouds -15 1009 88 0 2.55 346 13:42 26.01.2020
138 Clouds -15 1009 88 0 2.55 346 13:20 26.01.2020
139 Clouds -15 1008 90 0 2.41 355 12:57 26.01.2020
140 Clouds -15 1008 90 0 2.41 355 12:38 26.01.2020
141 Clouds -15 1008 90 0 2.41 355 12:20 26.01.2020
142 Clouds -15 1008 90 0 2.41 355 11:57 26.01.2020
143 Clouds -15 1008 90 0 2.41 355 11:37 26.01.2020
144 Clouds -17 1003 84 10000 4.6 340 11:18 26.01.2020
145 Clouds -17 1003 84 10000 4.6 340 10:56 26.01.2020
146 Clouds -17 1003 84 10000 4.6 340 10:38 26.01.2020
147 Clouds -17 1003 84 10000 4.6 340 10:19 26.01.2020
148 Clouds -17 1003 84 10000 4.6 340 10:19 26.01.2020
149 Clouds -19 1003 84 10000 2.6 350 09:56 26.01.2020
150 Clouds -19 1003 84 10000 2.6 350 09:37 26.01.2020
151 Clouds -19 1003 84 10000 2.6 350 09:19 26.01.2020
152 Clouds -20 1002 83 10000 2.6 350 08:41 26.01.2020
153 Clouds -19 1002 84 10000 3.1 360 08:22 26.01.2020
154 Snow -19 1002 84 10000 3.6 360 07:50 26.01.2020
155 Clouds -19 1001 91 10000 3.1 360 07:27 26.01.2020
156 Clouds -18 1001 84 10000 3.6 350 06:55 26.01.2020
157 Clouds -18 1000 84 10000 4.1 350 06:25 26.01.2020
158 Clouds -18 999 84 10000 3.1 340 05:29 26.01.2020
159 Clouds -17 999 84 10000 5.1 350 03:57 26.01.2020
160 Clouds -19 999 91 10000 2.1 360 02:38 26.01.2020
161 Clouds -17 999 84 10000 2.6 350 01:45 26.01.2020
162 Clouds -17 999 84 10000 3.6 10 01:22 26.01.2020
163 Snow -16 999 84 10000 1.5 260 00:42 26.01.2020
164 Snow -16 999 91 10000 4.6 360 00:24 26.01.2020
165 Clouds -15 1002 94 0 1.96 12 23:39 25.01.2020
166 Clouds -15 1001 92 0 1.56 351 23:21 25.01.2020
167 Clouds -15 1001 92 0 1.56 351 22:56 25.01.2020
168 Clouds -15 1001 92 0 1.56 351 22:36 25.01.2020
169 Clouds -15 1001 92 0 1.56 351 22:18 25.01.2020
170 Clouds -15 1001 92 0 1.56 351 21:41 25.01.2020
171 Clouds -15 1001 92 0 1.56 351 21:23 25.01.2020
172 Clouds -15 1001 92 0 1.56 351 21:23 25.01.2020
173 Clouds -15 1001 92 0 1.56 351 20:56 25.01.2020
174 Clouds -15 1001 92 0 1.56 351 20:38 25.01.2020
175 Clouds -14 1000 90 0 0.85 328 20:19 25.01.2020
176 Clouds -14 1000 90 0 0.85 328 19:43 25.01.2020
177 Clouds -14 1000 90 0 0.85 328 19:20 25.01.2020
178 Clouds -14 1000 90 0 0.85 328 18:57 25.01.2020
179 Clouds -14 1000 90 0 0.85 328 18:57 25.01.2020
180 Clouds -14 1000 91 0 1.17 353 18:38 25.01.2020
181 Clouds -14 1000 91 0 1.17 353 18:20 25.01.2020
182 Clouds -14 1000 90 0 0.85 328 17:40 25.01.2020
183 Clouds -14 999 92 0 1.48 333 17:20 25.01.2020
184 Clouds -14 999 92 0 1.48 333 16:58 25.01.2020
185 Clouds -14 999 92 0 1.48 333 16:38 25.01.2020
186 Clouds -14 999 92 0 1.48 333 16:19 25.01.2020
187 Clouds -14 999 92 0 1.48 333 15:47 25.01.2020
188 Clouds -14 999 92 0 1.48 333 15:25 25.01.2020
189 Clouds -14 999 92 0 1.48 333 14:57 25.01.2020
190 Clouds -14 999 92 0 1.48 333 14:39 25.01.2020
191 Clouds -13 996 93 0 1.55 333 14:18 25.01.2020
192 Clouds -13 996 93 0 1.55 333 13:42 25.01.2020
193 Clouds -13 996 94 0 1.86 335 13:23 25.01.2020
194 Snow -16 993 91 10000 3.1 340 12:45 25.01.2020
195 Snow -16 993 91 10000 3.1 340 12:25 25.01.2020
196 Snow -16 993 91 10000 3.1 340 11:45 25.01.2020
197 Clouds -16 992 84 10000 1 0 11:22 25.01.2020
198 Clouds -16 992 84 10000 1 0 11:22 25.01.2020
199 Clouds -16 992 84 10000 1 0 11:22 25.01.2020
200 Snow -16 992 84 10000 4.6 330 10:58 25.01.2020
201 Snow -16 992 84 10000 4.6 330 10:40 25.01.2020
202 Snow -16 991 84 10000 4.6 340 10:20 25.01.2020
203 Clouds -16 990 84 10000 5.1 330 09:41 25.01.2020
204 Snow -16 989 84 10000 5.1 340 09:22 25.01.2020
205 Clouds -16 989 84 10000 5.1 340 08:44 25.01.2020
206 Clouds -16 989 84 10000 5.1 330 08:26 25.01.2020
207 Snow -16 988 84 10000 5.1 340 07:49 25.01.2020
208 Clouds -15 987 92 10000 6.7 340 06:51 25.01.2020
209 Snow -14 986 84 10000 6.2 340 06:28 25.01.2020
210 Snow -14 986 92 10000 6.2 340 05:46 25.01.2020
211 Snow -15 985 92 10000 5.7 340 04:50 25.01.2020
212 Snow -13 984 84 9000 0.5 0 03:51 25.01.2020
213 Snow -13 984 100 600 3.6 340 02:57 25.01.2020
214 Clouds -14 984 92 6000 1 0 02:18 25.01.2020
215 Snow -14 983 92 650 2.1 40 01:37 25.01.2020
216 Clouds -13 983 92 2200 1 0 00:44 25.01.2020
217 Clouds -12 983 92 2600 2.1 320 00:25 25.01.2020
218 Fog -12 983 92 300 1.5 260 23:57 24.01.2020
219 Fog -12 983 92 300 1.5 260 23:38 24.01.2020
220 Clouds -11 983 92 550 1.5 230 23:20 24.01.2020
221 Fog -10 983 92 10000 2.1 220 22:42 24.01.2020
222 Fog -12 983 100 750 1 0 22:24 24.01.2020
223 Fog -12 983 92 800 0.5 0 21:43 24.01.2020
224 Snow -10 983 92 10000 1.5 230 21:20 24.01.2020
225 Snow -11 983 92 10000 2.1 240 20:56 24.01.2020
226 Snow -12 983 92 10000 3.1 220 20:38 24.01.2020
227 Snow -12 983 92 10000 3.1 220 20:19 24.01.2020
228 Clear -10 983 92 10000 1 0 19:56 24.01.2020
229 Clear -10 983 92 10000 1 0 19:38 24.01.2020
230 Clear -11 983 100 10000 1.5 290 19:20 24.01.2020
231 Clear -13 983 92 10000 2.1 260 18:43 24.01.2020
232 Clear -13 983 92 10000 2.1 260 18:43 24.01.2020
233 Clear -12 983 92 10000 2.6 260 18:23 24.01.2020
234 Clear -9 984 92 10000 4.1 240 17:46 24.01.2020
235 Clear -10 984 92 10000 3.6 240 17:23 24.01.2020
236 Clear -8 984 92 10000 2.6 240 16:58 24.01.2020
237 Clear -8 984 92 10000 2.6 240 16:39 24.01.2020
238 Clear -8 984 92 10000 3.1 240 16:19 24.01.2020
239 Clear -12 984 92 10000 2.1 230 15:42 24.01.2020
240 Clear -8 984 92 10000 2.6 240 15:22 24.01.2020
241 Clear -9 984 100 10000 2.6 240 14:55 24.01.2020
242 Clear -8 985 92 10000 2.6 230 14:37 24.01.2020
243 Clouds -8 985 92 10000 2.6 230 14:19 24.01.2020
244 Clouds -8 985 92 10000 3.6 230 13:41 24.01.2020
245 Clouds -7 985 85 10000 1 240 13:22 24.01.2020
246 Clouds -7 985 85 10000 1 240 13:22 24.01.2020
247 Clouds -8 985 92 10000 3.1 220 12:43 24.01.2020
248 Clouds -7 985 92 10000 2.1 190 12:21 24.01.2020
249 Clouds -7 985 85 10000 1.5 240 11:45 24.01.2020
250 Clouds -8 985 92 10000 3.6 230 11:19 24.01.2020
251 Clouds -8 985 92 10000 3.6 230 11:19 24.01.2020
252 Clouds -8 985 92 10000 3.6 230 11:19 24.01.2020
253 Clouds -6 985 85 10000 3.1 240 10:58 24.01.2020
254 Clouds -6 985 85 10000 3.1 240 10:40 24.01.2020
255 Clouds -7 985 92 10000 3.1 210 10:19 24.01.2020
256 Clouds -6 985 85 10000 1 0 09:41 24.01.2020
257 Clouds -5 985 85 10000 2.6 260 09:23 24.01.2020
258 Clouds -6 985 85 10000 1 0 08:41 24.01.2020
259 Clouds -6 985 85 10000 1 0 08:41 24.01.2020
260 Clouds -6 984 92 10000 1.5 220 08:21 24.01.2020
261 Clouds -5 984 92 10000 2.6 220 07:58 24.01.2020
262 Clouds -4 984 85 10000 2.1 280 07:39 24.01.2020
263 Clouds -4 984 92 10000 1.5 300 06:54 24.01.2020
264 Clouds -4 984 92 10000 2.6 290 06:33 24.01.2020
265 Clouds -4 984 92 10000 3.1 270 05:59 24.01.2020
266 Clouds -3 984 92 10000 3.1 260 05:18 24.01.2020
267 Clouds -3 984 100 10000 2.6 240 02:54 24.01.2020
268 Clouds -3 984 92 10000 2.1 250 02:27 24.01.2020
269 Clouds -4 985 100 4000 2.6 240 01:53 24.01.2020
270 Clouds -4 985 92 10000 3.6 240 01:33 24.01.2020
271 Fog -5 985 100 700 1.5 250 00:31 24.01.2020
272 Snow -4 985 92 10000 2.1 240 23:56 23.01.2020
273 Snow -4 985 92 3600 1.5 230 23:37 23.01.2020
274 Snow -4 985 92 3600 1.5 230 23:18 23.01.2020
275 Snow -4 986 92 4200 1.5 180 22:39 23.01.2020
276 Snow -4 986 92 3400 2.1 160 22:19 23.01.2020
277 Snow -4 986 92 1700 1.5 160 21:58 23.01.2020
278 Snow -4 986 92 1700 1.5 160 21:58 23.01.2020
279 Snow -5 987 92 3400 4.1 170 21:39 23.01.2020
280 Snow -5 987 92 3400 4.1 170 21:20 23.01.2020
281 Snow -5 987 92 3600 4.6 180 20:59 23.01.2020
282 Snow -5 987 92 3600 4.6 180 20:39 23.01.2020
283 Snow -5 988 92 10000 6.2 190 20:20 23.01.2020
284 Snow -6 988 92 5000 5.7 170 19:56 23.01.2020
285 Snow -6 989 92 4400 4.1 160 19:38 23.01.2020
286 Snow -6 989 92 4400 4.1 160 19:19 23.01.2020
287 Snow -6 990 92 10000 5.1 160 18:55 23.01.2020
288 Snow -7 990 92 10000 4.6 140 18:36 23.01.2020
289 Snow -7 990 92 10000 4.6 140 18:18 23.01.2020
290 Snow -7 993 85 2500 4.6 140 17:42 23.01.2020
291 Snow -8 993 92 2400 5.1 130 17:20 23.01.2020
292 Snow -8 993 92 2400 5.1 130 16:56 23.01.2020
293 Snow -8 994 92 2500 5.1 130 16:37 23.01.2020
294 Snow -8 994 92 2500 5.1 130 16:18 23.01.2020
295 Snow -8 995 85 3300 5.1 120 15:55 23.01.2020
296 Snow -9 996 92 3900 4.6 130 15:37 23.01.2020
297 Snow -9 996 92 3900 4.6 130 15:18 23.01.2020
298 Snow -9 997 85 2600 5.1 130 14:55 23.01.2020
299 Snow -9 997 85 2600 5.1 130 14:55 23.01.2020
300 Snow -9 998 85 2000 4.6 120 14:37 23.01.2020
301 Snow -9 998 85 2000 4.6 120 14:19 23.01.2020
302 Snow -10 999 85 10000 4.1 130 13:40 23.01.2020
303 Clouds -9 1000 78 10000 4.1 140 13:20 23.01.2020
304 Clouds -9 1001 78 10000 4.1 150 12:47 23.01.2020
305 Clouds -9 1002 78 10000 4.6 160 12:25 23.01.2020
306 Clouds -9 1003 78 10000 4.6 160 11:59 23.01.2020
307 Clouds -9 1003 78 10000 4.6 160 11:39 23.01.2020
308 Clouds -9 1004 78 10000 4.1 160 11:19 23.01.2020
309 Clouds -9 1004 78 10000 4.1 160 11:19 23.01.2020
310 Clouds -10 1004 92 10000 4.1 160 10:45 23.01.2020
311 Clouds -10 1005 92 10000 4.1 150 10:23 23.01.2020
312 Clouds -10 1005 92 10000 1 0 09:59 23.01.2020
313 Clouds -9 1006 85 10000 2.1 200 09:38 23.01.2020
314 Clouds -9 1006 85 10000 2.1 200 09:20 23.01.2020
315 Clouds -11 1007 92 10000 1.5 220 08:41 23.01.2020
316 Clouds -11 1007 92 10000 1.5 220 08:22 23.01.2020
317 Clouds -11 1007 92 10000 1.5 240 07:45 23.01.2020
318 Clouds -10 1007 92 10000 1.5 250 07:26 23.01.2020
319 Clouds -11 1008 92 10000 1 270 06:54 23.01.2020
320 Clouds -9 1008 85 10000 1.5 300 06:23 23.01.2020
321 Clouds -9 1008 92 10000 1.5 340 05:58 23.01.2020
322 Clouds -8 1009 85 10000 2.1 320 04:24 23.01.2020
323 Clouds -8 1010 85 10000 2.1 340 02:34 23.01.2020
324 Clouds -8 1009 85 10000 2.6 320 01:41 23.01.2020
325 Clouds -8 1009 92 10000 2.1 320 00:28 23.01.2020
326 Clouds -7 1009 92 10000 2.1 330 23:48 22.01.2020
327 Snow -7 1008 92 10000 2.1 260 23:30 22.01.2020
328 Snow -7 1009 85 10000 2.1 300 22:59 22.01.2020
329 Snow -7 1009 85 10000 2.1 300 22:41 22.01.2020
330 Snow -7 1009 85 10000 2.1 300 22:41 22.01.2020
331 Snow -7 1008 85 10000 2.1 290 22:22 22.01.2020
332 Snow -8 1008 85 10000 0.5 0 21:40 22.01.2020
333 Clouds -8 1008 85 10000 1.5 280 21:22 22.01.2020
334 Clouds -9 1008 85 10000 1.5 240 20:58 22.01.2020
335 Clouds -9 1008 85 10000 1.5 240 20:39 22.01.2020
336 Clouds -10 1008 85 10000 1.5 260 20:21 22.01.2020
337 Clouds -10 1008 85 10000 2.1 280 19:57 22.01.2020
338 Clouds -9 1008 85 10000 2.6 290 19:38 22.01.2020
339 Clouds -9 1008 85 10000 2.6 290 19:38 22.01.2020
340 Clouds -9 1008 85 10000 2.6 290 19:18 22.01.2020
341 Clouds -9 1008 78 10000 2.1 290 18:56 22.01.2020
342 Clouds -9 1008 85 10000 2.1 270 18:38 22.01.2020
343 Clouds -9 1008 85 10000 2.1 270 18:19 22.01.2020
344 Clouds -8 1008 78 10000 3.1 300 17:54 22.01.2020
345 Clouds -8 1008 78 10000 3.1 300 17:54 22.01.2020
346 Clouds -7 1007 73 10000 3.6 310 17:36 22.01.2020
347 Clouds -7 1007 73 10000 3.6 310 17:18 22.01.2020
348 Clouds -8 1007 78 10000 4.1 300 16:42 22.01.2020
349 Clouds -7 1007 73 10000 2.6 300 16:22 22.01.2020
350 Clouds -7 1006 79 10000 3.6 300 15:58 22.01.2020
351 Clouds -7 1006 79 10000 4.1 310 15:38 22.01.2020
352 Clouds -7 1006 79 10000 4.1 310 15:20 22.01.2020
353 Clouds -7 1006 79 10000 4.1 310 14:40 22.01.2020
354 Clear -7 1005 79 10000 3.6 300 14:21 22.01.2020
355 Clear -7 1005 79 10000 2.6 300 13:59 22.01.2020
356 Clear -6 1004 73 10000 4.6 330 13:38 22.01.2020
357 Clear -6 1004 73 10000 4.6 330 13:19 22.01.2020
358 Clear -6 1004 79 10000 4.1 310 12:57 22.01.2020
359 Clear -6 1004 79 10000 4.1 310 12:39 22.01.2020
360 Clouds -6 1004 79 10000 4.1 310 12:20 22.01.2020
361 Clouds -6 1003 79 10000 3.6 310 11:58 22.01.2020
362 Clouds -6 1003 79 10000 3.6 310 11:39 22.01.2020
363 Clouds -6 1003 79 10000 4.1 310 11:19 22.01.2020
364 Clouds -6 1003 79 10000 4.1 310 11:19 22.01.2020
365 Clouds -6 1002 79 10000 4.6 310 10:54 22.01.2020
366 Clouds -7 1001 85 10000 4.1 320 10:36 22.01.2020
367 Clouds -7 1001 85 10000 4.1 320 10:18 22.01.2020
368 Clear -7 1000 85 10000 2.6 320 09:41 22.01.2020
369 Clear -7 1000 85 10000 2.6 320 09:23 22.01.2020
370 Clouds -7 1000 85 10000 3.1 310 08:56 22.01.2020
371 Clear -7 999 85 10000 4.6 330 08:37 22.01.2020
372 Clouds -7 999 85 10000 4.6 330 08:19 22.01.2020
373 Clouds -7 999 85 10000 4.6 330 08:19 22.01.2020
374 Clouds -6 998 85 10000 3.6 320 07:44 22.01.2020
375 Clouds -6 997 85 10000 4.6 330 07:26 22.01.2020
376 Clouds -6 996 85 10000 5.1 330 06:37 22.01.2020
377 Clouds -6 996 85 10000 5.1 330 06:18 22.01.2020
378 Clouds -5 992 85 10000 6.2 330 04:27 22.01.2020
379 Clouds -5 991 79 10000 6.2 330 03:27 22.01.2020
380 Clouds -5 990 79 10000 5.7 320 02:48 22.01.2020
381 Clouds -5 989 79 10000 4.1 290 00:48 22.01.2020
382 Clouds -5 989 79 10000 3.6 300 00:28 22.01.2020
383 Clouds -5 988 79 10000 3.6 300 23:59 21.01.2020
384 Clouds -5 988 79 10000 4.1 300 23:37 21.01.2020
385 Clouds -5 988 79 10000 4.1 300 23:19 21.01.2020
386 Clouds -5 988 79 10000 3.6 290 22:42 21.01.2020
387 Clouds -5 988 85 10000 3.6 280 22:23 21.01.2020
388 Clouds -5 987 79 10000 3.1 280 21:58 21.01.2020
389 Clouds -5 987 85 10000 3.1 270 21:39 21.01.2020
390 Clouds -5 987 85 10000 3.1 270 21:20 21.01.2020
391 Clouds -5 987 85 10000 5.1 260 20:57 21.01.2020
392 Clouds -5 987 85 10000 3.6 270 20:39 21.01.2020
393 Clouds -5 987 85 10000 3.6 270 20:20 21.01.2020
394 Clouds -5 987 85 10000 3.1 240 19:57 21.01.2020
395 Clouds -5 988 85 10000 2.6 250 19:39 21.01.2020
396 Clouds -5 988 85 10000 2.6 250 19:20 21.01.2020
397 Clouds -4 988 79 10000 3.6 250 18:55 21.01.2020
398 Clouds -4 988 79 10000 5.1 240 18:37 21.01.2020
399 Clouds -4 988 79 10000 5.1 240 18:19 21.01.2020
400 Clouds -4 988 79 10000 4.6 250 17:45 21.01.2020
401 Clouds -4 988 79 10000 4.6 240 17:20 21.01.2020
402 Clouds -3 989 73 10000 4.1 250 16:59 21.01.2020
403 Clouds -4 989 79 10000 4.6 250 16:37 21.01.2020
404 Clouds -4 989 79 10000 4.6 250 16:19 21.01.2020
405 Clouds -3 989 79 10000 4.1 250 15:56 21.01.2020
406 Clouds -3 989 79 10000 3.6 260 15:36 21.01.2020
407 Clouds -3 989 79 10000 3.6 260 15:18 21.01.2020
408 Clouds -3 990 79 10000 5.1 260 14:38 21.01.2020
409 Clouds -2 989 74 10000 5.7 260 14:20 21.01.2020
410 Clouds -2 989 79 10000 5.7 270 13:40 21.01.2020
411 Clouds -2 989 79 10000 5.7 270 13:19 21.01.2020
412 Clouds -2 989 79 10000 5.7 270 12:56 21.01.2020
413 Clouds -1 989 74 10000 6.2 270 12:37 21.01.2020
414 Clouds -1 989 74 10000 6.2 270 12:19 21.01.2020
415 Clouds -1 989 74 10000 6.2 270 11:40 21.01.2020
416 Snow -1 989 80 10000 5.1 280 11:21 21.01.2020
417 Snow -1 989 80 10000 5.1 280 11:21 21.01.2020
418 Snow 0 989 71 10000 5.7 270 10:55 21.01.2020
419 Clouds 0 988 71 10000 4.6 270 10:37 21.01.2020
420 Clouds 0 988 71 10000 4.6 270 10:18 21.01.2020
421 Clouds 0 988 71 10000 5.7 280 09:41 21.01.2020
422 Snow 0 988 71 10000 5.7 280 09:22 21.01.2020
423 Clouds 0 988 71 10000 5.7 270 08:50 21.01.2020
424 Clouds -1 988 92 10000 3.6 240 08:30 21.01.2020
425 Snow 0 988 93 10000 4.1 240 07:59 21.01.2020
426 Snow 0 988 93 10000 4.1 240 07:40 21.01.2020
427 Snow 0 988 93 10000 4.1 240 07:40 21.01.2020
428 Snow 0 988 93 10000 3.1 250 07:21 21.01.2020
429 Snow 0 988 93 10000 3.6 250 06:49 21.01.2020
430 Snow 0 988 93 10000 2.6 0 06:26 21.01.2020
431 Snow 0 988 93 10000 3.6 290 05:42 21.01.2020
432 Clear 0 988 82 10000 4.1 310 04:39 21.01.2020
433 Clouds 1 987 82 10000 3.6 300 02:56 21.01.2020
434 Clouds 1 987 100 10000 4.1 280 01:53 21.01.2020
435 Clouds 1 987 100 10000 4.1 270 01:18 21.01.2020
436 Clouds 1 986 100 10000 4.6 250 00:36 21.01.2020
437 Rain 0 986 89 800 4.6 240 23:58 20.01.2020
438 Rain 0 986 89 650 6.2 230 23:37 20.01.2020
439 Rain 0 986 98 650 6.2 230 23:19 20.01.2020
440 Rain 0 986 98 650 6.2 230 23:19 20.01.2020
441 Rain 0 987 98 700 5.7 230 22:56 20.01.2020
442 Snow 0 987 98 600 6.2 230 22:37 20.01.2020
443 Snow 0 987 98 600 6.2 230 22:18 20.01.2020
444 Snow 0 988 98 650 6.2 220 21:57 20.01.2020
445 Snow 0 989 98 1200 5.7 220 21:36 20.01.2020
446 Snow 0 989 98 1200 5.7 220 21:18 20.01.2020
447 Clouds 0 990 98 2300 6.2 220 20:55 20.01.2020
448 Clouds 0 991 98 3800 7.2 220 20:36 20.01.2020
449 Clouds 0 991 97 3800 7.2 220 20:18 20.01.2020
450 Snow 0 992 97 2600 6.2 220 19:56 20.01.2020
451 Snow 0 993 97 3700 6.7 220 19:37 20.01.2020
452 Snow 0 993 97 3700 6.7 220 19:18 20.01.2020
453 Rain 0 994 97 10000 6.2 220 18:42 20.01.2020
454 Clouds 0 995 97 10000 6.2 230 18:21 20.01.2020
455 Mist 0 996 97 4900 7.2 220 17:39 20.01.2020
456 Clouds 0 997 90 9000 8.2 220 17:19 20.01.2020
457 Clouds 0 997 90 10000 5.1 220 16:58 20.01.2020
458 Clouds -1 998 100 10000 6.7 220 16:37 20.01.2020
459 Clouds -1 998 100 10000 6.7 220 16:18 20.01.2020
460 Clouds -1 998 100 10000 6.7 220 16:18 20.01.2020
461 Clouds -1 998 100 10000 5.7 230 15:41 20.01.2020
462 Clouds -1 999 100 10000 6.7 230 15:22 20.01.2020
463 Clouds -1 999 100 10000 5.7 220 14:59 20.01.2020
464 Clouds -1 999 100 10000 5.7 220 14:41 20.01.2020
465 Clouds -1 999 100 10000 5.1 220 14:21 20.01.2020
466 Mist -1 1000 100 2500 4.1 220 13:57 20.01.2020
467 Mist -1 1000 100 2500 4.1 220 13:38 20.01.2020
468 Clouds -1 1000 100 10000 5.1 230 13:20 20.01.2020
469 Clouds -1 1000 100 10000 4.6 230 12:44 20.01.2020
470 Clouds -1 1000 100 8000 5.7 230 12:25 20.01.2020
471 Clouds -1 1000 100 8000 5.7 230 12:25 20.01.2020
472 Clouds -1 1000 100 10000 6.2 230 11:56 20.01.2020
473 Clouds -1 1000 100 6000 6.2 230 11:37 20.01.2020
474 Clouds -1 1000 100 6000 6.2 230 11:18 20.01.2020
475 Fog -1 1001 100 400 8.2 220 10:46 20.01.2020
476 Fog -1 1001 92 400 6.2 220 10:21 20.01.2020
477 Snow -2 1002 100 5000 5.7 200 09:42 20.01.2020
478 Snow -3 1002 100 2000 5.1 190 09:24 20.01.2020
479 Snow -3 1003 92 1200 6.2 190 08:56 20.01.2020
480 Snow -4 1004 100 1800 5.7 190 08:34 20.01.2020
481 Snow -4 1005 92 1500 6.7 200 07:59 20.01.2020
482 Snow -4 1005 92 1500 6.7 200 07:41 20.01.2020
483 Mist -4 1006 92 1500 7.2 200 07:21 20.01.2020
484 Mist -5 1006 100 1500 7.2 200 06:44 20.01.2020
485 Snow -5 1007 92 6000 6.2 200 06:22 20.01.2020
486 Snow -6 1008 100 3600 5.7 200 05:38 20.01.2020
487 Clouds -6 1009 92 4000 6.7 200 05:19 20.01.2020
488 Clouds -7 1011 92 6000 8.7 220 04:23 20.01.2020
489 Clouds -7 1014 92 5000 3.6 220 01:59 20.01.2020
490 Clouds -7 1014 92 5000 3.6 220 01:40 20.01.2020
491 Clouds -7 1014 92 6000 4.1 220 01:18 20.01.2020
492 Clouds -7 1014 92 7000 4.1 210 00:42 20.01.2020
493 Clouds -7 1014 92 10000 3.6 230 00:20 20.01.2020
494 Clouds -8 1015 92 10000 2.1 250 23:38 19.01.2020
495 Clouds -8 1015 92 10000 2.1 250 23:19 19.01.2020
496 Snow -8 1015 92 2500 1 230 22:56 19.01.2020
497 Clouds -8 1014 92 10000 0.5 0 22:37 19.01.2020
498 Clouds -8 1014 92 10000 0.5 0 22:19 19.01.2020
499 Clouds -8 1015 92 10000 0.5 0 21:56 19.01.2020
500 Clouds -8 1016 92 10000 1.5 280 21:38 19.01.2020
501 Clouds -8 1016 92 10000 1.5 280 21:19 19.01.2020
502 Clouds -8 1015 92 10000 2.1 330 20:56 19.01.2020
503 Clouds -7 1015 92 10000 2.6 320 20:38 19.01.2020
504 Clouds -7 1015 92 10000 2.6 320 20:19 19.01.2020
505 Clouds -7 1016 92 10000 3.1 300 19:55 19.01.2020
506 Clouds -7 1015 92 10000 2.6 290 19:37 19.01.2020
507 Clouds -7 1015 92 10000 2.6 290 19:19 19.01.2020
508 Clouds -7 1013 92 10000 2.1 40 18:55 19.01.2020
509 Clouds -8 1014 92 10000 2.1 360 18:37 19.01.2020
510 Clouds -8 1014 92 10000 2.1 360 18:19 19.01.2020
511 Clouds -8 1014 92 10000 2.1 360 18:19 19.01.2020
512 Clouds -8 1014 92 10000 2.6 360 17:57 19.01.2020
513 Clouds -8 1014 92 10000 2.6 360 17:38 19.01.2020
514 Clouds -7 1014 92 10000 2.6 350 17:19 19.01.2020
515 Clouds -6 1014 92 10000 2.6 350 16:57 19.01.2020
516 Clouds -6 1014 92 10000 3.1 350 16:37 19.01.2020
517 Clouds -6 1014 92 10000 3.1 350 16:19 19.01.2020
518 Clouds -6 1013 92 10000 3.1 350 15:55 19.01.2020
519 Clouds -6 1013 92 10000 3.1 360 15:37 19.01.2020
520 Clouds -6 1013 92 10000 3.1 360 15:18 19.01.2020
521 Clouds -6 1012 92 10000 3.6 10 14:41 19.01.2020
522 Clouds -6 1012 92 10000 3.6 10 14:41 19.01.2020
523 Clouds -6 1011 92 10000 3.1 10 14:21 19.01.2020
524 Snow -7 1010 92 10000 4.1 50 13:59 19.01.2020
525 Snow -7 1010 92 10000 4.1 50 13:40 19.01.2020
526 Snow -6 1010 85 10000 4.6 40 13:22 19.01.2020
527 Snow -6 1010 85 10000 4.6 40 13:22 19.01.2020
528 Snow -6 1010 92 5000 4.6 30 12:59 19.01.2020
529 Snow -6 1010 92 5000 4.6 30 12:41 19.01.2020
530 Snow -5 1009 92 8000 5.1 40 12:21 19.01.2020
531 Snow -5 1009 92 9000 4.6 40 11:57 19.01.2020
532 Snow -5 1008 92 6000 4.6 40 11:38 19.01.2020
533 Snow -5 1008 92 6000 4.6 40 11:18 19.01.2020
534 Snow -5 1008 92 5000 4.6 40 10:40 19.01.2020
535 Snow -5 1007 92 5000 4.6 40 10:21 19.01.2020
536 Snow -5 1007 92 4700 5.7 50 09:57 19.01.2020
537 Snow -5 1006 92 4600 6.2 60 09:38 19.01.2020
538 Snow -5 1006 92 4600 6.2 60 09:20 19.01.2020
539 Snow -5 1006 92 6000 6.2 60 08:55 19.01.2020
540 Snow -5 1005 92 5000 6.2 60 08:33 19.01.2020
541 Snow -5 1005 100 4000 6.2 60 07:55 19.01.2020
542 Snow -4 1004 92 4700 6.2 60 07:29 19.01.2020
543 Snow -4 1004 92 4200 6.7 60 06:55 19.01.2020
544 Snow -4 1003 92 3900 6.2 70 06:22 19.01.2020
545 Snow -5 1003 100 2800 6.2 70 03:58 19.01.2020
546 Snow -5 1002 100 2800 6.2 60 02:34 19.01.2020
547 Snow -5 1002 100 3000 5.7 70 01:42 19.01.2020
548 Snow -5 1002 100 2600 6.2 70 01:20 19.01.2020
549 Snow -5 1002 100 3700 6.2 70 00:44 19.01.2020
550 Snow -5 1002 92 3500 6.2 70 00:21 19.01.2020
551 Snow -5 1002 92 3500 6.2 70 23:47 18.01.2020
552 Snow -5 1002 92 3200 6.2 70 23:25 18.01.2020
553 Snow -5 1002 92 3500 6.2 70 22:59 18.01.2020
554 Snow -5 1002 92 3500 6.2 70 22:41 18.01.2020
555 Snow -5 1002 92 3500 6.2 70 22:21 18.01.2020
556 Snow -5 1002 92 3500 6.2 70 21:58 18.01.2020
557 Snow -5 1002 92 3500 6.2 70 21:38 18.01.2020
558 Snow -5 1002 92 3300 6.7 80 21:20 18.01.2020
559 Snow -5 1002 92 3400 6.7 80 20:55 18.01.2020
560 Snow -5 1002 92 3100 6.2 80 20:36 18.01.2020
561 Snow -5 1002 92 3100 6.2 80 20:18 18.01.2020
562 Snow -5 1002 92 3100 6.2 80 20:18 18.01.2020
563 Snow -5 1002 92 2500 6.7 80 19:42 18.01.2020
564 Snow -5 1003 92 2600 6.7 80 19:24 18.01.2020
565 Snow -6 1003 100 3000 6.7 80 18:43 18.01.2020
566 Snow -6 1003 92 2900 7.2 70 18:24 18.01.2020
567 Snow -6 1003 92 3500 7.2 70 17:57 18.01.2020
568 Snow -6 1003 92 3500 7.2 70 17:39 18.01.2020
569 Snow -6 1003 92 2800 6.7 70 17:20 18.01.2020
570 Snow -6 1003 92 3400 6.7 70 16:56 18.01.2020
571 Snow -6 1003 92 4000 6.7 70 16:37 18.01.2020
572 Snow -6 1003 92 4000 6.7 70 16:19 18.01.2020
573 Snow -6 1003 92 5000 6.7 70 15:43 18.01.2020
574 Snow -6 1003 92 3900 6.2 70 15:24 18.01.2020
575 Snow -6 1004 92 4500 6.2 70 14:58 18.01.2020
576 Snow -6 1004 92 3300 6.2 70 14:39 18.01.2020
577 Snow -6 1004 92 3300 6.2 70 14:18 18.01.2020
578 Snow -6 1004 92 2600 6.2 70 13:45 18.01.2020
579 Snow -6 1004 92 2600 6.2 70 13:27 18.01.2020
580 Snow -6 1005 92 2100 6.2 70 12:59 18.01.2020
581 Snow -6 1005 92 2100 6.2 70 12:40 18.01.2020
582 Snow -6 1005 92 2500 5.7 70 12:20 18.01.2020
583 Snow -6 1005 92 3600 5.7 70 11:44 18.01.2020
584 Snow -6 1005 92 3200 5.7 70 11:22 18.01.2020
585 Snow -6 1006 92 2600 6.2 70 10:57 18.01.2020
586 Snow -6 1006 92 2600 6.2 70 10:38 18.01.2020
587 Snow -7 1006 92 3300 6.7 70 10:20 18.01.2020
588 Snow -7 1006 92 6000 6.7 80 09:48 18.01.2020
589 Snow -7 1006 92 4700 6.7 70 09:30 18.01.2020
590 Snow -7 1006 92 4800 6.7 70 08:56 18.01.2020
591 Snow -7 1006 92 3900 6.7 70 08:38 18.01.2020
592 Snow -7 1006 92 3900 6.7 70 08:19 18.01.2020
593 Snow -7 1006 92 4200 6.2 70 07:47 18.01.2020
594 Snow -8 1007 92 6000 6.2 70 07:29 18.01.2020
595 Snow -8 1007 92 9000 6.2 70 06:47 18.01.2020
596 Snow -8 1007 85 9000 5.7 70 05:59 18.01.2020
597 Snow -9 1008 92 4900 6.2 80 05:21 18.01.2020
598 Snow -10 1009 92 6000 6.2 70 02:55 18.01.2020
599 Clouds -9 1010 85 10000 5.7 80 01:52 18.01.2020
600 Clouds -10 1010 92 10000 5.7 80 01:29 18.01.2020
601 Clouds -10 1011 85 10000 6.7 80 00:36 18.01.2020
602 Clouds -10 1011 85 10000 6.7 80 00:18 18.01.2020
603 Clouds -10 1011 85 10000 7.2 80 23:41 17.01.2020
604 Clouds -10 1011 92 10000 6.7 80 23:19 17.01.2020
605 Clouds -10 1011 85 10000 6.2 70 22:44 17.01.2020
606 Clouds -11 1011 92 10000 6.2 70 22:21 17.01.2020
607 Clouds -11 1011 92 10000 6.2 70 21:58 17.01.2020
608 Clouds -11 1011 92 10000 6.2 70 21:40 17.01.2020
609 Clouds -11 1011 92 10000 5.7 70 21:22 17.01.2020
610 Clouds -11 1011 92 10000 5.7 70 20:57 17.01.2020
611 Clouds -11 1012 92 10000 5.1 60 20:37 17.01.2020
612 Clouds -11 1012 92 10000 5.1 60 20:19 17.01.2020
613 Clouds -11 1012 92 10000 5.1 70 19:54 17.01.2020
614 Clouds -11 1012 92 10000 4.6 70 19:36 17.01.2020
615 Clouds -11 1012 92 10000 4.6 70 19:18 17.01.2020
616 Clouds -11 1012 92 10000 4.6 70 19:18 17.01.2020
617 Clouds -11 1011 92 10000 4.1 80 18:44 17.01.2020
618 Clouds -11 1011 92 10000 5.7 60 18:26 17.01.2020
619 Clouds -11 1011 92 10000 5.7 60 17:56 17.01.2020
620 Clouds -11 1011 85 10000 4.1 60 17:38 17.01.2020
621 Clouds -11 1011 85 10000 4.1 60 17:20 17.01.2020
622 Clouds -12 1010 92 10000 5.7 50 16:42 17.01.2020
623 Clouds -12 1011 85 10000 4.1 50 16:20 17.01.2020
624 Clouds -11 1010 85 10000 2.6 50 15:48 17.01.2020
625 Clouds -12 1010 85 10000 4.6 40 15:28 17.01.2020
626 Clouds -13 1010 92 10000 3.1 30 14:56 17.01.2020
627 Clouds -13 1010 92 10000 3.1 30 14:38 17.01.2020
628 Clouds -12 1009 85 10000 3.6 10 14:20 17.01.2020
629 Clouds -11 1009 85 10000 4.6 350 13:39 17.01.2020
630 Clouds -11 1009 85 10000 4.6 350 13:21 17.01.2020
631 Clouds -11 1009 85 10000 4.6 350 13:21 17.01.2020
632 Clouds -11 1008 92 10000 4.1 340 12:45 17.01.2020
633 Clouds -11 1008 92 10000 4.1 340 12:23 17.01.2020
634 Clouds -10 1007 85 10000 2.6 320 11:41 17.01.2020
635 Clouds -10 1007 85 10000 2.6 320 11:19 17.01.2020
636 Clouds -10 1006 92 10000 3.1 340 10:54 17.01.2020
637 Clouds -10 1006 92 10000 3.1 340 10:54 17.01.2020
638 Clouds -10 1006 92 10000 2.6 330 10:36 17.01.2020
639 Clouds -10 1006 92 10000 2.6 330 10:18 17.01.2020
640 Clouds -10 1006 92 10000 1.5 280 09:41 17.01.2020
641 Clouds -10 1005 92 10000 2.1 310 09:20 17.01.2020
642 Clouds -10 1004 92 10000 2.6 330 08:55 17.01.2020
643 Clouds -10 1004 92 10000 2.1 320 08:36 17.01.2020
644 Clouds -10 1004 92 10000 2.1 320 08:18 17.01.2020
645 Clouds -10 1004 92 10000 3.1 310 07:42 17.01.2020
646 Clouds -9 1003 92 10000 2.6 300 07:24 17.01.2020
647 Clouds -8 1003 92 10000 3.1 300 06:43 17.01.2020
648 Clouds -7 1002 92 10000 3.6 310 06:20 17.01.2020
649 Clouds -4 1001 92 10000 3.1 290 04:25 17.01.2020
650 Clouds -3 1002 97 0 1.85 252 02:55 17.01.2020
651 Clouds -3 1002 97 0 1.85 252 02:30 17.01.2020
652 Snow -4 1002 96 0 2.42 204 01:32 17.01.2020
653 Snow -5 1003 95 0 2.67 195 00:58 17.01.2020
654 Snow -5 1003 95 0 2.67 195 00:29 17.01.2020
655 Snow -7 1001 100 10000 1 0 23:54 16.01.2020
656 Snow -7 1001 100 10000 1 0 23:54 16.01.2020
657 Snow -7 1001 100 10000 1 0 23:36 16.01.2020
658 Snow -7 1001 100 10000 1 0 23:18 16.01.2020
659 Snow -7 1001 100 2300 2.6 210 22:40 16.01.2020
660 Snow -7 1001 100 2300 2.6 210 22:21 16.01.2020
661 Snow -7 1001 92 4600 2.6 210 21:56 16.01.2020
662 Snow -7 1001 92 1500 3.1 200 21:37 16.01.2020
663 Snow -7 1001 92 1500 3.1 200 21:18 16.01.2020
664 Snow -7 1001 92 10000 3.1 190 20:56 16.01.2020
665 Snow -8 1001 92 2900 3.1 160 20:37 16.01.2020
666 Snow -8 1001 92 2900 3.1 160 20:18 16.01.2020
667 Snow -8 1001 92 2600 2.1 140 19:41 16.01.2020
668 Fog -9 1001 92 1200 3.1 120 19:23 16.01.2020
669 Fog -9 1001 92 900 2.6 120 18:58 16.01.2020
670 Fog -10 1001 92 500 2.1 90 18:40 16.01.2020
671 Fog -10 1001 92 500 2.1 90 18:21 16.01.2020
672 Fog -10 1001 92 600 2.6 80 17:59 16.01.2020
673 Fog -10 1001 92 600 2.6 80 17:41 16.01.2020
674 Fog -10 1001 92 800 3.1 90 17:21 16.01.2020
675 Fog -10 1001 85 750 2.6 70 16:56 16.01.2020
676 Snow -11 1001 92 1300 1.5 90 16:36 16.01.2020
677 Snow -11 1001 92 1300 1.5 90 16:18 16.01.2020
678 Fog -11 1001 92 800 2.1 100 15:42 16.01.2020
679 Clouds -11 1001 92 1700 3.1 110 15:21 16.01.2020
680 Clouds -11 1001 92 10000 2.6 110 14:45 16.01.2020
681 Clouds -11 1001 92 10000 2.1 90 14:24 16.01.2020
682 Clouds -10 1000 85 10000 2.6 90 13:57 16.01.2020
683 Clouds -10 1000 85 10000 2.6 90 13:39 16.01.2020
684 Clouds -10 1000 92 10000 3.1 100 13:21 16.01.2020
685 Clouds -10 999 92 10000 4.1 90 12:43 16.01.2020
686 Clouds -10 999 92 10000 5.1 80 12:25 16.01.2020
687 Clouds -10 999 92 8000 4.6 70 11:54 16.01.2020
688 Clouds -10 998 92 10000 4.1 80 11:36 16.01.2020
689 Clouds -10 998 92 10000 4.1 80 11:18 16.01.2020
690 Clouds -10 997 92 10000 5.1 70 10:38 16.01.2020
691 Clouds -10 997 92 10000 5.1 70 10:20 16.01.2020
692 Clouds -10 997 92 10000 4.6 60 09:56 16.01.2020
693 Clouds -10 997 92 10000 4.1 60 09:37 16.01.2020
694 Clouds -10 997 92 10000 4.1 60 09:19 16.01.2020
695 Clouds -10 996 92 10000 3.6 70 08:48 16.01.2020
696 Clouds -10 996 92 10000 3.1 50 08:29 16.01.2020
697 Clouds -10 996 92 10000 3.1 50 07:44 16.01.2020
698 Clouds -10 995 92 10000 2.1 40 07:25 16.01.2020
699 Clouds -10 995 92 10000 2.1 30 06:59 16.01.2020
700 Clouds -10 995 92 10000 2.6 50 06:37 16.01.2020
701 Clouds -10 994 92 10000 2.6 40 05:58 16.01.2020
702 Clouds -10 994 92 10000 3.1 50 05:39 16.01.2020
703 Snow -10 993 92 5000 2.6 50 04:37 16.01.2020
704 Snow -10 993 92 5000 2.6 50 04:37 16.01.2020
705 Clouds -10 992 85 10000 3.6 30 03:28 16.01.2020
706 Clouds -8 991 92 10000 2.6 10 02:36 16.01.2020
707 Clouds -6 990 92 4700 3.6 340 00:48 16.01.2020
708 Clouds -5 989 92 7000 2.6 340 00:24 16.01.2020
709 Clouds -5 989 92 10000 3.1 330 23:48 15.01.2020
710 Clouds -4 988 92 10000 3.1 340 23:22 15.01.2020
711 Clouds -4 988 92 10000 2.6 340 22:57 15.01.2020
712 Clouds -4 988 92 10000 2.6 340 22:39 15.01.2020
713 Snow -3 987 92 10000 2.6 320 22:19 15.01.2020
714 Snow -3 987 92 2400 2.1 310 21:57 15.01.2020
715 Snow -3 986 92 10000 1.5 310 21:37 15.01.2020
716 Snow -3 986 92 10000 1.5 310 21:19 15.01.2020
717 Snow -3 985 100 5000 1.5 320 20:56 15.01.2020
718 Snow -3 985 100 5000 1.5 320 20:38 15.01.2020
719 Snow -3 985 100 9000 2.1 340 20:19 15.01.2020
720 Snow -3 984 100 10000 3.1 340 19:54 15.01.2020
721 Snow -3 984 100 10000 2.6 340 19:36 15.01.2020
722 Snow -3 984 100 10000 2.6 340 19:18 15.01.2020
723 Snow -2 984 92 3800 1.5 350 18:56 15.01.2020
724 Snow -2 983 100 6000 1.5 230 18:37 15.01.2020
725 Snow -2 983 100 6000 1.5 230 18:19 15.01.2020
726 Mist -2 983 100 4300 1.5 260 17:55 15.01.2020
727 Mist -2 983 100 4300 1.5 250 17:36 15.01.2020
728 Mist -2 983 100 4300 1.5 250 17:18 15.01.2020
729 Fog -2 983 100 1800 2.1 270 16:40 15.01.2020
730 Fog -2 982 100 1800 2.1 250 16:21 15.01.2020
731 Mist -1 982 92 3900 3.1 230 15:56 15.01.2020
732 Mist -1 982 92 3900 3.1 230 15:38 15.01.2020
733 Fog -1 982 92 1300 3.1 230 15:18 15.01.2020
734 Clouds -1 982 92 5000 3.6 230 14:42 15.01.2020
735 Clouds -1 982 92 9000 5.1 210 14:20 15.01.2020
736 Mist -1 982 100 1000 3.1 210 13:46 15.01.2020
737 Mist -1 982 92 5000 3.1 200 13:26 15.01.2020
738 Clouds -1 982 92 7000 3.6 230 12:59 15.01.2020
739 Fog -1 982 100 9000 3.6 220 12:39 15.01.2020
740 Fog -1 982 100 9000 3.6 220 12:19 15.01.2020
741 Fog -1 982 100 9000 3.6 220 12:19 15.01.2020
742 Clouds -1 982 100 10000 4.1 230 11:56 15.01.2020
743 Clouds -1 982 100 10000 4.1 220 11:37 15.01.2020
744 Clouds -1 982 100 10000 4.1 220 11:19 15.01.2020
745 Clouds -1 982 100 10000 4.1 220 11:19 15.01.2020
746 Clouds -1 982 100 10000 3.6 230 10:43 15.01.2020
747 Clouds -1 982 100 10000 3.6 230 10:25 15.01.2020
748 Clouds -1 982 100 10000 4.6 230 09:44 15.01.2020
749 Clouds -1 982 100 10000 5.7 220 09:23 15.01.2020
750 Clouds -1 982 100 10000 5.1 220 08:56 15.01.2020
751 Clouds -1 982 100 10000 5.1 220 08:38 15.01.2020
752 Clouds -1 982 100 10000 5.1 220 08:19 15.01.2020
753 Clouds -1 981 100 10000 4.6 230 07:51 15.01.2020
754 Clouds -1 981 100 10000 5.1 230 07:31 15.01.2020
755 Clouds 0 981 94 10000 6.2 230 06:45 15.01.2020
756 Clouds 0 981 94 10000 6.7 220 06:19 15.01.2020
757 Snow 0 980 94 10000 5.7 220 04:36 15.01.2020
758 Snow 0 981 94 7000 6.7 220 02:32 15.01.2020
759 Snow 0 981 97 1900 6.7 220 01:27 15.01.2020
760 Snow 0 980 98 5000 7.7 210 00:45 15.01.2020
761 Snow 0 980 98 10000 7.2 210 00:26 15.01.2020
762 Snow 0 980 98 4400 7.7 200 23:48 14.01.2020
763 Snow 0 981 98 4000 7.2 200 23:29 14.01.2020
764 Snow 0 981 98 3300 5.7 190 22:59 14.01.2020
765 Snow 0 981 98 3300 5.7 190 22:40 14.01.2020
766 Clouds 0 982 98 3600 5.7 170 22:19 14.01.2020
767 Snow -1 982 100 3800 6.2 160 21:58 14.01.2020
768 Snow -1 983 100 3800 6.7 150 21:39 14.01.2020
769 Snow -1 983 100 3800 6.7 150 21:20 14.01.2020
770 Snow -1 983 100 3300 7.2 150 20:56 14.01.2020
771 Snow -1 983 100 3300 7.2 150 20:38 14.01.2020
772 Snow -1 985 100 2900 6.2 150 20:19 14.01.2020
773 Snow -1 985 100 2900 6.2 150 19:55 14.01.2020
774 Snow -1 986 100 4100 6.2 150 19:37 14.01.2020
775 Snow -1 986 100 4100 6.2 150 19:18 14.01.2020
776 Snow -1 987 100 4400 6.2 160 18:41 14.01.2020
777 Snow -1 989 100 10000 6.2 170 18:20 14.01.2020
778 Snow -1 989 100 10000 6.2 170 17:58 14.01.2020
779 Snow -1 990 100 10000 6.2 180 17:37 14.01.2020
780 Snow -1 990 100 10000 6.2 180 17:18 14.01.2020
781 Snow -1 990 100 10000 7.2 190 16:44 14.01.2020
782 Snow 0 991 95 6000 6.7 180 16:23 14.01.2020
783 Clouds 0 991 95 5000 6.2 190 15:58 14.01.2020
784 Clouds 0 991 95 5000 6.2 190 15:40 14.01.2020
785 Clouds 0 991 95 9000 7.7 200 15:19 14.01.2020
786 Clouds -1 992 100 10000 7.7 210 14:44 14.01.2020
787 Clouds -1 992 100 10000 6.2 200 14:21 14.01.2020
788 Clouds -1 992 92 10000 6.7 190 13:57 14.01.2020
789 Clouds -1 992 92 10000 6.7 190 13:38 14.01.2020
790 Clouds -2 992 92 10000 5.7 180 13:18 14.01.2020
791 Clouds -2 992 92 10000 5.7 180 13:18 14.01.2020
792 Clouds -3 993 100 10000 5.7 190 12:42 14.01.2020
793 Clouds -4 993 100 7000 4.6 180 12:21 14.01.2020
794 Fog -5 993 92 10000 5.1 160 11:55 14.01.2020
795 Clouds -6 993 92 10000 2.6 140 11:36 14.01.2020
796 Clouds -6 993 92 10000 2.6 140 11:18 14.01.2020
797 Clouds -5 993 92 10000 2.6 150 10:40 14.01.2020
798 Clouds -5 994 92 10000 3.6 190 10:20 14.01.2020
799 Clouds -5 993 92 10000 2.1 180 09:58 14.01.2020
800 Clouds -5 993 92 10000 2.1 180 09:40 14.01.2020
801 Clouds -6 993 100 10000 2.1 190 09:21 14.01.2020
802 Clouds -6 992 92 10000 2.1 240 08:48 14.01.2020
803 Clouds -6 993 92 10000 3.1 230 08:25 14.01.2020
804 Clouds -6 992 92 10000 2.6 210 07:56 14.01.2020
805 Clouds -6 992 92 10000 3.1 220 07:33 14.01.2020
806 Clouds -6 992 92 10000 3.6 230 06:56 14.01.2020
807 Clouds -6 992 92 10000 4.6 220 06:33 14.01.2020
808 Clouds -6 992 92 10000 4.1 220 05:27 14.01.2020
809 Clouds -6 991 92 10000 4.1 220 03:52 14.01.2020
810 Clouds -7 990 100 10000 4.1 220 02:43 14.01.2020
811 Clear -6 990 92 10000 3.6 220 01:53 14.01.2020
812 Clouds -5 989 92 10000 3.6 230 00:51 14.01.2020
813 Clouds -5 989 92 10000 3.1 240 00:32 14.01.2020
814 Clouds -5 989 92 10000 3.1 240 00:32 14.01.2020
815 Clouds -5 989 92 10000 3.1 240 00:32 14.01.2020
816 Clouds -4 988 92 10000 3.1 240 23:55 13.01.2020
817 Clouds -4 988 92 10000 2.6 230 23:37 13.01.2020
818 Clouds -4 988 92 10000 2.6 230 23:18 13.01.2020
819 Clouds -4 988 92 10000 2.6 230 23:18 13.01.2020
820 Clouds -4 988 92 10000 4.1 230 22:42 13.01.2020
821 Clouds -4 988 100 10000 4.6 230 22:21 13.01.2020
822 Clouds -4 987 100 10000 4.1 230 21:56 13.01.2020
823 Clouds -4 987 100 10000 5.7 220 21:38 13.01.2020
824 Clouds -4 987 100 10000 5.7 220 21:19 13.01.2020
825 Clouds -3 987 92 10000 6.7 220 20:58 13.01.2020
826 Clouds -3 987 92 10000 6.7 220 20:40 13.01.2020
827 Clouds -4 988 100 10000 6.2 220 20:22 13.01.2020
828 Clouds -3 988 92 10000 5.7 220 19:58 13.01.2020
829 Clouds -4 988 100 10000 6.7 220 19:39 13.01.2020
830 Clouds -4 988 100 10000 6.7 220 19:19 13.01.2020
831 Clouds -4 988 92 10000 7.2 220 18:56 13.01.2020
832 Clouds -5 988 100 10000 6.2 220 18:37 13.01.2020
833 Clouds -5 988 100 10000 6.2 220 18:37 13.01.2020
834 Clouds -5 988 100 10000 6.2 220 18:18 13.01.2020
835 Clouds -5 988 92 10000 5.7 220 17:40 13.01.2020
836 Clouds -6 989 92 10000 5.7 220 17:40 13.01.2020
837 Clouds -6 989 92 10000 5.7 220 17:22 13.01.2020
838 Snow -6 989 92 10000 5.1 220 16:56 13.01.2020
839 Clouds -5 991 93 0 3.96 209 16:37 13.01.2020
840 Clouds -5 991 93 0 3.96 209 16:19 13.01.2020
841 Clouds -5 991 93 0 3.96 209 15:43 13.01.2020
842 Clouds -5 991 93 0 3.96 209 15:22 13.01.2020
843 Clouds -5 991 93 0 3.96 209 14:57 13.01.2020
844 Clouds -5 991 93 0 3.96 209 14:37 13.01.2020
845 Clouds -6 992 93 0 3.9 217 14:18 13.01.2020
846 Clouds -6 992 93 0 3.9 217 13:41 13.01.2020
847 Clouds -6 992 93 0 3.9 217 13:23 13.01.2020
848 Clouds -6 992 94 0 3.47 215 12:58 13.01.2020
849 Clouds -7 989 92 6000 4.6 220 12:40 13.01.2020
850 Clouds -7 989 92 6000 4.6 220 12:40 13.01.2020
851 Clouds -7 989 92 6000 4.6 220 12:21 13.01.2020
852 Clouds -7 989 92 6000 4.6 220 11:56 13.01.2020
853 Clouds -7 989 92 5000 3.6 210 11:36 13.01.2020
854 Clouds -7 989 92 5000 3.6 210 11:18 13.01.2020
855 Fog -7 989 92 700 4.1 230 10:55 13.01.2020
856 Mist -7 989 92 1000 4.1 210 10:36 13.01.2020
857 Mist -7 989 92 1000 4.1 210 10:18 13.01.2020
858 Fog -8 988 92 400 3.1 230 09:40 13.01.2020
859 Fog -8 988 92 400 3.1 230 09:22 13.01.2020
860 Mist -8 988 92 2000 2.6 220 08:42 13.01.2020
861 Fog -8 988 92 1400 3.6 230 08:21 13.01.2020
862 Mist -8 988 92 2000 4.1 230 07:57 13.01.2020
863 Mist -8 988 92 1400 4.1 220 07:38 13.01.2020
864 Clouds -8 988 92 10000 4.1 220 06:55 13.01.2020
865 Clouds -8 988 85 10000 3.6 220 06:36 13.01.2020
866 Clouds -9 988 92 10000 2.6 220 05:36 13.01.2020
867 Clear -9 988 92 10000 3.1 240 04:25 13.01.2020
868 Clear -8 988 92 10000 2.6 230 03:31 13.01.2020
869 Clear -9 988 92 10000 3.6 230 02:47 13.01.2020
870 Clear -9 987 92 10000 2.1 230 02:29 13.01.2020
871 Clouds -8 987 85 10000 3.6 230 01:23 13.01.2020
872 Clouds -8 987 92 10000 2.6 230 00:42 13.01.2020
873 Clouds -8 987 92 10000 2.6 230 00:24 13.01.2020
874 Clouds -7 987 92 10000 3.1 240 23:55 12.01.2020
875 Clouds -8 986 92 10000 2.6 230 23:36 12.01.2020
876 Clouds -8 986 92 10000 2.6 230 23:18 12.01.2020
877 Clouds -8 986 92 10000 2.6 230 23:18 12.01.2020
878 Clouds -7 986 92 10000 2.6 230 22:42 12.01.2020
879 Clouds -7 986 92 10000 2.6 230 22:24 12.01.2020
880 Clouds -5 986 92 10000 2.6 230 21:57 12.01.2020
881 Clouds -5 986 92 10000 2.6 230 21:38 12.01.2020
882 Clouds -5 985 92 10000 3.1 240 21:19 12.01.2020
883 Clouds -5 985 92 10000 3.1 250 20:56 12.01.2020
884 Clouds -5 984 92 10000 4.1 230 20:38 12.01.2020
885 Clouds -5 984 92 10000 4.1 230 20:20 12.01.2020
886 Clouds -5 984 92 10000 4.1 230 19:56 12.01.2020
887 Clouds -5 984 92 10000 3.6 230 19:37 12.01.2020
888 Clouds -5 984 92 10000 3.6 230 19:18 12.01.2020
889 Clouds -5 983 92 10000 3.1 240 18:57 12.01.2020
890 Clouds -5 983 92 10000 3.1 240 18:57 12.01.2020
891 Clouds -5 983 92 10000 3.1 240 18:39 12.01.2020
892 Clouds -3 983 92 10000 3.1 260 18:21 12.01.2020
893 Clouds -3 983 92 10000 3.1 260 17:54 12.01.2020
894 Clouds -2 982 92 10000 3.6 280 17:36 12.01.2020
895 Clouds -2 982 92 10000 3.6 280 17:18 12.01.2020
896 Clouds -2 982 92 10000 4.1 270 16:54 12.01.2020
897 Clouds -2 982 92 10000 4.1 260 16:36 12.01.2020
898 Clouds -2 982 92 10000 4.1 260 16:18 12.01.2020
899 Snow -1 981 92 3400 4.1 260 15:40 12.01.2020
900 Snow -1 981 92 3400 4.1 260 15:21 12.01.2020
901 Snow -2 981 92 4900 3.6 240 14:44 12.01.2020
902 Snow -3 980 100 2700 4.6 230 14:25 12.01.2020
903 Snow -3 980 100 10000 4.1 240 13:58 12.01.2020
904 Snow -3 979 100 10000 4.1 230 13:40 12.01.2020
905 Snow -3 979 100 10000 4.1 230 13:22 12.01.2020
906 Clouds -3 979 92 10000 4.1 230 12:57 12.01.2020
907 Clouds -3 978 92 10000 3.6 230 12:38 12.01.2020
908 Clouds -3 978 92 10000 3.6 230 12:19 12.01.2020
909 Clouds -4 978 100 10000 1.5 230 11:42 12.01.2020
910 Clouds -3 978 92 10000 3.1 240 11:22 12.01.2020
911 Clouds -3 978 100 10000 5.1 230 10:58 12.01.2020
912 Clouds -3 977 100 10000 4.1 230 10:40 12.01.2020
913 Clouds -3 977 100 10000 4.1 230 10:20 12.01.2020
914 Clouds -3 977 100 10000 3.6 230 09:43 12.01.2020
915 Clouds -2 977 100 10000 4.6 230 09:23 12.01.2020
916 Clouds -2 977 100 10000 3.1 240 08:48 12.01.2020
917 Clouds -2 977 100 10000 4.1 240 08:24 12.01.2020
918 Clouds -2 977 100 10000 5.1 230 07:56 12.01.2020
919 Clouds -2 977 100 10000 3.6 230 07:37 12.01.2020
920 Clouds -2 977 100 10000 3.6 230 07:19 12.01.2020
921 Clouds -1 977 92 10000 3.1 240 06:38 12.01.2020
922 Clouds -1 977 100 10000 3.1 230 05:55 12.01.2020
923 Clouds -1 977 100 10000 4.6 230 04:56 12.01.2020
924 Clouds -1 977 100 10000 6.7 240 03:43 12.01.2020
925 Clouds -1 978 100 10000 5.7 240 02:48 12.01.2020
926 Clouds -1 978 100 10000 5.7 240 02:24 12.01.2020
927 Clouds -1 979 100 10000 6.7 230 01:34 12.01.2020
928 Snow -1 979 100 10000 6.7 220 00:46 12.01.2020
929 Snow -1 979 100 5000 6.7 220 00:22 12.01.2020
930 Snow -1 980 100 3300 7.7 220 23:57 11.01.2020
931 Snow -1 980 100 3300 7.7 220 23:39 11.01.2020
932 Snow -1 980 100 2300 6.7 210 23:18 11.01.2020
933 Snow -1 981 92 4600 7.2 220 22:56 11.01.2020
934 Clouds -2 981 100 10000 7.7 220 22:37 11.01.2020
935 Clouds -2 981 100 10000 7.7 220 22:19 11.01.2020
936 Snow -2 982 100 10000 7.7 210 21:44 11.01.2020
937 Snow -2 983 100 3400 6.7 200 21:19 11.01.2020
938 Snow -2 983 100 1600 6.2 190 20:56 11.01.2020
939 Snow -2 984 100 1200 6.7 190 20:38 11.01.2020
940 Snow -2 984 100 1200 6.7 190 20:19 11.01.2020
941 Snow -2 985 92 1300 5.7 180 19:56 11.01.2020
942 Snow -2 985 92 4100 6.2 160 19:38 11.01.2020
943 Snow -2 985 92 4100 6.2 160 19:20 11.01.2020
944 Clouds -3 986 100 3700 6.7 170 18:55 11.01.2020
945 Clouds -3 988 100 7000 7.7 170 18:36 11.01.2020
946 Clouds -3 988 100 7000 7.7 170 18:18 11.01.2020
947 Clouds -3 989 100 10000 7.2 160 17:56 11.01.2020
948 Clouds -3 990 100 7000 6.7 170 17:37 11.01.2020
949 Clouds -3 990 100 7000 6.7 170 17:18 11.01.2020
950 Clouds -3 990 100 7000 6.7 170 17:18 11.01.2020
951 Snow -3 991 100 6000 6.2 170 16:43 11.01.2020
952 Snow -3 992 92 10000 5.7 160 16:23 11.01.2020
953 Clouds -3 993 92 10000 6.2 160 15:43 11.01.2020
954 Clouds -3 994 92 10000 4.6 150 15:24 11.01.2020
955 Clouds -3 995 92 10000 5.1 150 14:59 11.01.2020
956 Clouds -3 995 92 10000 5.1 150 14:41 11.01.2020
957 Clouds -4 997 100 10000 5.1 150 14:22 11.01.2020
958 Clouds -4 998 92 10000 4.6 160 13:55 11.01.2020
959 Snow -5 999 100 10000 4.6 160 13:37 11.01.2020
960 Snow -5 999 100 10000 4.6 160 13:18 11.01.2020
961 Snow -5 1000 92 10000 3.6 170 12:44 11.01.2020
962 Snow -6 1000 92 10000 3.1 160 12:26 11.01.2020
963 Snow -6 1001 92 10000 3.6 170 11:55 11.01.2020
964 Clouds -7 1001 92 10000 3.1 170 11:37 11.01.2020
965 Clouds -7 1001 92 10000 3.1 170 11:18 11.01.2020
966 Clouds -7 1001 92 10000 3.1 170 11:18 11.01.2020
967 Clouds -7 1001 92 10000 3.1 170 11:18 11.01.2020
968 Clouds -7 1001 100 10000 4.1 170 10:42 11.01.2020
969 Clouds -7 1001 100 10000 4.1 170 10:42 11.01.2020
970 Clouds -7 1002 92 10000 4.1 170 10:23 11.01.2020
971 Clouds -7 1003 100 10000 3.6 180 09:39 11.01.2020
972 Clouds -7 1003 92 10000 3.1 210 09:21 11.01.2020
973 Clouds -7 1003 92 10000 4.1 200 08:43 11.01.2020
974 Clouds -8 1004 100 10000 3.1 200 08:22 11.01.2020
975 Clouds -8 1004 92 10000 3.1 210 07:44 11.01.2020
976 Clouds -9 1004 92 10000 3.1 220 07:26 11.01.2020
977 Snow -9 1005 92 10000 3.6 240 06:55 11.01.2020
978 Clouds -9 1004 92 10000 4.1 220 06:19 11.01.2020
979 Snow -10 1005 92 10000 2.6 210 04:48 11.01.2020
980 Clouds -11 1005 92 3900 2.6 220 04:29 11.01.2020
981 Fog -10 1005 92 650 2.1 220 03:28 11.01.2020
982 Fog -10 1005 92 1800 2.6 230 02:40 11.01.2020
983 Fog -10 1004 92 700 2.6 230 01:44 11.01.2020
984 Clouds -10 1005 92 750 3.6 220 01:20 11.01.2020
985 Fog -9 1004 92 650 2.6 220 00:44 11.01.2020
986 Fog -10 1004 92 750 3.6 230 00:19 11.01.2020
987 Clouds -10 1004 92 550 3.1 220 23:41 10.01.2020
988 Clouds -10 1004 92 1100 2.6 230 23:41 10.01.2020
989 Clouds -10 1004 92 1100 2.6 230 23:22 10.01.2020
990 Fog -9 1004 92 700 3.6 220 22:59 10.01.2020
991 Fog -9 1004 92 700 3.6 220 22:40 10.01.2020
992 Fog -9 1003 92 1100 3.1 240 22:20 10.01.2020
993 Clouds -9 1003 92 750 2.6 230 21:57 10.01.2020
994 Fog -8 1003 92 400 2.6 180 21:37 10.01.2020
995 Fog -8 1003 92 400 2.6 180 21:19 10.01.2020
996 Fog -8 1003 92 450 2.6 220 20:43 10.01.2020
997 Fog -8 1003 100 500 2.6 210 20:24 10.01.2020
998 Fog -8 1003 100 500 2.6 210 20:24 10.01.2020
999 Clouds -8 1003 92 10000 2.6 240 19:59 10.01.2020
1000 Clouds -8 1003 92 10000 2.6 230 19:38 10.01.2020
1001 Clouds -8 1003 92 10000 2.6 230 19:19 10.01.2020
1002 Clouds -7 1003 92 10000 3.1 250 18:43 10.01.2020
1003 Clouds -7 1003 92 10000 3.6 240 18:19 10.01.2020
1004 Clouds -8 1003 100 10000 2.1 220 17:58 10.01.2020
1005 Clouds -6 1002 92 10000 3.1 260 17:39 10.01.2020
1006 Clouds -6 1002 92 10000 3.1 260 17:20 10.01.2020
1007 Clouds -7 1002 92 10000 3.6 260 16:58 10.01.2020
1008 Clouds -9 1002 92 10000 3.1 240 16:39 10.01.2020
1009 Clouds -9 1002 92 10000 3.1 240 16:20 10.01.2020
1010 Clouds -8 1002 100 10000 3.6 260 15:56 10.01.2020
1011 Clouds -8 1002 100 10000 4.1 250 15:37 10.01.2020
1012 Clouds -8 1002 100 10000 4.1 250 15:18 10.01.2020
1013 Clouds -8 1001 92 10000 4.1 250 14:55 10.01.2020
1014 Clouds -8 1001 100 10000 3.1 250 14:37 10.01.2020
1015 Clouds -8 1001 100 10000 3.1 250 14:18 10.01.2020
1016 Clouds -7 1001 92 10000 2.6 260 13:44 10.01.2020
1017 Clouds -8 1001 92 10000 3.6 250 13:25 10.01.2020
1018 Clear -7 1001 92 10000 3.1 250 12:58 10.01.2020
1019 Clear -7 1001 92 10000 3.1 250 12:39 10.01.2020
1020 Clear -7 1001 92 10000 1.5 220 12:19 10.01.2020
1021 Clear -7 1000 85 10000 3.1 230 11:55 10.01.2020
1022 Clear -7 1000 92 10000 2.1 180 11:37 10.01.2020
1023 Clear -7 1000 92 10000 2.1 180 11:18 10.01.2020
1024 Clear -7 1000 92 10000 2.1 180 11:18 10.01.2020
1025 Clear -6 1000 85 10000 2.6 190 10:44 10.01.2020
1026 Clear -6 999 85 10000 2.6 210 10:24 10.01.2020
1027 Clear -6 999 85 10000 2.6 240 09:59 10.01.2020
1028 Clear -6 999 85 10000 2.6 240 09:40 10.01.2020
1029 Clear -7 999 85 10000 2.1 230 09:22 10.01.2020
1030 Clear -6 999 85 10000 1.5 210 08:43 10.01.2020
1031 Clear -4 998 79 10000 2.1 270 08:24 10.01.2020
1032 Clear -4 998 79 10000 3.1 280 07:46 10.01.2020
1033 Clear -3 998 68 10000 3.6 270 07:28 10.01.2020
1034 Clear -4 998 73 10000 4.6 270 06:50 10.01.2020
1035 Clear -3 998 68 10000 4.1 260 06:26 10.01.2020
1036 Clear -4 998 73 10000 4.1 270 05:51 10.01.2020
1037 Clear -3 997 68 10000 5.7 250 03:46 10.01.2020
1038 Clear -3 997 68 10000 5.7 250 03:27 10.01.2020
1039 Clear -3 996 68 10000 6.7 260 02:50 10.01.2020
1040 Clear -3 995 63 10000 6.2 250 01:47 10.01.2020
1041 Clear -3 995 63 10000 6.2 250 01:47 10.01.2020
1042 Clear -3 995 63 10000 5.7 250 01:28 10.01.2020
1043 Clear -2 994 58 10000 6.7 250 00:44 10.01.2020
1044 Clear -3 993 63 10000 6.7 240 23:58 09.01.2020
1045 Clear -2 993 63 10000 7.2 250 23:39 09.01.2020
1046 Clear -2 993 63 10000 7.2 250 23:20 09.01.2020
1047 Clear -2 993 63 10000 6.7 250 22:57 09.01.2020
1048 Clear -2 992 63 10000 6.7 250 22:39 09.01.2020
1049 Clear -2 992 63 10000 6.7 250 22:19 09.01.2020
1050 Clear -2 992 63 10000 6.2 260 21:57 09.01.2020
1051 Clear -3 991 68 10000 5.7 250 21:38 09.01.2020
1052 Clear -3 991 68 10000 5.7 250 21:19 09.01.2020
1053 Clear -2 991 63 10000 5.7 250 20:57 09.01.2020
1054 Clear -2 991 63 10000 5.7 250 20:39 09.01.2020
1055 Clouds -2 990 63 10000 6.7 250 20:19 09.01.2020
1056 Clear -1 990 58 10000 5.7 250 19:57 09.01.2020
1057 Clear -1 990 58 10000 5.7 250 19:37 09.01.2020
1058 Clear -1 990 58 10000 6.2 260 19:19 09.01.2020
1059 Clear -1 989 63 10000 5.1 260 18:55 09.01.2020
1060 Clear -1 989 63 10000 5.1 260 18:36 09.01.2020
1061 Clear -1 989 63 10000 6.7 270 18:18 09.01.2020
1062 Clear 0 988 65 10000 7.2 260 17:41 09.01.2020
1063 Clouds 0 988 65 10000 6.7 270 17:18 09.01.2020
1064 Clouds 0 987 65 10000 6.2 270 16:48 09.01.2020
1065 Clouds 0 987 65 10000 6.2 270 16:24 09.01.2020
1066 Clouds 1 986 59 10000 6.2 270 15:57 09.01.2020
1067 Clouds 1 986 59 10000 6.2 270 15:39 09.01.2020
1068 Clouds 1 986 59 10000 6.7 270 15:18 09.01.2020
1069 Clouds 1 986 64 10000 6.2 270 14:42 09.01.2020
1070 Clouds 1 985 64 10000 6.7 260 14:21 09.01.2020
1071 Clouds 1 985 64 10000 6.7 260 13:57 09.01.2020
1072 Clouds 1 984 69 10000 6.2 260 13:39 09.01.2020
1073 Clouds 1 983 69 10000 7.2 260 13:20 09.01.2020
1074 Clouds 1 983 69 10000 7.2 260 12:58 09.01.2020
1075 Clouds 1 983 69 10000 7.2 260 12:58 09.01.2020
1076 Clouds 1 983 69 10000 8.2 260 12:38 09.01.2020
1077 Clouds 1 982 69 10000 6.2 250 12:19 09.01.2020
1078 Clouds 0 981 64 10000 5.7 240 11:43 09.01.2020
1079 Clouds 0 981 64 10000 5.7 240 11:25 09.01.2020
1080 Clouds -1 980 80 10000 5.7 240 10:59 09.01.2020
1081 Clouds -1 980 80 10000 5.7 240 10:41 09.01.2020
1082 Clouds -1 980 80 10000 6.7 230 10:22 09.01.2020
1083 Clouds -2 980 86 10000 6.7 230 09:49 09.01.2020
1084 Clouds -2 979 86 10000 6.7 230 09:25 09.01.2020
1085 Clouds -2 979 86 10000 6.7 230 08:59 09.01.2020
1086 Clouds -1 979 80 10000 7.7 220 08:40 09.01.2020
1087 Clouds -1 979 80 10000 7.2 220 08:21 09.01.2020
1088 Clouds -2 978 86 10000 7.7 220 07:53 09.01.2020
1089 Clouds -2 978 86 10000 7.7 220 07:33 09.01.2020
1090 Clouds -2 978 86 10000 7.7 210 06:52 09.01.2020
1091 Clouds -2 978 86 10000 7.7 210 06:32 09.01.2020
1092 Clouds -1 978 80 10000 7.2 220 05:52 09.01.2020
1093 Clouds -1 978 80 10000 7.2 220 05:26 09.01.2020
1094 Clouds -1 978 80 10000 6.7 200 04:40 09.01.2020
1095 Clouds -2 979 86 10000 6.7 220 03:28 09.01.2020
1096 Clouds -2 979 86 10000 7.2 220 02:47 09.01.2020
1097 Clouds -2 979 92 10000 5.1 220 01:42 09.01.2020
1098 Clouds -2 978 86 10000 5.7 210 01:18 09.01.2020
1099 Clouds -2 978 86 10000 5.7 210 01:18 09.01.2020
1100 Clouds -2 978 92 10000 6.2 220 00:38 09.01.2020
1101 Clouds -2 978 92 10000 5.7 220 00:19 09.01.2020
1102 Clouds -2 978 92 10000 5.7 220 00:19 09.01.2020
1103 Clouds -2 979 92 10000 5.1 220 23:40 08.01.2020
1104 Clouds -2 979 92 10000 6.2 220 23:22 08.01.2020
1105 Clouds -2 979 92 10000 4.1 230 22:56 08.01.2020
1106 Clouds -2 979 92 10000 4.1 230 22:56 08.01.2020
1107 Clouds -2 979 92 10000 4.1 230 22:37 08.01.2020
1108 Clouds -1 979 92 10000 5.1 230 22:18 08.01.2020
1109 Clouds -1 979 92 10000 5.1 230 21:55 08.01.2020
1110 Clouds -1 978 92 10000 6.2 230 21:37 08.01.2020
1111 Clouds -1 978 92 10000 5.7 230 21:18 08.01.2020
1112 Clouds 0 978 80 10000 6.2 230 20:41 08.01.2020
1113 Clouds 0 978 75 10000 5.1 230 20:21 08.01.2020
1114 Clouds 0 978 75 10000 5.1 230 19:58 08.01.2020
1115 Clouds 0 978 75 10000 4.6 230 19:38 08.01.2020
1116 Clouds 1 977 75 10000 5.7 230 19:19 08.01.2020
1117 Clouds 1 977 75 10000 5.7 230 18:58 08.01.2020
1118 Clouds 1 977 75 10000 6.2 240 18:39 08.01.2020
1119 Clouds 1 977 100 10000 7.7 230 18:19 08.01.2020
1120 Clouds 1 976 100 10000 7.2 230 17:57 08.01.2020
1121 Clouds 1 976 100 10000 7.2 230 17:38 08.01.2020
1122 Clouds 1 976 100 10000 6.7 230 17:19 08.01.2020
1123 Clouds 1 976 100 10000 6.7 230 17:19 08.01.2020
1124 Clouds 1 976 100 10000 5.7 230 16:55 08.01.2020
1125 Clouds 1 976 100 10000 5.7 230 16:37 08.01.2020
1126 Clouds 1 976 100 9000 4.6 220 16:18 08.01.2020
1127 Mist 1 976 100 4100 6.2 220 15:44 08.01.2020
1128 Mist 1 976 100 4100 6.2 220 15:44 08.01.2020
1129 Clouds 1 975 100 10000 7.2 220 15:21 08.01.2020
1130 Clouds 1 975 100 10000 7.2 220 14:58 08.01.2020
1131 Mist 1 975 100 4900 5.7 220 14:40 08.01.2020
1132 Mist 1 975 100 1600 6.2 230 14:20 08.01.2020
1133 Mist 1 975 100 1600 6.2 230 14:20 08.01.2020
1134 Fog 1 975 100 600 7.2 220 13:41 08.01.2020
1135 Fog 1 975 100 500 7.7 220 13:20 08.01.2020
1136 Mist 1 975 100 1200 7.7 220 12:43 08.01.2020
1137 Rain 1 975 100 6000 7.7 220 12:20 08.01.2020
1138 Rain 1 975 100 6000 7.7 220 11:59 08.01.2020
1139 Rain 1 976 100 10000 8.2 210 11:41 08.01.2020
1140 Clouds 1 976 100 10000 7.7 210 11:19 08.01.2020
1141 Clouds 1 976 100 10000 7.7 210 10:56 08.01.2020
1142 Rain 1 976 93 8000 7.2 200 10:38 08.01.2020
1143 Snow 1 977 93 7000 7.7 200 10:19 08.01.2020
1144 Rain 1 977 93 7000 8.2 200 09:42 08.01.2020
1145 Rain 1 978 93 3000 8.2 200 09:20 08.01.2020
1146 Rain 1 978 93 3000 8.2 200 08:57 08.01.2020
1147 Rain 1 978 93 7000 7.2 200 08:37 08.01.2020
1148 Drizzle 1 979 96 3500 8.2 200 08:19 08.01.2020
1149 Clouds 1 979 96 6000 8.2 200 07:49 08.01.2020
1150 Clouds 1 979 96 6000 8.2 200 07:30 08.01.2020
1151 Snow 0 980 96 5000 7.7 190 06:48 08.01.2020
1152 Snow 0 981 96 8000 8.2 180 06:24 08.01.2020
1153 Clouds 0 982 96 4000 7.7 170 05:53 08.01.2020
1154 Clouds 0 982 96 4000 7.7 170 05:53 08.01.2020
1155 Clouds 0 983 96 3400 7.7 170 04:57 08.01.2020
1156 Snow 0 984 96 6000 7.2 160 04:25 08.01.2020
1157 Snow 1 988 96 10000 8.2 190 02:45 08.01.2020
1158 Clouds 1 990 96 10000 7.2 180 02:22 08.01.2020
1159 Clouds 0 990 94 10000 7.2 180 01:48 08.01.2020
1160 Clouds 0 991 94 10000 6.2 180 01:19 08.01.2020
1161 Clouds 0 992 95 10000 5.7 180 00:28 08.01.2020
1162 Clouds 0 992 95 10000 5.7 180 00:28 08.01.2020
1163 Clouds 0 993 95 10000 6.7 190 23:57 07.01.2020
1164 Clouds 0 993 95 10000 7.2 200 23:39 07.01.2020
1165 Clouds 0 994 95 10000 7.7 200 23:20 07.01.2020
1166 Clouds 0 994 95 10000 7.7 200 23:20 07.01.2020
1167 Clouds 0 994 95 10000 7.7 200 22:40 07.01.2020
1168 Fog 0 995 95 1200 7.2 210 22:20 07.01.2020
1169 Fog 0 995 95 1200 7.2 210 21:56 07.01.2020
1170 Clouds 0 995 95 2100 6.2 190 21:38 07.01.2020
1171 Fog 0 995 95 1700 6.7 210 21:20 07.01.2020
1172 Fog 0 995 95 1700 6.7 210 20:55 07.01.2020
1173 Fog 0 995 95 1000 7.2 210 20:36 07.01.2020
1174 Fog 0 996 96 800 7.7 210 20:18 07.01.2020
1175 Fog 0 995 96 650 7.2 220 19:38 07.01.2020
1176 Fog 0 996 96 550 6.7 220 19:19 07.01.2020
1177 Fog 0 996 96 550 6.7 220 18:58 07.01.2020
1178 Fog 0 996 96 550 6.7 220 18:58 07.01.2020
1179 Fog 0 996 96 450 5.1 220 18:40 07.01.2020
1180 Fog 0 996 96 500 6.7 220 18:19 07.01.2020
1181 Fog 0 996 96 500 6.7 220 17:58 07.01.2020
1182 Fog 0 996 96 650 7.7 220 17:39 07.01.2020
1183 Fog 0 995 95 1000 7.7 220 17:20 07.01.2020
1184 Clouds 0 995 95 7000 7.7 220 16:56 07.01.2020
1185 Clouds 0 995 95 7000 7.7 220 16:37 07.01.2020
1186 Clouds 0 996 95 10000 8.7 230 16:18 07.01.2020
1187 Clouds 0 996 95 10000 8.7 230 15:55 07.01.2020
1188 Clouds 0 996 95 10000 6.7 230 15:36 07.01.2020
1189 Clouds 1 995 95 10000 7.7 220 15:18 07.01.2020
1190 Drizzle 1 995 100 2100 7.2 220 14:41 07.01.2020
1191 Drizzle 1 995 100 2500 6.7 200 14:22 07.01.2020
1192 Drizzle 0 995 95 2000 6.2 180 13:56 07.01.2020
1193 Drizzle 0 995 95 2000 6.2 180 13:37 07.01.2020
1194 Drizzle 0 995 95 5000 7.2 170 13:18 07.01.2020
1195 Snow 0 996 95 5000 6.7 170 12:40 07.01.2020
1196 Snow 0 996 95 5000 6.7 170 12:40 07.01.2020
1197 Clouds 0 996 95 3000 6.7 160 12:19 07.01.2020
1198 Drizzle 0 996 95 2000 7.2 160 11:43 07.01.2020
1199 Drizzle 0 997 93 2000 6.7 170 11:23 07.01.2020
1200 Drizzle 0 997 93 2000 6.7 170 10:58 07.01.2020
1201 Drizzle 0 998 93 2000 6.2 160 10:39 07.01.2020
1202 Mist 0 998 93 2500 6.7 170 10:21 07.01.2020
1203 Mist 0 998 93 2500 7.2 180 09:55 07.01.2020
1204 Mist 0 998 93 2500 7.2 180 09:37 07.01.2020
1205 Mist 0 999 93 4000 6.7 180 09:19 07.01.2020
1206 Clouds 0 999 93 6000 7.2 180 08:41 07.01.2020
1207 Clouds 0 999 96 8000 6.7 180 08:18 07.01.2020
1208 Clouds 0 999 96 10000 7.2 190 07:49 07.01.2020
1209 Clouds 0 999 96 3000 7.7 190 07:23 07.01.2020
1210 Clouds 0 999 96 2000 7.2 190 06:50 07.01.2020
1211 Clouds 0 999 96 2000 7.2 190 06:30 07.01.2020
1212 Clouds 0 1000 96 1100 6.7 190 05:41 07.01.2020
1213 Fog 0 1000 97 700 5.7 190 03:52 07.01.2020
1214 Fog 0 1000 97 700 5.7 190 03:52 07.01.2020
1215 Fog 0 1000 97 700 5.7 190 03:25 07.01.2020
1216 Clouds -1 1001 100 2500 4.1 170 02:20 07.01.2020
1217 Clouds -1 1001 100 1200 4.1 160 01:40 07.01.2020
1218 Clouds -1 1001 100 1200 4.1 160 01:40 07.01.2020
1219 Clouds -1 1001 100 1200 4.1 160 01:40 07.01.2020
1220 Clouds -2 1001 100 1300 3.6 150 00:59 07.01.2020
1221 Mist -2 1002 92 3600 4.1 160 00:21 07.01.2020
1222 Clouds -3 1002 100 6000 3.6 150 23:57 06.01.2020
1223 Clouds -3 1002 100 6000 3.6 150 23:38 06.01.2020
1224 Clouds -3 1002 92 5000 3.1 150 23:20 06.01.2020
1225 Clouds -4 1002 100 6000 2.6 150 22:44 06.01.2020
1226 Clouds -4 1002 100 6000 2.6 150 22:44 06.01.2020
1227 Clouds -4 1002 100 2300 2.6 160 22:25 06.01.2020
1228 Clouds -4 1002 100 2300 2.6 160 21:59 06.01.2020
1229 Fog -4 1002 92 1000 2.1 160 21:40 06.01.2020
1230 Fog -5 1002 100 1800 2.6 180 21:20 06.01.2020
1231 Fog -5 1002 100 1800 2.6 180 20:57 06.01.2020
1232 Fog -5 1002 92 2100 2.1 150 20:39 06.01.2020
1233 Fog -6 1002 100 700 2.6 170 20:20 06.01.2020
1234 Fog -6 1002 100 700 2.6 170 20:20 06.01.2020
1235 Fog -6 1001 100 1000 2.1 160 19:57 06.01.2020
1236 Fog -6 1001 100 1000 2.1 160 19:39 06.01.2020
1237 Fog -5 1002 92 900 2.6 160 19:20 06.01.2020
1238 Fog -5 1002 92 600 2.6 180 18:48 06.01.2020
1239 Fog -5 1002 92 600 2.6 180 18:48 06.01.2020
1240 Fog -5 1002 92 400 2.6 180 18:23 06.01.2020
1241 Fog -5 1002 92 400 2.6 180 17:59 06.01.2020
1242 Fog -5 1002 92 350 2.1 190 17:39 06.01.2020
1243 Fog -5 1002 92 450 3.1 210 17:19 06.01.2020
1244 Fog -5 1001 92 400 2.6 210 16:46 06.01.2020
1245 Fog -5 1001 92 400 2.6 210 16:46 06.01.2020
1246 Fog -5 1001 92 300 1.5 210 16:27 06.01.2020
1247 Fog -5 1001 92 300 1.5 210 15:59 06.01.2020
1248 Fog -5 1001 92 400 2.1 190 15:41 06.01.2020
1249 Fog -5 1001 92 450 3.1 210 15:20 06.01.2020
1250 Fog -5 1001 92 450 3.1 210 14:58 06.01.2020
1251 Snow -6 1000 92 500 3.6 220 14:40 06.01.2020
1252 Fog -7 1000 100 500 2.6 230 14:20 06.01.2020
1253 Snow -6 1000 92 550 3.1 220 13:55 06.01.2020
1254 Snow -6 1000 92 550 3.1 220 13:55 06.01.2020
1255 Snow -6 1000 92 550 3.1 220 13:37 06.01.2020
1256 Snow -6 1000 100 650 2.6 230 13:19 06.01.2020
1257 Fog -6 1000 100 450 3.6 220 12:42 06.01.2020
1258 Fog -6 1000 92 350 4.1 220 12:20 06.01.2020
1259 Fog -6 1000 92 350 4.1 220 11:57 06.01.2020
1260 Fog -6 1000 92 500 3.6 220 11:39 06.01.2020
1261 Snow -6 1000 92 600 5.1 220 11:20 06.01.2020
1262 Clouds -6 999 92 10000 4.1 230 10:45 06.01.2020
1263 Clouds -6 999 92 10000 4.1 230 10:45 06.01.2020
1264 Clouds -6 999 92 10000 4.1 230 10:27 06.01.2020
1265 Clouds -6 1000 92 10000 4.6 230 09:59 06.01.2020
1266 Mist -6 999 92 4500 4.6 210 09:37 06.01.2020
1267 Clouds -6 999 92 10000 4.1 210 09:19 06.01.2020
1268 Clouds -6 999 92 10000 3.1 210 08:43 06.01.2020
1269 Clouds -5 999 92 10000 3.6 240 08:24 06.01.2020
1270 Clouds -5 999 92 10000 4.6 230 07:51 06.01.2020
1271 Clouds -5 999 92 10000 4.6 230 07:26 06.01.2020
1272 Clouds -4 998 92 10000 4.6 230 06:45 06.01.2020
1273 Clouds -4 998 92 10000 5.1 230 06:18 06.01.2020
1274 Clouds -4 998 92 10000 4.1 230 05:40 06.01.2020
1275 Clouds -4 998 92 10000 5.1 230 04:30 06.01.2020
1276 Snow -4 998 92 10000 4.6 220 03:58 06.01.2020
1277 Clouds -4 998 92 10000 6.2 190 02:40 06.01.2020
1278 Clouds -4 998 92 10000 5.7 180 02:21 06.01.2020
1279 Clouds -5 998 92 10000 6.2 160 01:41 06.01.2020
1280 Clouds -5 998 92 5000 6.2 160 01:20 06.01.2020
1281 Snow -5 999 92 7000 6.2 170 00:40 06.01.2020
1282 Snow -5 1000 92 10000 5.1 160 00:19 06.01.2020
1283 Snow -5 1000 92 10000 5.1 160 00:19 06.01.2020
1284 Snow -6 1000 92 5000 4.6 140 23:41 05.01.2020
1285 Snow -8 1001 92 6000 4.1 130 23:21 05.01.2020
1286 Snow -8 1001 92 6000 4.1 130 22:55 05.01.2020
1287 Clouds -8 1001 85 5000 3.6 140 22:37 05.01.2020
1288 Clouds -8 1002 92 10000 5.1 160 22:18 05.01.2020
1289 Clouds -9 1002 92 10000 5.1 160 21:41 05.01.2020
1290 Clouds -10 1003 92 10000 4.1 150 21:21 05.01.2020
1291 Clouds -10 1003 92 10000 4.1 150 20:58 05.01.2020
1292 Snow -11 1003 85 10000 2.6 150 20:39 05.01.2020
1293 Snow -11 1004 85 10000 3.1 150 20:20 05.01.2020
1294 Snow -11 1004 85 10000 3.1 150 19:59 05.01.2020
1295 Snow -10 1004 85 2200 3.1 170 19:39 05.01.2020
1296 Snow -11 1005 92 10000 3.1 180 19:20 05.01.2020
1297 Clouds -11 1005 92 10000 3.1 180 18:56 05.01.2020
1298 Clouds -11 1005 92 10000 3.1 180 18:56 05.01.2020
1299 Clouds -11 1005 92 10000 3.1 180 18:38 05.01.2020
1300 Clouds -11 1005 92 10000 3.6 190 18:19 05.01.2020
1301 Clouds -11 1005 92 10000 3.6 190 17:58 05.01.2020
1302 Clouds -11 1006 85 10000 2.6 200 17:39 05.01.2020
1303 Clouds -13 1006 84 10000 2.6 220 17:20 05.01.2020
1304 Clouds -12 1006 85 10000 1.5 220 16:57 05.01.2020
1305 Clouds -12 1006 85 10000 1.5 220 16:57 05.01.2020
1306 Clouds -12 1006 85 10000 1.5 220 16:38 05.01.2020
1307 Clouds -13 1007 92 10000 2.1 210 16:19 05.01.2020
1308 Clouds -12 1007 85 10000 2.1 210 15:39 05.01.2020
1309 Clouds -12 1007 85 10000 2.1 210 15:39 05.01.2020
1310 Clouds -13 1008 84 10000 2.1 240 15:20 05.01.2020
1311 Clouds -12 1008 85 10000 3.1 260 14:56 05.01.2020
1312 Clouds -12 1008 85 10000 3.1 260 14:38 05.01.2020
1313 Clouds -13 1008 92 10000 3.6 240 14:20 05.01.2020
1314 Clouds -13 1008 92 10000 3.6 240 13:56 05.01.2020
1315 Clouds -13 1008 84 10000 3.6 230 13:38 05.01.2020
1316 Clouds -13 1008 84 10000 2.6 230 13:19 05.01.2020
1317 Clouds -13 1008 84 10000 2.6 230 12:56 05.01.2020
1318 Clouds -14 1008 92 10000 2.6 230 12:37 05.01.2020
1319 Clouds -13 1009 84 10000 2.6 250 12:19 05.01.2020
1320 Clouds -12 1009 78 10000 3.1 240 11:44 05.01.2020
1321 Clouds -13 1008 84 10000 3.6 250 11:20 05.01.2020
1322 Clouds -13 1008 84 10000 3.6 250 11:20 05.01.2020
1323 Clouds -13 1008 84 10000 3.6 250 10:58 05.01.2020
1324 Clouds -14 1008 92 10000 3.6 240 10:40 05.01.2020
1325 Clouds -13 1008 84 10000 3.1 250 10:19 05.01.2020
1326 Clouds -15 1008 84 10000 2.6 250 09:42 05.01.2020
1327 Clouds -14 1009 92 10000 2.6 240 09:22 05.01.2020
1328 Clouds -13 1008 84 10000 2.6 240 08:50 05.01.2020
1329 Clouds -13 1008 84 10000 2.6 240 08:31 05.01.2020
1330 Clear -13 1008 84 10000 2.6 230 07:57 05.01.2020
1331 Clear -13 1008 84 10000 2.6 240 07:38 05.01.2020
1332 Snow -10 1008 78 10000 2.6 270 07:20 05.01.2020
1333 Clear -11 1007 78 10000 2.6 240 06:20 05.01.2020
1334 Clear -13 1007 92 10000 2.1 240 05:33 05.01.2020
1335 Clear -13 1007 92 10000 2.1 240 05:33 05.01.2020
1336 Clear -13 1007 92 10000 2.1 240 05:33 05.01.2020
1337 Clear -13 1007 92 10000 2.1 240 05:33 05.01.2020
1338 Clear -13 1006 84 10000 2.6 250 04:44 05.01.2020
1339 Clear -11 1006 78 10000 2.6 250 04:18 05.01.2020
1340 Clear -10 1005 78 10000 1.5 290 02:46 05.01.2020
1341 Clear -10 1005 78 10000 1.5 290 02:24 05.01.2020
1342 Clouds -10 1003 78 10000 2.6 310 01:48 05.01.2020
1343 Clouds -9 1003 78 10000 3.1 320 01:19 05.01.2020
1344 Clouds -8 1002 72 10000 4.6 330 00:42 05.01.2020
1345 Clouds -8 1002 72 10000 4.6 330 00:42 05.01.2020
1346 Clouds -8 1002 72 10000 4.1 310 00:23 05.01.2020
1347 Clouds -8 1002 72 10000 4.1 310 23:59 04.01.2020
1348 Clouds -8 1001 72 10000 3.1 330 23:40 04.01.2020
1349 Clouds -7 1001 73 10000 4.1 340 23:19 04.01.2020
1350 Clouds -7 1001 73 10000 4.1 340 23:19 04.01.2020
1351 Clouds -7 1000 67 10000 3.1 340 22:40 04.01.2020
1352 Clouds -7 999 67 10000 5.1 340 22:22 04.01.2020
1353 Clouds -7 999 67 10000 5.1 340 21:58 04.01.2020
1354 Clouds -6 998 62 10000 4.6 350 21:39 04.01.2020
1355 Clouds -6 997 67 10000 5.7 350 21:20 04.01.2020
1356 Clouds -6 997 67 10000 5.7 350 20:59 04.01.2020
1357 Clouds -5 996 57 10000 6.2 360 20:39 04.01.2020
1358 Clouds -5 996 57 10000 6.2 360 20:39 04.01.2020
1359 Snow -5 994 62 10000 6.7 350 20:21 04.01.2020
1360 Snow -5 994 62 10000 6.7 350 19:56 04.01.2020
1361 Clouds -4 993 68 10000 7.2 350 19:37 04.01.2020
1362 Clouds -4 991 73 10000 7.2 350 19:18 04.01.2020
1363 Snow -4 990 85 10000 5.7 350 18:54 04.01.2020
1364 Snow -4 990 85 10000 5.7 350 18:36 04.01.2020
1365 Snow -5 989 85 10000 5.1 350 18:18 04.01.2020
1366 Snow -6 987 85 10000 6.2 350 17:41 04.01.2020
1367 Snow -6 987 85 10000 6.2 350 17:41 04.01.2020
1368 Snow -7 986 85 4400 5.7 340 17:22 04.01.2020
1369 Clouds -7 984 85 10000 6.7 340 16:55 04.01.2020
1370 Clouds -7 984 85 10000 6.7 340 16:55 04.01.2020
1371 Clouds -7 984 85 10000 6.7 340 16:36 04.01.2020
1372 Clouds -7 984 85 10000 6.7 340 16:36 04.01.2020
1373 Clouds -7 982 85 10000 5.7 340 16:18 04.01.2020
1374 Clouds -7 981 85 10000 4.6 330 15:42 04.01.2020
1375 Clouds -8 980 85 10000 2.6 310 15:20 04.01.2020
1376 Clouds -8 980 85 10000 2.6 310 14:59 04.01.2020
1377 Clouds -8 980 85 10000 2.6 310 14:59 04.01.2020
1378 Clouds -8 980 85 10000 2.6 310 14:59 04.01.2020
1379 Clouds -9 979 92 10000 2.1 300 14:40 04.01.2020
1380 Clouds -8 978 85 10000 1.5 290 14:20 04.01.2020
1381 Clouds -8 978 85 10000 1.5 290 13:58 04.01.2020
1382 Clouds -8 978 85 10000 2.6 310 13:37 04.01.2020
1383 Clouds -8 977 85 10000 2.6 310 13:19 04.01.2020
1384 Clouds -8 976 92 10000 2.6 300 12:42 04.01.2020
1385 Clouds -7 976 85 10000 3.6 320 12:20 04.01.2020
1386 Clouds -7 976 85 10000 3.6 320 11:59 04.01.2020
1387 Clouds -7 975 85 10000 3.6 320 11:40 04.01.2020
1388 Clouds -7 975 85 10000 3.6 320 11:40 04.01.2020
1389 Clouds -7 974 85 10000 2.1 310 11:20 04.01.2020
1390 Clouds -7 974 92 10000 2.1 300 10:58 04.01.2020
1391 Clouds -7 974 92 10000 2.1 300 10:38 04.01.2020
1392 Clouds -7 973 92 10000 2.1 250 10:19 04.01.2020
1393 Clouds -8 973 100 10000 1.5 270 09:42 04.01.2020
1394 Clouds -8 973 100 10000 1.5 270 09:24 04.01.2020
1395 Clouds -7 971 92 10000 1.5 260 08:44 04.01.2020
1396 Clouds -7 971 92 10000 1.5 260 08:25 04.01.2020
1397 Clouds -6 970 92 10000 2.1 230 07:51 04.01.2020
1398 Clouds -6 970 92 10000 2.1 230 07:32 04.01.2020
1399 Snow -5 969 85 10000 2.6 230 06:39 04.01.2020
1400 Snow -5 969 79 10000 3.6 200 05:46 04.01.2020
1401 Clouds -5 968 79 10000 2.6 0 04:47 04.01.2020
1402 Clouds -5 968 79 10000 2.6 0 04:27 04.01.2020
1403 Clouds -6 968 85 10000 3.1 210 03:19 04.01.2020
1404 Clouds -5 968 79 10000 5.1 230 02:23 04.01.2020
1405 Clouds -5 968 79 10000 5.1 230 01:57 04.01.2020
1406 Clouds -5 968 73 10000 6.2 220 01:32 04.01.2020
1407 Clouds -5 969 73 10000 6.7 220 00:50 04.01.2020
1408 Clouds -5 969 73 10000 6.7 220 00:28 04.01.2020
1409 Clouds -4 969 68 10000 6.2 230 23:52 03.01.2020
1410 Clouds -4 969 68 10000 6.2 230 23:27 03.01.2020
1411 Clouds -4 969 68 10000 5.7 230 22:55 03.01.2020
1412 Clouds -4 969 68 10000 6.2 230 22:55 03.01.2020
1413 Clouds -4 969 68 10000 5.7 230 22:36 03.01.2020
1414 Clouds -3 969 63 10000 6.2 0 22:18 03.01.2020
1415 Clouds -3 969 63 10000 6.2 0 21:55 03.01.2020
1416 Clouds -3 969 63 10000 6.2 230 21:37 03.01.2020
1417 Clouds -3 969 63 10000 6.7 230 21:18 03.01.2020
1418 Clouds -3 969 68 10000 7.2 230 20:43 03.01.2020
1419 Clouds -2 969 58 10000 6.2 230 20:19 03.01.2020
1420 Clouds -2 969 58 10000 6.2 230 19:58 03.01.2020
1421 Clouds -2 969 63 10000 6.2 240 19:39 03.01.2020
1422 Clouds -2 969 63 10000 6.2 240 19:21 03.01.2020
1423 Clouds -2 969 68 10000 5.7 240 18:44 03.01.2020
1424 Clouds -2 969 68 10000 5.7 240 18:44 03.01.2020
1425 Clouds -2 969 68 10000 5.7 240 18:26 03.01.2020
1426 Clouds -1 969 68 10000 6.2 240 17:57 03.01.2020
1427 Clouds 0 968 68 10000 5.7 250 17:39 03.01.2020
1428 Snow 0 968 66 10000 6.2 240 17:19 03.01.2020
1429 Snow 0 968 66 10000 4.6 240 16:43 03.01.2020
1430 Snow 0 968 66 10000 4.6 240 16:24 03.01.2020
1431 Snow 0 968 66 10000 5.7 240 15:58 03.01.2020
1432 Snow 0 968 66 10000 5.7 240 15:58 03.01.2020
1433 Snow 1 968 66 10000 5.7 230 15:40 03.01.2020
1434 Clouds 0 968 66 10000 4.6 230 15:18 03.01.2020
1435 Clouds 1 969 66 10000 4.6 220 14:39 03.01.2020
1436 Clouds 1 969 96 10000 5.7 230 14:19 03.01.2020
1437 Fog 1 969 96 10000 6.2 220 13:44 03.01.2020
1438 Fog 1 969 95 10000 6.2 220 13:24 03.01.2020
1439 Clouds 1 969 95 10000 6.2 220 13:00 03.01.2020
1440 Clouds 0 969 95 10000 5.1 220 12:39 03.01.2020
1441 Snow 0 970 95 1800 5.7 230 12:21 03.01.2020
1442 Snow 0 970 95 1400 6.2 220 11:48 03.01.2020
1443 Snow 0 970 95 1400 6.2 220 11:29 03.01.2020
1444 Snow 1 971 91 10000 7.2 230 10:47 03.01.2020
1445 Snow 1 971 91 10000 7.2 230 10:27 03.01.2020
1446 Clouds 2 971 80 10000 8.7 210 09:58 03.01.2020
1447 Clouds 2 970 80 10000 7.7 200 09:40 03.01.2020
1448 Clouds 2 971 80 10000 7.2 210 09:22 03.01.2020
1449 Clouds 2 972 80 10000 7.7 220 08:57 03.01.2020
1450 Clouds 2 972 80 10000 7.7 220 08:38 03.01.2020
1451 Snow 2 972 80 10000 8.7 220 08:19 03.01.2020
1452 Clouds 2 972 90 10000 8.7 220 07:40 03.01.2020
1453 Snow 2 972 90 10000 8.7 210 07:19 03.01.2020
1454 Clouds 2 972 90 10000 8.2 210 06:50 03.01.2020
1455 Clouds 2 972 90 10000 8.2 210 06:32 03.01.2020
1456 Snow 3 973 90 10000 8.7 210 05:46 03.01.2020
1457 Rain 3 973 89 10000 9.8 210 04:23 03.01.2020
1458 Rain 3 974 89 10000 9.3 210 02:57 03.01.2020
1459 Rain 3 975 89 10000 7.2 220 02:33 03.01.2020
1460 Clouds 3 976 89 10000 7.2 220 01:44 03.01.2020
1461 Clouds 2 977 88 10000 6.7 220 00:50 03.01.2020
1462 Clouds 2 977 88 10000 6.7 220 00:30 03.01.2020
1463 Clouds 3 976 88 10000 6.2 210 23:55 02.01.2020
1464 Clouds 3 977 88 10000 6.7 220 23:37 02.01.2020
1465 Clouds 3 977 90 10000 6.2 230 23:18 02.01.2020
1466 Clouds 3 977 90 10000 7.2 230 22:45 02.01.2020
1467 Clouds 3 977 90 10000 7.2 230 22:45 02.01.2020
1468 Clouds 3 978 90 10000 6.7 230 22:21 02.01.2020
1469 Clouds 3 978 90 10000 6.7 230 21:59 02.01.2020
1470 Clouds 3 978 86 10000 7.2 230 21:41 02.01.2020
1471 Clouds 3 978 86 10000 7.2 230 21:23 02.01.2020
1472 Clouds 3 978 86 10000 7.2 230 20:58 02.01.2020
1473 Clouds 3 978 86 10000 7.2 230 20:39 02.01.2020
1474 Clouds 3 978 86 10000 7.2 230 20:39 02.01.2020
1475 Clouds 3 978 86 10000 7.7 230 20:20 02.01.2020
1476 Clouds 3 978 86 10000 7.2 230 19:55 02.01.2020
1477 Clouds 3 978 86 10000 7.2 230 19:37 02.01.2020
1478 Clouds 3 978 86 10000 7.2 230 19:37 02.01.2020
1479 Clouds 3 978 86 10000 7.7 230 19:19 02.01.2020
1480 Clouds 3 978 86 10000 7.7 230 18:56 02.01.2020
1481 Clouds 3 978 86 10000 6.2 230 18:38 02.01.2020
1482 Clouds 3 978 86 10000 7.7 230 18:19 02.01.2020
1483 Clouds 3 978 86 10000 7.7 230 17:55 02.01.2020
1484 Clouds 2 978 93 10000 7.2 230 17:36 02.01.2020
1485 Clouds 2 978 93 10000 7.2 230 17:36 02.01.2020
1486 Clouds 2 978 93 10000 7.7 230 17:18 02.01.2020
1487 Clouds 2 978 93 10000 7.7 230 17:18 02.01.2020
1488 Clouds 2 978 93 10000 7.2 230 16:54 02.01.2020
1489 Clouds 2 978 93 10000 7.2 230 16:36 02.01.2020
1490 Rain 2 978 93 10000 7.7 220 16:18 02.01.2020
1491 Rain 1 979 100 10000 7.2 220 15:41 02.01.2020
1492 Rain 1 980 100 10000 7.2 220 15:23 02.01.2020
1493 Rain 1 980 100 10000 7.7 220 14:57 02.01.2020
1494 Rain 1 980 100 10000 7.7 220 14:57 02.01.2020
1495 Rain 1 980 100 10000 7.7 220 14:37 02.01.2020
1496 Rain 1 981 100 10000 7.7 220 14:18 02.01.2020
1497 Rain 1 982 100 10000 7.2 210 13:55 02.01.2020
1498 Rain 1 982 100 10000 7.2 210 13:36 02.01.2020
1499 Rain 1 983 96 10000 6.2 210 12:58 02.01.2020
1500 Rain 1 983 96 10000 5.1 220 12:39 02.01.2020
1501 Rain 1 984 86 10000 4.1 220 12:20 02.01.2020
1502 Rain 1 984 86 10000 4.1 220 11:41 02.01.2020
1503 Clouds 1 985 86 10000 4.6 220 11:20 02.01.2020
1504 Clouds 1 985 86 10000 5.7 220 10:45 02.01.2020
1505 Clouds 1 985 86 10000 5.7 220 10:26 02.01.2020
1506 Clouds 1 986 86 10000 5.7 230 09:55 02.01.2020
1507 Clouds 1 986 86 10000 5.7 230 09:34 02.01.2020
1508 Clouds 0 985 82 10000 5.7 230 08:50 02.01.2020
1509 Clouds 0 985 82 10000 5.7 230 08:28 02.01.2020
1510 Clouds 0 985 78 10000 5.1 230 07:57 02.01.2020
1511 Clouds 0 984 78 10000 4.6 220 07:31 02.01.2020
1512 Clouds 0 984 78 10000 4.6 250 06:57 02.01.2020
1513 Clouds 0 984 78 10000 4.6 250 06:57 02.01.2020
1514 Clouds 1 983 86 10000 5.1 250 06:39 02.01.2020
1515 Clouds 1 983 86 10000 5.1 260 05:36 02.01.2020
1516 Clouds 0 982 72 10000 5.7 240 04:33 02.01.2020
1517 Clouds 0 982 72 10000 7.2 230 02:55 02.01.2020
1518 Clouds 1 981 83 10000 6.7 230 02:20 02.01.2020
1519 Clouds 1 981 83 10000 7.2 230 01:46 02.01.2020
1520 Clouds 1 981 77 10000 7.7 230 01:19 02.01.2020
1521 Clouds 1 981 77 10000 7.2 230 00:34 02.01.2020
1522 Clouds 0 981 77 10000 7.2 230 23:56 01.01.2020
1523 Clouds 0 981 77 10000 7.2 230 23:37 01.01.2020
1524 Clouds 0 982 89 10000 7.2 230 23:18 01.01.2020
1525 Clouds 0 982 89 10000 6.7 210 22:38 01.01.2020
1526 Fog -1 983 92 5000 4.6 210 22:19 01.01.2020
1527 Fog -1 983 92 5000 4.6 210 21:56 01.01.2020
1528 Fog -2 983 100 750 4.1 200 21:38 01.01.2020
1529 Fog -3 984 100 900 4.1 180 21:19 01.01.2020
1530 Fog -3 984 100 900 4.1 180 21:19 01.01.2020
1531 Fog -3 984 100 900 4.1 180 20:55 01.01.2020
1532 Fog -3 984 100 800 5.1 180 20:37 01.01.2020
1533 Fog -3 984 92 800 4.6 170 20:18 01.01.2020
1534 Fog -4 985 100 1200 4.6 150 19:55 01.01.2020
1535 Fog -4 985 100 1200 4.6 150 19:36 01.01.2020
1536 Clouds -4 986 92 1900 3.1 140 19:18 01.01.2020
1537 Mist -5 986 100 4400 3.6 150 18:55 01.01.2020
1538 Mist -5 986 100 4400 3.6 150 18:36 01.01.2020
1539 Clouds -5 987 92 6000 3.6 130 18:18 01.01.2020
1540 Clouds -5 988 92 2900 2.6 120 17:55 01.01.2020
1541 Clouds -5 988 92 2900 2.6 120 17:37 01.01.2020
1542 Clouds -6 988 100 4400 4.1 150 17:18 01.01.2020
1543 Clouds -6 989 92 4300 4.1 140 16:39 01.01.2020
1544 Clouds -7 989 92 10000 4.6 140 16:20 01.01.2020
1545 Snow -7 990 92 10000 4.1 140 15:57 01.01.2020
1546 Snow -7 990 92 10000 4.1 140 15:39 01.01.2020
1547 Snow -7 990 92 9000 5.1 130 15:20 01.01.2020
1548 Snow -7 990 92 9000 5.1 130 14:56 01.01.2020
1549 Snow -8 990 92 6000 5.7 120 14:38 01.01.2020
1550 Snow -8 991 92 4800 5.1 130 14:20 01.01.2020
1551 Snow -8 991 92 4800 5.1 130 13:55 01.01.2020
1552 Snow -8 991 85 3600 5.1 110 13:37 01.01.2020
1553 Snow -9 992 92 2800 5.1 120 13:18 01.01.2020
1554 Snow -9 992 92 2800 5.1 120 12:55 01.01.2020
1555 Snow -9 992 92 4400 5.1 110 12:36 01.01.2020
1556 Snow -8 993 92 7000 4.6 120 12:18 01.01.2020
1557 Clouds -8 994 92 10000 4.6 140 11:42 01.01.2020
1558 Clouds -9 994 100 10000 4.6 140 11:21 01.01.2020
1559 Clouds -9 994 100 10000 4.6 140 10:57 01.01.2020
1560 Clouds -9 995 85 10000 5.1 130 10:38 01.01.2020
1561 Clouds -10 995 92 10000 3.1 130 10:19 01.01.2020
1562 Clouds -10 995 92 10000 2.6 150 09:42 01.01.2020
1563 Clouds -10 996 85 10000 2.1 130 09:22 01.01.2020
1564 Clouds -10 996 85 10000 2.1 130 08:57 01.01.2020
1565 Clouds -10 996 92 10000 1.5 120 08:38 01.01.2020
1566 Clouds -8 996 85 10000 1.5 190 08:20 01.01.2020
1567 Clouds -8 996 85 10000 1.5 190 07:58 01.01.2020
1568 Clouds -8 996 85 10000 2.1 190 07:40 01.01.2020
1569 Clouds -10 997 92 10000 1.5 230 07:19 01.01.2020
1570 Clouds -10 996 92 10000 2.6 240 06:36 01.01.2020
1571 Clouds -10 997 92 10000 2.6 210 05:51 01.01.2020
1572 Clouds -9 997 92 10000 1 250 04:28 01.01.2020
1573 Clouds -11 998 92 10000 2.6 230 03:39 01.01.2020
1574 Clouds -12 997 92 10000 2.1 220 03:21 01.01.2020
1575 Clouds -9 997 85 10000 2.1 250 02:42 01.01.2020
1576 Clouds -9 997 85 10000 2.6 220 02:23 01.01.2020
1577 Clear -10 997 92 10000 1.5 220 01:42 01.01.2020
1578 Clear -10 997 85 10000 2.1 260 01:23 01.01.2020
1579 Clear -8 997 85 10000 2.6 270 00:45 01.01.2020
1580 Clear -7 997 85 10000 4.1 280 00:26 01.01.2020
1581 Clear -7 997 85 10000 4.1 280 23:56 31.12.2019
1582 Clear -7 997 85 10000 4.1 280 23:37 31.12.2019
1583 Clear -7 997 85 10000 3.6 280 23:18 31.12.2019
1584 Clear -7 997 85 10000 2.6 270 22:55 31.12.2019
1585 Clear -7 997 85 10000 2.6 270 22:36 31.12.2019
1586 Clear -8 997 85 10000 2.6 280 22:18 31.12.2019
1587 Clear -8 997 85 10000 2.6 280 21:43 31.12.2019
1588 Clear -8 997 85 10000 2.6 280 21:25 31.12.2019
1589 Clear -8 996 85 10000 4.1 250 20:57 31.12.2019
1590 Clear -8 996 85 10000 4.1 250 20:57 31.12.2019
1591 Clear -7 996 85 10000 3.6 270 20:38 31.12.2019
1592 Clear -7 996 85 10000 3.6 270 20:38 31.12.2019
1593 Clouds -9 996 92 10000 1.5 250 20:20 31.12.2019
1594 Clouds -9 996 92 10000 1.5 250 19:55 31.12.2019
1595 Clouds -10 996 85 10000 1 0 19:37 31.12.2019
1596 Clouds -11 996 92 10000 1.5 0 19:18 31.12.2019
1597 Clouds -10 995 92 10000 3.1 230 18:55 31.12.2019
1598 Clouds -10 995 92 10000 3.1 230 18:37 31.12.2019
1599 Clouds -10 995 92 10000 2.6 240 18:19 31.12.2019
1600 Clouds -10 995 92 10000 2.6 240 17:55 31.12.2019
1601 Clouds -10 995 85 10000 3.1 230 17:36 31.12.2019
1602 Clouds -9 995 85 10000 3.1 240 17:18 31.12.2019
1603 Clouds -9 995 85 10000 3.1 240 16:55 31.12.2019
1604 Clouds -10 995 92 10000 3.1 230 16:36 31.12.2019
1605 Clouds -9 995 85 10000 2.1 240 16:18 31.12.2019
1606 Clouds -9 994 92 10000 4.6 230 15:55 31.12.2019
1607 Clouds -9 994 92 10000 4.6 230 15:55 31.12.2019
1608 Clouds -9 995 85 10000 2.1 240 15:55 31.12.2019
1609 Clouds -9 994 92 10000 4.6 230 15:37 31.12.2019
1610 Clouds -9 995 92 10000 4.6 220 15:19 31.12.2019
1611 Clouds -9 995 92 10000 4.6 220 14:55 31.12.2019
1612 Clouds -9 995 92 10000 3.1 230 14:36 31.12.2019
1613 Clouds -8 995 85 10000 4.6 230 14:18 31.12.2019
1614 Clouds -8 995 92 10000 3.6 220 13:54 31.12.2019
1615 Clouds -8 995 92 10000 3.6 220 13:36 31.12.2019
1616 Clouds -8 995 92 10000 4.1 230 13:18 31.12.2019
1617 Clouds -8 995 92 10000 3.6 210 12:40 31.12.2019
1618 Clouds -8 995 92 10000 3.6 210 12:40 31.12.2019
1619 Clouds -8 995 92 10000 3.6 230 12:21 31.12.2019
1620 Clouds -8 995 92 10000 3.6 230 11:58 31.12.2019
1621 Clouds -8 995 92 10000 3.1 230 11:40 31.12.2019
1622 Clouds -6 996 85 10000 2.1 240 11:21 31.12.2019
1623 Clouds -6 996 85 10000 2.1 240 10:58 31.12.2019
1624 Clouds -6 996 85 10000 1 0 10:39 31.12.2019
1625 Clouds -7 996 92 10000 2.1 250 10:20 31.12.2019
1626 Clouds -7 996 92 10000 2.1 250 09:59 31.12.2019
1627 Clouds -7 995 92 10000 2.6 250 09:40 31.12.2019
1628 Clouds -6 995 85 10000 1.5 300 09:22 31.12.2019
1629 Clouds -6 995 85 10000 1.5 300 08:59 31.12.2019
1630 Clouds -6 995 85 10000 2.6 320 08:41 31.12.2019
1631 Clouds -7 994 92 10000 3.1 320 08:20 31.12.2019
1632 Clouds -7 994 92 10000 3.6 320 07:44 31.12.2019
1633 Clouds -7 994 92 10000 3.1 330 07:22 31.12.2019
1634 Clouds -7 993 92 10000 3.1 330 06:50 31.12.2019
1635 Clouds -7 993 92 10000 3.1 320 05:59 31.12.2019
1636 Clouds -6 991 85 10000 3.6 320 04:30 31.12.2019
1637 Clouds -6 991 85 10000 3.6 330 03:59 31.12.2019
1638 Clouds -6 990 85 10000 3.6 340 02:56 31.12.2019
1639 Clouds -5 989 79 10000 5.1 10 02:19 31.12.2019
1640 Clouds -4 988 79 10000 5.1 20 01:48 31.12.2019
1641 Clouds -4 988 79 10000 5.1 20 01:27 31.12.2019
1642 Clouds -5 987 85 10000 4.1 360 00:46 31.12.2019
1643 Clouds -5 987 85 10000 4.1 360 00:22 31.12.2019
1644 Clouds -5 987 85 10000 4.1 360 23:56 30.12.2019
1645 Clouds -5 986 85 10000 4.1 350 23:38 30.12.2019
1646 Clouds -4 985 79 10000 5.7 10 23:20 30.12.2019
1647 Clouds -4 984 79 10000 6.2 20 22:57 30.12.2019
1648 Clouds -4 984 79 10000 6.2 20 22:38 30.12.2019
1649 Clouds -4 984 85 10000 6.7 20 22:20 30.12.2019
1650 Clouds -4 984 85 10000 6.7 20 21:56 30.12.2019
1651 Snow -4 983 85 10000 7.2 20 21:38 30.12.2019
1652 Snow -4 983 85 10000 7.2 20 21:38 30.12.2019
1653 Clouds -4 982 92 10000 6.7 10 21:18 30.12.2019
1654 Clouds -4 982 92 10000 6.7 10 20:56 30.12.2019
1655 Clouds -3 982 86 10000 4.1 360 20:38 30.12.2019
1656 Clouds -3 981 86 10000 6.2 20 20:20 30.12.2019
1657 Clouds -3 981 86 10000 6.2 20 19:57 30.12.2019
1658 Clouds -3 980 92 10000 7.2 20 19:37 30.12.2019
1659 Clouds -2 979 86 10000 7.7 20 19:19 30.12.2019
1660 Snow -2 979 86 10000 6.7 10 18:56 30.12.2019
1661 Snow -2 979 86 10000 6.7 10 18:37 30.12.2019
1662 Snow -1 978 86 10000 7.2 10 18:19 30.12.2019
1663 Snow -1 978 86 10000 7.2 10 17:54 30.12.2019
1664 Snow -1 978 92 10000 6.7 10 17:36 30.12.2019
1665 Snow 0 977 93 6000 5.1 10 17:18 30.12.2019
1666 Clouds 0 977 93 10000 4.1 330 16:41 30.12.2019
1667 Clouds 0 976 93 10000 3.6 310 16:21 30.12.2019
1668 Clouds 0 976 93 10000 3.6 310 15:58 30.12.2019
1669 Clouds 0 976 93 7000 2.6 270 15:40 30.12.2019
1670 Snow 0 976 93 10000 2.6 250 15:20 30.12.2019
1671 Snow 0 976 93 10000 2.6 250 15:20 30.12.2019
1672 Snow 0 976 93 10000 2.6 250 15:20 30.12.2019
1673 Clouds 0 976 93 10000 3.6 240 14:56 30.12.2019
1674 Clouds 0 976 93 10000 3.6 240 14:38 30.12.2019
1675 Clouds 0 976 92 10000 3.6 240 14:18 30.12.2019
1676 Snow 0 976 92 10000 3.6 240 13:43 30.12.2019
1677 Clouds 0 976 84 10000 4.1 240 13:24 30.12.2019
1678 Clouds 0 976 84 10000 4.1 240 12:59 30.12.2019
1679 Snow 0 976 84 10000 4.6 230 12:41 30.12.2019
1680 Rain 0 976 84 10000 5.1 230 12:19 30.12.2019
1681 Rain 0 976 84 10000 5.1 230 11:58 30.12.2019
1682 Snow 0 976 84 10000 4.1 230 11:39 30.12.2019
1683 Clouds 0 977 81 5000 4.6 240 11:18 30.12.2019
1684 Clouds 0 977 81 10000 5.1 240 10:43 30.12.2019
1685 Clouds 1 977 81 10000 5.1 240 10:21 30.12.2019
1686 Clouds 1 977 81 10000 5.1 240 09:55 30.12.2019
1687 Clouds 1 977 81 10000 5.1 240 09:55 30.12.2019
1688 Clouds 1 977 81 10000 4.6 240 09:37 30.12.2019
1689 Clouds 0 977 81 10000 5.7 240 09:18 30.12.2019
1690 Clouds 0 978 81 10000 5.1 230 08:46 30.12.2019
1691 Clouds 0 978 82 10000 5.7 230 08:23 30.12.2019
1692 Clouds 1 978 81 10000 7.2 230 07:53 30.12.2019
1693 Clouds 1 978 81 10000 7.2 230 07:32 30.12.2019
1694 Clouds 0 978 81 10000 6.7 240 06:39 30.12.2019
1695 Clouds 1 980 74 10000 6.7 240 04:32 30.12.2019
1696 Fog 1 981 100 1100 4.6 240 03:51 30.12.2019
1697 Rain 1 981 74 700 4.6 220 02:47 30.12.2019
1698 Fog 0 982 74 900 5.1 240 02:27 30.12.2019
1699 Rain 0 982 95 800 5.7 230 01:39 30.12.2019
1700 Rain 0 983 95 1200 6.7 230 01:19 30.12.2019
1701 Rain 0 983 95 2100 6.2 220 00:42 30.12.2019
1702 Snow 0 984 95 4200 6.2 210 23:58 29.12.2019
1703 Snow 0 985 95 6000 6.7 200 23:37 29.12.2019
1704 Clouds 0 986 97 3300 6.2 190 23:19 29.12.2019
1705 Clouds 0 986 97 4000 6.2 190 22:41 29.12.2019
1706 Snow 0 988 97 3900 6.2 190 22:22 29.12.2019
1707 Clouds 0 989 97 4900 5.7 180 21:56 29.12.2019
1708 Clouds 0 989 97 4900 5.7 180 21:56 29.12.2019
1709 Clouds 0 989 97 4900 5.7 180 21:38 29.12.2019
1710 Rain 0 990 97 900 6.2 190 21:19 29.12.2019
1711 Rain 0 990 97 900 6.2 190 21:19 29.12.2019
1712 Rain 0 990 97 900 6.2 190 20:55 29.12.2019
1713 Rain 0 991 97 400 7.2 200 20:37 29.12.2019
1714 Fog 0 992 96 400 6.2 200 20:18 29.12.2019
1715 Fog 0 992 96 400 6.2 200 19:56 29.12.2019
1716 Fog 0 993 96 400 5.7 190 19:37 29.12.2019
1717 Fog 0 994 96 350 6.7 210 19:19 29.12.2019
1718 Fog 0 995 96 350 7.2 200 18:55 29.12.2019
1719 Fog 0 995 96 350 7.2 200 18:55 29.12.2019
1720 Fog 0 995 96 350 7.2 200 18:37 29.12.2019
1721 Fog 0 995 96 350 5.7 200 18:18 29.12.2019
1722 Fog 0 996 96 400 6.7 200 17:56 29.12.2019
1723 Fog 0 996 96 400 6.7 200 17:37 29.12.2019
1724 Fog 0 996 96 400 6.7 200 17:37 29.12.2019
1725 Fog 0 996 96 400 6.7 200 17:37 29.12.2019
1726 Clouds 0 996 95 400 7.2 210 17:19 29.12.2019
1727 Clouds 0 997 95 450 7.2 210 16:55 29.12.2019
1728 Clouds 0 997 95 450 7.2 210 16:36 29.12.2019
1729 Clouds 0 997 95 450 7.2 210 16:36 29.12.2019
1730 Clouds 0 998 95 550 7.2 220 16:18 29.12.2019
1731 Clouds 0 998 95 600 8.7 220 15:55 29.12.2019
1732 Clouds 0 998 95 600 8.7 220 15:37 29.12.2019
1733 Fog 0 999 95 750 7.2 220 15:18 29.12.2019
1734 Fog 0 998 95 1300 9.3 210 14:55 29.12.2019
1735 Fog 0 998 95 1300 9.3 210 14:37 29.12.2019
1736 Clouds 0 999 91 10000 8.2 220 14:18 29.12.2019
1737 Clouds 0 999 91 5000 9.3 220 13:40 29.12.2019
1738 Clouds 0 999 91 5000 9.3 220 13:40 29.12.2019
1739 Clouds -1 999 100 3500 9.3 230 13:22 29.12.2019
1740 Clouds -1 999 100 3500 9.3 230 12:58 29.12.2019
1741 Snow -1 999 100 1800 10.3 220 12:40 29.12.2019
1742 Clouds -1 1000 100 2400 11.3 220 12:22 29.12.2019
1743 Clouds -1 1000 100 2400 11.3 220 12:22 29.12.2019
1744 Clouds -1 1000 100 1000 10.3 220 11:43 29.12.2019
1745 Clouds -1 1000 100 1100 11.3 220 11:23 29.12.2019
1746 Clouds -1 1000 100 1100 11.3 220 11:00 29.12.2019
1747 Clouds 0 1001 92 750 10.3 220 10:41 29.12.2019
1748 Clouds 0 1001 92 550 11.8 220 10:19 29.12.2019
1749 Clouds 0 1002 92 550 10.8 220 09:47 29.12.2019
1750 Clouds 0 1002 92 550 10.8 220 09:28 29.12.2019
1751 Snow -1 1002 100 3300 11.3 220 08:59 29.12.2019
1752 Snow -1 1002 100 2400 11.8 210 08:41 29.12.2019
1753 Snow -1 1002 100 3700 11.3 210 08:23 29.12.2019
1754 Snow -1 1003 92 1200 11.8 200 07:49 29.12.2019
1755 Snow -2 1004 100 1300 10.3 200 07:27 29.12.2019
1756 Snow -2 1004 92 1300 11.3 190 06:52 29.12.2019
1757 Snow -3 1005 100 2200 10.8 190 06:22 29.12.2019
1758 Snow -3 1007 100 6000 11.3 190 05:45 29.12.2019
1759 Snow -2 1009 92 9000 11.3 200 04:33 29.12.2019
1760 Snow -2 1010 100 5000 9.8 190 03:39 29.12.2019
1761 Snow -1 1012 92 4700 10.3 200 02:36 29.12.2019
1762 Clouds -1 1013 92 4300 10.3 210 02:18 29.12.2019
1763 Snow -1 1014 92 6000 11.3 210 01:29 29.12.2019
1764 Snow -1 1015 92 8000 11.8 210 00:47 29.12.2019
1765 Snow -1 1015 92 8000 11.8 210 00:25 29.12.2019
1766 Snow -2 1016 100 4000 12.3 210 23:55 28.12.2019
1767 Snow -2 1016 100 4000 12.3 210 23:37 28.12.2019
1768 Clouds -2 1017 100 4100 12.3 210 23:18 28.12.2019
1769 Clouds -2 1017 100 4100 12.3 210 23:18 28.12.2019
1770 Clouds -2 1017 100 4100 12.3 210 23:18 28.12.2019
1771 Clouds -2 1017 100 10000 12.3 210 22:37 28.12.2019
1772 Clouds -2 1017 100 3800 11.8 210 22:18 28.12.2019
1773 Clouds -2 1017 100 3800 11.8 210 21:56 28.12.2019
1774 Snow -2 1018 100 5000 10.8 220 21:37 28.12.2019
1775 Snow -2 1018 100 2000 11.3 210 21:19 28.12.2019
1776 Snow -2 1019 100 3300 10.3 220 20:54 28.12.2019
1777 Snow -2 1019 100 3300 10.3 220 20:36 28.12.2019
1778 Snow -4 1019 100 2300 7.2 200 20:18 28.12.2019
1779 Snow -4 1019 100 3400 7.7 200 19:41 28.12.2019
1780 Clouds -4 1020 92 4000 7.2 200 19:23 28.12.2019
1781 Clouds -4 1020 92 4000 7.2 200 18:59 28.12.2019
1782 Snow -4 1020 92 3100 8.7 200 18:40 28.12.2019
1783 Clouds -4 1021 92 2400 7.2 200 18:20 28.12.2019
1784 Snow -5 1021 92 3100 9.8 200 17:57 28.12.2019
1785 Snow -5 1021 92 3100 9.8 200 17:38 28.12.2019
1786 Snow -5 1021 92 3100 8.7 200 17:19 28.12.2019
1787 Snow -5 1022 92 3900 8.7 190 16:47 28.12.2019
1788 Snow -5 1022 92 3900 8.7 190 16:26 28.12.2019
1789 Snow -5 1023 92 3100 8.7 200 15:57 28.12.2019
1790 Clouds -5 1023 92 4800 8.7 190 15:39 28.12.2019
1791 Snow -6 1024 92 8000 8.2 190 15:19 28.12.2019
1792 Snow -6 1024 92 10000 8.7 190 14:44 28.12.2019
1793 Snow -6 1025 92 10000 9.8 190 14:24 28.12.2019
1794 Snow -6 1025 92 10000 9.8 190 14:24 28.12.2019
1795 Snow -6 1025 92 10000 9.8 190 13:57 28.12.2019
1796 Snow -6 1025 92 10000 9.3 190 13:38 28.12.2019
1797 Clouds -7 1025 92 10000 8.7 190 13:19 28.12.2019
1798 Snow -6 1026 92 10000 10.3 200 12:43 28.12.2019
1799 Snow -6 1026 92 10000 10.3 200 12:24 28.12.2019
1800 Snow -6 1026 92 10000 10.3 200 12:24 28.12.2019
1801 Snow -6 1026 92 10000 9.3 190 11:57 28.12.2019
1802 Snow -6 1028 92 10000 8.7 190 11:39 28.12.2019
1803 Snow -6 1029 92 10000 8.7 200 11:20 28.12.2019
1804 Snow -6 1029 92 10000 8.7 200 10:44 28.12.2019
1805 Clouds -6 1030 92 10000 9.3 200 10:22 28.12.2019
1806 Clouds -6 1030 92 10000 9.3 200 09:58 28.12.2019
1807 Clouds -7 1030 92 10000 8.2 190 09:40 28.12.2019
1808 Clouds -7 1030 92 10000 7.2 190 09:20 28.12.2019
1809 Snow -8 1031 92 10000 6.2 190 08:44 28.12.2019
1810 Snow -10 1031 92 3800 5.7 180 08:26 28.12.2019
1811 Snow -10 1031 92 3800 5.7 180 07:55 28.12.2019
1812 Snow -10 1032 85 2500 5.1 180 07:31 28.12.2019
1813 Snow -12 1032 85 10000 4.1 160 06:41 28.12.2019
1814 Snow -13 1034 84 450 4.1 180 04:51 28.12.2019
1815 Snow -14 1035 84 650 4.6 220 03:47 28.12.2019
1816 Snow -14 1035 92 1200 2.6 220 02:48 28.12.2019
1817 Snow -14 1035 92 10000 1 0 01:59 28.12.2019
1818 Snow -13 1035 84 1200 2.1 200 01:30 28.12.2019
1819 Snow -12 1035 85 1600 1 0 00:58 28.12.2019
1820 Snow -12 1035 85 1600 1 0 00:38 28.12.2019
1821 Fog -12 1035 85 1000 1.5 200 00:19 28.12.2019
1822 Snow -13 1035 92 1600 1.5 200 23:43 27.12.2019
1823 Snow -15 1035 84 2100 1.5 170 23:20 27.12.2019
1824 Snow -15 1035 84 2100 1.5 170 22:57 27.12.2019
1825 Clouds -15 1035 92 10000 1 0 22:38 27.12.2019
1826 Clouds -16 1035 91 10000 0.5 0 22:20 27.12.2019
1827 Fog -16 1035 91 1900 1 0 21:55 27.12.2019
1828 Fog -16 1035 91 1900 1 0 21:36 27.12.2019
1829 Clouds -15 1035 84 10000 0.5 0 21:18 27.12.2019
1830 Clear -15 1035 84 10000 1.45 195 20:41 27.12.2019
1831 Clear -14 1035 92 1800 0.5 0 20:22 27.12.2019
1832 Clear -14 1035 84 10000 1 80 19:43 27.12.2019
1833 Clear -14 1035 92 10000 2.1 80 19:21 27.12.2019
1834 Clear -14 1035 92 10000 2.1 80 18:59 27.12.2019
1835 Clear -13 1035 92 10000 0.5 0 18:39 27.12.2019
1836 Clear -14 1035 92 10000 0.5 0 18:20 27.12.2019
1837 Clear -14 1035 92 10000 0.5 0 17:57 27.12.2019
1838 Clear -12 1035 85 10000 1 0 17:39 27.12.2019
1839 Clear -12 1034 92 10000 0.5 0 17:19 27.12.2019
1840 Clear -12 1034 92 10000 0.5 0 16:58 27.12.2019
1841 Clear -12 1034 92 10000 0.5 0 16:38 27.12.2019
1842 Clear -12 1034 92 10000 1 0 16:19 27.12.2019
1843 Clear -12 1034 92 10000 1 0 16:19 27.12.2019
1844 Clear -12 1034 85 10000 1 0 15:43 27.12.2019
1845 Clear -12 1033 92 10000 0.5 0 15:22 27.12.2019
1846 Clear -12 1033 92 10000 0.5 0 14:57 27.12.2019
1847 Clear -13 1033 92 10000 1 0 14:39 27.12.2019
1848 Clear -13 1033 92 10000 1.5 350 14:20 27.12.2019
1849 Clear -10 1033 85 10000 2.1 340 13:48 27.12.2019
1850 Clear -10 1033 85 10000 2.1 340 13:25 27.12.2019
1851 Clear -10 1033 85 10000 2.1 340 13:25 27.12.2019
1852 Clear -10 1033 92 10000 2.6 340 12:58 27.12.2019
1853 Clear -10 1032 85 10000 4.6 350 12:39 27.12.2019
1854 Clouds -10 1032 92 10000 4.6 340 12:21 27.12.2019
1855 Clouds -10 1032 85 10000 3.6 360 11:44 27.12.2019
1856 Clouds -11 1031 92 10000 4.1 360 11:24 27.12.2019
1857 Clouds -11 1031 92 10000 4.1 360 10:55 27.12.2019
1858 Clouds -11 1031 85 10000 3.6 360 10:37 27.12.2019
1859 Clouds -11 1031 92 10000 3.6 350 10:19 27.12.2019
1860 Clear -10 1030 85 10000 4.1 350 09:42 27.12.2019
1861 Clear -10 1030 85 10000 3.6 340 09:21 27.12.2019
1862 Clear -10 1030 85 10000 3.6 350 08:56 27.12.2019
1863 Clear -10 1030 85 10000 3.6 350 08:36 27.12.2019
1864 Clear -10 1029 85 10000 4.1 350 07:51 27.12.2019
1865 Clear -10 1029 85 10000 4.1 350 07:31 27.12.2019
1866 Clouds -9 1028 85 10000 5.1 350 06:37 27.12.2019
1867 Clouds -10 1028 92 10000 5.1 340 05:28 27.12.2019
1868 Clear -10 1027 92 10000 4.1 350 03:40 27.12.2019
1869 Clouds -9 1026 92 10000 4.1 350 02:20 27.12.2019
1870 Clouds -8 1026 85 10000 4.1 350 01:37 27.12.2019
1871 Clouds -8 1025 92 10000 4.1 350 01:18 27.12.2019
1872 Clear -8 1025 92 10000 4.1 340 00:41 27.12.2019
1873 Clear -7 1025 92 10000 4.1 340 00:23 27.12.2019
1874 Clear -6 1025 85 10000 3.6 350 23:41 26.12.2019
1875 Clouds -6 1024 92 10000 3.6 360 23:22 26.12.2019
1876 Clouds -5 1024 85 10000 4.1 340 22:47 26.12.2019
1877 Clouds -5 1024 92 10000 4.1 350 22:23 26.12.2019
1878 Clouds -5 1024 92 10000 4.1 350 21:59 26.12.2019
1879 Clouds -5 1023 92 10000 4.6 350 21:38 26.12.2019
1880 Clouds -5 1023 92 10000 4.6 360 21:20 26.12.2019
1881 Clouds -5 1022 92 10000 4.6 360 20:46 26.12.2019
1882 Snow -5 1023 92 10000 4.6 10 20:23 26.12.2019
1883 Snow -5 1023 92 10000 4.6 10 20:23 26.12.2019
1884 Snow -5 1023 92 10000 4.6 10 19:59 26.12.2019
1885 Clouds -5 1022 92 10000 4.1 360 19:40 26.12.2019
1886 Snow -5 1022 92 10000 3.6 350 19:21 26.12.2019
1887 Snow -5 1022 92 10000 3.6 350 18:58 26.12.2019
1888 Snow -5 1022 92 10000 3.6 350 18:39 26.12.2019
1889 Snow -5 1022 92 10000 3.6 350 18:19 26.12.2019
1890 Snow -5 1021 92 9000 4.1 350 17:43 26.12.2019
1891 Snow -6 1021 92 10000 4.1 350 17:22 26.12.2019
1892 Snow -6 1021 92 10000 4.1 350 16:59 26.12.2019
1893 Snow -6 1021 92 10000 3.6 340 16:41 26.12.2019
1894 Snow -6 1021 92 10000 3.6 350 16:21 26.12.2019
1895 Clouds -6 1021 92 10000 3.6 360 15:41 26.12.2019
1896 Clouds -6 1020 92 10000 3.1 360 15:22 26.12.2019
1897 Clouds -6 1020 92 10000 3.1 360 14:59 26.12.2019
1898 Clouds -6 1020 85 10000 2.1 350 14:39 26.12.2019
1899 Clouds -6 1020 85 10000 4.1 10 14:20 26.12.2019
1900 Snow -7 1019 92 10000 4.6 20 13:43 26.12.2019
1901 Snow -7 1019 92 10000 6.7 50 13:21 26.12.2019
1902 Snow -7 1019 92 10000 6.7 50 12:56 26.12.2019
1903 Clouds -7 1019 92 10000 7.2 40 12:37 26.12.2019
1904 Snow -6 1018 85 10000 7.7 30 12:19 26.12.2019
1905 Snow -6 1018 85 10000 7.7 30 11:56 26.12.2019
1906 Snow -5 1018 85 5000 8.2 30 11:37 26.12.2019
1907 Snow -5 1018 85 5000 8.2 30 11:37 26.12.2019
1908 Snow -4 1018 92 10000 6.2 20 11:19 26.12.2019
1909 Snow -3 1017 86 10000 6.2 20 10:41 26.12.2019
1910 Snow -3 1017 86 10000 6.2 20 10:41 26.12.2019
1911 Snow -3 1017 92 10000 5.1 20 10:18 26.12.2019
1912 Snow -3 1017 92 10000 5.1 20 09:43 26.12.2019
1913 Snow -3 1017 92 10000 5.1 20 09:25 26.12.2019
1914 Clouds -3 1017 92 10000 3.1 350 08:42 26.12.2019
1915 Clouds -3 1016 92 10000 4.6 20 08:24 26.12.2019
1916 Snow -3 1016 92 10000 3.1 360 07:52 26.12.2019
1917 Snow -3 1016 92 10000 3.1 360 07:26 26.12.2019
1918 Clouds -4 1016 100 10000 3.1 360 06:48 26.12.2019
1919 Clouds -4 1016 100 10000 3.1 360 06:30 26.12.2019
1920 Clouds -4 1016 92 10000 4.1 10 05:45 26.12.2019
1921 Clouds -4 1015 100 10000 4.1 10 04:38 26.12.2019
1922 Clouds -3 1015 92 10000 5.1 20 03:47 26.12.2019
1923 Clouds -3 1015 100 10000 3.6 10 02:50 26.12.2019
1924 Clouds -3 1015 100 10000 3.6 10 02:31 26.12.2019
1925 Clouds -3 1015 100 10000 3.6 10 02:31 26.12.2019
1926 Clouds -3 1015 100 10000 3.6 20 01:45 26.12.2019
1927 Snow -3 1014 92 10000 3.6 10 01:26 26.12.2019
1928 Snow -3 1014 92 7000 3.1 20 00:47 26.12.2019
1929 Snow -3 1014 92 10000 3.1 10 00:24 26.12.2019
1930 Snow -3 1014 92 10000 3.1 10 23:58 25.12.2019
1931 Snow -3 1014 92 10000 3.1 10 23:38 25.12.2019
1932 Clouds -3 1014 92 10000 3.6 360 23:19 25.12.2019
1933 Clouds -3 1014 92 10000 4.1 360 22:57 25.12.2019
1934 Clouds -3 1014 92 10000 4.1 360 22:37 25.12.2019
1935 Snow -4 1013 100 10000 3.6 360 22:19 25.12.2019
1936 Snow -4 1013 100 10000 3.6 360 21:55 25.12.2019
1937 Clouds -4 1013 100 10000 3.1 360 21:37 25.12.2019
1938 Clouds -4 1013 100 10000 3.6 360 21:19 25.12.2019
1939 Clouds -4 1013 100 10000 3.6 360 20:40 25.12.2019
1940 Clouds -3 1013 92 10000 3.6 360 20:21 25.12.2019
1941 Clouds -3 1013 92 10000 3.6 360 19:59 25.12.2019
1942 Clouds -3 1013 92 10000 3.6 360 19:41 25.12.2019
1943 Clouds -3 1013 92 10000 3.6 360 19:21 25.12.2019
1944 Clouds -3 1013 92 10000 3.1 360 18:40 25.12.2019
1945 Clouds -3 1013 92 10000 3.6 360 18:21 25.12.2019
1946 Clouds -3 1013 92 10000 3.6 360 18:21 25.12.2019
1947 Clouds -3 1013 92 10000 3.6 360 17:57 25.12.2019
1948 Clouds -3 1012 92 10000 3.1 360 17:39 25.12.2019
1949 Clouds -3 1012 92 10000 3.1 360 17:18 25.12.2019
1950 Clouds -3 1012 92 10000 3.1 20 16:39 25.12.2019
1951 Clouds -3 1012 92 10000 2.6 30 16:20 25.12.2019
1952 Clouds -3 1012 92 10000 2.6 30 15:59 25.12.2019
1953 Clouds -3 1012 92 10000 2.6 20 15:40 25.12.2019
1954 Clouds -3 1012 92 10000 2.6 40 15:22 25.12.2019
1955 Clouds -3 1012 92 10000 2.6 40 14:59 25.12.2019
1956 Clouds -3 1012 92 10000 3.1 30 14:40 25.12.2019
1957 Clouds -3 1012 100 10000 3.1 30 14:22 25.12.2019
1958 Clouds -3 1012 100 10000 3.1 30 13:57 25.12.2019
1959 Clouds -3 1012 100 10000 3.1 30 13:57 25.12.2019
1960 Clouds -3 1012 100 10000 2.6 50 13:39 25.12.2019
1961 Clouds -3 1012 100 10000 2.6 30 13:19 25.12.2019
1962 Clouds -3 1011 92 10000 1.5 350 12:43 25.12.2019
1963 Clouds -3 1011 100 10000 2.1 10 12:21 25.12.2019
1964 Clouds -3 1011 100 10000 2.1 10 11:57 25.12.2019
1965 Clouds -3 1011 100 10000 2.1 10 11:39 25.12.2019
1966 Clouds -3 1011 100 10000 3.1 10 11:18 25.12.2019
1967 Snow -3 1011 100 10000 2.1 10 10:38 25.12.2019
1968 Clouds -2 1011 92 10000 2.1 70 10:20 25.12.2019
1969 Clouds -3 1010 100 10000 2.1 60 09:51 25.12.2019
1970 Clouds -3 1010 100 10000 2.1 60 09:32 25.12.2019
1971 Clouds -3 1010 100 6000 2.1 360 08:51 25.12.2019
1972 Clouds -3 1010 100 6000 2.1 360 08:31 25.12.2019
1973 Fog -3 1009 100 1200 1.5 20 07:52 25.12.2019
1974 Fog -3 1009 100 1200 1.5 20 07:34 25.12.2019
1975 Fog -2 1009 92 900 1 360 06:52 25.12.2019
1976 Fog -2 1009 100 700 2.1 20 06:23 25.12.2019
1977 Fog -2 1009 100 600 0.5 0 05:31 25.12.2019
1978 Fog -2 1009 92 1100 1.5 360 04:39 25.12.2019
1979 Mist -2 1009 92 2000 1 20 04:20 25.12.2019
1980 Fog -2 1008 100 1600 1.5 30 03:42 25.12.2019
1981 Fog -2 1008 100 700 0.5 350 02:54 25.12.2019
1982 Fog -2 1008 100 600 0.5 0 02:27 25.12.2019
1983 Fog -2 1008 100 550 1 30 01:25 25.12.2019
1984 Fog -2 1008 100 1200 1 10 00:54 25.12.2019
1985 Clouds -2 1007 100 6000 1 0 00:33 25.12.2019
1986 Fog -2 1007 100 1200 1 0 23:57 24.12.2019
1987 Clouds -2 1007 100 10000 1 240 23:38 24.12.2019
1988 Mist -2 1007 100 3900 1.5 190 23:20 24.12.2019
1989 Clouds -2 1007 100 6000 0.5 0 22:41 24.12.2019
1990 Clouds -2 1007 100 6000 0.5 0 22:41 24.12.2019
1991 Fog -2 1007 100 1000 0.5 240 22:21 24.12.2019
1992 Fog -1 1007 92 1100 0.5 0 21:44 24.12.2019
1993 Fog -1 1007 92 1100 0.5 0 21:44 24.12.2019
1994 Fog -1 1006 92 900 0.5 0 21:23 24.12.2019
1995 Fog -1 1006 92 900 0.5 0 20:59 24.12.2019
1996 Fog -1 1006 92 700 1 0 20:40 24.12.2019
1997 Fog -1 1006 92 900 1 0 20:19 24.12.2019
1998 Fog -1 1006 92 500 1.5 200 19:45 24.12.2019
1999 Fog -1 1005 92 900 1 0 19:20 24.12.2019
2000 Fog -1 1005 92 900 1 0 18:57 24.12.2019
2001 Fog -1 1005 92 700 0.5 0 18:38 24.12.2019
2002 Fog -1 1005 92 750 1 0 18:18 24.12.2019
2003 Fog -1 1005 100 1000 1 210 17:39 24.12.2019
2004 Fog -1 1005 100 1100 1 0 17:21 24.12.2019
2005 Fog -1 1005 100 1100 1 0 16:55 24.12.2019
2006 Mist -1 1005 100 2900 1 0 16:37 24.12.2019
2007 Fog -1 1004 100 800 1 0 16:19 24.12.2019
2008 Fog -1 1004 100 800 1 0 15:55 24.12.2019
2009 Fog -1 1004 100 550 1.5 270 15:36 24.12.2019
2010 Fog -1 1004 100 500 1.5 240 15:18 24.12.2019
2011 Fog -1 1004 100 500 1.5 240 15:18 24.12.2019
2012 Fog -1 1004 100 500 1.5 240 14:55 24.12.2019
2013 Fog -1 1004 100 500 1.5 220 14:37 24.12.2019
2014 Fog -1 1004 100 750 1 240 14:19 24.12.2019
2015 Fog -1 1004 100 750 1 240 13:55 24.12.2019
2016 Fog -1 1003 100 900 1.5 230 13:37 24.12.2019
2017 Fog -1 1003 100 900 1.5 230 13:37 24.12.2019
2018 Fog -1 1003 100 600 1 230 13:19 24.12.2019
2019 Fog -1 1003 100 600 1.5 230 12:55 24.12.2019
2020 Fog -1 1003 100 600 1.5 230 12:36 24.12.2019
2021 Clouds -1 1003 100 600 1.5 240 12:18 24.12.2019
2022 Fog -1 1003 100 350 1.5 0 11:55 24.12.2019
2023 Fog -1 1003 100 350 1.5 0 11:36 24.12.2019
2024 Fog -1 1003 100 250 1 240 11:18 24.12.2019
2025 Fog -1 1003 100 350 1.5 220 10:55 24.12.2019
2026 Fog -1 1003 100 350 1.5 220 10:55 24.12.2019
2027 Fog -1 1003 100 350 1.5 220 10:36 24.12.2019
2028 Fog -1 1003 100 350 1 220 10:18 24.12.2019
2029 Fog -1 1003 100 350 1 220 09:54 24.12.2019
2030 Fog -1 1002 100 350 1.5 230 09:36 24.12.2019
2031 Clouds -1 1002 100 450 2.1 200 09:18 24.12.2019
2032 Fog -1 1002 100 600 1.5 220 08:42 24.12.2019
2033 Fog -1 1002 100 600 1.5 220 08:42 24.12.2019
2034 Fog -1 1001 100 550 1.5 230 08:19 24.12.2019
2035 Fog -1 1001 100 650 1.5 230 07:45 24.12.2019
2036 Snow -1 1001 100 1000 2.1 220 07:23 24.12.2019
2037 Fog -1 1001 100 900 2.1 220 06:41 24.12.2019
2038 Fog -1 1001 100 650 2.6 210 06:22 24.12.2019
2039 Clouds -1 1001 100 700 2.6 210 05:56 24.12.2019
2040 Clouds -1 1001 100 700 2.6 210 05:56 24.12.2019
2041 Clouds -1 1001 100 650 3.1 200 05:20 24.12.2019
2042 Clouds -1 1001 100 1600 2.6 230 04:22 24.12.2019
2043 Clouds -1 1001 100 6000 2.1 220 03:50 24.12.2019
2044 Clouds -1 1000 100 10000 3.6 210 02:37 24.12.2019
2045 Clouds -1 1000 100 10000 4.1 200 02:18 24.12.2019
2046 Clouds -1 1000 100 7000 2.6 190 01:42 24.12.2019
2047 Clouds -1 1000 100 7000 2.6 190 01:42 24.12.2019
2048 Clouds 0 1000 97 10000 2.6 180 01:19 24.12.2019
2049 Clouds 0 1000 97 10000 2.6 180 00:40 24.12.2019
2050 Clouds 0 1000 97 10000 3.1 170 00:20 24.12.2019
2051 Clouds 0 1000 97 10000 2.6 160 23:43 23.12.2019
2052 Clouds 0 999 97 10000 2.1 160 23:24 23.12.2019
2053 Clouds 0 999 97 10000 2.1 160 22:58 23.12.2019
2054 Clouds 0 999 97 10000 2.1 160 22:58 23.12.2019
2055 Clouds 0 999 97 2500 2.1 160 22:38 23.12.2019
2056 Clouds 0 999 97 2700 2.1 160 22:20 23.12.2019
2057 Clouds 0 999 97 2700 2.1 160 21:57 23.12.2019
2058 Clouds 0 999 97 5000 2.6 170 21:37 23.12.2019
2059 Clouds 0 999 97 1900 3.1 150 21:19 23.12.2019
2060 Clouds 0 999 97 1900 3.1 150 20:59 23.12.2019
2061 Snow 0 999 97 2400 2.6 160 20:41 23.12.2019
2062 Snow 0 999 98 2000 2.1 150 20:19 23.12.2019
2063 Snow 0 999 98 2000 2.1 150 19:59 23.12.2019
2064 Snow 0 998 98 2400 2.6 150 19:40 23.12.2019
2065 Snow 0 998 98 2400 2.6 150 19:40 23.12.2019
2066 Snow 0 998 98 5000 2.6 150 19:22 23.12.2019
2067 Snow 0 998 98 5000 2.6 150 18:58 23.12.2019
2068 Snow 0 998 98 2800 2.6 150 18:39 23.12.2019
2069 Clouds 0 998 98 1200 2.6 160 18:21 23.12.2019
2070 Clouds 0 998 98 1200 2.6 160 17:59 23.12.2019
2071 Fog 0 998 98 1200 2.6 150 17:40 23.12.2019
2072 Clouds 0 998 99 1200 3.1 150 17:19 23.12.2019
2073 Clouds 0 998 99 1200 3.1 150 17:19 23.12.2019
2074 Clouds 0 998 99 1200 3.1 150 16:57 23.12.2019
2075 Snow 0 998 99 1400 2.6 140 16:39 23.12.2019
2076 Clouds -1 998 100 1100 2.6 130 16:19 23.12.2019
2077 Clouds -1 998 100 1100 2.6 130 16:19 23.12.2019
2078 Clouds -1 998 100 1100 2.6 130 15:57 23.12.2019
2079 Clouds -1 998 100 1100 2.6 130 15:57 23.12.2019
2080 Snow -1 998 100 3600 2.6 130 15:37 23.12.2019
2081 Snow -1 997 100 5000 2.6 130 15:19 23.12.2019
2082 Snow -1 997 100 3900 3.1 0 14:56 23.12.2019
2083 Snow -1 997 100 3900 3.1 0 14:38 23.12.2019
2084 Snow -1 997 100 2500 3.1 110 14:18 23.12.2019
2085 Snow -1 997 100 2500 3.1 110 13:56 23.12.2019
2086 Snow -1 997 100 2200 3.1 110 13:37 23.12.2019
2087 Snow -1 997 100 1400 3.6 110 13:19 23.12.2019
2088 Snow -1 997 100 1400 4.1 110 12:54 23.12.2019
2089 Snow -1 997 100 1400 4.1 110 12:36 23.12.2019
2090 Snow -1 997 100 1600 3.6 110 12:18 23.12.2019
2091 Snow -1 997 100 1600 4.1 100 11:42 23.12.2019
2092 Snow -1 997 100 1200 4.1 100 11:22 23.12.2019
2093 Snow -1 997 100 1200 4.1 100 10:56 23.12.2019
2094 Snow -1 997 100 1200 4.6 100 10:37 23.12.2019
2095 Snow -1 997 100 1400 4.1 90 10:18 23.12.2019
2096 Snow -1 997 100 1300 4.1 90 09:56 23.12.2019
2097 Snow -1 997 100 1300 4.1 90 09:37 23.12.2019
2098 Snow -1 996 92 2800 4.1 90 09:19 23.12.2019
2099 Snow -1 996 92 5000 4.6 100 08:41 23.12.2019
2100 Snow -1 996 100 9000 5.1 100 08:22 23.12.2019
2101 Snow -1 996 100 9000 5.1 100 07:56 23.12.2019
2102 Snow -1 996 92 7000 4.6 100 07:38 23.12.2019
2103 Snow -1 996 92 2500 5.7 100 07:18 23.12.2019
2104 Snow -1 996 92 4000 5.7 90 06:39 23.12.2019
2105 Snow -1 996 92 10000 5.7 100 06:21 23.12.2019
2106 Snow -1 996 92 10000 5.7 100 05:44 23.12.2019
2107 Clouds -2 996 100 5000 5.7 90 04:40 23.12.2019
2108 Snow -2 996 100 10000 5.7 90 03:58 23.12.2019
2109 Snow -2 996 100 4400 5.1 90 02:46 23.12.2019
2110 Snow -2 996 92 6000 5.1 90 02:19 23.12.2019
2111 Clouds -2 996 92 10000 4.6 80 01:45 23.12.2019
2112 Clouds -2 996 92 10000 4.6 80 01:27 23.12.2019
2113 Snow -2 996 92 10000 5.1 80 00:45 23.12.2019
2114 Snow -2 997 92 10000 4.6 80 00:24 23.12.2019
2115 Snow -2 996 92 10000 5.1 80 00:24 23.12.2019
2116 Snow -2 997 92 10000 5.1 80 23:40 22.12.2019
2117 Snow -2 997 92 10000 5.7 80 23:22 22.12.2019
2118 Snow -2 997 92 10000 5.7 80 22:58 22.12.2019
2119 Snow -2 997 92 10000 5.7 80 22:58 22.12.2019
2120 Snow -2 997 92 10000 4.6 90 22:40 22.12.2019
2121 Clouds -2 997 92 10000 5.1 90 22:22 22.12.2019
2122 Clouds -2 997 92 10000 5.1 90 21:59 22.12.2019
2123 Clouds -2 997 92 10000 6.2 80 21:40 22.12.2019
2124 Clouds -2 997 92 5000 5.1 90 21:21 22.12.2019
2125 Clouds -2 997 92 5000 5.1 90 21:21 22.12.2019
2126 Clouds -2 997 92 5000 5.1 90 20:58 22.12.2019
2127 Clouds -2 997 92 6000 5.1 90 20:39 22.12.2019
2128 Clouds -2 997 92 10000 4.6 80 20:19 22.12.2019
2129 Clouds -2 997 92 10000 4.6 80 19:57 22.12.2019
2130 Clouds -2 997 92 10000 4.6 80 19:57 22.12.2019
2131 Clouds -2 997 92 10000 5.1 80 19:38 22.12.2019
2132 Clouds -2 997 92 10000 4.6 90 19:19 22.12.2019
2133 Clouds -2 997 92 10000 5.1 90 18:42 22.12.2019
2134 Clouds -2 997 92 9000 5.1 90 18:23 22.12.2019
2135 Clouds -2 997 92 9000 5.1 90 17:56 22.12.2019
2136 Clouds -2 997 92 9000 5.1 80 17:38 22.12.2019
2137 Clouds -3 997 100 8000 5.1 80 17:19 22.12.2019
2138 Clouds -3 997 100 8000 5.1 80 16:57 22.12.2019
2139 Clouds -3 996 100 7000 5.1 70 16:38 22.12.2019
2140 Clouds -3 997 100 7000 5.1 70 16:20 22.12.2019
2141 Clouds -3 997 100 7000 5.1 70 15:56 22.12.2019
2142 Clouds -3 996 100 10000 4.1 60 15:37 22.12.2019
2143 Clouds -3 996 100 10000 4.6 70 15:19 22.12.2019
2144 Clouds -3 996 100 10000 4.1 60 14:55 22.12.2019
2145 Clouds -3 996 100 10000 4.1 60 14:36 22.12.2019
2146 Clouds -3 996 100 10000 4.6 60 14:18 22.12.2019
2147 Clouds -3 996 100 10000 4.6 60 13:55 22.12.2019
2148 Clouds -3 996 100 10000 4.6 60 13:36 22.12.2019
2149 Snow -3 996 92 10000 4.6 60 13:18 22.12.2019
2150 Snow -3 996 92 10000 4.6 60 12:55 22.12.2019
2151 Snow -3 996 92 10000 4.6 60 12:37 22.12.2019
2152 Snow -3 996 92 10000 4.6 60 12:18 22.12.2019
2153 Snow -3 996 92 4100 4.6 60 11:39 22.12.2019
2154 Snow -3 996 100 1900 4.6 60 11:21 22.12.2019
2155 Snow -3 996 100 10000 4.6 50 10:59 22.12.2019
2156 Snow -3 996 100 10000 4.6 50 10:40 22.12.2019
2157 Snow -3 996 100 10000 3.6 60 10:21 22.12.2019
2158 Snow -3 996 100 10000 3.6 60 09:59 22.12.2019
2159 Clouds -3 996 100 5000 4.1 60 09:40 22.12.2019
2160 Clouds -3 996 100 7000 4.1 60 09:21 22.12.2019
2161 Clouds -3 996 100 7000 4.1 60 08:59 22.12.2019
2162 Snow -3 996 100 3900 3.6 70 08:37 22.12.2019
2163 Snow -3 996 100 1900 4.1 60 08:18 22.12.2019
2164 Snow -3 996 100 1900 4.1 60 08:18 22.12.2019
2165 Snow -2 996 92 1100 4.1 60 07:38 22.12.2019
2166 Clouds -2 995 92 600 4.1 70 07:19 22.12.2019
2167 Clouds -2 995 100 550 4.1 60 06:40 22.12.2019
2168 Clouds -2 995 100 450 3.6 60 05:53 22.12.2019
2169 Clouds -2 995 100 450 3.1 60 05:21 22.12.2019
2170 Fog -1 995 92 500 2.6 70 04:28 22.12.2019
2171 Fog -1 995 100 500 2.6 70 03:45 22.12.2019
2172 Fog -1 995 100 450 1.5 70 02:38 22.12.2019
2173 Fog -1 995 100 450 1.5 70 02:38 22.12.2019
2174 Fog -1 995 100 550 1.5 100 01:37 22.12.2019
2175 Fog -1 995 100 500 1.5 60 01:18 22.12.2019
2176 Fog -1 995 100 550 1.5 90 00:45 22.12.2019
2177 Fog -1 995 100 650 1.5 100 00:21 22.12.2019
2178 Fog -1 995 100 550 1 80 23:42 21.12.2019
2179 Fog -1 994 100 600 1.5 80 23:24 21.12.2019
2180 Fog -1 994 100 600 1.5 80 22:59 21.12.2019
2181 Fog -1 994 100 800 1.5 130 22:40 21.12.2019
2182 Fog -1 994 100 1100 1.5 130 22:19 21.12.2019
2183 Fog -1 994 100 1100 1.5 130 21:57 21.12.2019
2184 Snow -1 994 100 1300 1.5 110 21:37 21.12.2019
2185 Snow -1 994 100 1000 1.5 90 21:19 21.12.2019
2186 Snow -1 994 100 1000 1.5 90 20:58 21.12.2019
2187 Snow -1 994 100 1000 1.5 90 20:58 21.12.2019
2188 Snow -1 994 100 1300 2.1 90 20:39 21.12.2019
2189 Clouds -1 994 92 2900 2.1 90 20:21 21.12.2019
2190 Clouds -1 994 92 2900 2.1 90 19:57 21.12.2019
2191 Snow -1 994 92 1000 2.1 90 19:39 21.12.2019
2192 Clouds -1 994 92 650 2.6 80 19:19 21.12.2019
2193 Fog -2 994 100 650 2.1 0 18:42 21.12.2019
2194 Snow -2 994 100 1200 2.6 80 18:24 21.12.2019
2195 Clouds -2 994 100 2100 2.6 90 17:57 21.12.2019
2196 Clouds -2 994 100 2100 2.6 90 17:39 21.12.2019
2197 Clouds -2 994 100 1300 2.6 80 17:21 21.12.2019
2198 Clouds -2 994 100 1300 2.6 80 16:57 21.12.2019
2199 Clouds -2 994 100 1300 2.6 80 16:57 21.12.2019
2200 Clouds -2 994 100 1900 2.6 90 16:39 21.12.2019
2201 Clouds -2 994 100 1300 2.1 80 16:18 21.12.2019
2202 Clouds -2 994 100 1300 2.1 80 15:56 21.12.2019
2203 Clouds -2 995 100 3200 2.6 80 15:37 21.12.2019
2204 Clouds -2 995 100 9000 2.6 90 15:19 21.12.2019
2205 Clouds -2 995 100 5000 2.6 70 14:44 21.12.2019
2206 Clouds -2 995 100 5000 2.6 70 14:25 21.12.2019
2207 Clouds -2 995 100 7000 2.1 90 13:59 21.12.2019
2208 Clouds -2 995 92 9000 3.6 90 13:40 21.12.2019
2209 Snow -2 996 92 10000 2.6 100 13:20 21.12.2019
2210 Snow -2 996 92 10000 2.6 100 12:57 21.12.2019
2211 Snow -3 996 100 10000 2.6 90 12:39 21.12.2019
2212 Snow -3 996 100 10000 2.6 90 12:21 21.12.2019
2213 Snow -3 996 100 3600 2.6 80 11:57 21.12.2019
2214 Snow -3 996 100 3600 2.6 80 11:39 21.12.2019
2215 Snow -3 996 100 2800 3.1 100 11:21 21.12.2019
2216 Snow -3 996 100 3100 2.6 90 10:41 21.12.2019
2217 Snow -3 997 100 4000 2.6 90 10:23 21.12.2019
2218 Snow -3 997 100 4000 2.6 90 10:23 21.12.2019
2219 Snow -3 997 100 4000 2.6 90 09:58 21.12.2019
2220 Snow -3 997 100 2400 2.6 90 09:40 21.12.2019
2221 Snow -3 997 100 3500 3.1 90 09:20 21.12.2019
2222 Snow -3 997 100 4900 3.1 80 08:52 21.12.2019
2223 Snow -3 997 100 4900 3.1 80 08:27 21.12.2019
2224 Snow -3 997 100 8000 3.1 90 07:58 21.12.2019
2225 Snow -3 997 100 10000 3.1 90 07:40 21.12.2019
2226 Snow -3 997 100 4500 3.1 100 07:21 21.12.2019
2227 Snow -3 998 100 4100 2.6 100 06:41 21.12.2019
2228 Snow -3 998 100 4300 3.1 110 06:23 21.12.2019
2229 Snow -3 998 100 3400 3.6 100 05:37 21.12.2019
2230 Snow -3 999 100 4400 3.1 100 04:55 21.12.2019
2231 Snow -3 999 100 4300 3.6 100 03:56 21.12.2019
2232 Snow -3 1000 92 4200 3.6 90 02:25 21.12.2019
2233 Snow -3 1000 92 3400 3.6 90 01:48 21.12.2019
2234 Snow -3 1000 92 3400 3.6 90 01:25 21.12.2019
2235 Snow -3 1001 92 3300 3.6 100 00:45 21.12.2019
2236 Snow -4 1001 100 3600 3.6 100 00:26 21.12.2019
2237 Snow -4 1002 100 3400 3.6 90 23:39 20.12.2019
2238 Snow -3 1002 92 6000 2.6 100 23:21 20.12.2019
2239 Snow -3 1002 92 6000 2.6 100 22:59 20.12.2019
2240 Clouds -3 1002 92 10000 3.6 100 22:39 20.12.2019
2241 Clouds -3 1003 92 10000 3.1 100 22:19 20.12.2019
2242 Clouds -3 1003 92 8000 2.6 100 21:42 20.12.2019
2243 Clouds -4 1003 100 5000 3.1 120 21:21 20.12.2019
2244 Clouds -4 1003 100 5000 3.1 120 20:59 20.12.2019
2245 Clouds -4 1004 100 10000 3.1 110 20:38 20.12.2019
2246 Clouds -4 1004 100 10000 2.6 110 20:19 20.12.2019
2247 Clouds -4 1004 100 10000 2.6 110 19:56 20.12.2019
2248 Clouds -4 1004 100 10000 3.6 110 19:38 20.12.2019
2249 Clouds -4 1004 100 10000 3.6 110 19:18 20.12.2019
2250 Clouds -4 1004 100 10000 3.6 110 19:18 20.12.2019
2251 Snow -4 1004 100 10000 3.6 120 18:41 20.12.2019
2252 Snow -4 1005 100 10000 3.1 120 18:22 20.12.2019
2253 Snow -4 1005 100 10000 3.1 120 17:57 20.12.2019
2254 Clouds -4 1005 100 9000 4.1 120 17:39 20.12.2019
2255 Clouds -4 1005 100 9000 4.1 120 17:39 20.12.2019
2256 Clouds -4 1005 100 9000 4.1 120 17:20 20.12.2019
2257 Snow -4 1005 100 10000 3.6 130 16:56 20.12.2019
2258 Snow -4 1005 92 10000 3.6 130 16:37 20.12.2019
2259 Snow -4 1005 92 10000 3.6 130 16:19 20.12.2019
2260 Snow -4 1005 92 6000 4.1 120 15:54 20.12.2019
2261 Snow -4 1005 92 6000 4.1 120 15:54 20.12.2019
2262 Snow -4 1006 92 4100 4.1 130 15:36 20.12.2019
2263 Snow -4 1006 92 4100 4.1 130 15:36 20.12.2019
2264 Snow -4 1006 92 4100 4.1 130 15:18 20.12.2019
2265 Snow -5 1006 100 4300 4.1 120 14:42 20.12.2019
2266 Clouds -5 1006 92 8000 4.1 110 14:23 20.12.2019
2267 Clouds -6 1006 100 5000 3.6 110 13:56 20.12.2019
2268 Snow -6 1006 92 2500 3.1 90 13:37 20.12.2019
2269 Snow -6 1006 92 2500 3.1 90 13:18 20.12.2019
2270 Mist -6 1007 92 2500 3.1 90 12:55 20.12.2019
2271 Mist -6 1007 92 1200 2.6 100 12:36 20.12.2019
2272 Mist -6 1007 92 1200 2.6 100 12:18 20.12.2019
2273 Fog -6 1007 92 700 3.6 140 11:57 20.12.2019
2274 Fog -7 1007 100 600 4.1 130 11:38 20.12.2019
2275 Fog -7 1007 100 600 4.1 130 11:18 20.12.2019
2276 Fog -8 1007 92 500 3.6 110 10:55 20.12.2019
2277 Fog -8 1007 92 600 2.6 80 10:37 20.12.2019
2278 Fog -8 1007 92 600 2.6 80 10:18 20.12.2019
2279 Mist -8 1007 92 1400 2.6 80 09:42 20.12.2019
2280 Mist -8 1008 92 1000 2.6 80 09:21 20.12.2019
2281 Fog -9 1007 92 700 3.6 90 08:54 20.12.2019
2282 Fog -9 1008 92 350 4.1 110 08:36 20.12.2019
2283 Fog -9 1008 92 350 4.1 110 08:18 20.12.2019
2284 Fog -9 1008 92 700 2.6 60 07:41 20.12.2019
2285 Fog -9 1008 92 700 2.6 60 07:20 20.12.2019
2286 Fog -10 1008 92 700 2.1 80 06:52 20.12.2019
2287 Clouds -10 1008 92 6000 2.6 60 06:33 20.12.2019
2288 Snow -10 1008 92 3400 4.1 120 05:56 20.12.2019
2289 Mist -11 1008 92 3000 4.1 140 05:37 20.12.2019
2290 Clouds -11 1008 92 10000 3.1 90 04:34 20.12.2019
2291 Clouds -10 1009 92 10000 3.6 60 03:31 20.12.2019
2292 Clouds -11 1009 92 10000 2.6 70 02:44 20.12.2019
2293 Clouds -11 1009 92 10000 2.6 90 01:54 20.12.2019
2294 Clouds -13 1009 92 10000 2.6 80 01:33 20.12.2019
2295 Clouds -12 1009 85 10000 2.6 80 00:48 20.12.2019
2296 Clouds -12 1009 92 10000 1.5 70 00:29 20.12.2019
2297 Clouds -12 1009 92 10000 1 210 23:54 19.12.2019
2298 Clouds -9 1009 85 10000 1.5 50 23:36 19.12.2019
2299 Clouds -9 1009 85 10000 1.5 50 23:18 19.12.2019
2300 Clouds -10 1009 92 6000 1 0 22:37 19.12.2019
2301 Clouds -10 1009 92 6000 1 0 22:19 19.12.2019
2302 Clouds -11 1009 92 10000 1 0 21:56 19.12.2019
2303 Clouds -10 1009 92 10000 2.1 210 21:37 19.12.2019
2304 Clouds -10 1009 92 10000 2.1 210 21:18 19.12.2019
2305 Clouds -11 1009 92 10000 1 250 20:56 19.12.2019
2306 Clouds -11 1008 85 10000 1 0 20:36 19.12.2019
2307 Clouds -11 1008 85 10000 1 0 20:18 19.12.2019
2308 Clouds -11 1008 92 10000 2.1 220 19:57 19.12.2019
2309 Clouds -11 1008 92 10000 2.1 220 19:57 19.12.2019
2310 Clouds -11 1008 92 10000 2.1 220 19:39 19.12.2019
2311 Clouds -11 1008 92 10000 2.1 220 19:39 19.12.2019
2312 Clouds -9 1008 92 10000 3.6 350 19:19 19.12.2019
2313 Clouds -9 1008 92 10000 3.6 350 19:19 19.12.2019
2314 Clouds -10 1008 92 10000 2.6 340 18:41 19.12.2019
2315 Clouds -10 1008 92 10000 2.6 340 18:23 19.12.2019
2316 Clouds -8 1008 92 10000 2.1 320 17:58 19.12.2019
2317 Clouds -8 1008 92 10000 2.1 320 17:40 19.12.2019
2318 Clouds -8 1008 92 10000 2.6 330 17:19 19.12.2019
2319 Clouds -8 1008 92 10000 2.6 330 17:19 19.12.2019
2320 Clouds -8 1008 92 10000 2.6 320 16:59 19.12.2019
2321 Clouds -8 1008 92 10000 2.6 320 16:41 19.12.2019
2322 Clouds -8 1007 92 10000 3.1 330 16:22 19.12.2019
2323 Clouds -7 1007 92 10000 4.1 330 15:59 19.12.2019
2324 Clouds -7 1007 92 10000 4.1 330 15:59 19.12.2019
2325 Clouds -7 1007 92 10000 4.1 330 15:39 19.12.2019
2326 Clouds -7 1007 92 10000 4.1 340 15:20 19.12.2019
2327 Clouds -8 1006 92 10000 2.1 320 14:59 19.12.2019
2328 Clouds -7 1006 92 10000 1 0 14:41 19.12.2019
2329 Clouds -7 1006 92 10000 1 0 14:19 19.12.2019
2330 Clouds -8 1006 92 10000 2.1 340 13:57 19.12.2019
2331 Clouds -8 1005 92 10000 2.1 280 13:37 19.12.2019
2332 Clouds -8 1005 92 10000 2.1 280 13:18 19.12.2019
2333 Clouds -6 1005 92 10000 4.1 330 12:55 19.12.2019
2334 Clouds -6 1005 92 10000 4.1 330 12:55 19.12.2019
2335 Clouds -7 1005 92 10000 3.6 320 12:37 19.12.2019
2336 Clouds -7 1005 92 10000 3.6 320 12:18 19.12.2019
2337 Clouds -7 1005 92 10000 3.6 320 12:18 19.12.2019
2338 Clouds -7 1005 92 10000 3.6 320 12:18 19.12.2019
2339 Clouds -7 1004 92 10000 3.6 310 11:57 19.12.2019
2340 Clouds -8 1004 92 10000 2.6 290 11:38 19.12.2019
2341 Clouds -8 1004 92 10000 2.6 290 11:18 19.12.2019
2342 Clouds -8 1004 92 10000 2.6 290 11:18 19.12.2019
2343 Clear -8 1003 85 10000 3.1 280 10:39 19.12.2019
2344 Clear -8 1003 85 10000 3.1 280 10:20 19.12.2019
2345 Clear -9 1002 92 10000 2.6 290 09:59 19.12.2019
2346 Clear -9 1002 92 10000 2.1 270 09:38 19.12.2019
2347 Clear -9 1002 92 10000 2.1 270 09:20 19.12.2019
2348 Clear -10 1001 92 10000 3.6 250 08:56 19.12.2019
2349 Clear -10 1001 92 10000 2.6 320 08:37 19.12.2019
2350 Clouds -10 1001 92 10000 2.6 320 08:18 19.12.2019
2351 Clouds -10 1001 85 10000 3.1 260 07:55 19.12.2019
2352 Clouds -10 1001 85 10000 3.1 260 07:55 19.12.2019
2353 Clouds -11 1000 92 10000 2.1 250 07:37 19.12.2019
2354 Clouds -11 1000 92 10000 2.1 250 07:19 19.12.2019
2355 Clouds -11 1000 92 10000 1.5 250 06:45 19.12.2019
2356 Clouds -11 999 92 10000 2.1 250 06:26 19.12.2019
2357 Clouds -11 999 92 10000 2.6 260 05:47 19.12.2019
2358 Clouds -10 999 92 10000 3.1 250 05:27 19.12.2019
2359 Clouds -10 998 92 10000 3.1 260 03:58 19.12.2019
2360 Fog -8 996 92 1000 2.6 260 02:30 19.12.2019
2361 Clouds -8 996 92 4400 2.1 300 01:27 19.12.2019
2362 Clouds -7 996 92 900 2.6 320 01:00 19.12.2019
2363 Clouds -7 996 100 3900 3.6 320 00:39 19.12.2019
2364 Clouds -7 996 100 3900 3.6 320 00:39 19.12.2019
2365 Clouds -7 996 100 3900 3.6 320 00:39 19.12.2019
2366 Clouds -7 996 100 3900 3.6 320 00:19 19.12.2019
2367 Clouds -7 996 100 3900 3.6 320 00:19 19.12.2019
2368 Clouds -6 995 92 5000 3.1 320 23:45 18.12.2019
2369 Mist -6 995 92 3800 2.6 310 23:19 18.12.2019
2370 Mist -6 995 92 3800 2.6 310 23:19 18.12.2019
2371 Mist -6 995 92 3800 2.6 310 23:19 18.12.2019
2372 Clouds -6 995 100 10000 2.6 300 22:58 18.12.2019
2373 Snow -6 995 100 10000 2.6 310 22:40 18.12.2019
2374 Snow -6 995 100 10000 2.6 310 22:22 18.12.2019
2375 Snow -5 995 92 10000 2.6 290 21:59 18.12.2019
2376 Snow -5 994 92 10000 2.1 270 21:40 18.12.2019
2377 Snow -5 994 92 10000 2.1 270 21:20 18.12.2019
2378 Clouds -5 994 92 10000 2.6 280 20:57 18.12.2019
2379 Snow -5 994 100 10000 3.1 260 20:38 18.12.2019
2380 Snow -5 994 100 10000 3.1 260 20:20 18.12.2019
2381 Snow -4 994 92 10000 3.1 250 19:57 18.12.2019
2382 Snow -4 993 92 10000 3.6 230 19:39 18.12.2019
2383 Snow -4 993 92 10000 3.6 230 19:19 18.12.2019
2384 Snow -4 993 92 10000 2.6 240 18:55 18.12.2019
2385 Snow -4 993 92 10000 3.1 230 18:37 18.12.2019
2386 Snow -4 993 92 10000 3.1 230 18:18 18.12.2019
2387 Snow -4 993 100 10000 3.1 240 17:55 18.12.2019
2388 Snow -3 993 92 10000 3.6 230 17:37 18.12.2019
2389 Snow -3 993 92 10000 3.6 230 17:18 18.12.2019
2390 Snow -3 993 92 10000 5.1 220 16:42 18.12.2019
2391 Snow -3 993 92 10000 5.1 220 16:42 18.12.2019
2392 Clouds -3 993 92 10000 3.1 230 16:23 18.12.2019
2393 Clouds -3 993 92 10000 3.1 230 15:57 18.12.2019
2394 Snow -3 993 100 10000 4.1 220 15:39 18.12.2019
2395 Snow -3 994 100 10000 4.6 210 15:21 18.12.2019
2396 Snow -3 994 100 10000 4.6 210 14:56 18.12.2019
2397 Snow -3 994 100 10000 6.2 200 14:36 18.12.2019
2398 Snow -3 994 100 10000 5.7 210 14:18 18.12.2019
2399 Snow -3 994 100 10000 5.7 210 13:54 18.12.2019
2400 Snow -3 994 100 10000 5.7 210 13:36 18.12.2019
2401 Snow -3 994 100 3000 3.6 220 13:18 18.12.2019
2402 Snow -3 994 100 3000 3.6 220 13:18 18.12.2019
2403 Snow -3 994 100 6000 4.6 220 12:40 18.12.2019
2404 Snow -3 994 100 5000 6.2 200 12:21 18.12.2019
2405 Snow -2 994 92 2200 4.6 200 11:57 18.12.2019
2406 Snow -2 994 92 2200 4.6 200 11:39 18.12.2019
2407 Snow -2 995 92 2000 5.1 200 11:20 18.12.2019
2408 Snow -2 995 92 2000 5.1 200 10:58 18.12.2019
2409 Snow -2 995 92 4000 5.7 190 10:39 18.12.2019
2410 Snow -2 995 92 10000 5.1 190 10:20 18.12.2019
2411 Snow -2 995 92 10000 5.1 190 10:20 18.12.2019
2412 Snow -2 995 92 10000 5.1 190 09:57 18.12.2019
2413 Snow -2 995 100 10000 5.7 190 09:20 18.12.2019
2414 Snow -2 995 100 4000 4.1 210 08:42 18.12.2019
2415 Clouds -2 995 100 5000 6.2 210 08:24 18.12.2019
2416 Clouds -2 995 100 5000 6.2 210 07:57 18.12.2019
2417 Mist -2 995 100 3500 7.2 210 07:39 18.12.2019
2418 Mist -2 995 100 3000 6.2 220 07:19 18.12.2019
2419 Clouds -2 995 92 10000 6.7 220 06:51 18.12.2019
2420 Clouds -2 995 92 10000 8.2 220 06:23 18.12.2019
2421 Clouds -3 995 100 2500 8.7 220 05:34 18.12.2019
2422 Clouds -2 995 92 10000 6.2 220 03:46 18.12.2019
2423 Clouds -2 995 92 10000 5.7 200 02:44 18.12.2019
2424 Clouds -3 996 100 10000 6.2 200 02:26 18.12.2019
2425 Clouds -3 996 100 10000 5.7 210 01:43 18.12.2019
2426 Clouds -3 996 100 10000 5.7 210 01:25 18.12.2019
2427 Clouds -3 996 100 10000 5.7 220 00:42 18.12.2019
2428 Clouds -3 996 100 10000 5.1 210 00:24 18.12.2019
2429 Clouds -3 995 100 10000 5.1 210 23:58 17.12.2019
2430 Clouds -3 995 100 10000 5.1 210 23:58 17.12.2019
2431 Clouds -3 995 100 10000 5.1 210 23:39 17.12.2019
2432 Clouds -3 995 100 10000 6.7 210 23:21 17.12.2019
2433 Clouds -2 995 92 10000 6.2 220 22:57 17.12.2019
2434 Clouds -2 995 92 10000 6.2 220 22:38 17.12.2019
2435 Clouds -2 995 100 10000 5.7 220 22:19 17.12.2019
2436 Clouds -2 995 100 10000 5.7 220 21:57 17.12.2019
2437 Clouds -2 995 100 10000 6.2 220 21:38 17.12.2019
2438 Clouds -1 995 100 1000 7.2 210 21:19 17.12.2019
2439 Clouds -1 995 100 1000 7.2 210 20:58 17.12.2019
2440 Clouds -1 994 100 6000 6.7 210 20:39 17.12.2019
2441 Snow -1 994 100 6000 8.7 200 20:18 17.12.2019
2442 Snow -1 994 100 6000 8.7 200 19:56 17.12.2019
2443 Clouds -1 994 100 8000 7.2 210 19:38 17.12.2019
2444 Clouds -1 994 100 6000 7.2 220 19:18 17.12.2019
2445 Clouds -1 994 100 5000 6.7 210 18:54 17.12.2019
2446 Clouds -1 994 100 5000 6.7 210 18:36 17.12.2019
2447 Clouds -1 994 100 4000 7.2 210 18:18 17.12.2019
2448 Clouds -1 994 100 4000 7.2 210 18:18 17.12.2019
2449 Clouds -1 994 100 700 6.2 210 17:42 17.12.2019
2450 Snow -1 994 100 3900 5.1 200 17:20 17.12.2019
2451 Clouds -1 994 100 7000 5.7 210 16:56 17.12.2019
2452 Clouds -1 994 100 7000 5.7 210 16:38 17.12.2019
2453 Snow -1 994 100 7000 5.7 210 16:19 17.12.2019
2454 Clouds -1 994 100 1400 6.2 210 15:58 17.12.2019
2455 Clouds -1 994 100 1400 6.2 210 15:37 17.12.2019
2456 Clouds -1 994 100 900 5.1 210 15:19 17.12.2019
2457 Clouds -1 994 100 900 5.1 210 14:55 17.12.2019
2458 Clouds -1 994 100 900 5.1 210 14:55 17.12.2019
2459 Clouds -1 994 100 2200 5.7 200 14:37 17.12.2019
2460 Snow -1 994 100 2300 5.7 210 14:18 17.12.2019
2461 Snow -1 994 100 2300 5.7 210 14:18 17.12.2019
2462 Snow -2 994 100 1800 5.1 210 13:55 17.12.2019
2463 Snow -2 994 100 1800 5.1 210 13:37 17.12.2019
2464 Snow -2 994 100 2500 4.1 200 13:18 17.12.2019
2465 Snow -2 993 100 2500 3.6 190 12:41 17.12.2019
2466 Snow -2 993 100 1700 3.1 190 12:19 17.12.2019
2467 Snow -2 993 100 1400 3.1 190 11:59 17.12.2019
2468 Snow -2 993 100 1400 3.1 190 11:37 17.12.2019
2469 Snow -2 993 92 1500 3.1 220 11:19 17.12.2019
2470 Mist -2 993 100 1000 4.1 220 10:59 17.12.2019
2471 Mist -2 993 100 1000 4.1 220 10:41 17.12.2019
2472 Mist -2 993 100 1000 4.1 220 10:41 17.12.2019
2473 Fog -2 993 92 500 4.6 200 10:22 17.12.2019
2474 Fog -2 993 92 500 4.6 200 09:59 17.12.2019
2475 Fog -2 993 100 500 3.1 200 09:41 17.12.2019
2476 Fog -2 993 92 600 4.1 210 09:20 17.12.2019
2477 Fog -2 993 92 700 4.1 230 08:56 17.12.2019
2478 Fog -2 993 92 700 4.1 230 08:38 17.12.2019
2479 Fog -2 993 92 600 4.1 210 08:19 17.12.2019
2480 Fog -2 993 92 500 4.1 220 07:46 17.12.2019
2481 Fog -2 992 92 400 3.6 220 07:26 17.12.2019
2482 Fog -2 992 92 400 3.6 220 06:59 17.12.2019
2483 Fog -2 992 92 600 3.1 230 06:35 17.12.2019
2484 Clouds -3 992 100 1000 3.1 230 05:53 17.12.2019
2485 Clouds -3 992 100 1000 3.1 230 05:35 17.12.2019
2486 Clouds -3 992 100 650 3.6 230 04:30 17.12.2019
2487 Clouds -3 993 100 10000 3.1 220 02:34 17.12.2019
2488 Snow -3 993 100 10000 2.1 230 01:55 17.12.2019
2489 Snow -3 993 100 1400 1.5 250 00:58 17.12.2019
2490 Snow -3 993 100 1400 1.5 250 00:37 17.12.2019
2491 Fog -3 993 100 900 1.5 220 00:19 17.12.2019
2492 Fog -3 993 100 800 2.1 230 23:41 16.12.2019
2493 Clouds -3 993 100 550 2.6 220 23:19 16.12.2019
2494 Fog -3 993 100 800 2.1 230 22:56 16.12.2019
2495 Fog -3 993 100 800 2.1 230 22:37 16.12.2019
2496 Clouds -3 993 100 5000 1.5 230 22:19 16.12.2019
2497 Clouds -3 993 100 5000 1.5 230 21:55 16.12.2019
2498 Clouds -3 993 100 10000 1.5 200 21:37 16.12.2019
2499 Clouds -3 993 100 10000 1.5 190 21:19 16.12.2019
2500 Clouds -3 993 100 10000 1 170 20:57 16.12.2019
2501 Clouds -3 993 100 10000 1 170 20:57 16.12.2019
2502 Clouds -3 993 100 10000 1 170 20:37 16.12.2019
2503 Clouds -3 993 100 10000 1 0 20:19 16.12.2019
2504 Clouds -3 993 100 10000 1 0 19:55 16.12.2019
2505 Clouds -3 993 100 10000 1 0 19:36 16.12.2019
2506 Clouds -3 993 100 10000 1.5 170 19:18 16.12.2019
2507 Clouds -3 993 100 10000 2.1 160 18:55 16.12.2019
2508 Clouds -3 993 100 10000 2.1 160 18:37 16.12.2019
2509 Clouds -3 993 100 10000 2.1 160 18:37 16.12.2019
2510 Clouds -3 993 100 10000 2.6 160 18:19 16.12.2019
2511 Clouds -2 993 92 10000 2.6 160 17:57 16.12.2019
2512 Clouds -2 993 92 10000 2.6 160 17:37 16.12.2019
2513 Snow -2 993 92 10000 2.6 150 17:19 16.12.2019
2514 Snow -2 993 92 10000 2.6 130 16:55 16.12.2019
2515 Snow -2 993 92 10000 2.6 130 16:37 16.12.2019
2516 Snow -2 993 92 10000 2.6 130 16:37 16.12.2019
2517 Snow -2 993 92 9000 2.6 120 16:18 16.12.2019
2518 Snow -2 993 92 9000 2.6 120 15:55 16.12.2019
2519 Snow -2 993 92 6000 2.6 120 15:37 16.12.2019
2520 Snow -2 993 92 10000 2.6 120 15:19 16.12.2019
2521 Snow -2 993 92 10000 2.6 110 14:54 16.12.2019
2522 Snow -2 993 92 10000 2.6 110 14:36 16.12.2019
2523 Snow -2 993 92 4500 3.1 110 14:18 16.12.2019
2524 Snow -2 993 92 4500 3.1 110 14:18 16.12.2019
2525 Snow -2 993 100 5000 2.6 120 13:38 16.12.2019
2526 Snow -2 993 100 4000 2.6 110 13:20 16.12.2019
2527 Snow -2 993 100 2500 2.6 100 12:59 16.12.2019
2528 Snow -2 993 100 2500 2.6 100 12:40 16.12.2019
2529 Snow -2 993 100 3000 2.6 100 12:20 16.12.2019
2530 Snow -2 993 100 3000 2.6 100 11:59 16.12.2019
2531 Snow -2 993 100 2000 2.6 100 11:41 16.12.2019
2532 Snow -2 993 100 2500 2.6 100 11:22 16.12.2019
2533 Snow -2 993 100 2500 2.6 100 10:59 16.12.2019
2534 Snow -2 993 100 2000 3.1 90 10:40 16.12.2019
2535 Snow -2 993 100 2000 3.1 90 10:40 16.12.2019
2536 Snow -2 993 100 1500 3.1 90 10:20 16.12.2019
2537 Snow -2 994 100 2000 2.6 80 09:46 16.12.2019
2538 Snow -2 994 100 2000 3.1 80 09:28 16.12.2019
2539 Snow -2 994 100 2000 2.6 90 08:58 16.12.2019
2540 Snow -2 994 100 2000 2.6 90 08:38 16.12.2019
2541 Snow -2 994 100 2000 3.1 90 08:18 16.12.2019
2542 Snow -2 994 100 2000 3.1 90 07:47 16.12.2019
2543 Snow -2 994 100 2000 2.6 90 07:29 16.12.2019
2544 Snow -2 994 100 3000 3.1 90 06:46 16.12.2019
2545 Snow -2 994 100 5000 2.6 90 06:26 16.12.2019
2546 Snow -2 994 100 3400 3.6 90 05:54 16.12.2019
2547 Snow -2 994 100 3400 3.6 90 05:35 16.12.2019
2548 Snow -1 995 92 8000 3.1 90 04:27 16.12.2019
2549 Snow -1 995 92 3800 3.6 90 02:36 16.12.2019
2550 Snow -1 996 92 5000 3.6 100 01:45 16.12.2019
2551 Snow -1 996 92 3300 4.1 100 00:54 16.12.2019
2552 Snow -1 996 92 3300 4.1 100 00:36 16.12.2019
2553 Snow -1 996 92 6000 3.6 100 00:18 16.12.2019
2554 Snow -1 997 92 5000 4.1 100 23:40 15.12.2019
2555 Snow -1 997 92 6000 4.1 100 23:21 15.12.2019
2556 Snow -1 997 92 9000 4.1 110 22:56 15.12.2019
2557 Snow -1 997 92 9000 4.1 110 22:37 15.12.2019
2558 Snow -1 997 92 9000 4.1 110 22:37 15.12.2019
2559 Snow -1 997 92 6000 4.6 110 22:18 15.12.2019
2560 Snow -1 997 92 10000 4.1 100 21:56 15.12.2019
2561 -273 0 0 0 0 0 21:37 15.12.2019
2562 Snow -1 997 100 3200 4.6 110 21:19 15.12.2019
2563 Snow -1 997 100 5000 4.6 110 20:56 15.12.2019
2564 Snow -1 997 100 5000 4.6 110 20:37 15.12.2019
2565 Snow -1 997 100 8000 4.6 110 20:19 15.12.2019
2566 Snow -1 997 100 8000 4.6 110 19:57 15.12.2019
2567 Snow -1 997 100 8000 4.6 110 19:57 15.12.2019
2568 Snow -1 997 100 9000 5.1 110 19:38 15.12.2019
2569 Snow -1 997 100 10000 4.6 110 19:18 15.12.2019
2570 Snow -1 997 100 4800 5.1 110 18:56 15.12.2019
2571 Snow -1 997 100 4800 5.1 110 18:56 15.12.2019
2572 Snow -1 997 100 4800 5.1 110 18:38 15.12.2019
2573 Snow -1 998 100 4800 4.6 120 18:18 15.12.2019
2574 Snow -1 998 100 6000 4.6 120 17:56 15.12.2019
2575 Snow -1 998 100 6000 4.6 120 17:36 15.12.2019
2576 Snow -1 998 100 6000 4.6 120 17:18 15.12.2019
2577 Snow -1 998 100 6000 4.6 120 17:18 15.12.2019
2578 Snow -1 998 100 3700 5.1 120 16:43 15.12.2019
2579 Snow -1 998 100 8000 5.1 120 16:23 15.12.2019
2580 Clouds -1 998 100 10000 5.1 110 15:58 15.12.2019
2581 Clouds -1 998 100 10000 5.1 110 15:39 15.12.2019
2582 Snow -1 998 100 4300 5.1 110 15:20 15.12.2019
2583 Snow -1 998 100 4300 5.1 110 14:57 15.12.2019
2584 Snow -1 998 100 5000 5.1 110 14:38 15.12.2019
2585 Snow -1 998 100 6000 4.6 110 14:19 15.12.2019
2586 Snow -1 998 100 6000 4.6 110 14:19 15.12.2019
2587 Snow -1 998 100 6000 4.6 110 13:59 15.12.2019
2588 Clouds -1 998 100 1200 4.6 110 13:39 15.12.2019
2589 Snow -1 998 100 4000 4.1 110 13:20 15.12.2019
2590 Clouds -1 998 100 10000 4.6 110 12:57 15.12.2019
2591 Snow -1 998 100 4000 4.1 110 12:57 15.12.2019
2592 Clouds -1 998 100 10000 4.6 110 12:39 15.12.2019
2593 Clouds -1 999 100 10000 3.6 110 12:21 15.12.2019
2594 Clouds -1 999 100 10000 4.6 110 11:59 15.12.2019
2595 Clouds -1 999 100 10000 4.6 110 11:38 15.12.2019
2596 Clouds -1 999 100 10000 4.6 110 11:38 15.12.2019
2597 Clouds -1 999 100 10000 4.6 110 11:38 15.12.2019
2598 Snow -1 999 100 9000 4.1 110 11:19 15.12.2019
2599 Snow -1 999 100 10000 4.6 110 10:56 15.12.2019
2600 Snow -1 999 100 10000 4.6 110 10:37 15.12.2019
2601 Snow -1 999 100 10000 4.6 110 10:19 15.12.2019
2602 Snow -1 999 100 10000 4.6 110 09:57 15.12.2019
2603 Snow -1 999 100 10000 4.6 110 09:37 15.12.2019
2604 Snow -1 999 100 8000 4.6 110 09:19 15.12.2019
2605 Snow -1 999 92 9000 4.6 110 08:42 15.12.2019
2606 Snow -1 999 92 6000 4.6 110 08:23 15.12.2019
2607 Snow -1 999 92 10000 4.6 110 07:57 15.12.2019
2608 Snow -1 999 92 10000 4.6 110 07:38 15.12.2019
2609 Snow -1 999 92 10000 4.6 110 06:59 15.12.2019
2610 Snow -1 1000 92 9000 4.6 100 06:24 15.12.2019
2611 Snow -1 1000 92 10000 4.6 110 05:42 15.12.2019
2612 Snow -1 1000 92 5000 4.6 100 05:20 15.12.2019
2613 Snow -1 1000 92 10000 4.1 110 04:18 15.12.2019
2614 Clouds -1 1000 92 10000 4.1 110 02:35 15.12.2019
2615 Clouds -1 1001 92 10000 4.1 120 01:57 15.12.2019
2616 Clouds -1 1001 92 10000 4.1 120 01:39 15.12.2019
2617 Clouds -1 1001 92 10000 4.1 120 01:18 15.12.2019
2618 Clouds -1 1001 100 10000 4.1 110 00:44 15.12.2019
2619 Clouds -1 1001 100 10000 4.1 120 00:25 15.12.2019
2620 Clouds -1 1001 100 10000 4.1 120 23:41 14.12.2019
2621 Clouds -1 1001 100 10000 3.6 120 23:22 14.12.2019
2622 Snow -1 1001 100 10000 3.6 110 22:59 14.12.2019
2623 Snow -1 1001 100 10000 3.6 110 22:41 14.12.2019
2624 Snow 0 1001 96 7000 3.1 120 22:21 14.12.2019
2625 Snow 0 1001 96 7000 3.1 120 21:56 14.12.2019
2626 Clouds -1 1001 100 6000 3.6 120 21:38 14.12.2019
2627 Snow -1 1002 100 8000 3.6 120 21:19 14.12.2019
2628 Snow -1 1001 100 10000 3.6 120 20:57 14.12.2019
2629 Snow -1 1001 100 10000 3.6 120 20:39 14.12.2019
2630 Clouds -1 1001 100 10000 3.6 110 20:19 14.12.2019
2631 Clouds -1 1001 100 10000 3.6 110 19:56 14.12.2019
2632 Clouds -1 1001 100 10000 3.6 110 19:37 14.12.2019
2633 Clouds -1 1002 100 10000 3.6 120 19:18 14.12.2019
2634 Clouds 0 1001 95 10000 3.6 120 18:56 14.12.2019
2635 Clouds 0 1001 95 10000 3.6 120 18:36 14.12.2019
2636 Clouds 0 1001 95 10000 3.6 110 18:18 14.12.2019
2637 Clouds 0 1002 95 10000 3.6 120 17:43 14.12.2019
2638 -273 0 0 0 0 0 17:23 14.12.2019
2639 Clouds 0 1002 95 9000 3.1 110 16:56 14.12.2019
2640 Clouds 0 1002 95 9000 3.1 110 16:38 14.12.2019
2641 Clouds 0 1002 95 9000 3.1 120 16:18 14.12.2019
2642 Clouds 0 1002 95 10000 3.1 110 15:42 14.12.2019
2643 Mist 0 1002 95 4400 3.1 110 15:21 14.12.2019
2644 Clouds 0 1002 95 8000 2.1 110 14:58 14.12.2019
2645 Clouds 0 1002 95 8000 2.1 110 14:38 14.12.2019
2646 Clouds 0 1002 97 10000 2.1 130 14:19 14.12.2019
2647 Clouds 0 1002 97 7000 3.6 130 13:45 14.12.2019
2648 Mist 0 1002 97 4400 3.6 140 13:20 14.12.2019
2649 Mist 0 1002 96 4400 3.6 140 12:58 14.12.2019
2650 Mist 0 1002 96 3400 3.6 140 12:40 14.12.2019
2651 Mist 0 1002 97 3600 3.1 130 12:21 14.12.2019
2652 Mist 0 1002 96 3600 3.1 130 11:58 14.12.2019
2653 Mist 0 1002 97 4400 3.6 130 11:39 14.12.2019
2654 Clouds 0 1002 96 10000 3.6 150 11:19 14.12.2019
2655 Clouds 0 1002 97 10000 3.6 150 10:57 14.12.2019
2656 Clouds 0 1002 97 10000 3.6 150 10:39 14.12.2019
2657 Clouds 0 1002 96 10000 3.6 150 10:20 14.12.2019
2658 Clouds 0 1002 97 10000 3.1 150 09:55 14.12.2019
2659 Clouds 0 1002 97 10000 3.1 150 09:37 14.12.2019
2660 Clouds 0 1002 97 10000 4.1 160 09:18 14.12.2019
2661 Clouds 0 1002 96 10000 3.6 160 08:42 14.12.2019
2662 Clouds 0 1001 97 10000 4.6 170 08:19 14.12.2019
2663 Clouds 0 1001 97 10000 5.7 180 07:43 14.12.2019
2664 Clouds 0 1001 97 10000 5.1 170 07:23 14.12.2019
2665 Clouds 0 1001 97 10000 5.1 170 06:55 14.12.2019
2666 Clouds 0 1001 97 10000 5.1 170 06:36 14.12.2019
2667 Clouds 0 1001 97 10000 4.6 180 05:56 14.12.2019
2668 Clouds 0 1001 95 10000 4.6 170 04:42 14.12.2019
2669 Clouds 0 1000 95 10000 3.6 170 02:31 14.12.2019
2670 Clouds 0 1000 97 10000 3.6 160 01:46 14.12.2019
2671 Clouds 0 1000 97 10000 3.6 160 01:28 14.12.2019
2672 Snow 0 1000 97 10000 4.6 170 00:44 14.12.2019
2673 Clouds 0 1000 97 10000 3.6 180 00:26 14.12.2019
2674 Clouds 0 1000 97 10000 4.1 180 23:43 13.12.2019
2675 Clouds 0 1000 97 10000 5.1 180 23:22 13.12.2019
2676 Clouds 0 1000 97 10000 5.1 180 22:59 13.12.2019
2677 Snow 0 1000 97 10000 5.1 190 22:40 13.12.2019
2678 Clouds 0 999 97 10000 5.7 200 22:19 13.12.2019
2679 Clouds 0 999 97 10000 5.1 190 21:55 13.12.2019
2680 Clouds 0 999 97 10000 5.1 190 21:36 13.12.2019
2681 Snow 0 999 97 10000 5.7 200 21:18 13.12.2019
2682 Clouds 0 999 97 10000 4.6 190 20:40 13.12.2019
2683 Snow 0 998 96 10000 6.2 190 20:21 13.12.2019
2684 Snow 0 998 96 10000 6.2 190 19:57 13.12.2019
2685 Clouds 0 998 96 10000 6.2 190 19:39 13.12.2019
2686 Clouds 0 998 96 10000 6.2 190 19:20 13.12.2019
2687 Snow 0 998 96 7000 5.1 180 18:57 13.12.2019
2688 Snow 0 997 96 10000 6.7 190 18:39 13.12.2019
2689 Snow 0 997 96 10000 6.7 190 18:18 13.12.2019
2690 Snow 0 997 96 10000 6.7 200 17:41 13.12.2019
2691 Clouds 0 997 95 10000 6.7 200 17:19 13.12.2019
2692 Clouds 0 997 95 10000 6.2 200 16:58 13.12.2019
2693 Snow 0 997 95 10000 6.2 200 16:39 13.12.2019
2694 Snow 0 997 95 10000 6.2 200 16:39 13.12.2019
2695 Snow 0 997 95 10000 6.2 200 16:20 13.12.2019
2696 Snow 0 996 95 10000 6.2 190 15:43 13.12.2019
2697 Snow 0 996 95 10000 6.2 190 15:22 13.12.2019
2698 Snow 0 996 95 10000 4.6 190 14:58 13.12.2019
2699 Snow 0 996 95 5000 4.6 180 14:39 13.12.2019
2700 Snow 0 996 96 5000 4.6 180 14:20 13.12.2019
2701 Snow 0 995 96 5000 4.6 190 13:45 13.12.2019
2702 Snow -1 995 100 7000 4.6 180 13:27 13.12.2019
2703 Snow -1 995 100 2000 5.1 180 12:59 13.12.2019
2704 Snow -1 995 100 2000 5.1 180 12:41 13.12.2019
2705 Snow -1 995 100 3000 5.1 180 12:19 13.12.2019
2706 Snow -1 995 100 4500 4.6 180 11:45 13.12.2019
2707 Snow -1 995 100 2500 4.6 180 11:27 13.12.2019
2708 Snow -1 995 100 7000 5.1 180 10:58 13.12.2019
2709 Snow -1 995 100 6000 5.1 180 10:40 13.12.2019
2710 Snow -1 995 100 6000 5.1 180 10:21 13.12.2019
2711 Snow -1 994 92 3000 4.1 180 09:43 13.12.2019
2712 Snow -1 994 92 3000 4.1 180 09:22 13.12.2019
2713 Snow -1 994 92 2500 4.6 180 08:55 13.12.2019
2714 Snow -1 994 100 2500 5.7 180 08:37 13.12.2019
2715 Snow -1 994 100 2500 5.7 180 08:19 13.12.2019
2716 Snow -1 994 100 2500 4.6 170 07:43 13.12.2019
2717 Snow -1 994 100 2500 4.6 170 07:19 13.12.2019
2718 Snow -1 994 100 2500 4.6 170 06:46 13.12.2019
2719 Snow -1 994 100 7000 4.6 180 06:27 13.12.2019
2720 Snow -1 994 100 6000 4.6 170 05:41 13.12.2019
2721 Snow -1 994 100 5000 4.6 170 05:20 13.12.2019
2722 Snow -1 994 100 5000 5.1 170 04:29 13.12.2019
2723 Snow -1 994 100 5000 4.6 170 02:57 13.12.2019
2724 Clouds 0 994 95 8000 4.1 170 02:30 13.12.2019
2725 Clouds 0 994 95 5000 4.6 170 01:38 13.12.2019
2726 Clouds 0 995 95 4000 4.6 180 00:51 13.12.2019
2727 Snow 0 995 95 5000 4.6 170 00:28 13.12.2019
2728 Snow 0 995 95 6000 4.6 170 23:44 12.12.2019
2729 Clouds 0 995 95 7000 4.1 180 23:26 12.12.2019
2730 Clouds 0 995 97 10000 6.2 180 22:57 12.12.2019
2731 Clouds 0 995 97 10000 5.7 180 22:39 12.12.2019
2732 Clouds 0 995 97 10000 5.7 180 22:39 12.12.2019
2733 Clouds 0 995 97 10000 5.7 180 22:21 12.12.2019
2734 Clouds 0 995 97 10000 5.7 180 22:21 12.12.2019
2735 Rain 0 995 97 8000 5.1 180 21:56 12.12.2019
2736 Drizzle 0 995 97 5000 5.1 190 21:37 12.12.2019
2737 Drizzle 0 995 97 5000 5.1 190 21:19 12.12.2019
2738 Rain 0 995 97 4600 5.1 180 20:59 12.12.2019
2739 Rain 1 996 97 7000 5.1 180 20:40 12.12.2019
2740 Rain 1 996 94 7000 5.1 180 20:21 12.12.2019
2741 Rain 1 996 94 4700 5.1 180 19:56 12.12.2019
2742 Rain 1 996 94 5000 5.7 180 19:37 12.12.2019
2743 Rain 1 996 94 5000 5.7 180 19:18 12.12.2019
2744 Rain 1 996 94 5000 6.2 190 18:56 12.12.2019
2745 Rain 1 996 100 5000 6.2 190 18:37 12.12.2019
2746 Rain 1 996 100 5000 6.2 190 18:37 12.12.2019
2747 Rain 1 996 100 5000 6.2 190 18:19 12.12.2019
2748 Rain 1 996 100 6000 5.7 190 17:56 12.12.2019
2749 Rain 1 996 100 6000 5.7 180 17:38 12.12.2019
2750 Rain 1 996 100 6000 5.7 180 17:38 12.12.2019
2751 Rain 1 996 100 6000 5.7 180 17:19 12.12.2019
2752 Rain 1 996 100 6000 6.7 190 16:54 12.12.2019
2753 Rain 1 996 94 8000 6.2 190 16:36 12.12.2019
2754 Rain 1 996 94 8000 6.2 190 16:18 12.12.2019
2755 Rain 1 996 94 9000 6.7 190 15:42 12.12.2019
2756 Rain 1 996 94 6000 7.7 190 15:20 12.12.2019
2757 Rain 1 996 94 6000 7.7 190 15:20 12.12.2019
2758 Rain 1 996 94 10000 5.7 190 14:57 12.12.2019
2759 Rain 1 996 94 10000 5.7 190 14:57 12.12.2019
2760 Rain 1 996 94 5000 5.7 190 14:37 12.12.2019
2761 Rain 1 996 93 5000 5.7 190 14:19 12.12.2019
2762 Clouds 1 996 93 5000 5.7 190 13:55 12.12.2019
2763 Snow 1 996 93 6000 6.7 190 13:36 12.12.2019
2764 Snow 1 996 93 6000 6.7 190 13:18 12.12.2019
2765 Snow 1 996 93 6000 6.2 180 12:42 12.12.2019
2766 Snow 1 996 93 7000 6.7 190 12:23 12.12.2019
2767 Snow 1 996 93 6000 6.7 190 11:59 12.12.2019
2768 Snow 1 996 93 6000 6.7 190 11:40 12.12.2019
2769 Clouds 1 996 92 10000 6.7 190 11:22 12.12.2019
2770 Clouds 1 996 92 10000 6.7 200 10:59 12.12.2019
2771 Clouds 1 996 92 10000 6.7 200 10:40 12.12.2019
2772 Clouds 1 996 92 10000 6.7 200 10:22 12.12.2019
2773 Clouds 1 996 92 10000 7.7 200 09:56 12.12.2019
2774 Clouds 1 996 92 10000 7.7 200 09:38 12.12.2019
2775 Clouds 1 996 92 10000 7.7 200 09:20 12.12.2019
2776 Drizzle 1 996 92 9000 6.7 190 08:47 12.12.2019
2777 Drizzle 1 996 92 3000 6.7 200 08:29 12.12.2019
2778 Drizzle 1 996 100 3000 6.7 190 07:55 12.12.2019
2779 Drizzle 1 996 100 3000 7.7 200 07:36 12.12.2019
2780 Drizzle 1 996 100 3000 7.7 200 07:18 12.12.2019
2781 Drizzle 1 996 93 4000 6.7 200 06:41 12.12.2019
2782 Rain 1 996 93 7000 6.7 190 06:21 12.12.2019
2783 Rain 1 996 100 10000 8.7 210 05:28 12.12.2019
2784 Drizzle 1 996 100 10000 8.7 200 04:46 12.12.2019
2785 Clouds 1 996 100 10000 7.7 200 02:42 12.12.2019
2786 Rain 1 996 100 3300 7.2 200 02:24 12.12.2019
2787 Rain 0 996 94 1000 5.7 190 01:58 12.12.2019
2788 Clouds 0 996 94 10000 7.2 200 01:35 12.12.2019
2789 Clouds 0 995 94 10000 6.7 200 00:49 12.12.2019
2790 Clouds 0 995 94 10000 7.7 220 00:22 12.12.2019
2791 Clouds 0 994 94 10000 7.7 210 23:58 11.12.2019
2792 Clouds 0 994 94 10000 8.2 210 23:36 11.12.2019
2793 Clouds 0 994 90 10000 8.2 210 23:18 11.12.2019
2794 Clouds 0 994 90 10000 7.2 230 22:55 11.12.2019
2795 Clouds 0 993 90 10000 8.7 220 22:37 11.12.2019
2796 Clouds 0 993 90 10000 8.7 220 22:18 11.12.2019
2797 Clouds 0 992 90 10000 8.7 220 21:39 11.12.2019
2798 Clouds 0 992 90 10000 8.7 220 21:39 11.12.2019
2799 Clouds 0 992 90 10000 8.7 220 21:20 11.12.2019
2800 Clouds 0 992 90 10000 8.7 220 21:20 11.12.2019
2801 Clouds 0 991 90 10000 8.2 220 20:58 11.12.2019
2802 Snow 0 990 90 10000 8.7 220 20:40 11.12.2019
2803 Snow 0 990 97 10000 8.7 220 20:20 11.12.2019
2804 Clouds 0 990 97 8000 8.7 210 19:59 11.12.2019
2805 Snow -1 989 100 4100 9.3 200 19:40 11.12.2019
2806 Snow -1 989 100 4100 9.3 200 19:21 11.12.2019
2807 Snow -1 989 92 2800 7.2 190 18:58 11.12.2019
2808 Snow -2 989 100 2800 7.2 180 18:39 11.12.2019
2809 Snow -2 989 100 2800 7.2 180 18:18 11.12.2019
2810 Snow -2 989 92 4200 6.7 170 17:55 11.12.2019
2811 Snow -2 989 92 2600 7.2 170 17:37 11.12.2019
2812 Snow -2 989 92 2600 7.2 170 17:18 11.12.2019
2813 Snow -3 989 100 2600 7.7 170 16:55 11.12.2019
2814 Snow -3 990 92 4000 7.7 170 16:36 11.12.2019
2815 Snow -3 990 92 4000 7.7 170 16:18 11.12.2019
2816 Snow -3 990 92 3900 7.2 170 15:54 11.12.2019
2817 Snow -3 991 92 3600 7.2 160 15:36 11.12.2019
2818 Snow -3 991 92 3600 7.2 160 15:18 11.12.2019
2819 Snow -4 991 92 3000 8.2 160 14:54 11.12.2019
2820 Snow -4 992 92 2000 7.2 160 14:36 11.12.2019
2821 Snow -4 992 92 2000 7.2 160 14:36 11.12.2019
2822 Snow -4 992 92 2000 7.2 160 14:18 11.12.2019
2823 Snow -4 992 92 1600 8.2 160 13:41 11.12.2019
2824 Snow -4 993 92 1300 8.7 160 13:21 11.12.2019
2825 Snow -5 994 92 1500 8.2 150 12:57 11.12.2019
2826 Snow -5 994 92 1500 7.7 150 12:38 11.12.2019
2827 Snow -5 994 92 1500 7.7 150 12:38 11.12.2019
2828 Snow -5 994 92 1500 7.7 150 12:20 11.12.2019
2829 Snow -5 995 92 1600 7.7 150 11:57 11.12.2019
2830 Snow -5 996 85 800 6.7 150 11:38 11.12.2019
2831 Snow -5 996 85 800 6.7 150 11:18 11.12.2019
2832 Snow -6 997 92 1300 6.7 140 10:56 11.12.2019
2833 Snow -7 998 92 1300 7.2 140 10:38 11.12.2019
2834 Snow -7 998 92 1300 7.2 140 10:19 11.12.2019
2835 Snow -7 999 92 1500 5.7 140 09:41 11.12.2019
2836 Snow -7 999 92 1500 5.7 140 09:21 11.12.2019
2837 Snow -8 1000 92 2000 6.2 130 08:58 11.12.2019
2838 Snow -8 1000 85 10000 6.2 130 08:38 11.12.2019
2839 Snow -8 1000 85 10000 6.2 130 08:19 11.12.2019
2840 Snow -9 1001 92 2500 5.7 130 07:56 11.12.2019
2841 Snow -11 1002 92 2500 5.7 120 07:38 11.12.2019
2842 Snow -11 1002 92 2500 5.7 120 07:18 11.12.2019
2843 Snow -11 1002 92 2500 5.7 120 07:18 11.12.2019
2844 Snow -11 1002 85 4000 6.2 120 06:43 11.12.2019
2845 Clouds -12 1003 92 10000 5.7 120 06:22 11.12.2019
2846 Snow -13 1003 84 4400 4.1 120 05:41 11.12.2019
2847 Snow -14 1004 92 800 5.7 120 05:20 11.12.2019
2848 Snow -15 1005 92 1400 4.6 130 04:28 11.12.2019
2849 Fog -16 1006 84 1200 4.6 120 02:49 11.12.2019
2850 Snow -15 1006 84 10000 3.1 120 01:25 11.12.2019
2851 Snow -15 1006 84 2400 2.6 90 00:47 11.12.2019
2852 Clouds -14 1007 84 10000 1 0 00:21 11.12.2019
2853 Snow -15 1007 84 7000 1 0 23:49 10.12.2019
2854 Snow -16 1007 84 8000 1 0 23:30 10.12.2019
2855 Clear -15 1007 84 10000 1.5 170 22:58 10.12.2019
2856 Clear -15 1006 84 10000 1.5 190 22:40 10.12.2019
2857 Clear -15 1006 84 10000 1.5 190 22:40 10.12.2019
2858 Clear -15 1006 84 10000 1.5 190 22:22 10.12.2019
2859 Clear -13 1007 84 10000 2.1 210 21:56 10.12.2019
2860 Clear -13 1007 84 10000 2.1 210 21:56 10.12.2019
2861 Clear -15 1007 84 10000 2.1 210 21:38 10.12.2019
2862 Clear -15 1007 84 10000 2.1 210 21:38 10.12.2019
2863 Clear -15 1007 84 10000 2.1 210 21:38 10.12.2019
2864 Clear -15 1007 84 10000 2.1 210 21:19 10.12.2019
2865 Clear -15 1007 92 10000 1.5 240 20:57 10.12.2019
2866 Clear -14 1006 92 10000 1.5 230 20:37 10.12.2019
2867 Clear -14 1006 92 10000 1.5 230 20:19 10.12.2019
2868 Clear -14 1006 84 10000 2.1 220 19:55 10.12.2019
2869 Clear -14 1006 84 10000 2.6 230 19:37 10.12.2019
2870 Clear -14 1006 84 10000 2.6 230 19:18 10.12.2019
2871 Clear -15 1006 84 10000 2.6 240 18:40 10.12.2019
2872 Clear -15 1006 92 10000 1.5 230 18:20 10.12.2019
2873 Clear -14 1006 84 10000 3.1 250 17:58 10.12.2019
2874 Clear -14 1006 84 10000 3.1 250 17:39 10.12.2019
2875 Clear -15 1006 92 10000 2.1 240 17:20 10.12.2019
2876 Clear -14 1005 92 10000 2.6 250 16:43 10.12.2019
2877 Clear -12 1005 85 10000 2.1 250 16:21 10.12.2019
2878 Clear -12 1005 85 10000 2.1 250 16:21 10.12.2019
2879 Clear -13 1005 92 10000 2.6 270 15:59 10.12.2019
2880 Clear -14 1004 92 10000 2.6 260 15:38 10.12.2019
2881 Clear -14 1004 92 10000 2.6 260 15:18 10.12.2019
2882 Clear -12 1004 85 10000 2.6 270 14:55 10.12.2019
2883 Clear -11 1004 78 10000 2.6 280 14:37 10.12.2019
2884 Clear -11 1004 78 10000 2.6 280 14:19 10.12.2019
2885 Clear -11 1004 78 10000 2.6 280 14:19 10.12.2019
2886 Clear -11 1003 78 10000 3.1 290 13:56 10.12.2019
2887 Clear -11 1003 78 10000 3.1 290 13:56 10.12.2019
2888 Clear -12 1003 85 10000 3.1 310 13:38 10.12.2019
2889 Clear -12 1003 85 10000 3.1 310 13:18 10.12.2019
2890 Clear -12 1003 85 10000 3.1 310 12:41 10.12.2019
2891 Clear -11 1002 85 10000 2.1 290 12:22 10.12.2019
2892 Clear -11 1002 85 10000 2.6 330 11:44 10.12.2019
2893 Clear -12 1002 85 10000 2.6 300 11:25 10.12.2019
2894 Clear -12 1001 85 10000 1.5 280 10:57 10.12.2019
2895 Clear -12 1001 85 10000 2.6 260 10:39 10.12.2019
2896 Clear -12 1001 85 10000 2.6 260 10:39 10.12.2019
2897 Clear -12 1001 85 10000 2.6 260 10:21 10.12.2019
2898 Clear -12 1000 85 10000 3.1 320 09:56 10.12.2019
2899 Clear -12 1000 85 10000 3.1 320 09:56 10.12.2019
2900 Clear -12 999 85 10000 3.1 310 09:38 10.12.2019
2901 Clear -12 999 85 10000 3.1 310 09:38 10.12.2019
2902 Clear -12 999 85 10000 3.1 310 09:38 10.12.2019
2903 Clear -12 999 85 10000 3.1 310 09:20 10.12.2019
2904 Clear -12 999 85 10000 2.6 280 08:55 10.12.2019
2905 Clear -12 998 85 10000 3.1 320 08:37 10.12.2019
2906 Clouds -12 998 85 10000 3.1 320 08:18 10.12.2019
2907 Clouds -12 998 85 10000 2.6 320 07:44 10.12.2019
2908 Clouds -12 998 85 10000 2.6 320 07:44 10.12.2019
2909 Clouds -12 998 85 10000 2.6 320 07:44 10.12.2019
2910 Clouds -11 997 85 10000 4.1 330 07:25 10.12.2019
2911 Clouds -11 996 85 10000 4.6 330 06:47 10.12.2019
2912 Clouds -11 996 85 10000 4.6 320 06:21 10.12.2019
2913 Clouds -11 995 85 10000 4.6 320 05:55 10.12.2019
2914 Clouds -11 994 85 10000 5.1 320 04:55 10.12.2019
2915 Clouds -11 992 85 10000 5.1 320 03:38 10.12.2019
2916 Clouds -10 991 78 10000 5.7 320 02:46 10.12.2019
2917 Clouds -9 990 78 10000 4.1 320 01:45 10.12.2019
2918 Clouds -9 989 85 10000 4.6 320 01:21 10.12.2019
2919 Clouds -8 988 78 10000 4.6 320 00:42 10.12.2019
2920 Clouds -8 988 78 10000 5.1 330 00:21 10.12.2019
2921 Clouds -7 986 79 10000 4.6 320 23:42 09.12.2019
2922 Clouds -7 986 79 10000 4.6 320 23:42 09.12.2019
2923 Clouds -7 986 79 10000 4.6 320 23:42 09.12.2019
2924 Clouds -7 986 79 10000 4.6 320 23:23 09.12.2019
2925 Clouds -7 986 79 10000 4.6 320 23:23 09.12.2019
2926 Snow -7 986 85 10000 5.1 330 22:58 09.12.2019
2927 Snow -7 986 85 10000 5.1 330 22:40 09.12.2019
2928 Snow -7 985 92 10000 4.6 330 22:20 09.12.2019
2929 Snow -6 984 85 10000 4.1 330 21:57 09.12.2019
2930 Snow -6 983 85 10000 5.1 330 21:38 09.12.2019
2931 Snow -6 983 85 10000 5.1 330 21:19 09.12.2019
2932 Snow -6 983 85 10000 5.1 330 20:57 09.12.2019
2933 Snow -6 983 85 10000 5.1 330 20:57 09.12.2019
2934 Snow -6 982 92 10000 4.6 340 20:39 09.12.2019
2935 Snow -6 982 92 10000 4.6 340 20:20 09.12.2019
2936 Snow -6 981 92 10000 4.1 350 19:56 09.12.2019
2937 Snow -6 980 92 10000 4.1 350 19:37 09.12.2019
2938 Snow -6 980 92 10000 4.1 350 19:19 09.12.2019
2939 Snow -6 980 92 10000 4.1 350 19:19 09.12.2019
2940 Snow -6 980 92 10000 4.6 350 18:56 09.12.2019
2941 Snow -6 979 85 5000 4.1 340 18:38 09.12.2019
2942 Snow -6 979 85 5000 4.1 340 18:19 09.12.2019
2943 Snow -7 979 92 7000 4.1 340 17:57 09.12.2019
2944 Snow -7 978 92 10000 4.6 340 17:38 09.12.2019
2945 Snow -7 978 92 10000 4.6 340 17:20 09.12.2019
2946 Snow -7 978 92 10000 4.1 350 16:56 09.12.2019
2947 Snow -7 977 92 7000 4.6 350 16:37 09.12.2019
2948 Snow -7 977 92 7000 4.6 350 16:19 09.12.2019
2949 Snow -7 976 92 7000 4.6 350 15:55 09.12.2019
2950 Snow -7 976 92 7000 4.6 350 15:55 09.12.2019
2951 Snow -7 976 92 8000 4.6 350 15:37 09.12.2019
2952 Snow -7 976 92 8000 4.6 350 15:37 09.12.2019
2953 Snow -7 976 92 8000 4.6 350 15:19 09.12.2019
2954 Snow -6 975 92 2500 4.1 350 14:42 09.12.2019
2955 Snow -6 975 92 2500 4.1 350 14:19 09.12.2019
2956 Snow -6 975 92 5000 3.6 360 13:58 09.12.2019
2957 Snow -6 974 85 7000 4.6 10 13:38 09.12.2019
2958 Snow -6 974 85 7000 4.6 10 13:19 09.12.2019
2959 Clouds -6 974 85 10000 5.1 10 12:57 09.12.2019
2960 Clouds -6 973 85 10000 6.2 10 12:38 09.12.2019
2961 Clouds -6 973 85 10000 6.2 10 12:20 09.12.2019
2962 Clouds -7 973 92 10000 6.7 20 11:58 09.12.2019
2963 Clouds -7 973 92 10000 7.2 20 11:39 09.12.2019
2964 Clouds -7 973 92 10000 7.2 20 11:21 09.12.2019
2965 Clouds -7 973 92 10000 6.7 40 10:54 09.12.2019
2966 Clouds -6 973 85 10000 7.7 40 10:36 09.12.2019
2967 Clouds -6 973 85 10000 7.7 40 10:18 09.12.2019
2968 Clouds -6 973 85 10000 7.7 30 09:41 09.12.2019
2969 Clouds -6 973 85 10000 7.2 40 09:21 09.12.2019
2970 Clouds -6 972 85 10000 7.2 40 08:54 09.12.2019
2971 Clouds -6 972 92 10000 7.2 40 08:36 09.12.2019
2972 Clouds -6 972 92 10000 7.2 40 08:18 09.12.2019
2973 Clouds -6 972 92 10000 7.2 40 08:18 09.12.2019
2974 Clouds -6 972 92 10000 7.2 40 07:42 09.12.2019
2975 Clouds -6 973 92 10000 6.7 50 07:23 09.12.2019
2976 Clouds -7 973 100 10000 6.7 50 06:47 09.12.2019
2977 Clouds -7 973 92 10000 5.7 50 06:25 09.12.2019
2978 Clouds -7 973 92 10000 5.1 70 05:29 09.12.2019
2979 Clouds -7 974 92 10000 5.7 60 04:46 09.12.2019
2980 Clouds -8 975 92 10000 5.1 60 03:21 09.12.2019
2981 Clouds -8 975 92 10000 3.6 70 02:24 09.12.2019
2982 Clouds -8 976 92 10000 2.6 90 01:42 09.12.2019
2983 Clouds -8 976 92 10000 3.6 90 00:46 09.12.2019
2984 Clouds -8 976 92 10000 3.1 100 00:27 09.12.2019
2985 Clouds -8 977 92 10000 2.6 100 23:43 08.12.2019
2986 Clouds -8 977 92 10000 2.1 120 23:24 08.12.2019
2987 Mist -8 977 100 4200 2.1 100 22:57 08.12.2019
2988 Clouds -7 977 92 10000 1.5 140 22:39 08.12.2019
2989 Clouds -7 977 92 10000 1.5 140 22:19 08.12.2019
2990 Clouds -7 977 92 9000 1.5 210 21:58 08.12.2019
2991 Clouds -7 977 92 9000 1.5 210 21:40 08.12.2019
2992 Clouds -7 977 92 3600 2.1 0 21:20 08.12.2019
2993 Clouds -7 977 92 3600 2.1 0 21:20 08.12.2019
2994 Fog -7 977 92 2700 3.1 210 20:57 08.12.2019
2995 Fog -7 977 92 2300 3.1 210 20:38 08.12.2019
2996 Fog -7 977 92 2300 3.1 210 20:20 08.12.2019
2997 Fog -7 977 92 2300 3.1 210 20:20 08.12.2019
2998 Clouds -7 977 92 10000 2.6 210 19:58 08.12.2019
2999 Clouds -7 977 92 10000 2.6 210 19:40 08.12.2019
3000 Clouds -7 977 92 10000 1.5 220 19:22 08.12.2019
3001 Snow -7 977 92 10000 2.6 220 18:55 08.12.2019
3002 Snow -7 977 92 10000 2.6 220 18:55 08.12.2019
3003 Snow -7 977 92 10000 3.1 220 18:37 08.12.2019
3004 Snow -7 977 92 10000 3.1 220 18:19 08.12.2019
3005 Snow -7 977 100 10000 2.1 240 17:56 08.12.2019
3006 Snow -7 977 100 4200 2.6 220 17:38 08.12.2019
3007 Snow -7 977 100 4200 2.6 220 17:19 08.12.2019
3008 Clouds -6 977 92 6000 2.1 230 16:56 08.12.2019
3009 Snow -6 977 92 6000 2.1 240 16:38 08.12.2019
3010 Snow -6 977 92 6000 2.1 240 16:20 08.12.2019
3011 Clouds -6 977 92 2600 2.1 250 15:54 08.12.2019
3012 Snow -6 976 100 4200 2.1 270 15:36 08.12.2019
3013 Snow -6 976 100 4200 2.1 270 15:18 08.12.2019
3014 Snow -6 976 100 4700 3.1 270 14:40 08.12.2019
3015 Snow -6 976 100 4700 3.1 270 14:40 08.12.2019
3016 Clouds -6 976 100 6000 3.1 260 14:22 08.12.2019
3017 Snow -5 976 92 5000 1 0 13:57 08.12.2019
3018 Clouds -5 976 92 6000 1 0 13:38 08.12.2019
3019 Clouds -5 976 92 6000 1 0 13:20 08.12.2019
3020 Clouds -5 976 92 5000 1.5 320 12:54 08.12.2019
3021 Clouds -5 976 92 4400 1.5 310 12:36 08.12.2019
3022 Clouds -5 976 92 4400 1.5 310 12:18 08.12.2019
3023 Clouds -5 976 100 3700 3.6 320 11:39 08.12.2019
3024 Clouds -5 976 100 3700 3.6 320 11:20 08.12.2019
3025 Snow -4 976 92 3200 2.6 330 10:59 08.12.2019
3026 Snow -4 976 100 3700 1.5 290 10:38 08.12.2019
3027 Snow -4 976 100 3700 1.5 290 10:20 08.12.2019
3028 Snow -3 976 100 6000 2.1 300 09:57 08.12.2019
3029 Snow -2 976 92 4300 1 0 09:38 08.12.2019
3030 Snow -2 976 92 4300 1 0 09:19 08.12.2019
3031 Snow -2 976 92 6000 1 0 08:57 08.12.2019
3032 Clouds -2 976 92 10000 1.5 170 08:37 08.12.2019
3033 Clouds -2 976 92 10000 1.5 170 08:37 08.12.2019
3034 Clouds -2 976 92 10000 1.5 170 08:37 08.12.2019
3035 Clouds -2 976 92 10000 1.5 170 08:18 08.12.2019
3036 Snow -2 976 92 4400 1.5 100 07:42 08.12.2019
3037 Snow -2 976 92 4400 1.5 100 07:19 08.12.2019
3038 Snow -2 976 92 3900 0.5 0 06:50 08.12.2019
3039 Clouds -2 976 92 10000 1 0 06:22 08.12.2019
3040 Clouds -2 976 92 10000 1.5 140 05:43 08.12.2019
3041 Snow -2 976 92 10000 1.5 130 04:59 08.12.2019
3042 Snow -2 976 100 10000 1 0 03:49 08.12.2019
3043 Snow -2 976 100 6000 1.5 130 03:21 08.12.2019
3044 Snow -2 977 100 8000 1.5 150 02:38 08.12.2019
3045 Clouds -2 977 100 3400 2.1 160 01:54 08.12.2019
3046 Snow -2 977 100 5000 2.6 160 00:59 08.12.2019
3047 Snow -2 977 100 5000 2.6 160 00:39 08.12.2019
3048 Snow -1 977 92 4200 2.6 180 00:19 08.12.2019
3049 Snow -1 977 92 3600 2.6 180 23:40 07.12.2019
3050 Snow -1 978 92 4100 3.1 180 23:20 07.12.2019
3051 Snow -1 978 92 5000 3.1 180 22:56 07.12.2019
3052 Clouds -1 978 100 4800 3.1 190 22:38 07.12.2019
3053 Clouds -1 978 100 4800 3.1 190 22:20 07.12.2019
3054 Clouds -1 978 100 5000 3.6 200 21:56 07.12.2019
3055 Clouds -1 978 92 6000 4.1 190 21:38 07.12.2019
3056 Clouds -1 978 92 6000 4.1 190 21:38 07.12.2019
3057 Clouds -1 978 92 6000 4.1 190 21:19 07.12.2019
3058 Clouds -1 978 100 7000 4.6 200 20:56 07.12.2019
3059 Clouds -1 978 100 9000 5.1 200 20:36 07.12.2019
3060 Clouds -1 978 100 9000 5.1 200 20:18 07.12.2019
3061 Clouds -1 979 100 6000 4.6 200 19:56 07.12.2019
3062 Clouds -1 979 100 6000 5.1 200 19:37 07.12.2019
3063 Clouds -1 979 100 6000 5.1 200 19:19 07.12.2019
3064 Clouds -1 979 100 5000 5.7 200 18:44 07.12.2019
3065 Clouds -1 979 100 7000 5.7 200 18:19 07.12.2019
3066 Clouds -1 979 100 9000 4.6 200 17:58 07.12.2019
3067 Clouds -1 979 100 10000 4.6 200 17:39 07.12.2019
3068 Clouds -1 979 100 10000 4.6 200 17:21 07.12.2019
3069 Clouds -1 979 92 10000 6.2 190 16:56 07.12.2019
3070 Clouds -1 979 92 10000 6.2 190 16:56 07.12.2019
3071 Clouds -1 979 92 10000 6.2 200 16:37 07.12.2019
3072 Clouds -1 979 92 10000 6.2 200 16:19 07.12.2019
3073 Clouds -1 980 100 10000 4.6 190 15:42 07.12.2019
3074 Clouds -1 980 100 10000 5.1 200 15:23 07.12.2019
3075 Clouds -1 980 100 10000 5.1 200 15:23 07.12.2019
3076 Clouds -1 980 92 10000 5.1 190 14:57 07.12.2019
3077 Clouds -1 980 100 10000 4.6 190 14:39 07.12.2019
3078 Clouds -1 980 100 10000 4.6 190 14:18 07.12.2019
3079 Clouds -1 980 92 10000 5.1 190 13:41 07.12.2019
3080 Clouds -1 980 92 10000 4.6 200 13:21 07.12.2019
3081 Clouds -1 980 92 10000 4.6 200 12:58 07.12.2019
3082 Clouds -1 980 92 10000 4.6 200 12:40 07.12.2019
3083 Clouds -1 980 92 10000 5.7 200 12:22 07.12.2019
3084 Clouds -1 980 92 10000 4.1 190 11:57 07.12.2019
3085 Clouds -1 980 92 10000 5.7 200 11:38 07.12.2019
3086 Clouds -1 980 92 10000 5.7 200 11:20 07.12.2019
3087 Clouds -1 981 92 10000 6.2 200 10:38 07.12.2019
3088 Clouds -1 981 92 10000 6.2 200 10:19 07.12.2019
3089 Snow -1 980 100 4400 5.7 200 09:41 07.12.2019
3090 Snow -1 980 100 4400 5.7 200 09:22 07.12.2019
3091 Clouds -1 980 100 10000 6.2 210 08:56 07.12.2019
3092 Clouds -1 980 100 10000 6.2 210 08:37 07.12.2019
3093 Clouds -1 980 100 10000 6.2 210 08:19 07.12.2019
3094 Clouds -1 980 100 10000 6.2 210 07:44 07.12.2019
3095 Clouds -1 980 92 10000 5.7 200 07:23 07.12.2019
3096 Clouds -1 979 100 10000 6.7 200 06:45 07.12.2019
3097 Snow -1 980 100 10000 5.1 190 06:24 07.12.2019
3098 Snow -1 980 100 10000 4.6 190 05:19 07.12.2019
3099 Clouds -1 980 100 2700 3.6 180 03:54 07.12.2019
3100 Snow -1 980 92 7000 3.6 180 02:56 07.12.2019
3101 Clouds -1 980 92 10000 3.6 190 02:21 07.12.2019
3102 Mist -2 980 100 4300 3.6 180 01:34 07.12.2019
3103 Snow -2 980 100 2300 3.1 180 00:52 07.12.2019
3104 Snow -2 980 100 2200 3.6 160 00:19 07.12.2019
3105 Snow -2 980 92 1500 3.6 170 23:48 06.12.2019
3106 Fog -3 979 100 1100 3.6 160 23:25 06.12.2019
3107 Snow -3 979 92 1900 3.6 160 22:59 06.12.2019
3108 Snow -5 979 100 1200 2.6 140 22:37 06.12.2019
3109 Snow -5 979 100 1200 2.6 140 22:19 06.12.2019
3110 Clouds -5 979 92 1300 2.1 140 21:57 06.12.2019
3111 Fog -5 979 92 900 2.1 170 21:38 06.12.2019
3112 Fog -5 979 92 900 2.1 170 21:19 06.12.2019
3113 Fog -6 979 100 550 1.5 210 20:42 06.12.2019
3114 Fog -7 979 92 700 1.5 200 20:23 06.12.2019
3115 Fog -7 979 92 1500 2.1 160 19:58 06.12.2019
3116 Fog -8 979 92 800 1.5 130 19:39 06.12.2019
3117 Fog -8 979 92 800 1.5 130 19:21 06.12.2019
3118 Clouds -8 979 92 2100 2.1 130 18:55 06.12.2019
3119 Clouds -8 979 92 2100 2.1 130 18:55 06.12.2019
3120 Clouds -9 979 92 4300 2.6 130 18:36 06.12.2019
3121 Clouds -9 979 92 4300 2.6 130 18:18 06.12.2019
3122 Mist -9 978 92 3600 2.6 90 17:55 06.12.2019
3123 Clouds -8 978 92 10000 1.5 110 17:37 06.12.2019
3124 Clouds -8 978 92 10000 1.5 110 17:19 06.12.2019
3125 Fog -7 978 92 650 1.5 120 16:42 06.12.2019
3126 Fog -7 978 92 400 1.5 190 16:23 06.12.2019
3127 Fog -7 978 100 600 1.5 210 15:56 06.12.2019
3128 Mist -6 978 92 2500 2.6 210 15:38 06.12.2019
3129 Mist -6 978 92 2500 2.6 210 15:18 06.12.2019
3130 Clouds -6 977 92 10000 2.6 230 14:41 06.12.2019
3131 Clouds -7 977 100 10000 3.1 220 14:20 06.12.2019
3132 Clear -7 977 92 10000 2.6 200 13:58 06.12.2019
3133 Clear -7 977 92 10000 2.6 200 13:40 06.12.2019
3134 Clear -6 977 92 10000 3.6 180 13:21 06.12.2019
3135 Clouds -6 977 92 10000 2.6 200 12:41 06.12.2019
3136 Clouds -7 977 100 10000 3.1 220 12:22 06.12.2019
3137 Clear -6 977 92 10000 3.1 230 11:43 06.12.2019
3138 Clear -6 976 100 10000 2.6 260 11:24 06.12.2019
3139 Clear -6 976 100 10000 2.6 260 11:24 06.12.2019
3140 Clear -6 976 92 10000 3.1 230 10:59 06.12.2019
3141 Clear -6 976 92 10000 3.1 230 10:40 06.12.2019
3142 Clear -6 976 92 10000 3.1 230 10:21 06.12.2019
3143 Clear -6 976 92 10000 3.1 230 09:56 06.12.2019
3144 Clear -6 976 100 10000 3.1 230 09:37 06.12.2019
3145 Clear -6 976 100 10000 3.1 230 09:19 06.12.2019
3146 Clouds -5 976 92 10000 3.6 230 08:43 06.12.2019
3147 Clear -5 976 92 10000 4.6 220 08:25 06.12.2019
3148 Clouds -5 975 92 10000 4.6 230 07:43 06.12.2019
3149 -273 0 0 0 0 0 07:23 06.12.2019
3150 Clouds -5 975 100 10000 4.1 230 07:23 06.12.2019
3151 -273 0 0 0 0 0 07:23 06.12.2019
3152 Clouds -5 975 100 10000 4.1 220 06:53 06.12.2019
3153 Clouds -4 974 92 10000 3.6 220 06:26 06.12.2019
3154 Clouds -5 974 100 10000 3.6 230 05:51 06.12.2019
3155 Clouds -3 974 100 10000 4.1 220 03:57 06.12.2019
3156 Clouds -1 973 92 10000 3.1 220 01:48 06.12.2019
3157 Clouds -1 973 92 10000 3.6 210 00:57 06.12.2019
3158 Clouds -1 973 92 10000 5.1 220 00:24 06.12.2019
3159 Clouds -1 973 100 10000 4.6 210 23:56 05.12.2019
3160 Clouds -1 974 100 10000 6.2 210 23:21 05.12.2019
3161 Clouds -1 973 100 10000 6.2 210 22:59 05.12.2019
3162 Clouds -1 973 100 10000 5.7 210 22:39 05.12.2019
3163 Clouds -1 973 100 10000 5.7 210 22:39 05.12.2019
3164 Clouds -1 973 100 10000 5.7 210 22:20 05.12.2019
3165 Clouds 0 973 88 10000 5.1 220 21:58 05.12.2019
3166 Clouds 0 973 88 10000 5.1 220 21:58 05.12.2019
3167 Clouds 0 974 88 10000 6.2 220 21:40 05.12.2019
3168 Clouds 0 974 88 10000 6.2 220 21:22 05.12.2019
3169 Clouds 0 974 88 10000 6.7 220 20:58 05.12.2019
3170 Clouds 0 974 88 10000 6.7 220 20:39 05.12.2019
3171 Clouds 0 974 91 10000 5.1 190 20:19 05.12.2019
3172 Clouds 0 974 91 10000 5.7 200 19:43 05.12.2019
3173 Clouds 0 974 91 10000 5.7 200 19:25 05.12.2019
3174 Clouds 0 975 91 10000 6.2 200 18:59 05.12.2019
3175 Clouds 0 975 91 10000 5.7 200 18:39 05.12.2019
3176 Clouds 0 976 91 10000 5.7 200 18:20 05.12.2019
3177 Clouds 0 976 91 10000 5.7 200 18:20 05.12.2019
3178 Clouds -1 975 100 10000 5.1 210 17:57 05.12.2019
3179 Clouds -1 975 100 10000 5.1 210 17:38 05.12.2019
3180 Clouds -1 976 100 10000 5.1 220 17:18 05.12.2019
3181 Clouds -1 977 100 10000 6.2 210 16:54 05.12.2019
3182 Clouds -1 977 100 10000 6.2 210 16:36 05.12.2019
3183 Clouds -1 977 92 10000 5.7 220 16:18 05.12.2019
3184 Clouds -1 977 92 10000 6.2 220 15:40 05.12.2019
3185 Clouds -1 977 100 10000 5.7 200 15:21 05.12.2019
3186 Clouds -1 978 100 10000 5.1 220 14:57 05.12.2019
3187 Clouds -1 978 100 10000 5.1 220 14:38 05.12.2019
3188 Clouds -1 978 100 10000 4.6 230 14:20 05.12.2019
3189 Clouds -1 978 100 10000 4.6 230 13:58 05.12.2019
3190 Clouds -1 978 100 10000 4.6 230 13:40 05.12.2019
3191 Fog 0 979 91 10000 5.1 220 13:21 05.12.2019
3192 Clouds 0 979 91 10000 5.7 210 12:59 05.12.2019
3193 Clouds 0 979 91 10000 5.7 210 12:40 05.12.2019
3194 Clouds 0 979 91 10000 6.2 220 12:21 05.12.2019
3195 Clouds 0 979 91 10000 4.6 230 11:41 05.12.2019
3196 Clouds 0 979 91 10000 5.1 230 11:23 05.12.2019
3197 Clouds 0 979 90 10000 5.1 230 10:59 05.12.2019
3198 Clouds 1 980 90 10000 4.6 240 10:41 05.12.2019
3199 Clouds 1 980 100 10000 6.2 240 10:19 05.12.2019
3200 Clouds 1 980 100 10000 6.2 240 09:57 05.12.2019
3201 Clouds 1 980 100 10000 7.2 240 09:39 05.12.2019
3202 Fog 1 980 100 3000 7.2 230 09:20 05.12.2019
3203 Fog 1 980 100 3000 7.2 230 09:20 05.12.2019
3204 Fog 1 980 100 3000 7.2 230 08:56 05.12.2019
3205 Fog 1 980 100 2800 7.2 220 08:37 05.12.2019
3206 Mist 1 980 100 1400 5.7 230 08:19 05.12.2019
3207 Drizzle 1 980 100 600 6.2 220 07:41 05.12.2019
3208 Drizzle 1 980 100 400 6.2 230 07:22 05.12.2019
3209 Drizzle 1 980 100 400 7.7 220 06:48 05.12.2019
3210 Rain 1 981 100 700 7.2 220 06:24 05.12.2019
3211 Snow 1 981 100 3500 5.7 200 05:54 05.12.2019
3212 Snow 1 982 100 3900 4.6 200 05:24 05.12.2019
3213 Snow 1 982 100 1100 4.1 210 04:40 05.12.2019
3214 Rain 1 983 100 10000 5.1 210 03:40 05.12.2019
3215 Rain 1 984 100 10000 5.1 210 02:42 05.12.2019
3216 Clouds 1 985 100 10000 4.6 210 02:22 05.12.2019
3217 Clouds 1 985 100 10000 5.1 220 01:51 05.12.2019
3218 Clouds 2 986 93 10000 5.7 200 01:23 05.12.2019
3219 Clouds 2 985 93 10000 5.1 210 00:44 05.12.2019
3220 Clouds 2 986 93 10000 5.7 220 00:21 05.12.2019
3221 Clouds 1 986 100 10000 3.1 190 23:47 04.12.2019
3222 Clouds 1 986 100 10000 3.1 190 23:47 04.12.2019
3223 Clouds 2 986 93 10000 3.6 200 23:23 04.12.2019
3224 Clouds 2 986 93 10000 3.6 200 22:59 04.12.2019
3225 Clouds 2 987 93 10000 4.6 210 22:38 04.12.2019
3226 Clouds 2 987 93 10000 4.1 210 22:20 04.12.2019
3227 Clouds 2 987 93 10000 5.1 210 21:58 04.12.2019
3228 Clouds 2 987 93 10000 5.1 210 21:38 04.12.2019
3229 Clouds 1 987 100 10000 4.6 210 21:19 04.12.2019
3230 Clouds 2 988 93 10000 3.1 230 20:57 04.12.2019
3231 Clouds 2 988 93 10000 3.1 230 20:39 04.12.2019
3232 Rain 1 988 100 10000 3.1 230 20:21 04.12.2019
3233 Rain 1 988 100 10000 2.6 230 19:55 04.12.2019
3234 Rain 1 988 100 10000 2.6 230 19:37 04.12.2019
3235 Rain 1 988 100 10000 2.6 230 19:19 04.12.2019
3236 Rain 1 988 93 10000 2.6 230 18:42 04.12.2019
3237 Rain 2 989 93 10000 2.6 250 18:24 04.12.2019
3238 Rain 2 989 93 10000 3.1 240 17:58 04.12.2019
3239 Rain 2 989 93 10000 3.1 240 17:39 04.12.2019
3240 Rain 1 988 89 10000 3.1 240 17:20 04.12.2019
3241 Rain 1 988 89 10000 4.1 230 16:56 04.12.2019
3242 Rain 1 988 89 10000 4.1 230 16:38 04.12.2019
3243 Rain 0 988 89 10000 3.1 230 16:19 04.12.2019
3244 Rain 0 988 89 10000 3.1 230 16:19 04.12.2019
3245 Rain 0 988 89 10000 3.1 230 15:55 04.12.2019
3246 Clouds 0 988 89 10000 3.6 230 15:36 04.12.2019
3247 Mist 0 987 89 2700 3.1 240 15:18 04.12.2019
3248 Fog 0 987 89 750 4.6 230 14:42 04.12.2019
3249 Fog 0 987 89 900 4.6 230 14:23 04.12.2019
3250 Fog 0 987 94 900 4.6 230 13:57 04.12.2019
3251 Fog 0 987 94 600 3.6 230 13:37 04.12.2019
3252 Fog 0 987 95 400 3.6 230 13:19 04.12.2019
3253 Fog 0 987 95 300 3.1 230 12:43 04.12.2019
3254 Fog -1 987 100 300 3.6 230 12:23 04.12.2019
3255 Fog -1 987 100 250 3.6 230 11:45 04.12.2019
3256 Fog -1 987 100 250 3.6 230 11:26 04.12.2019
3257 Fog -1 987 100 300 3.1 220 10:59 04.12.2019
3258 Fog -1 987 100 700 3.1 230 10:40 04.12.2019
3259 Mist -1 987 92 1400 3.1 230 10:22 04.12.2019
3260 Fog -2 987 100 800 3.1 240 09:45 04.12.2019
3261 Fog -2 987 100 800 3.1 240 09:25 04.12.2019
3262 Fog -2 987 100 700 2.6 230 08:56 04.12.2019
3263 Mist -2 986 100 1300 2.1 220 08:38 04.12.2019
3264 Mist -2 986 92 1500 2.1 210 08:19 04.12.2019
3265 Clouds -3 986 100 1900 2.1 190 07:42 04.12.2019
3266 Clouds -3 986 100 2800 2.6 180 07:22 04.12.2019
3267 Clouds -3 986 92 2800 2.6 150 06:33 04.12.2019
3268 Clouds -3 986 92 8000 2.6 150 05:48 04.12.2019
3269 Snow -4 986 100 6000 3.6 150 04:43 04.12.2019
3270 Snow -4 987 92 2800 2.6 130 03:54 04.12.2019
3271 Snow -4 987 92 3900 2.6 160 02:21 04.12.2019
3272 Snow -4 988 92 3800 4.1 160 00:50 04.12.2019
3273 Snow -4 988 92 4100 4.1 150 00:23 04.12.2019
3274 Snow -4 988 92 4100 4.1 150 23:56 03.12.2019
3275 Snow -4 989 92 6000 3.1 150 23:37 03.12.2019
3276 Snow -4 989 92 10000 3.1 140 23:18 03.12.2019
3277 Snow -4 989 92 10000 3.1 140 23:18 03.12.2019
3278 Snow -4 990 92 8000 3.6 160 22:40 03.12.2019
3279 Snow -4 990 92 9000 3.1 160 22:19 03.12.2019
3280 Snow -4 990 92 9000 3.1 160 21:57 03.12.2019
3281 Snow -4 990 92 8000 2.6 140 21:37 03.12.2019
3282 Snow -4 990 92 10000 2.6 150 21:18 03.12.2019
3283 Snow -4 990 92 10000 2.6 150 20:54 03.12.2019
3284 Clouds -4 991 92 10000 3.6 180 20:36 03.12.2019
3285 Clouds -4 991 92 10000 3.6 170 20:18 03.12.2019
3286 Clouds -5 991 100 10000 4.1 180 19:54 03.12.2019
3287 Clouds -5 991 100 10000 4.1 180 19:54 03.12.2019
3288 Clouds -5 991 100 10000 4.1 180 19:36 03.12.2019
3289 Clouds -7 992 92 10000 3.1 160 19:18 03.12.2019
3290 Clouds -7 992 92 10000 3.1 160 18:55 03.12.2019
3291 Clouds -7 992 92 10000 3.1 160 18:36 03.12.2019
3292 Clouds -7 992 85 10000 2.6 160 18:18 03.12.2019
3293 Clouds -6 993 85 10000 3.6 180 17:40 03.12.2019
3294 Clouds -6 993 85 10000 2.6 190 17:19 03.12.2019
3295 Clouds -6 993 85 10000 2.6 190 16:59 03.12.2019
3296 Clouds -6 993 85 10000 2.6 190 16:59 03.12.2019
3297 Clouds -6 993 85 10000 3.6 200 16:40 03.12.2019
3298 Clouds -6 994 85 10000 3.6 210 16:21 03.12.2019
3299 Clouds -7 995 92 10000 4.1 210 15:59 03.12.2019
3300 Clouds -7 995 92 10000 4.1 210 15:38 03.12.2019
3301 Clouds -7 995 85 10000 4.6 220 15:19 03.12.2019
3302 Clouds -7 995 85 10000 2.6 230 14:44 03.12.2019
3303 Clouds -7 995 85 10000 2.1 220 14:21 03.12.2019
3304 Clouds -7 995 85 10000 2.1 220 13:59 03.12.2019
3305 Clouds -7 995 85 10000 3.1 230 13:38 03.12.2019
3306 Clouds -7 996 92 10000 2.6 230 13:20 03.12.2019
3307 Clouds -7 996 92 10000 2.6 230 12:57 03.12.2019
3308 Clouds -7 996 92 10000 2.6 230 12:37 03.12.2019
3309 Clouds -7 996 92 10000 2.1 230 12:18 03.12.2019
3310 Clouds -6 997 85 10000 2.1 230 11:55 03.12.2019
3311 Clouds -6 997 85 10000 2.1 230 11:37 03.12.2019
3312 Clouds -7 997 92 10000 2.6 240 11:18 03.12.2019
3313 Clouds -6 997 92 10000 2.6 250 10:43 03.12.2019
3314 Clouds -5 997 85 10000 2.6 250 10:21 03.12.2019
3315 Clouds -5 997 85 10000 2.6 250 09:58 03.12.2019
3316 Clouds -5 997 85 10000 2.1 230 09:40 03.12.2019
3317 Clouds -5 997 85 10000 1.5 260 09:21 03.12.2019
3318 Clouds -5 997 85 10000 1.5 260 09:21 03.12.2019
3319 Clouds -5 997 85 10000 2.1 280 08:54 03.12.2019
3320 Clouds -5 997 85 10000 2.1 280 08:36 03.12.2019
3321 Clouds -6 997 92 10000 1.5 230 08:18 03.12.2019
3322 Clouds -6 997 92 10000 2.1 220 07:49 03.12.2019
3323 Clouds -5 997 85 10000 2.6 260 07:24 03.12.2019
3324 Clouds -5 997 85 10000 2.1 290 06:23 03.12.2019
3325 Clouds -5 997 85 10000 2.1 290 05:59 03.12.2019
3326 Clouds -5 997 85 10000 2.1 290 04:50 03.12.2019
3327 Clouds -5 997 85 10000 3.1 300 03:40 03.12.2019
3328 Clouds -5 997 85 10000 3.6 300 03:19 03.12.2019
3329 Clouds -5 997 85 10000 3.1 300 02:48 03.12.2019
3330 Clouds -5 997 85 10000 3.1 300 02:27 03.12.2019
3331 Clouds -5 997 85 10000 3.6 290 01:43 03.12.2019
3332 Clouds -5 997 85 10000 3.6 290 01:24 03.12.2019
3333 Clouds -5 996 85 10000 3.6 290 00:56 03.12.2019
3334 Clouds -4 996 79 10000 4.1 300 00:37 03.12.2019
3335 Clouds -4 996 85 10000 4.6 300 00:19 03.12.2019
3336 Clouds -4 995 85 10000 4.1 290 23:42 02.12.2019
3337 Clouds -3 995 79 10000 4.6 290 23:19 02.12.2019
3338 Clouds -3 995 79 10000 4.6 290 23:19 02.12.2019
3339 Snow -3 995 79 10000 4.6 290 22:41 02.12.2019
3340 Clouds -3 994 79 10000 5.7 280 22:22 02.12.2019
3341 Clouds -3 994 79 10000 5.7 280 21:58 02.12.2019
3342 Clouds -4 994 85 10000 4.6 280 21:37 02.12.2019
3343 Clouds -4 994 85 10000 4.6 280 21:37 02.12.2019
3344 Clouds -4 993 85 10000 4.1 290 21:18 02.12.2019
3345 Clouds -4 993 85 10000 4.1 290 20:56 02.12.2019
3346 Clouds -4 993 85 10000 4.6 290 20:38 02.12.2019
3347 Snow -3 993 79 10000 4.6 290 20:19 02.12.2019
3348 Clouds -3 993 86 10000 3.6 280 19:43 02.12.2019
3349 Snow -4 992 92 10000 3.6 280 19:23 02.12.2019
3350 Snow -4 992 92 10000 3.6 280 18:59 02.12.2019
3351 Snow -3 992 86 10000 3.6 280 18:41 02.12.2019
3352 Clouds -3 992 86 10000 3.1 290 18:19 02.12.2019
3353 Clouds -3 992 86 10000 3.1 290 17:58 02.12.2019
3354 Snow -3 991 86 10000 3.1 290 17:39 02.12.2019
3355 Clouds -3 991 86 10000 4.1 300 17:19 02.12.2019
3356 Clouds -3 990 86 10000 4.6 290 16:40 02.12.2019
3357 Clouds -3 990 86 10000 5.7 300 16:19 02.12.2019
3358 Clouds -3 990 86 10000 5.7 300 15:58 02.12.2019
3359 Clouds -3 989 86 10000 5.1 290 15:40 02.12.2019
3360 Clouds -3 989 86 10000 5.1 290 15:22 02.12.2019
3361 Clouds -3 989 86 10000 5.1 290 14:59 02.12.2019
3362 Clouds -3 988 86 10000 5.1 280 14:38 02.12.2019
3363 Clouds -3 988 86 10000 5.1 280 14:20 02.12.2019
3364 Clouds -3 987 79 10000 5.7 280 13:57 02.12.2019
3365 Clouds -3 987 79 10000 5.7 280 13:39 02.12.2019
3366 Clouds -4 987 85 10000 4.6 270 13:19 02.12.2019
3367 Clouds -4 987 85 10000 4.6 270 12:54 02.12.2019
3368 Clouds -4 987 85 10000 4.6 270 12:54 02.12.2019
3369 Clouds -4 987 85 10000 5.1 260 12:36 02.12.2019
3370 Clouds -4 987 85 10000 5.1 270 12:18 02.12.2019
3371 Clouds -4 986 85 10000 5.1 270 11:38 02.12.2019
3372 Clouds -4 986 85 10000 6.2 260 11:19 02.12.2019
3373 Clouds -4 986 85 10000 6.2 260 10:57 02.12.2019
3374 Clouds -6 986 92 10000 4.1 250 10:39 02.12.2019
3375 Clouds -6 986 92 10000 4.6 240 10:21 02.12.2019
3376 Clouds -6 986 92 10000 4.6 240 09:56 02.12.2019
3377 Snow -6 986 92 10000 4.1 250 09:38 02.12.2019
3378 Clouds -7 986 85 10000 4.6 240 09:18 02.12.2019
3379 Clouds -7 986 85 10000 4.6 240 08:55 02.12.2019
3380 Clouds -7 986 92 10000 5.1 240 08:36 02.12.2019
3381 Clouds -7 986 92 10000 5.1 240 08:18 02.12.2019
3382 Clouds -8 986 92 10000 4.6 230 07:38 02.12.2019
3383 Clouds -8 986 92 10000 3.6 230 07:19 02.12.2019
3384 Clouds -8 986 92 10000 3.6 230 06:42 02.12.2019
3385 Clouds -8 986 92 10000 2.6 230 05:45 02.12.2019
3386 Clouds -7 986 92 10000 1.5 240 05:18 02.12.2019
3387 Clouds -5 984 92 10000 3.1 310 03:19 02.12.2019
3388 Snow -5 984 92 10000 3.1 280 02:47 02.12.2019
3389 Clouds -5 983 92 10000 5.1 270 01:46 02.12.2019
3390 Clouds -5 983 85 10000 4.6 260 01:19 02.12.2019
3391 Clouds -6 982 92 10000 5.1 240 00:34 02.12.2019
3392 Snow -5 982 85 10000 5.7 250 23:59 01.12.2019
3393 Clouds -5 982 85 10000 4.6 260 23:41 01.12.2019
3394 Clouds -5 982 85 10000 4.6 250 23:21 01.12.2019
3395 Clouds -5 982 85 10000 4.6 250 22:56 01.12.2019
3396 Clouds -5 982 85 10000 5.1 250 22:38 01.12.2019
3397 Clouds -5 982 85 10000 5.1 240 22:18 01.12.2019
3398 Clouds -5 982 92 10000 5.1 240 21:56 01.12.2019
3399 Clouds -5 982 92 10000 5.1 240 21:38 01.12.2019
3400 Clouds -5 982 92 10000 4.6 240 21:19 01.12.2019
3401 Clouds -5 982 92 10000 4.6 240 20:57 01.12.2019
3402 Clouds -5 982 85 10000 5.1 240 20:39 01.12.2019
3403 Clouds -6 982 92 10000 4.6 230 20:21 01.12.2019
3404 Clouds -6 982 92 10000 4.6 230 19:55 01.12.2019
3405 Clouds -6 982 92 10000 4.6 230 19:37 01.12.2019
3406 Clouds -6 982 92 10000 4.6 230 19:37 01.12.2019
3407 Clouds -6 982 92 10000 4.1 240 19:19 01.12.2019
3408 Clouds -6 982 92 10000 4.1 240 18:55 01.12.2019
3409 Clouds -6 982 92 10000 4.6 230 18:37 01.12.2019
3410 Clouds -5 982 85 10000 4.6 250 18:18 01.12.2019
3411 Clouds -5 982 85 10000 4.6 250 17:56 01.12.2019
3412 Clouds -5 982 85 10000 4.6 250 17:38 01.12.2019
3413 Clouds -6 982 92 10000 5.1 240 17:19 01.12.2019
3414 Snow -6 982 92 10000 5.1 240 16:43 01.12.2019
3415 Clouds -7 982 92 10000 5.7 240 16:24 01.12.2019
3416 Clouds -7 982 92 10000 6.2 240 15:53 01.12.2019
3417 Clouds -7 982 92 10000 6.2 240 15:33 01.12.2019
3418 Clouds -8 982 92 10000 6.2 230 14:59 01.12.2019
3419 Clouds -8 982 92 10000 6.7 230 14:38 01.12.2019
3420 Clouds -8 982 92 10000 6.2 230 14:19 01.12.2019
3421 Clouds -8 982 85 10000 6.7 230 13:40 01.12.2019
3422 Clouds -8 983 85 10000 6.2 230 13:21 01.12.2019
3423 Clouds -8 983 85 10000 6.2 230 13:21 01.12.2019
3424 Clouds -8 983 85 10000 6.7 230 12:47 01.12.2019
3425 Clouds -9 983 92 10000 7.2 230 12:19 01.12.2019
3426 Clouds -8 983 85 10000 7.2 230 11:44 01.12.2019
3427 Clouds -9 983 92 10000 7.2 230 11:24 01.12.2019
3428 Clouds -10 984 85 10000 7.2 230 10:55 01.12.2019
3429 Clouds -10 984 85 10000 7.2 230 10:37 01.12.2019
3430 Clouds -11 984 92 10000 6.7 220 10:18 01.12.2019
3431 Clouds -11 985 85 10000 6.2 220 09:41 01.12.2019
3432 Clouds -12 985 92 10000 6.2 220 09:21 01.12.2019
3433 Clouds -12 985 92 10000 6.2 230 08:49 01.12.2019
3434 Clouds -11 985 85 10000 6.2 230 08:23 01.12.2019
3435 Clouds -11 986 92 10000 6.7 230 07:53 01.12.2019
3436 Clouds -11 986 92 10000 6.7 230 07:32 01.12.2019
3437 Clouds -11 986 92 10000 6.2 220 06:58 01.12.2019
3438 Snow -11 987 92 10000 6.2 220 06:40 01.12.2019
3439 Snow -12 988 85 10000 5.1 230 05:55 01.12.2019
3440 Clouds -12 989 85 10000 4.6 230 04:53 01.12.2019
3441 Clouds -13 989 92 10000 4.1 220 04:21 01.12.2019
3442 Clouds -14 990 92 10000 3.6 220 02:38 01.12.2019
3443 Clouds -14 990 92 10000 4.1 0 02:20 01.12.2019
3444 Clouds -14 990 84 10000 3.6 230 01:52 01.12.2019
3445 Clouds -14 990 84 10000 3.6 230 01:26 01.12.2019
3446 Clouds -14 990 84 10000 3.6 230 01:26 01.12.2019
3447 Clouds -14 990 92 10000 2.6 230 00:44 01.12.2019
3448 Clouds -14 990 84 10000 3.1 230 00:24 01.12.2019
3449 Clouds -14 991 92 10000 2.6 240 23:44 30.11.2019
3450 Clouds -14 991 84 10000 3.1 240 23:24 30.11.2019
3451 Clouds -14 991 84 10000 3.1 240 23:24 30.11.2019
3452 Clouds -14 991 84 10000 3.1 240 22:58 30.11.2019
3453 Clouds -13 991 92 10000 3.6 220 22:39 30.11.2019
3454 Clouds -13 991 92 10000 2.6 220 22:20 30.11.2019
3455 Clouds -13 991 92 10000 3.6 220 21:47 30.11.2019
3456 Clouds -12 991 85 10000 4.1 230 21:28 30.11.2019
3457 Clouds -12 991 85 10000 4.1 230 20:57 30.11.2019
3458 Clouds -13 992 92 10000 4.1 220 20:38 30.11.2019
3459 Clouds -12 992 85 10000 3.6 220 20:19 30.11.2019
3460 Clouds -12 992 85 10000 4.1 230 19:56 30.11.2019
3461 Clouds -12 992 85 10000 4.1 230 19:38 30.11.2019
3462 Clouds -12 992 85 10000 2.6 230 19:19 30.11.2019
3463 Clouds -12 992 85 10000 2.6 230 18:57 30.11.2019
3464 Clouds -12 992 85 10000 3.6 230 18:38 30.11.2019
3465 Clouds -12 993 85 10000 2.6 230 18:19 30.11.2019
3466 Clouds -11 993 85 10000 3.1 240 17:57 30.11.2019
3467 Clouds -11 993 85 10000 3.1 240 17:38 30.11.2019
3468 Clear -11 993 85 10000 2.1 230 17:19 30.11.2019
3469 Clear -11 993 85 10000 2.1 230 16:56 30.11.2019
3470 Clear -11 993 85 10000 2.1 230 16:56 30.11.2019
3471 Clear -10 993 85 10000 2.6 230 16:38 30.11.2019
3472 Clear -11 993 85 10000 2.1 260 16:19 30.11.2019
3473 Clear -10 992 85 10000 2.1 280 15:42 30.11.2019
3474 Clear -10 992 92 10000 2.6 290 15:19 30.11.2019
3475 Clear -9 992 85 10000 3.1 290 14:57 30.11.2019
3476 Clear -9 992 85 10000 3.1 290 14:38 30.11.2019
3477 Clouds -9 992 85 10000 3.1 300 14:19 30.11.2019
3478 Clouds -9 992 85 10000 3.1 300 13:57 30.11.2019
3479 Clouds -8 991 85 10000 4.1 300 13:37 30.11.2019
3480 Clouds -8 991 85 10000 4.1 300 13:37 30.11.2019
3481 Clouds -8 991 85 10000 4.1 300 13:19 30.11.2019
3482 Clouds -8 991 85 10000 3.6 290 12:46 30.11.2019
3483 Clouds -8 991 85 10000 3.6 290 12:27 30.11.2019
3484 Clouds -8 990 92 10000 3.1 300 11:55 30.11.2019
3485 Clouds -8 990 92 10000 3.1 300 11:36 30.11.2019
3486 Clouds -7 990 85 10000 3.6 300 11:18 30.11.2019
3487 Clouds -7 989 85 10000 3.6 310 10:42 30.11.2019
3488 Clouds -7 989 85 10000 3.1 320 10:21 30.11.2019
3489 Clouds -7 989 85 10000 4.1 310 09:49 30.11.2019
3490 Clouds -7 989 85 10000 4.1 310 09:29 30.11.2019
3491 Clouds -6 988 85 10000 4.6 320 08:55 30.11.2019
3492 Clouds -7 988 92 10000 5.1 310 08:55 30.11.2019
3493 Clouds -6 988 85 10000 4.6 320 08:37 30.11.2019
3494 Clouds -6 987 85 10000 4.6 320 08:18 30.11.2019
3495 Clouds -6 987 85 10000 5.1 310 07:42 30.11.2019
3496 Snow -6 987 92 10000 4.6 310 07:23 30.11.2019
3497 Clouds -6 986 92 10000 4.1 300 06:45 30.11.2019
3498 Clouds -6 986 92 10000 4.1 300 06:26 30.11.2019
3499 Clouds -8 985 85 10000 3.1 300 03:56 30.11.2019
3500 Clouds -8 985 85 10000 3.1 300 03:37 30.11.2019
3501 Clouds -9 984 92 10000 2.1 280 02:25 30.11.2019
3502 Clouds -9 984 85 10000 2.1 270 01:50 30.11.2019
3503 Clouds -9 984 85 10000 2.6 270 01:24 30.11.2019
3504 Snow -11 984 92 10000 2.1 260 00:38 30.11.2019
3505 Snow -11 983 85 10000 2.1 250 00:20 30.11.2019
3506 Snow -12 983 92 6000 3.1 250 23:44 29.11.2019
3507 Snow -12 983 92 3900 3.1 240 23:23 29.11.2019
3508 Snow -12 983 85 6000 3.1 240 22:48 29.11.2019
3509 Snow -12 983 85 6000 3.1 240 22:27 29.11.2019
3510 Snow -13 983 92 10000 3.1 250 21:56 29.11.2019
3511 Snow -13 983 92 10000 3.1 250 21:38 29.11.2019
3512 Snow -13 983 92 10000 3.1 250 21:19 29.11.2019
3513 Clouds -13 983 84 10000 3.1 240 20:54 29.11.2019
3514 Clouds -13 983 84 10000 3.1 240 20:36 29.11.2019
3515 Snow -13 983 84 10000 3.1 230 20:18 29.11.2019
3516 Snow -13 983 92 10000 2.1 240 19:41 29.11.2019
3517 Snow -13 983 84 10000 1.5 220 19:22 29.11.2019
3518 Snow -13 983 84 10000 1.5 220 18:59 29.11.2019
3519 Snow -14 983 92 10000 2.1 250 18:41 29.11.2019
3520 Clouds -14 983 92 10000 2.1 240 18:23 29.11.2019
3521 Clouds -13 983 84 10000 2.1 230 17:54 29.11.2019
3522 Clouds -13 983 84 10000 2.1 230 17:36 29.11.2019
3523 Snow -13 983 84 10000 2.1 240 17:18 29.11.2019
3524 Clouds -13 983 84 10000 2.1 240 16:42 29.11.2019
3525 Clouds -12 983 85 10000 2.1 220 16:21 29.11.2019
3526 Clouds -12 983 92 10000 1.5 240 15:43 29.11.2019
3527 Clouds -12 983 92 10000 1.5 230 15:25 29.11.2019
3528 Clouds -12 983 92 10000 1.5 230 14:59 29.11.2019
3529 Clouds -11 982 85 10000 2.1 230 14:40 29.11.2019
3530 Clouds -11 982 85 10000 2.6 250 14:21 29.11.2019
3531 Clouds -11 982 92 10000 2.1 250 13:55 29.11.2019
3532 Clouds -11 982 92 10000 2.1 250 13:37 29.11.2019
3533 Snow -11 982 92 8000 2.1 240 13:19 29.11.2019
3534 Snow -10 982 85 8000 2.1 240 12:41 29.11.2019
3535 Snow -10 982 85 10000 2.1 260 12:23 29.11.2019
3536 Snow -10 982 85 9000 2.1 250 11:55 29.11.2019
3537 Snow -10 982 85 9000 2.1 250 11:37 29.11.2019
3538 Snow -10 982 85 10000 2.6 250 11:18 29.11.2019
3539 Snow -10 982 85 10000 2.6 250 10:57 29.11.2019
3540 Snow -10 982 85 10000 2.1 260 10:38 29.11.2019
3541 Clouds -10 982 85 10000 2.6 260 10:19 29.11.2019
3542 Clouds -10 982 85 10000 2.6 260 09:57 29.11.2019
3543 Clouds -10 982 85 10000 2.6 270 09:38 29.11.2019
3544 Clouds -10 982 92 10000 2.1 260 09:19 29.11.2019
3545 Clouds -10 982 92 10000 2.6 260 08:54 29.11.2019
3546 Clouds -10 982 92 10000 2.6 260 08:36 29.11.2019
3547 Snow -9 982 92 10000 2.1 280 08:18 29.11.2019
3548 Snow -9 982 92 10000 2.6 280 07:40 29.11.2019
3549 Clouds -9 981 92 10000 2.6 270 07:22 29.11.2019
3550 Snow -8 981 92 10000 2.1 270 06:46 29.11.2019
3551 Snow -8 981 92 10000 2.1 290 06:23 29.11.2019
3552 Snow -8 981 92 10000 3.1 290 05:32 29.11.2019
3553 Snow -7 982 92 6000 3.1 310 04:45 29.11.2019
3554 Snow -6 982 92 9000 2.1 310 03:23 29.11.2019
3555 Snow -6 982 92 7000 3.1 330 02:42 29.11.2019
3556 Snow -6 982 92 4700 2.6 330 02:20 29.11.2019
3557 Snow -6 982 92 5000 2.6 350 01:27 29.11.2019
3558 Snow -6 983 92 6000 2.1 10 00:50 29.11.2019
3559 Snow -6 983 92 4400 2.6 20 00:22 29.11.2019
3560 Snow -6 983 92 4400 2.6 20 23:57 28.11.2019
3561 Snow -6 983 92 4000 2.6 20 23:39 28.11.2019
3562 Snow -6 984 92 3500 3.6 40 23:20 28.11.2019
3563 Snow -6 984 92 3700 4.1 40 22:54 28.11.2019
3564 Snow -6 984 92 3700 4.1 40 22:36 28.11.2019
3565 Snow -6 984 92 3400 4.1 50 22:18 28.11.2019
3566 Snow -6 985 92 3700 4.1 50 21:42 28.11.2019
3567 Snow -6 985 92 3800 4.6 50 21:21 28.11.2019
3568 Snow -6 985 92 3800 4.6 50 20:58 28.11.2019
3569 Snow -6 986 85 3600 5.1 50 20:39 28.11.2019
3570 Snow -7 987 92 3800 5.7 50 20:21 28.11.2019
3571 Snow -7 987 92 3800 5.7 50 19:56 28.11.2019
3572 Snow -7 987 92 3000 6.2 60 19:37 28.11.2019
3573 Snow -7 988 92 3400 5.7 50 19:18 28.11.2019
3574 Snow -7 988 92 3400 5.7 50 18:56 28.11.2019
3575 Snow -7 988 92 3600 6.2 60 18:38 28.11.2019
3576 Snow -7 989 85 3800 5.7 60 18:18 28.11.2019
3577 Snow -7 989 85 4600 6.2 60 17:42 28.11.2019
3578 Snow -8 990 92 4700 6.2 60 17:24 28.11.2019
3579 Snow -8 990 92 4700 6.2 60 16:59 28.11.2019
3580 Snow -8 990 92 4700 6.2 60 16:59 28.11.2019
3581 Snow -8 991 92 6000 6.2 70 16:39 28.11.2019
3582 Snow -7 991 85 6000 6.2 70 16:19 28.11.2019
3583 Snow -8 992 92 5000 6.2 70 15:56 28.11.2019
3584 Snow -7 991 85 6000 6.2 70 15:56 28.11.2019
3585 Snow -8 992 92 5000 6.2 70 15:37 28.11.2019
3586 Snow -8 992 92 5000 6.2 70 15:19 28.11.2019
3587 Snow -8 993 92 6000 5.1 70 14:41 28.11.2019
3588 Snow -8 993 92 4500 5.7 70 14:22 28.11.2019
3589 Snow -8 993 92 4500 5.7 70 13:59 28.11.2019
3590 Snow -8 993 92 4500 5.7 70 13:59 28.11.2019
3591 Snow -8 994 85 2500 5.7 70 13:41 28.11.2019
3592 Snow -9 994 92 2500 6.2 70 13:22 28.11.2019
3593 Snow -9 995 92 5000 5.7 70 12:49 28.11.2019
3594 Snow -9 995 92 5000 5.7 70 12:29 28.11.2019
3595 Snow -9 995 92 2000 6.2 80 11:59 28.11.2019
3596 Snow -9 995 85 4000 7.2 80 11:41 28.11.2019
3597 Snow -10 996 92 4000 6.2 80 11:21 28.11.2019
3598 Snow -10 996 92 4000 6.2 80 10:59 28.11.2019
3599 Snow -10 996 92 2000 6.7 80 10:40 28.11.2019
3600 Snow -10 997 85 5000 7.2 70 10:20 28.11.2019
3601 Snow -10 997 85 1800 7.7 70 09:41 28.11.2019
3602 Snow -11 998 92 3500 6.2 70 09:23 28.11.2019
3603 Snow -11 998 92 3500 6.2 70 08:58 28.11.2019
3604 -273 0 0 0 0 0 08:38 28.11.2019
3605 Clouds -11 999 85 10000 7.7 70 08:20 28.11.2019
3606 Clouds -12 999 92 10000 7.7 70 07:42 28.11.2019
3607 -273 0 0 0 0 0 07:24 28.11.2019
3608 Clouds -12 999 85 10000 7.2 70 07:23 28.11.2019
3609 Clouds -13 1000 92 10000 6.7 70 06:44 28.11.2019
3610 Clouds -13 1000 92 10000 6.7 70 06:44 28.11.2019
3611 Clouds -13 1000 84 10000 6.7 70 06:22 28.11.2019
3612 Clouds -13 1001 84 10000 6.2 70 05:46 28.11.2019
3613 Clouds -14 1002 92 10000 5.7 70 04:58 28.11.2019
3614 Clouds -14 1003 84 10000 5.1 70 02:37 28.11.2019
3615 Clouds -15 1003 92 5000 5.1 70 01:35 28.11.2019
3616 Clouds -15 1004 92 10000 4.6 70 00:43 28.11.2019
3617 Mist -13 1004 84 4000 3.6 60 00:20 28.11.2019
3618 Mist -13 1005 92 2100 3.1 60 23:41 27.11.2019
3619 Fog -13 1005 92 1000 3.6 50 23:22 27.11.2019
3620 Fog -13 1005 92 1100 2.6 60 22:59 27.11.2019
3621 Fog -13 1005 92 1100 2.6 60 22:38 27.11.2019
3622 Mist -14 1005 92 3400 3.1 70 22:20 27.11.2019
3623 Mist -14 1005 92 3400 3.1 70 21:56 27.11.2019
3624 Snow -15 1006 92 2700 4.6 70 21:37 27.11.2019
3625 Clouds -15 1006 92 10000 4.1 70 21:19 27.11.2019
3626 Clouds -15 1006 92 10000 4.1 70 20:57 27.11.2019
3627 Snow -15 1006 84 10000 3.6 60 20:38 27.11.2019
3628 Clouds -15 1006 92 10000 3.6 70 20:19 27.11.2019
3629 Snow -15 1006 84 3800 3.1 60 19:57 27.11.2019
3630 Snow -15 1006 84 3800 3.1 60 19:38 27.11.2019
3631 Snow -14 1006 92 10000 2.1 70 19:19 27.11.2019
3632 Snow -14 1006 92 10000 2.1 70 18:58 27.11.2019
3633 Snow -14 1006 92 4700 2.6 80 18:36 27.11.2019
3634 Snow -15 1007 92 3100 1.5 100 18:18 27.11.2019
3635 Snow -15 1007 84 10000 2.1 80 17:55 27.11.2019
3636 Snow -15 1007 84 10000 2.1 80 17:37 27.11.2019
3637 Snow -14 1007 84 10000 2.1 80 17:18 27.11.2019
3638 Snow -14 1007 84 10000 2.1 80 17:18 27.11.2019
3639 -273 0 0 0 0 0 16:56 27.11.2019
3640 Clouds -12 1007 92 10000 3.1 90 16:55 27.11.2019
3641 Clouds -12 1007 92 10000 3.1 90 16:36 27.11.2019
3642 Snow -14 1007 92 10000 1.5 90 16:18 27.11.2019
3643 Snow -14 1007 92 10000 1.5 90 15:56 27.11.2019
3644 Clouds -14 1007 92 10000 2.6 70 15:37 27.11.2019
3645 Snow -14 1007 92 10000 2.1 0 15:19 27.11.2019
3646 Snow -14 1007 92 10000 1.5 40 14:55 27.11.2019
3647 Snow -14 1007 92 10000 1.5 40 14:55 27.11.2019
3648 Snow -14 1007 92 10000 1.5 40 14:37 27.11.2019
3649 Clear -13 1007 92 10000 0.5 0 14:19 27.11.2019
3650 Clear -13 1007 92 10000 2.1 30 13:55 27.11.2019
3651 Clear -13 1007 92 10000 2.1 30 13:36 27.11.2019
3652 Clear -12 1007 85 10000 0.5 0 13:18 27.11.2019
3653 Clear -11 1007 85 10000 0.5 0 12:41 27.11.2019
3654 Clear -12 1007 92 10000 1.5 350 12:21 27.11.2019
3655 Clear -12 1007 85 10000 1.5 310 11:55 27.11.2019
3656 Clear -12 1007 85 10000 1.5 310 11:36 27.11.2019
3657 Clear -13 1007 92 10000 0.5 260 11:18 27.11.2019
3658 Clear -11 1007 85 10000 1 0 10:42 27.11.2019
3659 Clear -11 1007 85 10000 1 0 10:42 27.11.2019
3660 Clear -12 1007 85 10000 1.5 310 10:24 27.11.2019
3661 Clear -11 1007 92 10000 0.5 190 09:50 27.11.2019
3662 Clear -11 1007 92 10000 0.5 190 09:27 27.11.2019
3663 Clear -11 1007 92 10000 1 0 08:59 27.11.2019
3664 Clear -11 1006 85 10000 0.5 0 08:41 27.11.2019
3665 Clear -11 1006 85 10000 0.5 0 08:41 27.11.2019
3666 Clear -11 1006 92 10000 4.6 340 08:22 27.11.2019
3667 Clear -11 1006 92 10000 4.6 340 07:47 27.11.2019
3668 Clear -10 1006 92 10000 5.7 340 07:28 27.11.2019
3669 Clear -10 1006 85 10000 5.7 340 06:54 27.11.2019
3670 Clear -10 1006 85 10000 5.7 340 06:35 27.11.2019
3671 Clear -11 1006 92 10000 4.6 330 05:46 27.11.2019
3672 Clear -10 1006 85 10000 5.7 340 05:20 27.11.2019
3673 Clear -10 1005 92 10000 5.7 340 04:47 27.11.2019
3674 Clear -10 1005 92 10000 5.7 340 04:29 27.11.2019
3675 Clear -10 1005 92 10000 6.7 340 03:39 27.11.2019
3676 Clear -9 1005 85 10000 6.7 340 03:19 27.11.2019
3677 Clear -9 1004 92 10000 5.7 330 02:20 27.11.2019
3678 Clear -8 1004 92 10000 5.1 330 00:47 27.11.2019
3679 Clear -8 1004 92 10000 4.6 330 00:29 27.11.2019
3680 Clear -8 1004 92 10000 4.1 320 23:54 26.11.2019
3681 Clear -8 1004 92 10000 4.1 320 23:36 26.11.2019
3682 Clear -7 1004 85 10000 4.6 330 23:18 26.11.2019
3683 Clear -7 1003 92 10000 4.6 330 22:39 26.11.2019
3684 Clear -7 1003 92 10000 4.1 340 22:19 26.11.2019
3685 Clear -7 1003 92 10000 4.1 340 22:19 26.11.2019
3686 Clear -7 1003 92 10000 5.1 330 21:59 26.11.2019
3687 Clear -7 1003 92 10000 5.1 330 21:38 26.11.2019
3688 Clear -6 1003 92 10000 3.6 340 21:20 26.11.2019
3689 Clear -6 1003 92 10000 3.6 340 20:57 26.11.2019
3690 Clouds -6 1003 92 10000 4.1 340 20:57 26.11.2019
3691 Clouds -6 1003 92 10000 4.1 340 20:37 26.11.2019
3692 Clouds -5 1003 92 10000 4.6 330 20:19 26.11.2019
3693 Clouds -5 1003 100 10000 4.6 320 19:55 26.11.2019
3694 Clouds -5 1003 100 10000 4.6 320 19:37 26.11.2019
3695 Clouds -4 1003 92 10000 4.1 330 19:19 26.11.2019
3696 Snow -4 1003 100 10000 2.6 330 18:56 26.11.2019
3697 Snow -4 1003 100 10000 2.6 330 18:56 26.11.2019
3698 Snow -4 1003 100 10000 2.6 330 18:38 26.11.2019
3699 Snow -4 1003 100 10000 3.6 330 18:20 26.11.2019
3700 Snow -4 1003 100 6000 2.1 330 17:55 26.11.2019
3701 Snow -4 1003 100 6000 2.1 330 17:37 26.11.2019
3702 Snow -4 1003 100 2400 2.6 310 17:19 26.11.2019
3703 Mist -3 1002 92 2600 2.1 290 16:55 26.11.2019
3704 Mist -3 1002 92 2600 2.1 290 16:37 26.11.2019
3705 Mist -3 1002 92 2600 2.1 290 16:37 26.11.2019
3706 Clouds -3 1003 100 10000 2.6 270 16:18 26.11.2019
3707 Clouds -3 1003 100 10000 2.1 280 15:57 26.11.2019
3708 Clouds -3 1003 100 10000 2.1 280 15:37 26.11.2019
3709 Clouds -3 1003 100 10000 2.1 270 15:18 26.11.2019
3710 Clouds -3 1003 100 10000 2.1 260 14:45 26.11.2019
3711 Fog -2 1003 92 700 2.6 240 14:24 26.11.2019
3712 Mist -2 1003 92 2000 2.6 230 13:45 26.11.2019
3713 Clouds -3 1004 100 10000 2.6 220 13:25 26.11.2019
3714 Clouds -3 1004 100 10000 2.6 220 12:58 26.11.2019
3715 Clouds -3 1004 100 10000 2.6 220 12:37 26.11.2019
3716 Snow -2 1004 92 10000 3.1 230 12:19 26.11.2019
3717 Snow -2 1004 92 8000 2.6 240 11:56 26.11.2019
3718 Snow -2 1004 92 8000 2.6 240 11:37 26.11.2019
3719 Mist -2 1005 92 1000 2.6 230 11:19 26.11.2019
3720 Mist -2 1005 92 2000 3.6 220 10:56 26.11.2019
3721 Mist -2 1005 92 2000 3.6 220 10:38 26.11.2019
3722 Fog -2 1005 100 5000 3.1 220 10:19 26.11.2019
3723 Fog -2 1005 100 5000 3.6 210 09:43 26.11.2019
3724 Snow -2 1006 100 1700 2.1 240 09:24 26.11.2019
3725 Snow -2 1006 100 1600 2.1 250 08:56 26.11.2019
3726 Snow -2 1006 100 1600 2.1 250 08:38 26.11.2019
3727 Fog -2 1006 100 500 2.6 230 08:18 26.11.2019
3728 Fog -2 1006 100 500 3.1 220 07:43 26.11.2019
3729 Fog -2 1006 100 400 3.1 250 07:24 26.11.2019
3730 Fog -2 1007 100 600 3.1 230 06:51 26.11.2019
3731 Clouds -2 1007 100 700 3.6 220 05:59 26.11.2019
3732 Fog -2 1007 100 550 3.6 210 05:32 26.11.2019
3733 Snow -2 1009 100 5000 2.1 240 03:22 26.11.2019
3734 Clouds -2 1009 100 10000 2.1 230 01:42 26.11.2019
3735 Clouds -2 1009 100 10000 2.1 230 01:42 26.11.2019
3736 Clouds -2 1010 100 10000 3.6 210 01:22 26.11.2019
3737 Clouds -2 1010 100 10000 2.6 220 00:41 26.11.2019
3738 Snow -1 1010 92 3900 3.1 230 00:18 26.11.2019
3739 Snow -1 1011 92 4300 2.6 240 23:38 25.11.2019
3740 Snow -1 1011 100 4300 2.6 240 23:19 25.11.2019
3741 Clouds -1 1011 100 3600 3.1 240 22:40 25.11.2019
3742 Clouds -1 1011 100 1200 3.6 220 22:19 25.11.2019
3743 Clouds -1 1011 100 1200 3.6 220 21:59 25.11.2019
3744 Clouds -1 1011 100 1600 3.1 220 21:41 25.11.2019
3745 Clouds -1 1011 100 1000 2.6 220 21:23 25.11.2019
3746 Clouds -1 1011 100 6000 3.6 210 20:58 25.11.2019
3747 Clouds -1 1011 100 6000 3.6 210 20:40 25.11.2019
3748 Clouds -1 1011 100 7000 2.6 230 20:20 25.11.2019
3749 Clouds -1 1011 100 10000 3.1 250 19:57 25.11.2019
3750 Clouds -1 1011 100 10000 3.1 250 19:39 25.11.2019
3751 Clouds -1 1011 100 10000 3.1 220 19:20 25.11.2019
3752 Clouds -1 1011 100 10000 3.1 220 18:59 25.11.2019
3753 Clouds -1 1012 100 10000 3.6 240 18:41 25.11.2019
3754 Clouds -1 1012 100 8000 2.6 230 18:23 25.11.2019
3755 Clouds -1 1012 100 10000 3.1 230 17:58 25.11.2019
3756 Clouds -1 1012 100 10000 3.1 230 17:40 25.11.2019
3757 Clouds -1 1012 100 7000 3.6 210 17:22 25.11.2019
3758 Mist 0 1012 95 2100 3.6 220 16:59 25.11.2019
3759 Mist 0 1012 95 2100 3.6 220 16:59 25.11.2019
3760 Mist 0 1012 95 2100 3.6 220 16:41 25.11.2019
3761 Clouds 0 1012 95 1200 3.6 220 16:22 25.11.2019
3762 Clouds 0 1012 95 1200 3.6 220 15:56 25.11.2019
3763 Fog 0 1012 95 1700 2.6 230 15:37 25.11.2019
3764 Clouds 0 1012 95 3400 3.6 230 15:19 25.11.2019
3765 Clouds 0 1012 95 3400 3.6 230 15:19 25.11.2019
3766 Clouds 0 1012 95 2200 4.6 220 14:44 25.11.2019
3767 Fog 0 1013 95 400 4.1 220 14:26 25.11.2019
3768 Fog 0 1013 92 400 4.1 220 13:58 25.11.2019
3769 Mist 0 1013 92 1000 4.1 230 13:38 25.11.2019
3770 Mist 0 1013 92 1000 4.1 230 13:38 25.11.2019
3771 Mist 0 1013 94 1400 5.1 220 13:20 25.11.2019
3772 Mist 0 1013 92 1400 5.1 220 13:20 25.11.2019
3773 Mist 0 1013 94 1400 5.1 220 12:59 25.11.2019
3774 Mist 0 1013 94 1400 5.1 220 12:59 25.11.2019
3775 Fog 0 1013 94 600 5.1 220 12:39 25.11.2019
3776 Fog 0 1013 94 500 4.6 220 12:19 25.11.2019
3777 Fog 0 1013 94 600 5.1 220 11:40 25.11.2019
3778 Fog 0 1013 94 600 4.6 220 11:21 25.11.2019
3779 Fog 0 1013 94 500 4.6 220 10:59 25.11.2019
3780 Fog 0 1013 94 500 4.6 220 10:41 25.11.2019
3781 Fog 0 1013 94 500 4.6 220 10:41 25.11.2019
3782 Fog 0 1014 94 4000 5.7 220 10:19 25.11.2019
3783 Snow 0 1014 94 1400 5.7 220 09:44 25.11.2019
3784 Mist 0 1014 94 4000 5.7 220 09:26 25.11.2019
3785 Mist 0 1014 94 1800 5.7 220 08:57 25.11.2019
3786 Mist 0 1014 94 1800 5.7 220 08:38 25.11.2019
3787 Mist 0 1014 97 1500 3.6 230 08:18 25.11.2019
3788 Mist 0 1014 97 3000 5.7 230 07:39 25.11.2019
3789 Snow 0 1014 97 1400 5.1 220 07:18 25.11.2019
3790 Snow 0 1014 97 1400 4.1 230 06:38 25.11.2019
3791 Snow 0 1014 97 3800 4.6 230 06:18 25.11.2019
3792 Clouds 0 1015 97 4100 4.6 230 05:32 25.11.2019
3793 Clouds 0 1015 95 2900 4.6 230 04:49 25.11.2019
3794 Clouds 0 1015 95 2000 4.1 230 02:36 25.11.2019
3795 Clouds 0 1015 95 2400 4.1 230 01:44 25.11.2019
3796 Clouds 0 1016 96 1100 3.1 230 01:24 25.11.2019
3797 Clouds 0 1016 96 1100 3.1 230 00:59 25.11.2019
3798 Clouds 0 1016 96 1200 3.1 220 00:20 25.11.2019
3799 Snow 0 1016 96 1300 3.1 230 23:45 24.11.2019
3800 Snow 0 1016 96 900 3.1 220 23:21 24.11.2019
3801 Clouds 0 1016 96 1100 3.6 230 22:58 24.11.2019
3802 Clouds 0 1016 96 1100 3.6 230 22:39 24.11.2019
3803 Snow 0 1017 96 750 3.6 230 22:19 24.11.2019
3804 Clouds 0 1017 96 550 3.6 220 21:57 24.11.2019
3805 Clouds 0 1017 96 550 3.6 220 21:38 24.11.2019
3806 Clouds 0 1017 96 650 4.6 220 21:20 24.11.2019
3807 Clouds 0 1017 96 650 4.6 220 20:57 24.11.2019
3808 Clouds 0 1017 96 800 4.1 220 20:38 24.11.2019
3809 Fog 0 1017 97 650 3.6 210 20:18 24.11.2019
3810 Clouds 0 1017 97 900 4.6 200 19:56 24.11.2019
3811 Clouds 0 1017 97 900 4.6 200 19:38 24.11.2019
3812 Clouds 0 1017 97 800 4.1 200 19:19 24.11.2019
3813 Clouds 0 1017 97 900 4.6 210 18:57 24.11.2019
3814 Clouds 0 1017 97 900 4.6 210 18:36 24.11.2019
3815 Clouds 0 1017 97 750 4.6 210 18:18 24.11.2019
3816 Clouds 0 1018 97 1200 4.6 220 17:55 24.11.2019
3817 Clouds 0 1018 97 1200 4.6 220 17:37 24.11.2019
3818 Clouds 0 1018 97 1200 4.6 220 17:37 24.11.2019
3819 Clouds 0 1017 97 1800 4.6 220 17:19 24.11.2019
3820 Clouds 0 1018 97 4700 6.2 210 16:54 24.11.2019
3821 Clouds 0 1018 97 4700 6.2 210 16:36 24.11.2019
3822 Clouds 0 1018 97 4000 6.2 200 16:18 24.11.2019
3823 Clouds 0 1018 97 650 6.2 200 15:42 24.11.2019
3824 Clouds 0 1018 97 1000 7.2 200 15:24 24.11.2019
3825 Clouds 0 1018 97 1000 7.2 200 15:24 24.11.2019
3826 Clouds 0 1018 97 600 7.2 200 14:56 24.11.2019
3827 Clouds 0 1018 97 600 7.2 200 14:38 24.11.2019
3828 Clouds 0 1019 97 450 7.2 210 14:18 24.11.2019
3829 Clouds 0 1019 97 650 7.2 210 13:39 24.11.2019
3830 Snow 0 1019 97 6000 7.2 200 13:21 24.11.2019
3831 Snow 0 1019 97 6000 6.7 200 12:58 24.11.2019
3832 Snow 0 1019 97 6000 6.7 200 12:39 24.11.2019
3833 Clouds 0 1020 97 5000 6.7 210 12:18 24.11.2019
3834 Snow 0 1020 97 7000 6.7 210 11:55 24.11.2019
3835 Snow 0 1020 97 10000 5.7 200 11:36 24.11.2019
3836 Snow 0 1020 97 10000 5.7 200 11:18 24.11.2019
3837 Snow 0 1020 97 10000 5.1 200 10:45 24.11.2019
3838 Snow 0 1020 97 1900 5.1 190 10:27 24.11.2019
3839 Snow 0 1020 97 2500 5.1 200 09:55 24.11.2019
3840 Snow 0 1020 97 2500 5.1 200 09:36 24.11.2019
3841 Clouds 0 1021 97 1100 6.2 200 09:18 24.11.2019
3842 Clouds 0 1021 97 600 6.2 210 08:43 24.11.2019
3843 Snow -1 1021 100 1100 5.1 210 08:21 24.11.2019
3844 Clouds -1 1021 100 1900 3.6 190 07:52 24.11.2019
3845 Clouds -1 1021 100 1900 3.6 190 07:34 24.11.2019
3846 Fog -1 1021 100 400 4.6 190 06:57 24.11.2019
3847 Fog -1 1021 100 400 5.1 200 05:59 24.11.2019
3848 Fog -1 1022 100 450 5.7 200 04:47 24.11.2019
3849 Clouds -1 1022 100 450 6.2 200 02:50 24.11.2019
3850 Clouds -1 1022 100 450 6.2 200 02:50 24.11.2019
3851 Clouds -1 1022 100 600 6.2 200 01:58 24.11.2019
3852 Fog -1 1023 92 1200 5.7 200 01:39 24.11.2019
3853 Clouds -1 1023 92 10000 5.7 200 01:20 24.11.2019
3854 Clouds -1 1023 92 10000 5.7 200 00:45 24.11.2019
3855 Snow -2 1023 100 10000 5.1 190 00:22 24.11.2019
3856 Snow -2 1024 100 9000 3.6 190 23:44 23.11.2019
3857 Snow -2 1024 100 4400 4.6 190 23:21 23.11.2019
3858 Snow -2 1024 100 10000 3.6 180 22:57 23.11.2019
3859 Snow -2 1024 100 10000 3.6 180 22:38 23.11.2019
3860 Snow -2 1024 100 10000 3.6 180 22:38 23.11.2019
3861 Snow -2 1024 100 5000 4.1 190 22:20 23.11.2019
3862 Snow -2 1024 100 5000 4.1 190 21:57 23.11.2019
3863 Snow -2 1024 100 6000 5.1 190 21:39 23.11.2019
3864 Clouds -2 1024 92 10000 4.6 190 21:21 23.11.2019
3865 Clouds -2 1024 92 10000 4.6 190 21:21 23.11.2019
3866 Clouds -2 1024 92 10000 4.1 180 20:40 23.11.2019
3867 Clouds -2 1024 92 10000 4.6 170 20:21 23.11.2019
3868 Clouds -2 1024 92 10000 4.6 170 20:21 23.11.2019
3869 Clouds -2 1024 92 10000 4.6 170 19:58 23.11.2019
3870 Snow -2 1024 92 10000 4.1 180 19:39 23.11.2019
3871 Snow -2 1025 92 10000 4.6 190 19:19 23.11.2019
3872 Snow -2 1025 92 10000 4.6 190 19:19 23.11.2019
3873 Clouds -2 1025 100 10000 4.1 190 18:59 23.11.2019
3874 Clouds -2 1025 100 10000 4.1 190 18:39 23.11.2019
3875 Clouds -2 1025 100 10000 4.6 190 18:19 23.11.2019
3876 Clouds -2 1025 100 10000 5.1 190 17:45 23.11.2019
3877 Clouds -1 1025 92 10000 3.6 200 17:23 23.11.2019
3878 Clouds -1 1025 92 10000 3.6 200 17:23 23.11.2019
3879 Clouds -1 1025 92 10000 3.6 190 16:57 23.11.2019
3880 Clouds -1 1025 92 10000 3.6 190 16:39 23.11.2019
3881 Clouds -1 1025 92 10000 3.6 190 16:39 23.11.2019
3882 Clouds -1 1026 92 10000 3.6 200 16:21 23.11.2019
3883 Clouds -1 1026 92 10000 3.6 200 15:59 23.11.2019
3884 Clouds -1 1026 92 10000 3.6 200 15:59 23.11.2019
3885 Clouds -1 1026 92 10000 4.6 210 15:39 23.11.2019
3886 Clouds -1 1026 92 10000 4.6 210 15:19 23.11.2019
3887 Clouds -1 1026 92 10000 4.6 210 14:57 23.11.2019
3888 Snow -1 1026 100 10000 5.7 210 14:39 23.11.2019
3889 Clouds -1 1026 100 10000 5.1 210 14:20 23.11.2019
3890 Clouds -1 1026 100 10000 5.1 220 13:54 23.11.2019
3891 Clouds -1 1026 100 10000 5.1 220 13:54 23.11.2019
3892 Clouds -1 1026 100 10000 5.1 220 13:36 23.11.2019
3893 Snow -1 1026 100 4300 5.7 220 13:18 23.11.2019
3894 Snow -1 1026 100 4300 5.7 220 13:18 23.11.2019
3895 Clouds 0 1026 92 10000 6.2 220 12:41 23.11.2019
3896 Snow 0 1026 92 5000 5.7 210 12:22 23.11.2019
3897 Clouds 0 1026 92 2300 6.2 210 11:43 23.11.2019
3898 Clouds 0 1026 92 2300 6.2 210 11:43 23.11.2019
3899 Snow 0 1026 97 5000 5.7 210 11:21 23.11.2019
3900 Snow 0 1026 97 10000 6.2 210 10:45 23.11.2019
3901 Clouds 0 1026 97 2400 5.7 210 10:22 23.11.2019
3902 Snow 0 1026 97 4400 5.1 210 09:43 23.11.2019
3903 Snow 0 1026 97 4000 5.1 210 09:21 23.11.2019
3904 Fog 0 1026 97 1300 4.6 200 08:56 23.11.2019
3905 Fog 0 1026 96 1300 4.6 200 08:37 23.11.2019
3906 Fog 0 1026 98 500 5.1 200 08:18 23.11.2019
3907 Fog 0 1026 98 550 5.1 200 07:39 23.11.2019
3908 Rain 0 1026 98 800 5.1 200 06:50 23.11.2019
3909 Rain 0 1026 98 750 5.1 200 06:23 23.11.2019
3910 Rain 0 1026 98 800 5.1 200 05:56 23.11.2019
3911 Clouds 0 1026 98 800 4.6 200 05:31 23.11.2019
3912 Clouds 0 1026 98 3800 4.6 200 04:50 23.11.2019
3913 Clouds 0 1026 98 3800 4.6 200 04:31 23.11.2019
3914 Clouds 0 1026 98 4700 4.1 180 03:21 23.11.2019
3915 Clouds 0 1026 98 5000 3.1 170 02:27 23.11.2019
3916 Snow 0 1026 97 10000 2.6 180 01:38 23.11.2019
3917 Clouds 0 1026 98 6000 3.1 210 00:45 23.11.2019
3918 Clouds 0 1026 98 10000 2.6 220 00:19 23.11.2019
3919 Fog 0 1026 98 650 3.1 220 23:42 22.11.2019
3920 Snow 0 1026 97 800 2.6 220 23:21 22.11.2019
3921 Fog 0 1026 97 800 3.1 200 22:58 22.11.2019
3922 Fog 0 1026 97 800 3.1 200 22:39 22.11.2019
3923 Fog 0 1026 97 600 2.6 200 22:20 22.11.2019
3924 Fog 0 1026 97 600 2.6 200 21:59 22.11.2019
3925 Fog 0 1026 97 1200 2.6 180 21:39 22.11.2019
3926 Fog 0 1026 97 1000 2.1 180 21:20 22.11.2019
3927 Snow 0 1026 97 1000 2.1 170 20:44 22.11.2019
3928 Snow 0 1026 97 1200 2.1 170 20:22 22.11.2019
3929 Clouds 0 1026 97 3200 2.6 170 19:58 22.11.2019
3930 Clouds 0 1026 97 3200 2.6 170 19:38 22.11.2019
3931 Snow 0 1026 97 5000 2.6 170 19:19 22.11.2019
3932 Snow 0 1026 97 5000 2.6 170 18:58 22.11.2019
3933 Clouds 0 1026 97 5000 2.1 170 18:36 22.11.2019
3934 Mist 0 1026 97 4000 2.6 180 18:18 22.11.2019
3935 Mist 0 1026 97 4000 2.6 180 18:18 22.11.2019
3936 Mist 0 1026 97 4000 2.6 180 18:18 22.11.2019
3937 Clouds 0 1026 97 6000 3.1 190 17:40 22.11.2019
3938 Snow 0 1026 97 5000 3.6 200 17:22 22.11.2019
3939 Snow 0 1026 97 3600 3.1 200 16:48 22.11.2019
3940 Snow 0 1026 97 3600 3.1 200 16:29 22.11.2019
3941 Snow 0 1026 97 6000 2.1 170 15:47 22.11.2019
3942 Clouds 0 1026 97 10000 2.6 160 15:25 22.11.2019
3943 Snow 0 1026 97 6000 2.1 160 14:58 22.11.2019
3944 Snow 0 1026 97 6000 2.1 160 14:39 22.11.2019
3945 Fog 0 1027 94 9000 2.1 170 14:21 22.11.2019
3946 Fog 0 1027 94 10000 2.6 170 13:59 22.11.2019
3947 Fog 0 1027 95 10000 2.6 170 13:37 22.11.2019
3948 Clouds 0 1027 95 10000 2.1 160 13:19 22.11.2019
3949 Clouds 0 1027 95 10000 2.1 160 13:19 22.11.2019
3950 Clouds 0 1027 95 10000 2.1 160 12:57 22.11.2019
3951 Clouds 0 1027 95 10000 3.6 190 12:39 22.11.2019
3952 Clouds 0 1027 95 10000 3.6 190 12:19 22.11.2019
3953 Clouds 0 1027 95 10000 3.1 200 11:55 22.11.2019
3954 Clouds 0 1027 95 10000 3.1 200 11:36 22.11.2019
3955 Clouds 0 1027 94 10000 4.1 200 11:18 22.11.2019
3956 Clouds 0 1027 94 10000 4.6 200 10:40 22.11.2019
3957 Mist 0 1027 94 4000 4.6 190 10:22 22.11.2019
3958 Mist 0 1027 94 4000 4.6 190 09:58 22.11.2019
3959 Mist 0 1027 94 4000 3.6 190 09:39 22.11.2019
3960 Clouds 0 1027 94 9000 4.1 190 09:21 22.11.2019
3961 Clouds 0 1027 94 9000 4.1 190 09:21 22.11.2019
3962 Drizzle 0 1027 94 1800 3.6 180 08:47 22.11.2019
3963 Mist 0 1027 95 4000 4.1 180 08:28 22.11.2019
3964 Mist 0 1027 97 4000 4.1 180 07:56 22.11.2019
3965 Mist 0 1027 97 4000 4.1 190 07:37 22.11.2019
3966 Mist 0 1027 97 1200 4.1 190 07:18 22.11.2019
3967 Fog 0 1027 97 700 4.1 190 06:41 22.11.2019
3968 Fog 1 1027 100 450 5.1 220 05:56 22.11.2019
3969 Fog 1 1027 100 350 4.6 220 04:52 22.11.2019
3970 Fog 1 1027 100 400 4.1 220 02:56 22.11.2019
3971 Fog 1 1027 100 400 4.1 220 02:33 22.11.2019
3972 Fog 1 1027 100 400 4.1 230 01:46 22.11.2019
3973 Fog 1 1027 100 450 4.6 0 01:20 22.11.2019
3974 Fog 1 1028 100 450 4.6 230 00:54 22.11.2019
3975 Fog 1 1027 100 450 4.6 220 00:25 22.11.2019
3976 Fog 1 1027 100 700 4.6 220 23:56 21.11.2019
3977 Fog 1 1027 100 450 4.6 220 23:56 21.11.2019
3978 Fog 1 1027 100 700 4.6 220 23:37 21.11.2019
3979 Clouds 1 1027 100 7000 5.1 230 23:18 21.11.2019
3980 Fog 1 1027 100 900 5.7 230 22:41 21.11.2019
3981 Rain 1 1027 100 450 6.7 220 22:22 21.11.2019
3982 Rain 1 1028 100 500 7.2 220 21:58 21.11.2019
3983 Rain 1 1028 100 500 7.2 220 21:39 21.11.2019
3984 Rain 1 1027 100 450 6.7 220 21:20 21.11.2019
3985 Rain 1 1027 100 450 6.7 220 20:59 21.11.2019
3986 Rain 1 1027 100 500 6.2 220 20:39 21.11.2019
3987 Rain 1 1027 100 500 6.2 220 20:39 21.11.2019
3988 Rain 1 1027 100 450 6.7 220 20:19 21.11.2019
3989 Rain 1 1027 100 450 6.7 220 20:19 21.11.2019
3990 Rain 1 1027 100 450 6.7 220 19:59 21.11.2019
3991 Fog 1 1028 100 350 5.7 210 19:41 21.11.2019
3992 Fog 1 1028 100 400 5.7 210 19:23 21.11.2019
3993 Fog 1 1028 100 400 5.7 210 18:58 21.11.2019
3994 Fog 1 1028 100 400 5.1 210 18:40 21.11.2019
3995 Rain 1 1028 100 500 6.7 200 18:19 21.11.2019
3996 Rain 1 1028 100 500 6.7 200 17:58 21.11.2019
3997 Rain 1 1028 100 1200 5.7 200 17:39 21.11.2019
3998 Rain 1 1028 100 1200 5.7 200 17:39 21.11.2019
3999 Rain 1 1028 100 3200 6.2 210 17:19 21.11.2019
4000 Rain 1 1028 94 1500 6.2 200 16:42 21.11.2019
4001 Drizzle 0 1029 94 4000 6.7 210 16:22 21.11.2019
4002 Drizzle 0 1029 94 4000 6.7 210 15:58 21.11.2019
4003 Clouds 0 1028 94 8000 6.7 200 15:40 21.11.2019
4004 Clouds 0 1029 94 9000 7.7 200 15:20 21.11.2019
4005 Clouds 0 1029 94 9000 7.7 200 14:56 21.11.2019
4006 Clouds 0 1029 94 6000 6.2 200 14:37 21.11.2019
4007 Mist 0 1029 93 1400 6.2 200 14:18 21.11.2019
4008 Mist 0 1029 93 3000 6.7 200 13:40 21.11.2019
4009 Mist 0 1029 94 3000 6.7 200 13:20 21.11.2019
4010 Mist 0 1029 94 3000 6.7 200 12:59 21.11.2019
4011 Mist 0 1029 94 4000 5.7 200 12:39 21.11.2019
4012 Mist 0 1029 94 1400 6.2 210 12:20 21.11.2019
4013 Mist 0 1030 94 3500 5.1 200 11:41 21.11.2019
4014 Fog 0 1029 95 7000 6.2 210 11:23 21.11.2019
4015 Fog 0 1029 95 7000 6.2 210 10:59 21.11.2019
4016 Fog 1 1029 95 7000 4.6 200 10:41 21.11.2019
4017 Fog 1 1029 95 7000 6.2 200 10:23 21.11.2019
4018 Fog 1 1029 95 10000 5.1 200 09:57 21.11.2019
4019 Fog 1 1029 95 10000 5.1 200 09:38 21.11.2019
4020 Fog 1 1029 100 10000 6.7 210 09:20 21.11.2019
4021 Fog 1 1029 100 9000 6.7 210 08:42 21.11.2019
4022 Fog 1 1029 100 9000 6.7 210 08:20 21.11.2019
4023 Fog 1 1029 100 700 6.7 220 07:43 21.11.2019
4024 Fog 1 1029 94 400 6.2 220 07:18 21.11.2019
4025 Fog 1 1029 94 400 6.2 220 06:57 21.11.2019
4026 Fog 0 1029 94 300 6.7 220 06:34 21.11.2019
4027 Fog 0 1028 94 2000 6.7 230 05:37 21.11.2019
4028 Clouds 0 1028 97 10000 5.7 230 03:34 21.11.2019
4029 Clouds 1 1028 100 10000 4.1 200 02:42 21.11.2019
4030 Clouds 1 1028 100 10000 5.7 210 02:20 21.11.2019
4031 Clouds 1 1028 100 10000 4.1 200 01:42 21.11.2019
4032 Clouds 1 1027 100 10000 5.1 220 00:55 21.11.2019
4033 Clouds 1 1027 100 10000 5.1 220 00:55 21.11.2019
4034 Clouds 1 1027 100 9000 4.6 220 00:21 21.11.2019
4035 Clouds 1 1027 100 9000 4.6 220 23:59 20.11.2019
4036 Mist 1 1027 100 4400 5.1 220 23:40 20.11.2019
4037 Mist 2 1027 93 4700 5.1 210 23:20 20.11.2019
4038 Fog 2 1026 100 5000 5.1 220 22:55 20.11.2019
4039 Fog 2 1026 100 5000 5.1 220 22:37 20.11.2019
4040 Fog 2 1026 100 1000 5.1 220 22:18 20.11.2019
4041 Fog 2 1026 100 350 4.6 210 21:55 20.11.2019
4042 Fog 2 1026 100 350 4.6 210 21:37 20.11.2019
4043 Fog 2 1025 100 300 5.1 220 21:19 20.11.2019
4044 Fog 2 1025 100 550 5.7 220 20:54 20.11.2019
4045 Fog 2 1025 100 550 5.7 220 20:36 20.11.2019
4046 Fog 2 1025 100 450 6.2 220 20:18 20.11.2019
4047 Clouds 2 1024 100 7000 5.7 190 19:54 20.11.2019
4048 Clouds 2 1024 100 7000 5.7 190 19:36 20.11.2019
4049 Fog 2 1024 100 2800 5.1 200 19:18 20.11.2019
4050 Fog 2 1024 100 2800 5.1 200 18:55 20.11.2019
4051 Fog 2 1024 100 1200 7.2 210 18:36 20.11.2019
4052 Fog 2 1024 100 550 6.7 210 18:18 20.11.2019
4053 Fog 2 1023 100 350 5.1 210 17:55 20.11.2019
4054 Fog 2 1023 100 350 5.1 210 17:36 20.11.2019
4055 Fog 2 1023 100 400 5.7 210 17:18 20.11.2019
4056 Fog 2 1023 100 400 6.2 210 16:41 20.11.2019
4057 Fog 3 1022 93 2000 6.2 220 16:20 20.11.2019
4058 Fog 3 1022 93 2000 6.2 220 15:57 20.11.2019
4059 Fog 3 1022 93 2000 6.2 220 15:57 20.11.2019
4060 Rain 2 1022 100 2500 5.1 190 15:39 20.11.2019
4061 Rain 2 1022 100 2500 4.6 170 15:19 20.11.2019
4062 Rain 2 1022 100 2500 4.6 170 14:56 20.11.2019
4063 Rain 2 1022 100 2900 4.1 160 14:37 20.11.2019
4064 Drizzle 2 1022 100 1800 4.1 150 14:18 20.11.2019
4065 Drizzle 2 1022 100 1800 4.1 150 13:55 20.11.2019
4066 Drizzle 2 1022 100 3500 4.6 140 13:36 20.11.2019
4067 Rain 2 1022 100 9000 4.1 160 13:18 20.11.2019
4068 Rain 2 1022 100 7000 4.1 150 12:40 20.11.2019
4069 Rain 2 1022 100 4000 4.1 150 12:21 20.11.2019
4070 Drizzle 2 1022 100 1700 3.6 150 11:46 20.11.2019
4071 Drizzle 2 1022 100 1100 4.1 150 11:23 20.11.2019
4072 Drizzle 2 1022 100 1100 4.1 150 10:59 20.11.2019
4073 Drizzle 2 1022 100 400 4.1 130 10:39 20.11.2019
4074 Drizzle 2 1022 100 400 4.1 130 10:20 20.11.2019
4075 Drizzle 2 1022 100 400 4.1 130 09:59 20.11.2019
4076 Drizzle 2 1022 93 450 3.6 120 09:41 20.11.2019
4077 Drizzle 1 1022 100 450 3.6 120 09:19 20.11.2019
4078 Drizzle 1 1022 100 500 3.6 110 08:43 20.11.2019
4079 Drizzle 1 1022 100 700 3.1 120 08:24 20.11.2019
4080 Drizzle 1 1022 100 800 3.6 110 07:52 20.11.2019
4081 Drizzle 1 1022 100 800 3.6 110 07:34 20.11.2019
4082 Drizzle 1 1022 100 900 4.1 100 06:58 20.11.2019
4083 Rain 1 1022 100 1000 4.1 100 06:38 20.11.2019
4084 Rain 1 1023 100 900 4.6 110 06:18 20.11.2019
4085 Rain 1 1023 100 1000 4.6 120 04:41 20.11.2019
4086 Fog 1 1024 98 900 4.1 110 02:28 20.11.2019
4087 Rain 0 1024 97 1500 4.6 110 01:37 20.11.2019
4088 Rain 0 1024 98 1800 4.1 110 00:46 20.11.2019
4089 Rain 0 1024 98 2500 4.6 110 00:18 20.11.2019
4090 Snow 0 1024 98 4400 5.1 110 23:40 19.11.2019
4091 Snow 0 1024 96 5000 5.1 120 23:22 19.11.2019
4092 Rain 0 1024 96 3500 5.7 120 22:54 19.11.2019
4093 Rain 0 1024 96 3500 5.7 120 22:36 19.11.2019
4094 Rain 0 1024 96 4300 5.7 120 22:18 19.11.2019
4095 Rain 0 1024 96 5000 5.1 120 21:54 19.11.2019
4096 Rain 0 1024 96 5000 5.1 120 21:36 19.11.2019
4097 Rain 0 1024 96 5000 5.1 120 21:36 19.11.2019
4098 Rain 0 1024 96 5000 5.1 120 21:36 19.11.2019
4099 Clouds 0 1024 96 10000 5.7 110 21:18 19.11.2019
4100 Clouds 0 1024 96 10000 6.2 120 20:54 19.11.2019
4101 Clouds 0 1024 96 10000 6.2 120 20:36 19.11.2019
4102 Snow 0 1024 96 10000 6.2 110 20:18 19.11.2019
4103 Snow 0 1024 96 10000 6.2 110 20:18 19.11.2019
4104 Clouds 0 1024 96 10000 6.7 120 19:41 19.11.2019
4105 Clouds 0 1024 96 10000 6.7 120 19:41 19.11.2019
4106 Snow 0 1024 96 10000 6.2 120 19:20 19.11.2019
4107 Snow 0 1024 96 10000 6.2 120 18:57 19.11.2019
4108 Clouds 0 1024 96 6000 5.7 120 18:39 19.11.2019
4109 Snow 0 1024 96 10000 5.7 120 18:18 19.11.2019
4110 Snow 0 1024 96 10000 5.7 120 17:56 19.11.2019
4111 Snow 0 1024 96 10000 5.7 120 17:56 19.11.2019
4112 Snow 0 1024 96 10000 6.7 110 17:37 19.11.2019
4113 Clouds 0 1025 95 10000 6.2 120 17:19 19.11.2019
4114 Clouds 0 1025 95 8000 5.7 110 16:56 19.11.2019
4115 Clouds 0 1025 95 8000 5.7 110 16:37 19.11.2019
4116 Clouds 0 1025 95 10000 6.2 110 16:18 19.11.2019
4117 Clouds 0 1025 95 10000 6.7 120 15:42 19.11.2019
4118 Clouds 0 1025 95 10000 6.7 120 15:23 19.11.2019
4119 Clouds 0 1025 95 10000 6.7 120 14:57 19.11.2019
4120 Clouds 0 1025 95 10000 6.7 120 14:39 19.11.2019
4121 Clouds 0 1025 95 10000 6.7 120 14:20 19.11.2019
4122 Clouds 0 1026 95 3000 5.7 110 13:41 19.11.2019
4123 Clouds 0 1026 96 2500 6.2 120 13:20 19.11.2019
4124 Clouds 0 1026 96 2500 6.7 110 12:42 19.11.2019
4125 Fog 0 1026 96 10000 4.6 110 12:23 19.11.2019
4126 Fog 0 1026 96 10000 4.6 110 11:59 19.11.2019
4127 Clouds 0 1026 96 10000 4.6 120 11:39 19.11.2019
4128 Clouds 0 1026 94 10000 5.7 110 11:20 19.11.2019
4129 Clouds 0 1026 94 10000 5.7 100 10:58 19.11.2019
4130 Clouds 0 1026 94 10000 5.7 100 10:40 19.11.2019
4131 Clouds 0 1026 94 10000 5.1 90 10:20 19.11.2019
4132 Clouds 0 1026 94 8000 6.2 90 09:42 19.11.2019
4133 Clouds 0 1026 94 8000 5.1 100 09:20 19.11.2019
4134 Fog 0 1026 94 8000 5.1 100 08:56 19.11.2019
4135 Fog 0 1026 94 8000 5.1 100 08:37 19.11.2019
4136 Fog 0 1026 94 8000 5.1 100 08:37 19.11.2019
4137 Fog 0 1026 97 4000 5.1 100 08:19 19.11.2019
4138 Fog 0 1026 97 1100 5.7 100 07:42 19.11.2019
4139 Fog 0 1026 97 700 5.1 100 07:22 19.11.2019
4140 Mist 0 1026 97 1200 4.6 110 06:52 19.11.2019
4141 Mist 0 1026 97 1200 4.6 110 06:33 19.11.2019
4142 Drizzle 0 1027 97 2400 4.6 0 05:44 19.11.2019
4143 Rain 0 1027 98 900 4.6 120 04:26 19.11.2019
4144 Clouds 0 1027 98 800 4.6 120 03:35 19.11.2019
4145 Clouds 0 1027 98 550 4.6 120 02:59 19.11.2019
4146 Fog 0 1027 98 550 4.6 120 02:33 19.11.2019
4147 Fog 0 1027 94 700 4.1 120 01:45 19.11.2019
4148 Fog -1 1027 100 750 3.6 120 00:22 19.11.2019
4149 Fog -1 1027 100 750 3.6 120 23:59 18.11.2019
4150 Fog -1 1027 100 800 3.6 120 23:37 18.11.2019
4151 Fog -1 1027 100 800 3.6 120 23:18 18.11.2019
4152 Snow -1 1027 92 750 3.1 120 22:45 18.11.2019
4153 Clouds -2 1027 100 900 3.1 110 22:23 18.11.2019
4154 Fog -2 1027 100 650 2.1 90 21:56 18.11.2019
4155 Fog -2 1027 100 650 2.1 90 21:38 18.11.2019
4156 Fog -2 1027 100 450 2.1 100 21:20 18.11.2019
4157 Fog -2 1027 100 450 2.1 100 20:57 18.11.2019
4158 Fog -2 1027 100 450 2.1 120 20:38 18.11.2019
4159 Fog -2 1027 100 450 2.1 120 20:38 18.11.2019
4160 Fog -2 1027 92 600 2.1 120 20:18 18.11.2019
4161 Fog -2 1027 92 600 2.1 120 19:56 18.11.2019
4162 Fog -2 1027 92 1100 1.5 140 19:37 18.11.2019
4163 Clouds -2 1027 92 2500 2.6 170 19:18 18.11.2019
4164 Clouds -2 1027 92 2500 2.6 170 19:18 18.11.2019
4165 Fog -2 1027 92 1000 2.6 150 18:55 18.11.2019
4166 Fog -2 1027 92 1000 2.6 150 18:36 18.11.2019
4167 Snow -3 1026 100 2000 2.1 120 18:18 18.11.2019
4168 Snow -3 1026 100 10000 2.1 80 17:39 18.11.2019
4169 Snow -3 1026 92 7000 2.1 80 17:20 18.11.2019
4170 Snow -3 1026 92 8000 2.1 90 16:55 18.11.2019
4171 Snow -3 1026 92 8000 2.1 90 16:55 18.11.2019
4172 Snow -3 1026 92 8000 2.1 90 16:37 18.11.2019
4173 Snow -3 1026 92 3700 2.1 90 16:19 18.11.2019
4174 Snow -3 1026 92 3700 2.1 90 15:56 18.11.2019
4175 Snow -3 1026 92 3700 2.1 90 15:56 18.11.2019
4176 Snow -3 1026 92 8000 2.6 80 15:37 18.11.2019
4177 Snow -3 1026 92 7000 2.6 70 15:18 18.11.2019
4178 Snow -3 1025 92 6000 2.6 80 14:42 18.11.2019
4179 Snow -3 1025 92 7000 2.1 70 14:23 18.11.2019
4180 Snow -3 1025 92 4000 2.1 70 13:55 18.11.2019
4181 Snow -3 1025 92 4000 2.1 70 13:54 18.11.2019
4182 Snow -3 1025 92 4000 2.1 70 13:36 18.11.2019
4183 Snow -3 1025 92 7000 2.6 80 13:18 18.11.2019
4184 Clouds -4 1025 100 9000 2.6 80 12:38 18.11.2019
4185 Clouds -4 1024 100 10000 2.6 80 12:19 18.11.2019
4186 Clouds -4 1024 100 3000 2.6 80 11:44 18.11.2019
4187 Clouds -4 1024 92 5000 3.1 70 11:25 18.11.2019
4188 Clouds -4 1024 92 5000 3.1 70 10:56 18.11.2019
4189 Clouds -4 1024 92 5000 3.1 70 10:56 18.11.2019
4190 Clouds -4 1024 92 2000 2.6 60 10:38 18.11.2019
4191 Clouds -4 1024 92 3500 3.1 70 10:18 18.11.2019
4192 Snow -4 1024 92 1800 3.6 80 09:54 18.11.2019
4193 Snow -4 1024 92 1800 3.6 80 09:36 18.11.2019
4194 Clouds -4 1023 92 3000 4.6 70 09:18 18.11.2019
4195 Clouds -4 1023 92 10000 3.6 60 08:43 18.11.2019
4196 Clouds -4 1023 92 10000 3.1 80 08:20 18.11.2019
4197 Clouds -4 1023 92 10000 3.1 80 07:47 18.11.2019
4198 Clouds -4 1023 92 10000 3.1 80 07:27 18.11.2019
4199 Clouds -4 1022 92 10000 3.6 60 06:52 18.11.2019
4200 Clouds -4 1022 92 10000 3.6 60 06:32 18.11.2019
4201 Clouds -4 1022 92 10000 3.6 60 05:47 18.11.2019
4202 Clouds -4 1021 92 10000 3.6 60 04:39 18.11.2019
4203 Clouds -4 1020 92 10000 3.6 50 01:49 18.11.2019
4204 Clouds -4 1020 92 10000 3.6 50 01:31 18.11.2019
4205 Clouds -4 1019 92 10000 4.1 40 00:22 18.11.2019
4206 Clouds -4 1019 92 10000 4.1 40 23:43 17.11.2019
4207 Clouds -4 1019 92 10000 3.6 40 23:24 17.11.2019
4208 Snow -5 1019 100 10000 3.6 50 22:58 17.11.2019
4209 Snow -5 1019 100 10000 3.6 50 22:40 17.11.2019
4210 Clouds -5 1019 100 10000 3.6 50 22:21 17.11.2019
4211 Snow -5 1019 100 10000 3.6 50 21:57 17.11.2019
4212 Snow -5 1019 100 10000 3.6 50 21:39 17.11.2019
4213 Clouds -5 1019 100 10000 3.6 60 21:18 17.11.2019
4214 Snow -5 1018 92 10000 4.1 60 20:55 17.11.2019
4215 Clouds -5 1019 100 10000 3.6 60 20:55 17.11.2019
4216 Snow -5 1018 92 10000 4.1 60 20:37 17.11.2019
4217 Clouds -5 1018 92 10000 4.1 60 20:19 17.11.2019
4218 Clouds -5 1018 92 10000 4.1 60 19:55 17.11.2019
4219 Clouds -5 1018 92 10000 5.1 60 19:37 17.11.2019
4220 Clouds -5 1018 92 10000 5.1 60 19:37 17.11.2019
4221 Clouds -5 1018 92 10000 4.6 60 19:19 17.11.2019
4222 Clouds -5 1018 92 10000 4.6 60 18:54 17.11.2019
4223 Clouds -5 1018 92 10000 4.6 60 18:36 17.11.2019
4224 Clouds -5 1018 100 10000 4.6 70 18:18 17.11.2019
4225 Clouds -5 1018 100 10000 4.6 70 17:56 17.11.2019
4226 Clouds -5 1018 100 10000 4.6 70 17:38 17.11.2019
4227 Snow -4 1018 92 10000 5.1 70 17:18 17.11.2019
4228 Snow -4 1018 92 10000 4.6 70 16:55 17.11.2019
4229 Snow -4 1018 92 10000 4.6 70 16:37 17.11.2019
4230 Clouds -4 1018 92 10000 4.1 80 16:19 17.11.2019
4231 Clouds -4 1019 92 10000 4.1 90 15:41 17.11.2019
4232 Clouds -4 1019 92 10000 3.6 90 15:19 17.11.2019
4233 Clouds -4 1019 92 10000 4.1 80 14:57 17.11.2019
4234 Clouds -4 1019 92 10000 4.1 80 14:39 17.11.2019
4235 Clouds -4 1019 100 10000 4.1 80 14:21 17.11.2019
4236 Clouds -4 1019 100 10000 3.6 80 13:59 17.11.2019
4237 Clouds -4 1019 100 10000 3.6 80 13:40 17.11.2019
4238 Clouds -4 1019 100 10000 4.1 100 13:20 17.11.2019
4239 Snow -4 1019 100 10000 4.1 90 12:45 17.11.2019
4240 Clouds -4 1019 100 10000 4.1 80 12:24 17.11.2019
4241 Clouds -4 1019 100 10000 4.1 80 11:59 17.11.2019
4242 Snow -4 1020 100 10000 3.1 90 11:40 17.11.2019
4243 Clouds -4 1020 100 10000 4.1 100 11:21 17.11.2019
4244 Clouds -4 1020 100 10000 4.1 100 10:58 17.11.2019
4245 Clouds -4 1020 100 10000 5.1 110 10:40 17.11.2019
4246 Clouds -4 1020 100 10000 4.1 100 10:21 17.11.2019
4247 Clouds -4 1020 100 10000 4.6 100 09:42 17.11.2019
4248 Clouds -4 1020 100 10000 4.6 100 09:23 17.11.2019
4249 Clouds -4 1020 100 10000 5.7 100 08:44 17.11.2019
4250 Clouds -4 1020 100 10000 5.7 100 08:44 17.11.2019
4251 Clouds -4 1020 100 10000 5.1 90 08:25 17.11.2019
4252 Clouds -4 1020 100 10000 5.1 90 07:57 17.11.2019
4253 Clouds -4 1020 100 10000 5.1 90 07:39 17.11.2019
4254 Clouds -4 1020 100 10000 4.6 90 07:19 17.11.2019
4255 Snow -4 1021 100 10000 4.1 90 06:50 17.11.2019
4256 Snow -4 1021 100 10000 4.1 90 06:28 17.11.2019
4257 Clouds -3 1022 92 10000 3.6 90 04:50 17.11.2019
4258 Clouds -3 1022 92 10000 3.6 100 03:58 17.11.2019
4259 Clouds -3 1022 92 10000 3.6 100 03:33 17.11.2019
4260 Snow -3 1022 92 10000 3.1 90 02:41 17.11.2019
4261 Snow -3 1023 92 10000 2.6 110 01:49 17.11.2019
4262 Snow -3 1023 100 8000 2.6 90 00:57 17.11.2019
4263 Snow -3 1023 100 6000 2.6 110 00:23 17.11.2019
4264 Snow -3 1023 100 6000 2.6 110 23:54 16.11.2019
4265 Snow -3 1023 100 6000 2.6 110 23:36 16.11.2019
4266 Snow -3 1023 100 10000 2.1 110 23:18 16.11.2019
4267 Snow -3 1023 100 10000 2.6 130 22:41 16.11.2019
4268 Snow -3 1023 100 10000 2.1 120 22:20 16.11.2019
4269 Snow -3 1023 100 10000 2.1 120 22:20 16.11.2019
4270 Snow -3 1023 100 10000 2.1 120 21:57 16.11.2019
4271 Snow -3 1023 100 10000 2.1 120 21:38 16.11.2019
4272 Snow -3 1023 100 10000 2.1 120 21:20 16.11.2019
4273 Snow -3 1023 100 10000 2.1 120 20:56 16.11.2019
4274 Snow -3 1023 100 10000 2.6 120 20:38 16.11.2019
4275 Snow -2 1023 92 10000 2.6 120 20:18 16.11.2019
4276 Snow -2 1023 92 10000 2.1 120 19:40 16.11.2019
4277 Snow -2 1023 92 10000 2.1 120 19:22 16.11.2019
4278 Snow -2 1023 92 10000 2.6 140 18:48 16.11.2019
4279 Snow -2 1023 92 10000 2.6 140 18:30 16.11.2019
4280 Snow -2 1023 92 10000 1.5 140 17:58 16.11.2019
4281 Snow -2 1023 100 7000 1.5 100 17:39 16.11.2019
4282 Snow -2 1023 92 10000 1.5 140 17:21 16.11.2019
4283 Snow -2 1023 100 8000 2.6 160 16:56 16.11.2019
4284 Snow -2 1023 100 8000 2.6 160 16:37 16.11.2019
4285 Snow -2 1023 100 6000 2.6 170 16:19 16.11.2019
4286 Snow -2 1023 100 8000 2.6 160 15:41 16.11.2019
4287 Snow -2 1023 100 8000 2.6 160 15:41 16.11.2019
4288 Clouds -2 1023 100 6000 2.1 180 15:22 16.11.2019
4289 Clouds -2 1023 100 6000 2.1 180 14:58 16.11.2019
4290 Clouds -2 1023 100 10000 2.1 170 14:40 16.11.2019
4291 Clouds -1 1023 92 10000 1.5 170 14:21 16.11.2019
4292 Clouds -1 1023 92 10000 1.5 170 13:56 16.11.2019
4293 Clouds -2 1023 100 10000 2.1 190 13:38 16.11.2019
4294 Clouds -1 1023 92 10000 2.1 190 13:19 16.11.2019
4295 Clouds -1 1023 92 10000 3.1 190 12:55 16.11.2019
4296 Clouds -1 1023 92 10000 3.1 190 12:36 16.11.2019
4297 Clouds -1 1023 92 10000 2.6 200 12:18 16.11.2019
4298 Clouds -1 1023 92 10000 2.6 190 11:42 16.11.2019
4299 Clouds -1 1023 92 10000 2.6 180 11:23 16.11.2019
4300 Clouds -1 1023 92 10000 2.6 180 10:56 16.11.2019
4301 Clouds -1 1023 92 10000 2.1 190 10:37 16.11.2019
4302 Clouds -1 1023 92 10000 3.1 200 10:18 16.11.2019
4303 Clouds -1 1023 92 10000 3.1 200 09:40 16.11.2019
4304 Clouds -2 1023 100 10000 4.1 200 09:20 16.11.2019
4305 Clouds -2 1022 100 10000 4.1 200 08:56 16.11.2019
4306 Clouds -2 1022 100 10000 4.1 200 08:36 16.11.2019
4307 Clouds -2 1022 100 10000 4.1 200 08:18 16.11.2019
4308 Clouds -2 1022 100 10000 4.6 210 07:40 16.11.2019
4309 Clouds -2 1022 100 10000 4.1 200 07:18 16.11.2019
4310 Clouds -2 1022 100 9000 3.1 200 06:43 16.11.2019
4311 Clouds -2 1022 100 10000 4.1 190 06:20 16.11.2019
4312 Mist -2 1022 100 4600 3.1 210 04:45 16.11.2019
4313 Clouds -2 1022 100 10000 4.6 200 03:26 16.11.2019
4314 Mist -2 1022 100 2100 4.1 220 02:36 16.11.2019
4315 Fog -2 1022 100 1700 3.1 220 01:41 16.11.2019
4316 Fog -2 1022 100 1700 3.1 220 01:41 16.11.2019
4317 Fog -2 1022 92 1100 3.6 220 00:56 16.11.2019
4318 Fog -2 1022 92 1100 3.6 220 00:31 16.11.2019
4319 Fog -3 1022 100 900 3.6 220 23:58 15.11.2019
4320 Fog -3 1022 100 1000 3.6 220 23:38 15.11.2019
4321 Fog -3 1022 100 1800 4.1 230 23:20 15.11.2019
4322 Fog -3 1022 100 1800 5.1 220 22:42 15.11.2019
4323 Mist -3 1021 92 2600 5.7 220 22:20 15.11.2019
4324 Fog -3 1021 100 4200 5.7 210 21:58 15.11.2019
4325 Fog -3 1021 100 4200 5.7 210 21:40 15.11.2019
4326 Fog -3 1021 92 800 5.7 220 21:20 15.11.2019
4327 Fog -3 1021 92 800 5.7 220 20:56 15.11.2019
4328 Fog -3 1021 92 900 4.1 220 20:38 15.11.2019
4329 Fog -3 1021 92 1500 5.1 230 20:20 15.11.2019
4330 Clouds -4 1021 100 1200 5.1 230 19:57 15.11.2019
4331 Clouds -4 1021 100 1200 5.1 230 19:38 15.11.2019
4332 Clouds -4 1021 100 750 5.7 220 19:19 15.11.2019
4333 Fog -4 1021 92 800 3.6 200 18:43 15.11.2019
4334 Mist -4 1021 92 2200 3.1 190 18:25 15.11.2019
4335 Mist -4 1021 92 2200 3.1 190 17:59 15.11.2019
4336 Clouds -5 1021 92 10000 1 0 17:40 15.11.2019
4337 Clouds -5 1021 92 9000 2.1 190 17:22 15.11.2019
4338 Clouds -5 1021 92 9000 2.1 190 16:56 15.11.2019
4339 Mist -6 1020 100 2100 3.1 190 16:37 15.11.2019
4340 Clouds -7 1020 92 5000 2.1 150 16:18 15.11.2019
4341 Clouds -8 1020 92 2200 3.1 160 15:38 15.11.2019
4342 Clouds -8 1020 92 2200 3.1 160 15:38 15.11.2019
4343 Clear -7 1020 92 6000 2.1 150 15:19 15.11.2019
4344 Clear -7 1020 92 6000 2.1 150 14:56 15.11.2019
4345 Clear -6 1020 92 10000 2.6 170 14:38 15.11.2019
4346 Clear -7 1020 100 10000 2.6 210 14:19 15.11.2019
4347 Clear -7 1020 100 10000 2.6 210 14:19 15.11.2019
4348 Clouds -6 1020 92 10000 3.6 210 13:57 15.11.2019
4349 Clouds -6 1020 92 10000 3.6 210 13:38 15.11.2019
4350 Clouds -6 1019 92 10000 3.1 220 13:20 15.11.2019
4351 Clouds -6 1019 92 10000 3.1 220 12:57 15.11.2019
4352 Fog -6 1019 92 250 3.1 230 12:38 15.11.2019
4353 Fog -6 1019 92 200 2.6 220 12:19 15.11.2019
4354 Fog -6 1019 92 200 3.1 230 11:55 15.11.2019
4355 Fog -6 1019 92 200 3.1 230 11:55 15.11.2019
4356 Fog -6 1019 92 200 3.1 230 11:37 15.11.2019
4357 Fog -6 1018 92 250 3.6 240 11:19 15.11.2019
4358 Fog -6 1018 92 450 3.6 230 10:39 15.11.2019
4359 Fog -6 1018 92 450 3.6 230 10:39 15.11.2019
4360 Clouds -6 1017 92 10000 3.1 230 10:21 15.11.2019
4361 Clouds -5 1017 92 10000 3.6 230 09:56 15.11.2019
4362 Clouds -5 1017 92 10000 3.6 230 09:56 15.11.2019
4363 Clouds -5 1017 92 10000 3.6 230 09:38 15.11.2019
4364 Mist -5 1016 92 4000 3.6 240 09:18 15.11.2019
4365 Clouds -5 1016 100 10000 2.6 230 08:42 15.11.2019
4366 Clouds -5 1016 100 10000 2.6 230 08:42 15.11.2019
4367 Clouds -4 1015 92 10000 2.6 250 08:21 15.11.2019
4368 Clouds -4 1014 100 10000 3.1 260 07:45 15.11.2019
4369 Clouds -4 1014 100 10000 3.1 260 07:26 15.11.2019
4370 Clouds -3 1014 92 10000 3.6 280 06:36 15.11.2019
4371 Snow -3 1013 92 10000 3.6 260 05:57 15.11.2019
4372 Snow -2 1012 92 10000 3.1 260 05:38 15.11.2019
4373 Snow -2 1011 92 10000 2.6 280 04:55 15.11.2019
4374 Snow -2 1010 92 10000 3.1 280 03:44 15.11.2019
4375 Snow -3 1009 100 10000 2.1 280 02:37 15.11.2019
4376 Snow -3 1009 92 10000 1.5 270 01:57 15.11.2019
4377 Snow -3 1009 92 10000 1.5 270 01:57 15.11.2019
4378 Snow -3 1008 100 10000 2.1 300 01:32 15.11.2019
4379 Snow -3 1008 100 10000 2.1 300 01:32 15.11.2019
4380 Clouds -3 1007 92 10000 3.6 330 00:41 15.11.2019
4381 Clouds -3 1007 92 10000 3.6 330 00:41 15.11.2019
4382 Clouds -3 1007 92 10000 3.6 330 00:23 15.11.2019
4383 Clouds -3 1006 92 10000 4.1 330 23:46 14.11.2019
4384 Clouds -3 1006 92 10000 4.1 330 23:26 14.11.2019
4385 Clouds -3 1006 92 10000 3.6 330 22:42 14.11.2019
4386 Clouds -3 1005 100 10000 4.1 340 22:23 14.11.2019
4387 Clouds -3 1005 100 10000 4.1 340 21:59 14.11.2019
4388 Clouds -3 1005 100 10000 3.6 340 21:41 14.11.2019
4389 Clouds -3 1005 100 10000 3.6 340 21:22 14.11.2019
4390 Clouds -2 1005 92 9000 3.6 330 20:55 14.11.2019
4391 Clouds -2 1005 92 9000 3.6 330 20:37 14.11.2019
4392 Fog -2 1005 92 1700 3.6 330 20:19 14.11.2019
4393 Fog -2 1005 100 1900 3.1 350 19:55 14.11.2019
4394 Fog -2 1005 100 1900 3.1 350 19:36 14.11.2019
4395 Fog -2 1005 100 2000 3.6 340 19:18 14.11.2019
4396 Fog -2 1005 100 1300 2.6 340 18:42 14.11.2019
4397 Clouds -1 1005 92 10000 3.1 360 18:23 14.11.2019
4398 Clouds -1 1005 92 10000 3.1 360 17:57 14.11.2019
4399 Clouds -1 1005 92 10000 3.1 360 17:38 14.11.2019
4400 Fog -1 1005 100 1600 3.6 10 17:20 14.11.2019
4401 Fog -1 1005 100 1200 3.1 350 16:58 14.11.2019
4402 Fog -1 1005 100 1200 3.1 350 16:37 14.11.2019
4403 Fog -1 1005 100 700 2.1 350 16:19 14.11.2019
4404 Fog -1 1005 100 1000 1.5 330 15:58 14.11.2019
4405 Fog -1 1005 100 1000 1.5 330 15:38 14.11.2019
4406 Fog -1 1005 100 650 1.5 310 15:20 14.11.2019
4407 Fog -1 1005 100 900 1 360 14:46 14.11.2019
4408 Fog -1 1005 100 600 1 30 14:23 14.11.2019
4409 Mist 0 1005 98 1000 0.5 0 13:58 14.11.2019
4410 Mist 0 1005 98 1000 0.5 0 13:39 14.11.2019
4411 Fog 0 1005 98 700 0.5 180 13:20 14.11.2019
4412 Fog 0 1005 99 700 0.5 180 12:56 14.11.2019
4413 Fog 0 1005 99 450 0.5 0 12:37 14.11.2019
4414 Snow 0 1005 99 200 1 100 12:19 14.11.2019
4415 Snow 0 1005 99 250 1 70 11:54 14.11.2019
4416 Snow 0 1005 99 250 1 70 11:36 14.11.2019
4417 Snow 0 1005 99 400 0.5 0 11:18 14.11.2019
4418 Snow 0 1004 99 500 1.5 100 10:41 14.11.2019
4419 Snow 0 1005 99 500 2.1 110 10:20 14.11.2019
4420 Snow 0 1005 99 500 2.1 110 09:57 14.11.2019
4421 Snow 0 1004 99 400 2.1 110 09:39 14.11.2019
4422 Snow 0 1004 99 1400 2.1 90 09:21 14.11.2019
4423 Snow 0 1004 99 1400 2.1 90 08:48 14.11.2019
4424 Snow 0 1004 99 1400 2.1 90 08:26 14.11.2019
4425 Snow 0 1004 99 1500 2.1 100 07:57 14.11.2019
4426 Snow 0 1004 99 2000 2.6 100 07:38 14.11.2019
4427 Snow 0 1004 99 1800 2.1 100 07:20 14.11.2019
4428 Snow 0 1004 99 800 2.6 90 06:44 14.11.2019
4429 Snow 0 1004 99 2100 2.6 100 06:19 14.11.2019
4430 Snow 0 1004 99 4800 2.1 110 04:48 14.11.2019
4431 Rain 1 1005 99 0 1.5 145 04:26 14.11.2019
4432 Clouds 0 1004 99 6000 2.6 90 02:49 14.11.2019
4433 Clouds 0 1004 99 2700 3.6 90 02:28 14.11.2019
4434 Snow 0 1004 99 1800 4.1 90 01:33 14.11.2019
4435 Clouds 0 1005 99 2100 3.6 90 00:55 14.11.2019
4436 Clouds 0 1005 99 2100 3.6 90 00:33 14.11.2019
4437 Snow 0 1006 99 3900 3.6 100 23:44 13.11.2019
4438 Snow 0 1006 99 3900 3.6 100 23:44 13.11.2019
4439 Snow 0 1006 99 4000 3.6 110 23:25 13.11.2019
4440 Snow 0 1006 98 4000 3.6 110 22:59 13.11.2019
4441 Snow 0 1006 98 2300 3.6 100 22:41 13.11.2019
4442 Snow 0 1006 98 2700 3.6 100 22:22 13.11.2019
4443 Clouds 0 1006 98 2600 4.1 100 21:56 13.11.2019
4444 Clouds 0 1006 98 2600 4.1 100 21:38 13.11.2019
4445 Snow 0 1007 98 2000 3.6 100 21:20 13.11.2019
4446 Snow 0 1007 98 2000 3.6 100 20:57 13.11.2019
4447 Snow 0 1007 98 900 4.1 110 20:37 13.11.2019
4448 Snow 0 1007 98 900 4.1 110 20:37 13.11.2019
4449 Snow 0 1007 98 900 4.1 110 20:37 13.11.2019
4450 Clouds 0 1007 98 600 3.6 110 20:19 13.11.2019
4451 Clouds 0 1007 98 600 3.6 110 19:56 13.11.2019
4452 Fog 0 1007 98 450 3.1 110 19:37 13.11.2019
4453 Clouds 0 1007 98 450 3.1 110 19:18 13.11.2019
4454 Clouds 0 1008 98 500 3.6 120 18:54 13.11.2019
4455 -273 0 0 0 0 0 18:54 13.11.2019
4456 Clouds 0 1008 98 500 3.6 120 18:36 13.11.2019
4457 Clouds 0 1008 98 450 4.1 120 18:18 13.11.2019
4458 Clouds 0 1008 98 450 4.1 120 18:18 13.11.2019
4459 Clouds 0 1008 98 450 4.1 120 18:18 13.11.2019
4460 Clouds 0 1008 98 400 4.1 120 17:54 13.11.2019
4461 Clouds 0 1008 98 400 4.1 120 17:36 13.11.2019
4462 Clouds 0 1008 98 450 3.6 130 17:18 13.11.2019
4463 Clouds -1 1008 100 450 4.1 120 16:40 13.11.2019
4464 Clouds -1 1008 100 500 3.6 120 16:22 13.11.2019
4465 Clouds -1 1008 100 500 3.6 120 15:58 13.11.2019
4466 Clouds -1 1008 100 450 3.6 120 15:40 13.11.2019
4467 Clouds -1 1008 100 600 4.6 130 15:22 13.11.2019
4468 Fog -1 1008 100 550 4.1 140 14:57 13.11.2019
4469 Fog -1 1008 100 550 4.1 140 14:37 13.11.2019
4470 Fog -1 1008 100 300 4.6 140 14:19 13.11.2019
4471 Fog -1 1008 92 300 4.6 140 13:37 13.11.2019
4472 Fog -2 1008 100 400 4.1 140 13:19 13.11.2019
4473 Fog -2 1008 100 400 4.1 140 12:58 13.11.2019
4474 Fog -2 1008 100 700 3.6 0 12:38 13.11.2019
4475 Snow -2 1008 100 7000 3.6 140 12:20 13.11.2019
4476 Clouds -2 1008 92 10000 3.6 130 11:41 13.11.2019
4477 Snow -2 1008 92 10000 4.1 130 11:21 13.11.2019
4478 Snow -2 1008 92 10000 4.1 130 10:59 13.11.2019
4479 Clouds -2 1008 92 2500 4.1 120 10:41 13.11.2019
4480 Snow -2 1008 92 2500 4.1 120 10:21 13.11.2019
4481 Snow -2 1008 92 2500 4.1 120 09:59 13.11.2019
4482 Snow -3 1008 100 2500 4.6 130 09:39 13.11.2019
4483 Snow -3 1008 100 2500 5.7 120 09:20 13.11.2019
4484 Snow -3 1008 100 2500 5.7 120 09:20 13.11.2019
4485 Snow -3 1008 92 2500 6.7 120 08:40 13.11.2019
4486 Snow -3 1008 92 2000 7.7 120 08:21 13.11.2019
4487 Snow -3 1009 92 700 7.2 110 07:43 13.11.2019
4488 Snow -3 1009 92 2500 6.7 110 07:22 13.11.2019
4489 Snow -3 1009 92 2500 7.2 100 06:47 13.11.2019
4490 Snow -3 1009 92 3000 7.2 100 06:20 13.11.2019
4491 Snow -3 1009 92 3000 7.2 100 06:20 13.11.2019
4492 Snow -3 1009 92 3000 7.2 100 06:20 13.11.2019
4493 Snow -3 1010 92 3600 6.7 100 05:57 13.11.2019
4494 Snow -3 1010 92 3600 6.7 100 05:38 13.11.2019
4495 Snow -3 1010 92 3400 7.2 100 04:56 13.11.2019
4496 Snow -3 1013 92 7000 6.2 100 03:23 13.11.2019
4497 Snow -3 1014 92 4000 6.7 100 01:46 13.11.2019
4498 Clouds -3 1014 92 10000 6.7 100 01:18 13.11.2019
4499 Clouds -3 1015 92 10000 5.7 110 00:37 13.11.2019
4500 Clouds -3 1015 92 10000 5.7 110 23:42 12.11.2019
4501 Snow -3 1016 92 10000 4.1 110 23:22 12.11.2019
4502 Snow -3 1016 92 10000 4.1 110 22:58 12.11.2019
4503 Snow -4 1016 100 10000 4.6 120 22:40 12.11.2019
4504 Snow -4 1016 100 10000 3.6 130 22:18 12.11.2019
4505 Clouds -4 1016 92 10000 4.6 120 21:44 12.11.2019
4506 Snow -4 1016 92 10000 5.1 120 21:25 12.11.2019
4507 Snow -4 1016 92 10000 5.1 120 20:58 12.11.2019
4508 Snow -4 1016 92 10000 6.2 110 20:38 12.11.2019
4509 Snow -4 1016 92 10000 4.6 120 20:19 12.11.2019
4510 Snow -4 1016 92 10000 4.6 120 20:19 12.11.2019
4511 Snow -4 1016 92 10000 4.1 110 19:58 12.11.2019
4512 Snow -4 1016 92 10000 4.1 110 19:39 12.11.2019
4513 Snow -4 1017 92 10000 3.1 100 19:19 12.11.2019
4514 Snow -4 1017 92 10000 3.1 100 18:59 12.11.2019
4515 Snow -4 1017 92 10000 2.6 100 18:40 12.11.2019
4516 Snow -4 1017 92 10000 2.6 100 18:40 12.11.2019
4517 Snow -5 1017 92 10000 3.1 90 18:22 12.11.2019
4518 Snow -5 1017 92 10000 3.1 90 18:22 12.11.2019
4519 Clouds -5 1017 92 10000 3.1 80 17:57 12.11.2019
4520 Clouds -5 1017 92 10000 3.1 80 17:39 12.11.2019
4521 Snow -5 1017 92 10000 2.6 80 17:21 12.11.2019
4522 Snow -5 1017 92 10000 2.6 80 17:21 12.11.2019
4523 Clouds -5 1017 92 10000 3.1 70 16:57 12.11.2019
4524 Clouds -5 1017 92 10000 3.1 70 16:39 12.11.2019
4525 Clouds -5 1017 92 10000 2.6 80 16:20 12.11.2019
4526 Clouds -5 1016 92 10000 2.6 80 15:41 12.11.2019
4527 Clouds -5 1016 92 10000 3.1 80 15:21 12.11.2019
4528 Clouds -5 1016 92 10000 3.1 80 14:56 12.11.2019
4529 Clouds -5 1016 92 10000 3.6 80 14:37 12.11.2019
4530 Snow -5 1016 92 10000 3.1 90 14:19 12.11.2019
4531 Snow -5 1016 92 10000 3.1 90 13:56 12.11.2019
4532 Snow -5 1016 92 10000 3.1 100 13:37 12.11.2019
4533 Snow -5 1016 92 10000 3.6 80 13:18 12.11.2019
4534 Snow -5 1016 92 10000 3.6 80 12:42 12.11.2019
4535 Snow -5 1016 92 10000 3.6 80 12:42 12.11.2019
4536 Snow -5 1016 92 10000 3.6 70 12:19 12.11.2019
4537 Clouds -5 1016 92 10000 3.1 90 11:58 12.11.2019
4538 Clouds -5 1016 92 10000 3.1 90 11:39 12.11.2019
4539 Clouds -5 1015 85 10000 3.1 90 11:21 12.11.2019
4540 Snow -5 1015 85 10000 4.1 80 10:56 12.11.2019
4541 Snow -5 1015 85 10000 4.1 80 10:37 12.11.2019
4542 Snow -5 1015 85 10000 4.1 70 10:19 12.11.2019
4543 Clouds -5 1014 85 10000 4.1 70 09:40 12.11.2019
4544 Clouds -5 1014 85 10000 4.6 70 09:21 12.11.2019
4545 Clouds -5 1014 85 10000 4.6 70 09:21 12.11.2019
4546 Clouds -5 1014 85 10000 4.6 70 08:52 12.11.2019
4547 Clouds -5 1014 85 10000 4.6 70 08:30 12.11.2019
4548 Clouds -6 1014 92 10000 4.6 70 07:45 12.11.2019
4549 Clouds -6 1014 92 10000 4.6 70 07:26 12.11.2019
4550 Clouds -6 1013 92 10000 4.1 60 06:58 12.11.2019
4551 Clouds -6 1013 92 10000 4.6 60 06:39 12.11.2019
4552 Snow -6 1013 92 10000 4.6 60 06:21 12.11.2019
4553 Clouds -6 1013 92 10000 4.6 60 05:43 12.11.2019
4554 Snow -6 1013 92 10000 5.1 60 04:42 12.11.2019
4555 Snow -6 1013 92 10000 5.1 60 03:30 12.11.2019
4556 Snow -6 1012 92 8000 5.7 60 01:42 12.11.2019
4557 Snow -6 1012 92 4800 6.2 60 01:20 12.11.2019
4558 Snow -6 1012 92 3400 5.7 60 00:46 12.11.2019
4559 Snow -6 1012 92 7000 5.7 60 00:22 12.11.2019
4560 Snow -6 1012 92 5000 6.2 60 23:43 11.11.2019
4561 Snow -6 1012 92 2500 6.2 60 23:22 11.11.2019
4562 Snow -6 1013 92 3300 6.2 60 22:40 11.11.2019
4563 Snow -6 1013 92 3700 6.2 60 22:21 11.11.2019
4564 Snow -6 1013 92 3700 6.2 60 21:59 11.11.2019
4565 Snow -6 1013 92 3800 6.2 60 21:40 11.11.2019
4566 Snow -6 1013 92 3200 6.2 60 21:22 11.11.2019
4567 Snow -6 1013 92 3200 6.2 60 21:22 11.11.2019
4568 Snow -6 1013 92 3200 6.2 60 20:59 11.11.2019
4569 Snow -6 1013 92 3200 6.2 60 20:59 11.11.2019
4570 Snow -6 1013 92 3200 6.2 60 20:59 11.11.2019
4571 Snow -6 1013 92 2700 6.7 60 20:41 11.11.2019
4572 Snow -6 1013 92 3000 6.7 60 20:20 11.11.2019
4573 Snow -6 1013 92 2500 6.7 60 19:56 11.11.2019
4574 Snow -6 1013 92 2500 6.7 60 19:38 11.11.2019
4575 Snow -6 1013 92 2500 6.7 60 19:38 11.11.2019
4576 Snow -6 1013 85 3400 6.7 60 19:18 11.11.2019
4577 Snow -6 1013 85 3400 6.7 60 19:18 11.11.2019
4578 Snow -7 1013 92 2700 6.2 60 18:42 11.11.2019
4579 Snow -7 1013 92 3400 6.7 60 18:22 11.11.2019
4580 Snow -7 1013 92 3400 6.7 60 17:59 11.11.2019
4581 Snow -7 1013 92 3300 6.7 60 17:40 11.11.2019
4582 Snow -7 1013 92 4800 6.7 60 17:22 11.11.2019
4583 Snow -7 1013 92 4200 6.7 60 16:39 11.11.2019
4584 Snow -7 1014 92 4700 6.2 60 16:20 11.11.2019
4585 Snow -7 1014 92 4700 6.2 60 15:57 11.11.2019
4586 Snow -7 1014 92 10000 7.2 60 15:38 11.11.2019
4587 Snow -7 1014 92 3400 6.2 60 15:19 11.11.2019
4588 Snow -7 1014 85 2600 6.7 60 14:42 11.11.2019
4589 Snow -7 1014 92 1200 6.7 60 14:24 11.11.2019
4590 Snow -7 1014 92 1200 6.7 60 13:57 11.11.2019
4591 Snow -7 1014 85 1100 6.7 60 13:37 11.11.2019
4592 Snow -7 1015 85 1400 6.2 50 13:19 11.11.2019
4593 Snow -7 1015 85 1400 6.2 50 13:19 11.11.2019
4594 Snow -7 1015 85 1400 6.2 50 12:56 11.11.2019
4595 Snow -8 1015 92 2000 6.2 50 12:38 11.11.2019
4596 Snow -8 1015 92 1600 6.7 50 12:19 11.11.2019
4597 Snow -8 1015 92 2000 6.2 40 11:41 11.11.2019
4598 Snow -8 1015 85 2500 5.7 40 11:22 11.11.2019
4599 Snow -8 1015 85 2500 5.7 40 10:55 11.11.2019
4600 Snow -8 1015 85 2500 5.7 50 10:37 11.11.2019
4601 Snow -9 1015 92 2800 6.2 40 10:18 11.11.2019
4602 Snow -9 1015 92 2500 6.2 40 09:42 11.11.2019
4603 Snow -9 1015 85 3000 5.1 40 09:21 11.11.2019
4604 Snow -9 1015 85 2800 5.1 40 08:43 11.11.2019
4605 Snow -9 1015 85 2800 5.1 40 08:23 11.11.2019
4606 Snow -10 1015 92 6000 5.1 40 07:58 11.11.2019
4607 Clouds -10 1016 85 10000 4.6 40 07:39 11.11.2019
4608 Clouds -10 1016 85 10000 5.7 40 07:19 11.11.2019
4609 Clouds -10 1016 85 10000 5.7 40 06:56 11.11.2019
4610 Clouds -10 1015 85 10000 6.7 40 06:37 11.11.2019
4611 Clouds -11 1016 92 10000 6.7 50 06:19 11.11.2019
4612 Clouds -11 1016 85 10000 6.7 40 05:48 11.11.2019
4613 Clouds -11 1016 85 10000 6.7 30 03:27 11.11.2019
4614 Clouds -11 1016 85 10000 7.2 50 02:33 11.11.2019
4615 Clouds -11 1016 85 10000 8.2 50 01:58 11.11.2019
4616 Clouds -11 1016 85 10000 7.2 40 01:36 11.11.2019
4617 Clouds -13 1016 84 10000 6.2 30 00:55 11.11.2019
4618 Clouds -13 1016 92 10000 7.2 30 00:33 11.11.2019
4619 Clouds -13 1016 84 10000 6.7 40 23:58 10.11.2019
4620 Clouds -14 1016 84 10000 6.2 30 23:37 10.11.2019
4621 Clouds -14 1016 84 10000 6.2 40 23:19 10.11.2019
4622 Clouds -14 1016 84 10000 6.2 40 22:55 10.11.2019
4623 Clouds -14 1016 84 10000 6.2 40 22:55 10.11.2019
4624 Clouds -14 1016 84 10000 6.2 40 22:37 10.11.2019
4625 Clouds -14 1016 84 10000 7.2 30 22:18 10.11.2019
4626 Clouds -14 1016 84 10000 7.2 30 21:55 10.11.2019
4627 Clouds -14 1016 84 10000 6.2 30 21:36 10.11.2019
4628 Clouds -14 1016 84 10000 6.2 30 21:36 10.11.2019
4629 Clouds -14 1016 84 10000 6.7 30 21:18 10.11.2019
4630 Clouds -14 1016 84 10000 7.2 30 20:40 10.11.2019
4631 Clouds -14 1016 84 10000 6.7 30 20:22 10.11.2019
4632 Clouds -14 1016 84 10000 6.7 30 19:56 10.11.2019
4633 Clouds -14 1017 84 10000 5.7 20 19:37 10.11.2019
4634 Clouds -14 1017 84 10000 6.2 20 19:18 10.11.2019
4635 Clouds -14 1017 84 10000 6.2 20 18:56 10.11.2019
4636 Clouds -14 1017 92 10000 5.7 20 18:38 10.11.2019
4637 Clouds -14 1017 84 10000 5.1 20 18:19 10.11.2019
4638 Clouds -14 1017 84 10000 5.1 20 17:56 10.11.2019
4639 Clouds -13 1017 84 10000 5.1 20 17:37 10.11.2019
4640 Clouds -13 1017 84 10000 6.7 30 17:19 10.11.2019
4641 Clouds -13 1017 84 10000 6.7 30 16:57 10.11.2019
4642 Snow -13 1017 84 10000 7.7 30 16:37 10.11.2019
4643 Snow -13 1017 84 10000 7.7 30 16:37 10.11.2019
4644 Clouds -13 1017 84 10000 6.2 20 16:19 10.11.2019
4645 Clouds -13 1017 84 10000 6.2 20 15:54 10.11.2019
4646 Clouds -13 1017 92 10000 6.7 30 15:36 10.11.2019
4647 Clouds -12 1017 85 10000 6.2 30 15:18 10.11.2019
4648 Clouds -12 1017 85 10000 5.7 30 14:40 10.11.2019
4649 Clouds -12 1017 85 10000 6.7 30 14:22 10.11.2019
4650 Clouds -12 1017 85 10000 6.7 30 13:56 10.11.2019
4651 Clouds -12 1017 92 10000 6.7 20 13:38 10.11.2019
4652 Clouds -12 1018 85 10000 5.1 10 13:19 10.11.2019
4653 Clouds -12 1018 92 10000 5.1 20 12:42 10.11.2019
4654 Clouds -12 1018 92 10000 6.2 30 12:20 10.11.2019
4655 Clouds -12 1018 92 10000 6.2 30 12:20 10.11.2019
4656 Clouds -12 1018 85 10000 6.2 20 11:57 10.11.2019
4657 Clouds -12 1018 85 10000 6.2 20 11:38 10.11.2019
4658 Clouds -12 1018 85 10000 6.7 20 11:20 10.11.2019
4659 Clouds -12 1018 85 10000 6.7 20 10:55 10.11.2019
4660 Clouds -12 1018 85 10000 6.7 20 10:55 10.11.2019
4661 Clouds -13 1018 84 10000 6.7 20 10:37 10.11.2019
4662 Snow -13 1018 84 10000 6.7 30 10:18 10.11.2019
4663 Snow -13 1018 84 10000 6.2 30 09:41 10.11.2019
4664 Snow -14 1018 92 10000 5.7 20 09:22 10.11.2019
4665 Snow -13 1018 84 10000 5.7 20 08:40 10.11.2019
4666 Snow -14 1018 92 7000 6.2 20 08:21 10.11.2019
4667 Snow -14 1018 92 7000 6.2 20 07:56 10.11.2019
4668 Snow -14 1018 92 10000 6.2 20 07:37 10.11.2019
4669 Snow -14 1018 84 10000 5.1 10 07:18 10.11.2019
4670 Snow -14 1018 84 10000 5.7 10 06:22 10.11.2019
4671 Snow -14 1018 84 10000 4.6 360 04:45 10.11.2019
4672 Snow -14 1018 84 10000 5.7 10 02:51 10.11.2019
4673 Snow -14 1018 92 10000 6.2 10 01:41 10.11.2019
4674 Snow -14 1019 92 10000 5.7 10 01:18 10.11.2019
4675 Clouds -14 1019 92 10000 5.1 10 00:37 10.11.2019
4676 Clouds -13 1019 84 10000 5.1 20 23:42 09.11.2019
4677 Snow -13 1019 84 10000 6.2 20 23:20 09.11.2019
4678 Snow -13 1019 84 10000 6.7 30 22:54 09.11.2019
4679 Snow -13 1019 84 10000 6.7 30 22:36 09.11.2019
4680 Snow -13 1019 84 10000 6.2 20 22:18 09.11.2019
4681 Snow -13 1019 84 10000 6.2 20 21:54 09.11.2019
4682 Snow -13 1019 84 10000 6.2 20 21:36 09.11.2019
4683 Clouds -14 1020 84 10000 5.1 20 21:18 09.11.2019
4684 Clouds -14 1020 92 10000 4.6 10 20:41 09.11.2019
4685 Clouds -14 1020 92 10000 4.6 10 20:41 09.11.2019
4686 Snow -13 1020 84 10000 6.2 20 20:21 09.11.2019
4687 Snow -13 1020 84 10000 6.2 20 19:55 09.11.2019
4688 Snow -13 1020 92 10000 5.7 30 19:36 09.11.2019
4689 Snow -13 1020 84 10000 6.2 30 19:18 09.11.2019
4690 Snow -13 1020 84 10000 6.2 30 18:39 09.11.2019
4691 Snow -13 1020 84 10000 5.1 30 18:19 09.11.2019
4692 Snow -13 1020 84 10000 5.1 30 17:56 09.11.2019
4693 Clouds -13 1020 84 10000 4.1 30 17:37 09.11.2019
4694 Clouds -13 1020 84 10000 4.6 40 17:18 09.11.2019
4695 Snow -13 1020 84 10000 5.1 30 16:42 09.11.2019
4696 Clouds -13 1020 84 10000 4.6 40 16:21 09.11.2019
4697 Clouds -13 1020 84 10000 4.6 40 15:54 09.11.2019
4698 Clouds -13 1020 84 10000 5.1 40 15:36 09.11.2019
4699 Clouds -13 1020 84 10000 4.6 30 15:18 09.11.2019
4700 Clouds -13 1020 84 10000 5.1 40 14:41 09.11.2019
4701 Clouds -13 1020 84 10000 5.7 50 14:20 09.11.2019
4702 Clouds -13 1020 84 10000 5.7 50 13:57 09.11.2019
4703 Clouds -14 1020 84 10000 6.7 40 13:36 09.11.2019
4704 Snow -14 1020 84 10000 6.7 40 13:18 09.11.2019
4705 Clouds -14 1021 84 10000 6.7 40 12:44 09.11.2019
4706 Clouds -14 1021 84 10000 6.7 40 12:25 09.11.2019
4707 Snow -14 1021 84 10000 8.2 40 11:56 09.11.2019
4708 Clouds -16 1021 84 10000 5.7 40 11:38 09.11.2019
4709 Clouds -15 1021 84 10000 3.6 30 11:18 09.11.2019
4710 Snow -15 1021 84 10000 4.1 30 10:41 09.11.2019
4711 Clouds -15 1021 84 10000 5.7 30 10:19 09.11.2019
4712 Clouds -16 1021 84 10000 5.1 40 09:57 09.11.2019
4713 Clouds -16 1021 84 10000 5.1 40 09:38 09.11.2019
4714 Clouds -16 1021 84 10000 4.6 50 09:18 09.11.2019
4715 Clouds -16 1021 84 10000 3.1 50 08:43 09.11.2019
4716 Snow -16 1021 84 10000 3.6 60 08:24 09.11.2019
4717 Snow -16 1021 84 10000 3.6 60 07:47 09.11.2019
4718 Snow -16 1021 84 10000 2.6 60 07:24 09.11.2019
4719 Snow -16 1021 84 10000 2.6 60 06:51 09.11.2019
4720 Snow -16 1021 84 10000 2.6 60 06:32 09.11.2019
4721 Snow -16 1021 84 6000 3.1 60 05:53 09.11.2019
4722 Snow -16 1021 84 6000 3.1 60 05:34 09.11.2019
4723 Snow -15 1021 84 10000 4.1 80 03:57 09.11.2019
4724 Snow -17 1021 84 7000 2.6 30 02:45 09.11.2019
4725 Snow -17 1021 84 7000 3.1 30 01:57 09.11.2019
4726 Snow -16 1021 84 6000 2.1 50 00:56 09.11.2019
4727 Snow -17 1021 84 10000 1.5 60 00:36 09.11.2019
4728 Snow -16 1021 84 10000 2.1 90 23:58 08.11.2019
4729 Snow -17 1021 84 10000 3.1 40 23:40 08.11.2019
4730 Snow -16 1021 84 10000 2.1 70 23:20 08.11.2019
4731 Snow -18 1021 84 10000 2.1 60 22:48 08.11.2019
4732 Clouds -17 1020 84 10000 1 0 22:22 08.11.2019
4733 Clouds -17 1020 84 10000 1 0 21:57 08.11.2019
4734 Clouds -17 1020 84 10000 3.1 50 21:39 08.11.2019
4735 Clouds -17 1020 84 10000 1.5 50 21:19 08.11.2019
4736 Snow -17 1020 84 10000 1 310 20:43 08.11.2019
4737 Snow -17 1020 84 10000 2.1 220 20:22 08.11.2019
4738 Snow -17 1020 84 10000 2.1 220 20:22 08.11.2019
4739 Snow -17 1020 84 10000 2.1 220 19:59 08.11.2019
4740 Clouds -16 1020 84 10000 3.1 30 19:39 08.11.2019
4741 Snow -15 1019 84 10000 3.1 40 19:18 08.11.2019
4742 Snow -16 1019 84 10000 2.1 40 18:56 08.11.2019
4743 Snow -16 1019 84 10000 2.1 40 18:56 08.11.2019
4744 Snow -16 1019 84 10000 2.1 40 18:38 08.11.2019
4745 Snow -16 1019 84 10000 2.1 40 18:38 08.11.2019
4746 Snow -16 1019 84 6000 3.1 40 18:19 08.11.2019
4747 Snow -16 1019 84 7000 2.1 40 17:55 08.11.2019
4748 Snow -16 1019 84 7000 2.1 40 17:37 08.11.2019
4749 Snow -16 1019 84 10000 2.6 30 17:19 08.11.2019
4750 Snow -16 1019 84 10000 2.6 30 16:58 08.11.2019
4751 Snow -18 1019 84 10000 0.5 0 16:39 08.11.2019
4752 Snow -17 1019 77 10000 1 230 16:19 08.11.2019
4753 Snow -17 1019 77 10000 1 230 16:19 08.11.2019
4754 Snow -17 1019 77 10000 1 230 15:57 08.11.2019
4755 Clouds -17 1019 84 10000 1 20 15:38 08.11.2019
4756 Clouds -17 1019 84 10000 1 20 15:38 08.11.2019
4757 Snow -16 1019 84 4100 1.5 300 15:20 08.11.2019
4758 Snow -16 1019 84 4100 1.5 300 14:55 08.11.2019
4759 Clouds -16 1019 84 10000 1.5 0 14:36 08.11.2019
4760 Clouds -14 1018 84 10000 2.1 60 14:18 08.11.2019
4761 Clouds -15 1018 92 10000 1.5 30 13:43 08.11.2019
4762 Clouds -14 1018 84 10000 2.6 50 13:23 08.11.2019
4763 Clouds -14 1018 84 10000 2.6 50 12:59 08.11.2019
4764 Clouds -15 1018 84 10000 2.1 30 12:41 08.11.2019
4765 Snow -15 1018 84 10000 2.1 40 12:23 08.11.2019
4766 Snow -14 1018 84 10000 0.5 100 11:55 08.11.2019
4767 Snow -14 1018 84 10000 0.5 100 11:37 08.11.2019
4768 Clouds -15 1018 92 10000 1.5 50 11:19 08.11.2019
4769 Clouds -14 1018 77 10000 1.5 60 10:43 08.11.2019
4770 Clouds -14 1018 84 10000 2.6 40 10:22 08.11.2019
4771 Clouds -14 1018 84 10000 2.6 40 09:59 08.11.2019
4772 Clouds -15 1018 92 10000 2.6 30 09:40 08.11.2019
4773 Clouds -16 1017 84 10000 2.6 20 09:20 08.11.2019
4774 Fog -16 1017 84 10000 1.5 350 08:46 08.11.2019
4775 Clouds -16 1017 84 10000 2.1 10 08:25 08.11.2019
4776 Clouds -16 1017 84 10000 2.1 10 07:57 08.11.2019
4777 Clouds -16 1017 84 10000 1.5 20 07:38 08.11.2019
4778 Clouds -16 1017 91 10000 1 10 07:19 08.11.2019
4779 Clouds -15 1017 84 10000 3.1 20 06:38 08.11.2019
4780 Clouds -15 1016 84 10000 3.1 20 06:20 08.11.2019
4781 Clouds -14 1016 84 10000 2.6 20 05:38 08.11.2019
4782 Clouds -14 1016 84 10000 3.1 30 04:30 08.11.2019
4783 Clouds -14 1016 92 10000 2.6 40 03:43 08.11.2019
4784 Snow -13 1016 84 10000 2.1 40 03:19 08.11.2019
4785 Snow -13 1016 92 10000 2.6 30 02:24 08.11.2019
4786 Snow -13 1016 92 10000 3.6 30 01:43 08.11.2019
4787 Clouds -13 1016 84 10000 2.6 30 00:59 08.11.2019
4788 Snow -12 1016 85 10000 2.6 50 00:24 08.11.2019
4789 Snow -11 1016 85 7000 2.6 60 23:55 07.11.2019
4790 Snow -11 1016 85 7000 2.6 60 23:55 07.11.2019
4791 Snow -11 1016 85 7000 2.6 60 23:33 07.11.2019
4792 Snow -11 1016 85 10000 3.1 60 22:59 07.11.2019
4793 Snow -11 1016 85 10000 3.1 60 22:41 07.11.2019
4794 Snow -11 1016 85 10000 3.1 70 22:21 07.11.2019
4795 Snow -11 1016 85 10000 3.1 70 21:55 07.11.2019
4796 Snow -11 1016 85 10000 3.1 60 21:37 07.11.2019
4797 Snow -11 1016 85 10000 3.1 70 21:18 07.11.2019
4798 Snow -11 1016 85 10000 3.1 70 21:18 07.11.2019
4799 Clouds -11 1016 85 10000 3.1 60 20:55 07.11.2019
4800 Clouds -11 1016 85 10000 3.1 60 20:36 07.11.2019
4801 Clouds -11 1015 85 10000 2.1 60 20:18 07.11.2019
4802 Clouds -11 1015 85 10000 3.1 50 19:40 07.11.2019
4803 Snow -11 1015 85 10000 2.6 60 19:21 07.11.2019
4804 Snow -11 1015 85 10000 2.6 60 18:58 07.11.2019
4805 Clouds -11 1015 85 10000 2.6 60 18:39 07.11.2019
4806 Clouds -11 1015 85 10000 2.6 60 18:39 07.11.2019
4807 Clouds -11 1015 85 10000 2.6 60 18:39 07.11.2019
4808 Clouds -11 1015 85 10000 2.6 90 18:19 07.11.2019
4809 Clouds -11 1015 85 10000 3.1 80 17:57 07.11.2019
4810 Clouds -11 1015 85 10000 3.1 80 17:38 07.11.2019
4811 Clouds -11 1015 85 10000 3.1 80 17:20 07.11.2019
4812 Snow -11 1015 85 10000 3.1 70 16:55 07.11.2019
4813 Snow -11 1015 85 10000 3.1 70 16:55 07.11.2019
4814 Snow -11 1015 85 5000 2.6 70 16:37 07.11.2019
4815 Snow -11 1015 85 5000 2.6 70 16:19 07.11.2019
4816 Snow -12 1015 92 10000 2.6 60 15:42 07.11.2019
4817 Snow -12 1015 92 10000 2.6 60 15:21 07.11.2019
4818 Snow -12 1014 85 8000 2.1 60 14:58 07.11.2019
4819 Snow -12 1014 85 6000 2.1 70 14:38 07.11.2019
4820 Snow -12 1014 85 6000 2.1 70 14:20 07.11.2019
4821 Snow -12 1014 92 8000 1 80 13:55 07.11.2019
4822 Snow -12 1014 92 5000 1.5 100 13:37 07.11.2019
4823 Snow -12 1014 92 5000 1.5 100 13:37 07.11.2019
4824 Snow -12 1014 92 5000 1.5 100 13:19 07.11.2019
4825 Snow -12 1014 85 2000 1.5 110 12:56 07.11.2019
4826 Snow -12 1014 85 1800 0.5 0 12:38 07.11.2019
4827 Snow -12 1014 85 1800 0.5 0 12:18 07.11.2019
4828 Snow -13 1014 92 2000 1.5 120 11:42 07.11.2019
4829 Snow -13 1014 84 9000 2.1 100 11:23 07.11.2019
4830 Snow -13 1014 84 9000 2.1 100 11:23 07.11.2019
4831 Fog -12 1014 85 10000 2.1 140 10:43 07.11.2019
4832 Fog -12 1014 85 10000 2.1 140 10:19 07.11.2019
4833 Fog -12 1014 85 10000 2.1 140 10:19 07.11.2019
4834 Clouds -12 1013 85 10000 2.1 90 09:56 07.11.2019
4835 Clouds -12 1013 85 10000 1 0 09:38 07.11.2019
4836 Clouds -12 1013 85 10000 1 0 09:20 07.11.2019
4837 Clouds -12 1013 85 10000 1 0 09:20 07.11.2019
4838 Clouds -12 1013 85 10000 1.5 80 08:45 07.11.2019
4839 Clouds -12 1012 85 10000 1.5 80 08:24 07.11.2019
4840 Clouds -12 1012 85 10000 1.5 80 08:23 07.11.2019
4841 Clouds -12 1012 85 10000 1.5 80 08:23 07.11.2019
4842 Clouds -12 1012 85 10000 1.5 70 07:57 07.11.2019
4843 Clouds -13 1012 92 10000 2.1 70 07:39 07.11.2019
4844 Clouds -13 1012 92 10000 2.1 70 07:20 07.11.2019
4845 Mist -13 1012 92 2000 1.5 70 06:46 07.11.2019
4846 Clouds -12 1012 85 10000 2.1 70 06:25 07.11.2019
4847 Clouds -12 1011 85 10000 2.1 60 05:51 07.11.2019
4848 Clouds -12 1011 92 10000 2.1 70 05:32 07.11.2019
4849 -273 0 0 0 0 0 04:52 07.11.2019
4850 Clouds -11 1011 85 10000 4.1 50 04:52 07.11.2019
4851 Clouds -12 1011 92 2300 3.6 60 04:31 07.11.2019
4852 Clouds -11 1011 85 10000 2.1 80 01:50 07.11.2019
4853 Clouds -11 1011 85 10000 2.1 80 01:49 07.11.2019
4854 Clouds -11 1011 85 10000 3.6 40 00:46 07.11.2019
4855 Clouds -11 1011 92 10000 3.1 40 00:19 07.11.2019
4856 Clouds -11 1011 85 10000 3.1 40 23:45 06.11.2019
4857 Snow -11 1011 85 10000 4.1 50 23:21 06.11.2019
4858 Clouds -12 1011 92 10000 2.6 50 22:41 06.11.2019
4859 Clouds -12 1011 92 10000 2.6 50 22:22 06.11.2019
4860 Clouds -12 1011 85 10000 2.6 50 21:59 06.11.2019
4861 Clouds -12 1011 85 10000 2.6 50 21:41 06.11.2019
4862 Clouds -11 1010 85 10000 2.6 60 21:20 06.11.2019
4863 Clouds -12 1010 92 10000 2.1 60 20:58 06.11.2019
4864 Clouds -12 1010 92 10000 2.1 60 20:39 06.11.2019
4865 Clouds -12 1010 92 10000 2.1 60 20:20 06.11.2019
4866 Clouds -12 1010 92 10000 3.1 50 19:58 06.11.2019
4867 Mist -13 1010 92 3700 2.6 50 19:38 06.11.2019
4868 Mist -13 1010 92 3700 2.6 50 19:19 06.11.2019
4869 Mist -13 1010 92 3700 2.6 50 18:56 06.11.2019
4870 Clouds -14 1010 84 10000 2.6 70 18:38 06.11.2019
4871 Clouds -13 1010 78 10000 1.5 80 18:18 06.11.2019
4872 Clouds -12 1010 92 10000 2.1 60 17:42 06.11.2019
4873 Clouds -11 1010 85 10000 1 20 17:24 06.11.2019
4874 Clear -11 1010 85 10000 1 20 16:58 06.11.2019
4875 Clear -11 1010 92 10000 1.5 10 16:39 06.11.2019
4876 Clear -13 1010 84 10000 2.1 10 16:21 06.11.2019
4877 Clear -13 1010 84 10000 2.1 10 15:59 06.11.2019
4878 Clear -13 1010 84 10000 1 0 15:38 06.11.2019
4879 Clear -13 1009 92 10000 1.5 360 15:19 06.11.2019
4880 Clear -13 1009 92 10000 1.5 360 14:59 06.11.2019
4881 Clear -12 1009 92 10000 0.5 0 14:41 06.11.2019
4882 Clear -11 1009 92 10000 1 0 14:22 06.11.2019
4883 Clear -11 1009 92 10000 1 0 13:59 06.11.2019
4884 Clear -10 1009 92 10000 0.5 0 13:38 06.11.2019
4885 Clear -10 1009 92 10000 1 0 13:19 06.11.2019
4886 Clouds -10 1009 92 10000 1 0 12:55 06.11.2019
4887 Clouds -10 1009 92 10000 1 0 12:37 06.11.2019
4888 Clouds -10 1009 92 10000 0.5 0 12:18 06.11.2019
4889 Clouds -10 1009 92 10000 0.5 0 11:56 06.11.2019
4890 Clouds -10 1009 92 10000 0.5 0 11:36 06.11.2019
4891 Clouds -11 1009 92 10000 1.5 20 11:18 06.11.2019
4892 Clouds -10 1009 85 10000 1 0 10:55 06.11.2019
4893 Clouds -10 1009 85 10000 1 0 10:55 06.11.2019
4894 Clouds -10 1009 85 10000 1 0 10:37 06.11.2019
4895 Clouds -11 1009 92 10000 1 0 10:18 06.11.2019
4896 Clouds -11 1009 92 10000 1.5 340 09:41 06.11.2019
4897 Clouds -12 1009 92 10000 1.5 340 09:21 06.11.2019
4898 Clouds -12 1009 92 10000 1.5 340 08:56 06.11.2019
4899 Fog -12 1008 92 3000 1.5 330 08:37 06.11.2019
4900 Fog -13 1008 92 5000 1.5 340 08:18 06.11.2019
4901 Fog -13 1008 92 6000 1 0 07:45 06.11.2019
4902 Fog -13 1008 92 6000 1 0 07:27 06.11.2019
4903 Fog -11 1008 85 700 2.6 350 06:52 06.11.2019
4904 Fog -11 1008 85 700 2.6 350 06:34 06.11.2019
4905 Fog -11 1008 85 1200 1.5 20 05:50 06.11.2019
4906 Fog -12 1008 92 1200 2.1 0 03:38 06.11.2019
4907 Snow -13 1007 84 2600 2.1 340 01:42 06.11.2019
4908 Fog -13 1007 92 1500 2.1 330 00:47 06.11.2019
4909 Clouds -13 1007 92 2600 2.6 340 00:25 06.11.2019
4910 Clouds -13 1007 92 2400 2.6 330 23:41 05.11.2019
4911 Clouds -13 1007 84 2600 1 300 23:22 05.11.2019
4912 Clouds -13 1007 84 2600 1 300 22:58 05.11.2019
4913 Clouds -14 1007 92 10000 1 0 22:40 05.11.2019
4914 Clouds -14 1007 92 10000 1 0 22:18 05.11.2019
4915 Clouds -14 1007 92 10000 1 230 21:43 05.11.2019
4916 Clouds -15 1007 84 10000 0.5 0 21:22 05.11.2019
4917 Clouds -15 1007 84 10000 0.5 0 20:59 05.11.2019
4918 Clouds -15 1007 84 10000 0.5 0 20:59 05.11.2019
4919 Clouds -15 1007 84 10000 1 0 20:39 05.11.2019
4920 Clouds -15 1006 84 10000 1.5 260 20:21 05.11.2019
4921 Clouds -15 1006 84 10000 1.5 260 19:59 05.11.2019
4922 Clear -15 1006 84 10000 1.5 230 19:40 05.11.2019
4923 Clear -15 1006 92 10000 0.5 230 19:22 05.11.2019
4924 Clear -15 1006 92 10000 0.5 230 18:58 05.11.2019
4925 Clear -15 1006 92 10000 1 220 18:39 05.11.2019
4926 Clear -16 1006 91 10000 2.1 0 18:20 05.11.2019
4927 Clear -15 1006 84 10000 1.5 240 17:58 05.11.2019
4928 Clear -15 1006 84 10000 1.5 240 17:39 05.11.2019
4929 Clear -14 1006 84 10000 2.1 230 17:19 05.11.2019
4930 Clear -14 1006 84 10000 2.1 230 17:19 05.11.2019
4931 Clear -14 1006 84 10000 2.1 230 16:56 05.11.2019
4932 Clear -14 1006 92 10000 1.5 230 16:38 05.11.2019
4933 Clear -14 1006 84 10000 1.5 250 16:19 05.11.2019
4934 Snow -15 1006 92 10000 2.6 240 15:38 05.11.2019
4935 Clear -14 1006 92 10000 2.1 250 15:19 05.11.2019
4936 Clear -15 1006 92 10000 1.5 250 14:58 05.11.2019
4937 Clear -15 1006 92 10000 1.5 250 14:39 05.11.2019
4938 Fog -13 1006 92 10000 1.5 250 14:21 05.11.2019
4939 Fog -13 1006 92 10000 1.5 250 14:21 05.11.2019
4940 Fog -13 1006 92 2000 2.1 220 13:44 05.11.2019
4941 Fog -13 1006 92 2000 2.1 220 13:25 05.11.2019
4942 Fog -13 1006 84 800 2.1 230 13:00 05.11.2019
4943 Fog -13 1006 92 10000 2.1 240 12:39 05.11.2019
4944 Fog -13 1006 92 10000 2.1 220 12:20 05.11.2019
4945 Fog -13 1006 92 10000 2.1 220 12:20 05.11.2019
4946 Fog -12 1006 92 10000 2.1 220 11:55 05.11.2019
4947 Fog -12 1006 92 10000 2.1 220 11:37 05.11.2019
4948 Fog -10 1006 92 10000 1 0 11:19 05.11.2019
4949 Fog -10 1006 92 10000 0.5 0 10:42 05.11.2019
4950 Fog -12 1005 92 10000 0.5 0 10:24 05.11.2019
4951 Fog -12 1005 92 10000 0.5 0 10:24 05.11.2019
4952 Fog -13 1005 84 1200 1 0 09:58 05.11.2019
4953 Fog -13 1005 84 1200 1 0 09:39 05.11.2019
4954 Fog -12 1005 85 1800 2.1 310 09:19 05.11.2019
4955 Fog -12 1005 92 200 2.6 280 08:55 05.11.2019
4956 Fog -12 1005 92 200 2.6 280 08:36 05.11.2019
4957 Fog -12 1004 92 300 2.1 230 08:18 05.11.2019
4958 Fog -11 1004 85 1000 1.5 210 07:42 05.11.2019
4959 Fog -11 1004 92 500 0.5 0 07:23 05.11.2019
4960 Fog -10 1004 85 500 0.5 0 06:51 05.11.2019
4961 Fog -10 1004 92 500 1 0 05:52 05.11.2019
4962 Fog -10 1004 92 500 1 0 05:34 05.11.2019
4963 Fog -9 1004 92 900 2.6 250 04:47 05.11.2019
4964 Fog -9 1003 92 650 3.1 250 04:18 05.11.2019
4965 Fog -8 1003 92 650 3.6 220 03:23 05.11.2019
4966 Fog -8 1003 92 650 3.1 250 02:41 05.11.2019
4967 Fog -8 1003 92 550 3.1 230 01:27 05.11.2019
4968 Fog -8 1003 92 1000 4.1 220 00:39 05.11.2019
4969 Snow -8 1003 92 10000 2.6 230 23:59 04.11.2019
4970 Clouds -9 1003 92 10000 2.1 210 23:40 04.11.2019
4971 Clouds -9 1003 85 10000 3.6 210 23:18 04.11.2019
4972 Snow -9 1003 92 10000 1.5 200 22:43 04.11.2019
4973 Snow -9 1003 92 10000 2.1 230 22:24 04.11.2019
4974 Snow -9 1003 92 10000 2.1 230 21:57 04.11.2019
4975 Snow -9 1003 92 10000 2.6 230 21:38 04.11.2019
4976 Snow -10 1003 92 10000 1.5 230 21:20 04.11.2019
4977 Snow -10 1003 92 10000 1.5 230 20:59 04.11.2019
4978 Snow -10 1003 85 2700 2.1 220 20:40 04.11.2019
4979 Fog -10 1003 92 2100 3.1 220 20:21 04.11.2019
4980 Fog -10 1003 92 2100 3.1 220 19:59 04.11.2019
4981 Fog -10 1003 85 700 3.6 220 19:41 04.11.2019
4982 Fog -11 1003 92 450 4.6 230 19:22 04.11.2019
4983 Clouds -11 1003 92 700 3.6 220 18:58 04.11.2019
4984 Clouds -11 1003 92 700 3.6 220 18:39 04.11.2019
4985 Clouds -11 1004 85 3800 3.1 210 18:20 04.11.2019
4986 Clouds -11 1004 85 900 4.1 230 17:56 04.11.2019
4987 Clouds -11 1004 85 900 4.1 230 17:36 04.11.2019
4988 Snow -12 1004 92 6000 3.6 210 17:18 04.11.2019
4989 Clear -13 1004 92 10000 3.1 200 16:41 04.11.2019
4990 Clear -13 1004 92 10000 3.1 220 16:23 04.11.2019
4991 Clear -12 1004 85 10000 2.6 210 15:57 04.11.2019
4992 Clear -12 1004 85 10000 2.6 210 15:39 04.11.2019
4993 Snow -14 1004 92 10000 1.5 220 15:21 04.11.2019
4994 Clear -13 1004 84 10000 2.6 220 14:57 04.11.2019
4995 Clear -13 1004 84 10000 2.6 220 14:39 04.11.2019
4996 Clear -13 1004 92 10000 2.1 230 14:19 04.11.2019
4997 Clear -13 1004 92 10000 2.1 230 13:56 04.11.2019
4998 Clear -13 1004 84 10000 2.6 220 13:38 04.11.2019
4999 Clear -13 1004 84 10000 2.6 230 13:19 04.11.2019
5000 Clear -13 1004 84 10000 2.1 230 12:44 04.11.2019
5001 Clear -13 1004 84 10000 3.1 240 12:25 04.11.2019
5002 Clear -13 1004 84 10000 3.1 240 11:58 04.11.2019
5003 Clear -13 1004 84 10000 3.1 240 11:58 04.11.2019
5004 Clear -14 1004 92 10000 3.1 250 11:40 04.11.2019
5005 Clear -14 1004 100 10000 2.6 240 11:21 04.11.2019
5006 Clear -14 1004 92 10000 2.6 250 10:45 04.11.2019
5007 Clear -14 1004 92 10000 2.6 250 10:26 04.11.2019
5008 Fog -15 1003 84 10000 3.1 220 09:56 04.11.2019
5009 Fog -15 1003 84 10000 3.1 220 09:38 04.11.2019
5010 Clear -13 1003 84 10000 0.5 180 09:19 04.11.2019
5011 Clear -15 1003 84 10000 2.1 270 08:42 04.11.2019
5012 Fog -15 1003 84 10000 1 0 08:21 04.11.2019
5013 Clear -16 1002 84 10000 2.1 270 07:45 04.11.2019
5014 Fog -17 1002 84 10000 2.6 260 07:25 04.11.2019
5015 Fog -17 1002 84 10000 2.6 260 06:59 04.11.2019
5016 Clear -13 1002 84 10000 3.6 320 06:38 04.11.2019
5017 Clear -16 1002 84 10000 3.6 310 05:59 04.11.2019
5018 Clear -15 1001 84 10000 3.1 270 05:23 04.11.2019
5019 Clear -15 1001 92 10000 3.1 270 04:25 04.11.2019
5020 Clear -15 1000 92 10000 4.6 320 03:23 04.11.2019
5021 Clear -14 999 84 10000 5.7 320 01:23 04.11.2019
5022 Clear -14 998 84 10000 6.2 330 00:52 04.11.2019
5023 Clear -14 998 84 10000 6.7 340 00:21 04.11.2019
5024 Clear -15 997 92 10000 6.7 330 23:58 03.11.2019
5025 Clear -15 997 92 10000 6.7 330 23:36 03.11.2019
5026 Clear -15 997 84 10000 6.2 330 23:18 03.11.2019
5027 Clear -15 997 84 10000 6.7 340 22:55 03.11.2019
5028 Clear -15 997 84 10000 6.7 340 22:37 03.11.2019
5029 Clear -15 996 84 10000 6.2 330 22:18 03.11.2019
5030 Clear -15 996 84 10000 6.2 330 22:18 03.11.2019
5031 Clear -15 996 84 10000 5.7 330 21:42 03.11.2019
5032 Clear -15 995 92 10000 6.7 340 21:21 03.11.2019
5033 Clear -15 995 92 10000 6.7 340 20:57 03.11.2019
5034 Clear -14 995 84 10000 7.7 340 20:37 03.11.2019
5035 Snow -13 994 84 10000 6.2 330 20:19 03.11.2019
5036 Snow -13 994 84 10000 6.2 330 19:57 03.11.2019
5037 Clear -13 994 84 10000 5.7 340 19:38 03.11.2019
5038 Clear -13 994 92 10000 3.6 330 19:20 03.11.2019
5039 Snow -12 993 85 10000 4.1 350 18:39 03.11.2019
5040 Clear -12 993 92 10000 5.7 340 18:19 03.11.2019
5041 Clear -12 993 92 10000 5.7 340 17:59 03.11.2019
5042 Clear -11 993 85 10000 5.1 340 17:41 03.11.2019
5043 Clear -11 993 85 10000 5.1 340 17:41 03.11.2019
5044 Clear -11 992 85 10000 3.1 320 17:20 03.11.2019
5045 Clear -12 992 92 10000 2.6 300 16:56 03.11.2019
5046 Clear -12 992 92 10000 2.6 300 16:38 03.11.2019
5047 Clear -11 992 92 10000 2.6 320 16:20 03.11.2019
5048 Clear -11 992 92 10000 2.6 320 15:57 03.11.2019
5049 Clear -11 991 92 10000 3.1 300 15:39 03.11.2019
5050 Clear -10 991 92 10000 1 0 15:20 03.11.2019
5051 Clear -9 991 85 10000 3.6 320 14:42 03.11.2019
5052 Clouds -9 991 92 10000 3.6 310 14:19 03.11.2019
5053 Clouds -9 991 92 10000 3.6 310 14:19 03.11.2019
5054 Clouds -9 991 92 10000 3.6 310 13:56 03.11.2019
5055 Clouds -9 991 92 10000 3.6 310 13:38 03.11.2019
5056 Clouds -8 990 92 10000 2.1 290 13:18 03.11.2019
5057 Clouds -8 990 92 10000 1.5 290 12:38 03.11.2019
5058 Snow -8 990 92 3400 4.1 320 12:20 03.11.2019
5059 Snow -8 990 92 3400 4.1 320 12:20 03.11.2019
5060 Snow -8 990 92 3400 4.1 320 11:57 03.11.2019
5061 Clouds -8 990 92 10000 4.6 320 11:39 03.11.2019
5062 Clouds -8 989 92 5000 4.1 330 11:20 03.11.2019
5063 Mist -8 989 92 1900 4.6 330 10:42 03.11.2019
5064 Clouds -8 989 100 10000 4.6 340 10:22 03.11.2019
5065 Clouds -8 989 100 10000 4.6 340 09:58 03.11.2019
5066 Clouds -7 989 92 10000 5.1 330 09:40 03.11.2019
5067 Clouds -7 989 100 10000 4.6 340 09:22 03.11.2019
5068 Snow -6 989 92 10000 4.1 330 08:48 03.11.2019
5069 Clouds -5 989 92 10000 5.1 330 08:25 03.11.2019
5070 Snow -4 989 92 10000 4.1 330 07:47 03.11.2019
5071 Snow -4 989 92 10000 4.1 330 07:29 03.11.2019
5072 Snow -4 988 100 4000 4.1 330 06:54 03.11.2019
5073 Snow -4 988 100 4000 4.1 330 06:35 03.11.2019
5074 Snow -3 988 100 5000 3.6 330 05:40 03.11.2019
5075 Snow -3 988 100 4500 2.6 350 05:18 03.11.2019
5076 Snow -3 988 100 9000 3.6 340 04:45 03.11.2019
5077 Snow -2 988 92 8000 2.1 340 03:39 03.11.2019
5078 Snow -2 988 92 3000 2.1 60 02:45 03.11.2019
5079 Snow -2 989 100 1600 1.5 20 02:21 03.11.2019
5080 Snow -2 989 92 2200 1.5 50 01:43 03.11.2019
5081 Snow -2 989 100 3200 1.5 60 01:21 03.11.2019
5082 Snow -2 989 100 2900 1.5 70 00:46 03.11.2019
5083 Snow -2 989 100 2900 1.5 70 00:27 03.11.2019
5084 Snow -2 989 100 6000 2.6 130 23:58 02.11.2019
5085 Snow -2 989 100 6000 2.6 130 23:38 02.11.2019
5086 Snow -2 990 100 5000 2.6 120 23:19 02.11.2019
5087 Snow -2 990 100 5000 2.6 120 23:19 02.11.2019
5088 Snow -2 990 100 5000 3.1 140 22:56 02.11.2019
5089 Snow -2 990 100 5000 3.1 140 22:37 02.11.2019
5090 Snow -2 990 100 2600 3.1 130 22:19 02.11.2019
5091 Snow -2 990 100 7000 3.1 130 21:56 02.11.2019
5092 Snow -2 990 100 7000 3.1 130 21:38 02.11.2019
5093 Snow -2 991 100 10000 3.6 150 21:18 02.11.2019
5094 Snow -2 991 100 10000 3.6 150 21:18 02.11.2019
5095 Snow -2 991 100 10000 3.6 150 21:18 02.11.2019
5096 Snow -2 991 100 4500 4.1 150 20:58 02.11.2019
5097 Snow -2 991 100 4500 4.1 150 20:39 02.11.2019
5098 Snow -2 991 100 6000 4.1 150 20:20 02.11.2019
5099 Snow -2 992 100 5000 4.1 160 19:42 02.11.2019
5100 Snow -2 992 100 6000 3.6 150 19:24 02.11.2019
5101 Snow -2 992 100 6000 3.6 150 19:24 02.11.2019
5102 Clouds -2 992 100 6000 4.6 160 18:57 02.11.2019
5103 Clouds -2 992 100 6000 4.6 160 18:38 02.11.2019
5104 Snow -2 992 100 10000 4.6 160 18:20 02.11.2019
5105 Snow -2 992 100 10000 4.6 160 17:58 02.11.2019
5106 Snow -2 993 100 4000 4.6 160 17:39 02.11.2019
5107 Snow -2 993 100 4000 4.6 160 17:39 02.11.2019
5108 Snow -2 993 92 5000 4.6 150 17:21 02.11.2019
5109 Snow -2 993 92 5000 4.6 150 16:57 02.11.2019
5110 Snow -2 993 92 6000 4.1 150 16:37 02.11.2019
5111 Snow -2 994 92 7000 3.6 150 16:18 02.11.2019
5112 Snow -2 994 92 8000 4.1 140 15:42 02.11.2019
5113 Snow -2 994 92 3300 4.1 140 15:20 02.11.2019
5114 Snow -2 995 92 3400 4.1 150 14:43 02.11.2019
5115 Snow -2 995 92 2400 5.1 160 14:24 02.11.2019
5116 Snow -2 995 92 2400 5.1 160 13:58 02.11.2019
5117 Snow -2 995 92 2400 5.1 160 13:58 02.11.2019
5118 Snow -3 996 100 4000 5.1 150 13:39 02.11.2019
5119 Snow -3 996 100 4600 5.1 160 13:19 02.11.2019
5120 Snow -3 996 100 1600 4.6 160 12:41 02.11.2019
5121 Snow -3 997 92 2600 5.1 160 12:23 02.11.2019
5122 Snow -3 997 92 2600 5.1 160 11:58 02.11.2019
5123 Snow -3 997 92 1300 5.1 160 11:39 02.11.2019
5124 Snow -3 997 92 1300 5.1 160 11:39 02.11.2019
5125 Snow -3 998 92 9000 5.1 160 11:21 02.11.2019
5126 Snow -4 998 100 6000 5.7 150 10:50 02.11.2019
5127 Snow -4 998 100 4100 5.7 160 10:29 02.11.2019
5128 Snow -4 999 100 1200 6.2 160 09:59 02.11.2019
5129 Snow -4 999 100 1200 6.2 160 09:39 02.11.2019
5130 Snow -4 999 100 1400 6.2 170 09:19 02.11.2019
5131 Snow -3 999 92 2900 6.7 170 08:46 02.11.2019
5132 Snow -4 999 100 3500 6.2 160 08:22 02.11.2019
5133 Clouds -4 1000 100 3400 5.7 160 07:49 02.11.2019
5134 Clouds -4 1000 100 3400 5.7 160 07:29 02.11.2019
5135 Snow -4 1000 92 8000 3.1 160 06:55 02.11.2019
5136 Snow -4 1000 92 8000 3.1 160 06:55 02.11.2019
5137 Snow -4 1000 92 8000 3.1 160 06:30 02.11.2019
5138 Snow -4 1001 92 5000 3.6 160 05:56 02.11.2019
5139 Snow -5 1001 100 10000 4.6 170 05:20 02.11.2019
5140 Snow -5 1002 92 1900 4.1 150 04:21 02.11.2019
5141 Snow -5 1002 92 1900 4.1 150 04:21 02.11.2019
5142 Mist -5 1002 92 4500 3.6 160 03:49 02.11.2019
5143 Clouds -6 1003 100 9000 4.1 160 02:40 02.11.2019
5144 Snow -6 1003 92 10000 4.6 160 01:43 02.11.2019
5145 Snow -6 1004 92 10000 4.6 160 01:21 02.11.2019
5146 Snow -6 1004 92 9000 4.1 160 00:48 02.11.2019
5147 Snow -6 1004 92 9000 4.1 160 00:26 02.11.2019
5148 Snow -7 1004 92 10000 3.6 160 23:46 01.11.2019
5149 Clouds -7 1005 92 10000 2.1 150 23:22 01.11.2019
5150 Clouds -7 1005 92 10000 2.1 150 22:57 01.11.2019
5151 Clouds -7 1005 92 10000 2.1 150 22:39 01.11.2019
5152 Clouds -8 1005 92 10000 2.1 140 22:20 01.11.2019
5153 Clouds -8 1005 92 10000 2.6 160 21:41 01.11.2019
5154 Clouds -8 1005 92 10000 3.1 150 21:23 01.11.2019
5155 Clouds -8 1006 92 9000 3.1 150 20:56 01.11.2019
5156 Clouds -8 1006 92 9000 3.1 150 20:38 01.11.2019
5157 Fog -9 1006 100 1700 3.1 150 20:19 01.11.2019
5158 Fog -9 1006 100 1000 2.1 150 19:42 01.11.2019
5159 Fog -9 1006 92 1000 2.1 150 19:22 01.11.2019
5160 Fog -9 1006 92 1000 2.1 150 19:22 01.11.2019
5161 Fog -9 1006 92 1000 2.6 170 18:59 01.11.2019
5162 Fog -9 1006 92 1000 2.6 170 18:39 01.11.2019
5163 Fog -9 1007 92 1000 2.6 180 18:19 01.11.2019
5164 Fog -9 1007 92 1300 2.6 200 17:41 01.11.2019
5165 Mist -9 1007 92 2500 4.1 190 17:23 01.11.2019
5166 Mist -9 1007 92 2500 4.1 190 17:00 01.11.2019
5167 Clouds -9 1007 85 6000 4.1 230 16:37 01.11.2019
5168 Snow -10 1007 92 2300 5.1 210 16:18 01.11.2019
5169 Mist -9 1007 92 4200 4.6 200 15:41 01.11.2019
5170 Fog -9 1007 92 2400 4.1 200 15:22 01.11.2019
5171 Fog -9 1007 92 2400 4.1 200 14:57 01.11.2019
5172 Fog -9 1007 92 900 4.1 200 14:39 01.11.2019
5173 Fog -9 1007 92 500 3.1 190 14:21 01.11.2019
5174 Fog -9 1007 92 600 2.6 210 13:55 01.11.2019
5175 Fog -9 1007 92 600 2.6 210 13:36 01.11.2019
5176 Fog -10 1008 92 400 3.6 200 13:18 01.11.2019
5177 Fog -10 1008 92 400 3.6 200 13:18 01.11.2019
5178 Fog -10 1008 92 500 2.6 220 12:43 01.11.2019
5179 Fog -10 1008 92 400 3.6 210 12:24 01.11.2019
5180 Fog -10 1008 92 400 3.6 220 11:43 01.11.2019
5181 Fog -10 1008 92 400 3.6 220 11:24 01.11.2019
5182 Fog -10 1008 92 500 3.1 210 10:57 01.11.2019
5183 Fog -10 1008 92 500 3.1 210 10:38 01.11.2019
5184 Fog -10 1008 92 300 2.6 220 10:20 01.11.2019
5185 Fog -10 1008 92 300 3.1 210 09:43 01.11.2019
5186 Fog -10 1008 92 400 1.5 230 09:25 01.11.2019
5187 Fog -10 1008 92 400 1.5 190 08:57 01.11.2019
5188 Fog -10 1008 92 400 1.5 190 08:39 01.11.2019
5189 Fog -10 1009 92 500 1 0 08:20 01.11.2019
5190 Fog -10 1008 92 500 1 0 07:51 01.11.2019
5191 Fog -10 1008 92 900 1.5 310 07:23 01.11.2019
5192 Fog -10 1008 92 900 1 0 06:56 01.11.2019
5193 Fog -10 1009 92 1200 1.5 310 06:23 01.11.2019
5194 Fog -10 1009 92 1200 1.5 310 05:58 01.11.2019
5195 Clouds -10 1008 92 4300 2.1 300 05:38 01.11.2019
5196 Clouds -9 1008 92 10000 2.1 340 03:32 01.11.2019
5197 Clouds -9 1008 92 10000 3.1 330 01:48 01.11.2019
5198 Clouds -9 1008 92 10000 2.1 330 01:19 01.11.2019
5199 Clouds -9 1008 92 10000 1.5 340 00:20 01.11.2019
5200 Clouds -9 1008 92 10000 2.1 350 23:45 31.10.2019
5201 Clouds -9 1007 92 10000 3.6 10 23:25 31.10.2019
5202 Clouds -9 1007 92 10000 3.6 10 22:58 31.10.2019
5203 Snow -9 1008 92 10000 3.6 10 22:40 31.10.2019
5204 Clouds -9 1007 92 10000 4.1 10 22:22 31.10.2019
5205 Clouds -9 1007 92 10000 4.1 10 21:45 31.10.2019
5206 Clouds -9 1007 92 10000 3.1 350 21:23 31.10.2019
5207 Clouds -9 1007 92 10000 3.1 350 20:59 31.10.2019
5208 Clouds -9 1007 92 10000 4.1 340 20:40 31.10.2019
5209 Clouds -9 1007 92 10000 4.1 340 20:40 31.10.2019
5210 Snow -8 1007 85 10000 3.6 350 20:22 31.10.2019
5211 Snow -8 1007 85 10000 3.6 340 19:45 31.10.2019
5212 Snow -8 1006 92 10000 4.1 330 19:27 31.10.2019
5213 Snow -8 1006 92 10000 4.1 340 18:59 31.10.2019
5214 Snow -8 1006 92 10000 4.1 340 18:39 31.10.2019
5215 Snow -7 1006 92 10000 3.6 350 18:21 31.10.2019
5216 Snow -7 1006 92 10000 3.6 350 18:21 31.10.2019
5217 Snow -7 1006 92 10000 3.6 360 17:55 31.10.2019
5218 Snow -7 1006 92 10000 3.6 360 17:36 31.10.2019
5219 Snow -7 1005 92 10000 3.6 360 17:18 31.10.2019
5220 Snow -6 1005 85 10000 3.1 350 16:41 31.10.2019
5221 Snow -6 1005 85 10000 4.1 360 16:20 31.10.2019
5222 Clouds -6 1005 92 10000 4.6 360 15:58 31.10.2019
5223 Clouds -6 1005 92 10000 4.6 360 15:39 31.10.2019
5224 Clouds -6 1005 92 8000 4.6 10 15:20 31.10.2019
5225 Clouds -6 1004 92 7000 4.6 360 14:56 31.10.2019
5226 Clouds -6 1004 92 7000 4.6 360 14:38 31.10.2019
5227 Clouds -6 1004 92 6000 4.6 350 14:20 31.10.2019
5228 Clouds -5 1004 85 10000 3.6 350 13:56 31.10.2019
5229 Clouds -5 1004 85 10000 3.6 350 13:37 31.10.2019
5230 Clouds -6 1004 92 10000 3.1 360 13:19 31.10.2019
5231 Snow -5 1003 92 10000 3.6 360 12:44 31.10.2019
5232 Clouds -5 1003 92 10000 3.1 360 12:24 31.10.2019
5233 Clouds -5 1003 92 10000 3.1 360 11:59 31.10.2019
5234 Clouds -5 1003 92 10000 3.6 20 11:41 31.10.2019
5235 Clouds -5 1003 92 10000 3.1 360 11:19 31.10.2019
5236 Clouds -5 1003 92 10000 2.6 360 10:57 31.10.2019
5237 Clouds -5 1003 92 10000 3.1 360 10:57 31.10.2019
5238 Clouds -5 1003 92 10000 2.6 360 10:38 31.10.2019
5239 Snow -5 1002 92 10000 3.6 20 10:19 31.10.2019
5240 Snow -4 1002 92 2500 4.1 20 09:43 31.10.2019
5241 Snow -4 1002 92 2000 2.6 10 09:19 31.10.2019
5242 Snow -4 1002 92 3000 2.6 10 08:54 31.10.2019
5243 Snow -4 1002 92 3000 2.6 10 08:34 31.10.2019
5244 Snow -5 1002 100 5000 2.6 10 07:58 31.10.2019
5245 Snow -5 1002 100 10000 2.1 360 07:39 31.10.2019
5246 Snow -5 1002 92 3000 2.6 30 07:21 31.10.2019
5247 Snow -4 1002 92 3000 2.1 60 06:38 31.10.2019
5248 Snow -4 1002 92 4400 2.1 60 06:19 31.10.2019
5249 Snow -4 1002 92 8000 1.5 90 04:35 31.10.2019
5250 Snow -4 1003 92 6000 3.6 110 02:45 31.10.2019
5251 Snow -4 1003 92 2700 4.1 110 01:53 31.10.2019
5252 Snow -4 1004 92 2200 4.6 130 00:40 31.10.2019
5253 Snow -5 1004 92 2300 4.6 130 00:22 31.10.2019
5254 Snow -5 1005 92 1800 5.1 130 23:33 30.10.2019
5255 Snow -5 1006 92 2100 5.1 120 22:55 30.10.2019
5256 Snow -5 1006 92 2100 5.1 120 22:37 30.10.2019
5257 Snow -6 1006 92 1300 6.2 120 22:18 30.10.2019
5258 Snow -6 1007 85 2000 6.2 120 21:54 30.10.2019
5259 Snow -6 1007 85 2000 6.2 120 21:36 30.10.2019
5260 Snow -7 1008 92 3500 6.7 120 21:18 30.10.2019
5261 Snow -7 1009 92 3000 6.2 120 20:42 30.10.2019
5262 Snow -7 1009 85 2500 6.2 120 20:22 30.10.2019
5263 Snow -7 1009 85 2500 6.2 120 19:59 30.10.2019
5264 Snow -8 1010 92 2900 5.7 120 19:39 30.10.2019
5265 Snow -8 1011 92 6000 5.7 120 19:20 30.10.2019
5266 Snow -8 1011 92 6000 5.7 120 18:58 30.10.2019
5267 Snow -9 1011 92 10000 5.7 120 18:37 30.10.2019
5268 Clouds -9 1012 85 10000 6.2 130 18:18 30.10.2019
5269 Clouds -10 1012 92 10000 5.7 130 17:41 30.10.2019
5270 Clouds -10 1013 92 10000 5.1 120 17:20 30.10.2019
5271 Clouds -10 1013 92 10000 5.7 120 16:59 30.10.2019
5272 Clouds -10 1013 92 10000 5.7 120 16:40 30.10.2019
5273 Clouds -10 1014 92 10000 5.1 130 16:22 30.10.2019
5274 Clouds -10 1014 92 10000 4.6 120 15:57 30.10.2019
5275 Clouds -10 1014 92 10000 4.6 120 15:38 30.10.2019
5276 Clouds -10 1014 92 10000 4.6 120 15:38 30.10.2019
5277 Clouds -9 1015 85 10000 3.6 140 15:19 30.10.2019
5278 Clouds -9 1015 85 10000 3.6 140 14:56 30.10.2019
5279 Clouds -9 1015 85 10000 3.6 140 14:56 30.10.2019
5280 Clouds -9 1015 85 10000 2.6 130 14:38 30.10.2019
5281 Clouds -9 1016 92 10000 1.5 120 14:18 30.10.2019
5282 Clouds -9 1016 92 10000 1.5 120 13:42 30.10.2019
5283 Clouds -9 1016 85 10000 2.1 120 13:21 30.10.2019
5284 Clouds -9 1016 85 10000 2.1 120 12:59 30.10.2019
5285 Fog -10 1016 92 10000 2.1 130 12:41 30.10.2019
5286 Fog -9 1017 85 10000 1 130 12:22 30.10.2019
5287 Fog -9 1017 85 10000 1 0 11:43 30.10.2019
5288 Clouds -10 1017 92 10000 1 0 11:25 30.10.2019
5289 Fog -9 1017 100 10000 1 0 10:58 30.10.2019
5290 Fog -9 1017 100 10000 1 0 10:39 30.10.2019
5291 Fog -11 1017 92 10000 1 0 10:20 30.10.2019
5292 Fog -11 1018 100 10000 1 0 09:40 30.10.2019
5293 Clouds -12 1018 85 10000 1.5 190 09:22 30.10.2019
5294 Clouds -12 1018 85 10000 1.5 190 08:55 30.10.2019
5295 Fog -13 1018 84 10000 1 190 08:37 30.10.2019
5296 Fog -14 1018 92 10000 0.5 0 08:18 30.10.2019
5297 Clear -11 1018 92 10000 1 340 07:43 30.10.2019
5298 Fog -11 1018 85 10000 1 0 06:56 30.10.2019
5299 Fog -11 1018 85 10000 1 0 06:56 30.10.2019
5300 Fog -13 1018 92 10000 1 0 06:37 30.10.2019
5301 Clear -12 1018 92 10000 1 0 05:56 30.10.2019
5302 Clear -11 1018 85 10000 1.5 320 05:56 30.10.2019
5303 Clear -11 1018 85 10000 1.5 320 05:56 30.10.2019
5304 Clear -11 1018 85 10000 1.5 320 05:37 30.10.2019
5305 Clear -11 1018 92 10000 3.6 350 03:54 30.10.2019
5306 Clear -11 1018 85 10000 3.1 330 03:23 30.10.2019
5307 Clear -11 1018 85 10000 2.6 320 02:49 30.10.2019
5308 Clear -12 1018 85 10000 1 0 01:49 30.10.2019
5309 Clear -12 1018 92 10000 0.5 0 00:37 30.10.2019
5310 Clear -12 1018 92 10000 1.5 210 00:19 30.10.2019
5311 Clear -11 1018 92 10000 1 0 23:39 29.10.2019
5312 Clear -10 1018 85 10000 3.1 320 23:19 29.10.2019
5313 Clear -10 1018 92 10000 4.1 340 22:41 29.10.2019
5314 Clear -10 1018 85 10000 3.6 320 22:19 29.10.2019
5315 Clear -10 1018 85 10000 3.6 320 22:19 29.10.2019
5316 Clear -10 1018 92 10000 3.6 320 21:55 29.10.2019
5317 Clear -10 1018 92 10000 3.6 320 21:37 29.10.2019
5318 Clear -9 1018 85 10000 4.1 330 21:19 29.10.2019
5319 Clear -9 1017 85 10000 5.1 330 20:42 29.10.2019
5320 Clear -9 1017 92 10000 4.6 330 20:23 29.10.2019
5321 Clear -9 1017 92 10000 4.6 330 19:59 29.10.2019
5322 Clear -8 1017 85 10000 5.1 330 19:40 29.10.2019
5323 Clear -8 1017 85 10000 5.7 340 19:21 29.10.2019
5324 Clear -8 1017 85 10000 5.7 340 18:58 29.10.2019
5325 Clear -8 1017 85 10000 5.7 340 18:58 29.10.2019
5326 Clear -8 1017 85 10000 5.7 330 18:40 29.10.2019
5327 Clear -8 1017 85 10000 5.1 330 18:20 29.10.2019
5328 Clear -8 1017 85 10000 5.1 330 17:57 29.10.2019
5329 Clear -8 1017 85 10000 5.1 330 17:38 29.10.2019
5330 Clear -8 1017 92 10000 5.1 330 17:20 29.10.2019
5331 Clear -8 1016 92 10000 4.6 330 16:41 29.10.2019
5332 Clear -8 1016 92 10000 4.6 330 16:23 29.10.2019
5333 Clear -8 1016 92 10000 4.6 330 15:59 29.10.2019
5334 Clear -8 1016 92 10000 4.6 330 15:41 29.10.2019
5335 Clear -7 1016 85 10000 4.1 330 15:21 29.10.2019
5336 Clear -7 1016 85 10000 4.1 330 14:57 29.10.2019
5337 Clear -7 1015 85 10000 4.6 340 14:39 29.10.2019
5338 Clear -7 1015 85 10000 4.1 330 14:21 29.10.2019
5339 Clear -7 1015 92 10000 4.1 320 13:41 29.10.2019
5340 Clear -7 1015 85 10000 4.1 320 13:23 29.10.2019
5341 Clear -7 1015 85 10000 4.1 320 12:59 29.10.2019
5342 Clear -7 1015 85 10000 3.6 320 12:41 29.10.2019
5343 Clear -7 1014 85 10000 3.6 330 12:23 29.10.2019
5344 Clear -8 1014 92 10000 4.1 330 11:43 29.10.2019
5345 Clear -8 1014 85 10000 4.6 340 11:23 29.10.2019
5346 Clear -8 1014 85 10000 4.6 340 10:59 29.10.2019
5347 Clear -8 1013 85 10000 5.1 340 10:41 29.10.2019
5348 Clear -9 1013 92 10000 5.1 330 10:21 29.10.2019
5349 Clear -9 1013 92 10000 5.1 330 09:59 29.10.2019
5350 Clear -9 1013 85 10000 4.1 330 09:41 29.10.2019
5351 Clear -10 1012 92 10000 4.6 330 09:22 29.10.2019
5352 Clear -10 1012 92 10000 4.6 330 08:54 29.10.2019
5353 Clear -10 1012 92 10000 4.6 330 08:36 29.10.2019
5354 Clear -10 1012 92 10000 5.1 330 08:18 29.10.2019
5355 Clear -10 1011 85 10000 5.7 330 07:44 29.10.2019
5356 Clear -10 1011 85 10000 5.1 330 07:19 29.10.2019
5357 Clear -10 1011 85 10000 5.7 330 06:46 29.10.2019
5358 Clear -10 1010 92 10000 5.7 330 06:26 29.10.2019
5359 Clear -10 1010 92 10000 6.2 330 05:51 29.10.2019
5360 Clear -10 1010 92 10000 6.2 330 05:30 29.10.2019
5361 Clear -9 1009 85 10000 5.7 340 04:32 29.10.2019
5362 Clear -9 1009 92 10000 5.1 330 02:33 29.10.2019
5363 Clouds -9 1009 85 10000 3.6 320 01:47 29.10.2019
5364 Clouds -10 1009 92 10000 3.6 310 01:21 29.10.2019
5365 Clouds -9 1008 85 10000 3.1 300 00:43 29.10.2019
5366 Clouds -9 1008 92 10000 3.6 320 23:43 28.10.2019
5367 Clouds -9 1008 92 10000 3.1 300 23:21 28.10.2019
5368 Clouds -9 1008 92 10000 3.1 300 23:21 28.10.2019
5369 Clouds -8 1008 85 10000 4.1 320 22:58 28.10.2019
5370 Clouds -8 1008 85 10000 4.1 320 22:37 28.10.2019
5371 Clouds -8 1008 85 10000 3.6 310 22:18 28.10.2019
5372 Clouds -8 1008 85 10000 3.6 310 21:56 28.10.2019
5373 Clouds -8 1008 85 10000 3.1 320 21:38 28.10.2019
5374 Clouds -8 1008 92 10000 3.6 320 21:20 28.10.2019
5375 Clouds -8 1008 92 10000 3.6 320 20:45 28.10.2019
5376 Clouds -8 1008 92 10000 3.6 320 20:25 28.10.2019
5377 Clouds -8 1008 92 10000 3.6 320 19:59 28.10.2019
5378 Clouds -8 1008 92 10000 3.1 310 19:39 28.10.2019
5379 Clouds -8 1008 92 10000 2.6 310 19:21 28.10.2019
5380 Clouds -8 1008 92 10000 2.6 310 18:59 28.10.2019
5381 Clouds -8 1008 92 10000 2.6 310 18:59 28.10.2019
5382 Clouds -7 1008 92 10000 2.1 270 18:39 28.10.2019
5383 Snow -7 1008 92 10000 1.5 270 18:21 28.10.2019
5384 Snow -7 1008 92 10000 1.5 270 17:56 28.10.2019
5385 Snow -7 1007 92 10000 2.1 260 17:38 28.10.2019
5386 Snow -7 1007 92 4500 2.1 250 17:19 28.10.2019
5387 Snow -7 1007 92 4600 2.1 240 16:57 28.10.2019
5388 Snow -7 1007 92 4600 2.1 240 16:39 28.10.2019
5389 Snow -7 1007 92 5000 2.6 240 16:20 28.10.2019
5390 Snow -7 1007 92 6000 2.6 240 15:56 28.10.2019
5391 Snow -7 1007 92 6000 2.6 240 15:38 28.10.2019
5392 Clouds -7 1007 92 10000 3.1 230 15:19 28.10.2019
5393 Clouds -7 1007 92 10000 2.1 240 14:56 28.10.2019
5394 Clouds -7 1007 92 10000 2.1 240 14:37 28.10.2019
5395 Clouds -7 1007 92 10000 2.6 230 14:18 28.10.2019
5396 Clouds -7 1007 85 10000 2.6 220 13:54 28.10.2019
5397 Clouds -7 1007 85 10000 2.6 220 13:36 28.10.2019
5398 Clouds -8 1007 92 10000 3.1 220 13:18 28.10.2019
5399 Clouds -8 1007 92 10000 2.6 230 12:40 28.10.2019
5400 Clouds -8 1007 92 10000 2.6 240 12:20 28.10.2019
5401 Clouds -9 1007 92 10000 2.6 230 11:39 28.10.2019
5402 Clouds -9 1007 85 10000 3.1 210 11:20 28.10.2019
5403 Clouds -9 1007 85 10000 3.1 210 11:20 28.10.2019
5404 Fog -10 1007 92 10000 1.5 230 10:56 28.10.2019
5405 Fog -10 1007 92 10000 1.5 230 10:38 28.10.2019
5406 Fog -10 1007 85 10000 2.1 260 10:19 28.10.2019
5407 Clouds -11 1007 92 10000 2.1 270 09:54 28.10.2019
5408 Clouds -11 1007 92 10000 2.1 270 09:54 28.10.2019
5409 Clouds -11 1007 92 10000 2.1 270 09:36 28.10.2019
5410 Clouds -10 1006 85 10000 2.6 250 09:18 28.10.2019
5411 Clouds -10 1006 85 10000 2.6 250 08:55 28.10.2019
5412 Clouds -11 1006 92 10000 1.5 250 08:37 28.10.2019
5413 Clouds -11 1006 92 10000 2.1 210 08:18 28.10.2019
5414 Fog -11 1006 92 10000 0.5 0 07:42 28.10.2019
5415 Clouds -11 1006 85 10000 0.5 0 07:21 28.10.2019
5416 Clouds -11 1006 85 10000 0.5 0 06:55 28.10.2019
5417 Clouds -12 1006 92 10000 0.5 170 06:34 28.10.2019
5418 Clouds -13 1005 92 10000 0.5 0 04:49 28.10.2019
5419 Clouds -12 1005 85 10000 0.5 0 03:44 28.10.2019
5420 Clouds -11 1005 85 10000 1 0 02:45 28.10.2019
5421 Clouds -11 1005 92 10000 1 0 01:36 28.10.2019
5422 Clouds -11 1004 92 10000 1 0 00:46 28.10.2019
5423 Clouds -11 1004 92 10000 1.5 350 00:23 28.10.2019
5424 Clouds -11 1004 92 10000 2.1 350 23:44 27.10.2019
5425 Clouds -11 1004 92 10000 2.1 20 23:21 27.10.2019
5426 Clouds -11 1004 92 10000 2.6 20 22:56 27.10.2019
5427 Clouds -11 1004 92 10000 2.6 20 22:36 27.10.2019
5428 Clouds -11 1004 92 10000 2.6 20 22:36 27.10.2019
5429 Clouds -11 1004 92 10000 2.6 30 22:18 27.10.2019
5430 Clouds -11 1004 92 10000 2.6 20 21:40 27.10.2019
5431 Clouds -11 1003 85 10000 2.6 20 21:22 27.10.2019
5432 Clouds -11 1003 85 10000 2.6 20 20:59 27.10.2019
5433 Clouds -11 1003 92 10000 2.6 10 20:40 27.10.2019
5434 Clouds -11 1003 92 10000 3.1 20 20:22 27.10.2019
5435 Clouds -11 1003 92 10000 3.1 20 19:57 27.10.2019
5436 Clouds -11 1003 92 10000 2.6 30 19:37 27.10.2019
5437 Clouds -11 1003 92 10000 3.6 40 19:19 27.10.2019
5438 Clouds -11 1003 92 10000 3.6 40 18:56 27.10.2019
5439 Snow -10 1003 92 10000 2.1 50 18:37 27.10.2019
5440 Snow -10 1003 92 10000 2.6 50 18:19 27.10.2019
5441 Snow -10 1002 92 10000 3.1 40 17:41 27.10.2019
5442 Snow -9 1002 92 10000 3.6 40 17:22 27.10.2019
5443 Snow -9 1002 92 10000 3.6 40 16:59 27.10.2019
5444 Clouds -9 1002 92 10000 3.6 30 16:40 27.10.2019
5445 Clouds -9 1002 92 10000 3.6 30 16:40 27.10.2019
5446 Snow -8 1002 85 10000 3.1 30 16:22 27.10.2019
5447 Snow -8 1002 85 10000 3.1 30 15:58 27.10.2019
5448 Snow -7 1002 85 10000 3.6 30 15:39 27.10.2019
5449 Snow -7 1002 92 10000 3.1 40 15:20 27.10.2019
5450 Clouds -7 1002 92 10000 3.1 40 14:44 27.10.2019
5451 Clouds -6 1002 92 10000 3.6 30 14:24 27.10.2019
5452 Clouds -6 1002 92 10000 3.6 30 13:59 27.10.2019
5453 Clouds -6 1002 92 10000 3.6 50 13:40 27.10.2019
5454 Clouds -6 1002 92 10000 3.6 40 13:22 27.10.2019
5455 Clouds -6 1002 92 10000 3.6 40 12:59 27.10.2019
5456 Clouds -6 1002 92 10000 3.1 50 12:41 27.10.2019
5457 Clouds -7 1002 92 10000 3.6 70 12:23 27.10.2019
5458 Clouds -7 1002 92 10000 3.6 50 11:42 27.10.2019
5459 Clouds -7 1002 92 10000 4.1 50 11:24 27.10.2019
5460 Clouds -7 1002 92 10000 4.1 50 11:24 27.10.2019
5461 Clouds -7 1002 92 10000 3.1 50 10:56 27.10.2019
5462 Clouds -7 1002 92 10000 3.1 50 10:37 27.10.2019
5463 Clouds -7 1002 92 10000 3.6 50 10:18 27.10.2019
5464 Clouds -7 1002 92 10000 3.1 60 09:42 27.10.2019
5465 Clouds -7 1002 92 10000 4.1 50 09:19 27.10.2019
5466 Clouds -7 1002 92 10000 4.1 50 09:19 27.10.2019
5467 Clouds -7 1002 92 10000 4.1 50 09:19 27.10.2019
5468 Clouds -7 1002 92 10000 4.6 50 08:57 27.10.2019
5469 Clouds -7 1002 92 10000 4.6 50 08:37 27.10.2019
5470 Clouds -7 1001 92 10000 5.7 50 08:18 27.10.2019
5471 Clouds -7 1002 92 10000 4.6 50 07:45 27.10.2019
5472 Clouds -7 1001 92 10000 5.1 60 07:25 27.10.2019
5473 Clouds -7 1001 92 10000 5.7 50 06:52 27.10.2019
5474 Clouds -7 1001 92 10000 5.7 50 06:29 27.10.2019
5475 Clouds -8 1001 92 10000 4.1 20 05:46 27.10.2019
5476 Clouds -8 1001 92 10000 3.6 20 04:56 27.10.2019
5477 Clear -7 1000 92 10000 4.6 30 03:34 27.10.2019
5478 Clouds -4 1000 85 10000 5.1 30 02:25 27.10.2019
5479 Clouds -3 999 86 10000 7.7 40 01:24 27.10.2019
5480 Snow -3 999 92 10000 7.2 40 00:52 27.10.2019
5481 Snow -3 999 92 10000 7.2 40 00:32 27.10.2019
5482 Snow -3 998 92 10000 7.2 30 23:57 26.10.2019
5483 Snow -3 998 92 10000 6.7 30 23:39 26.10.2019
5484 Snow -2 998 86 10000 6.2 30 23:21 26.10.2019
5485 Snow -2 998 86 10000 6.2 30 22:56 26.10.2019
5486 Snow -2 998 86 10000 6.7 40 22:38 26.10.2019
5487 Clouds -2 998 86 10000 6.7 40 22:19 26.10.2019
5488 Snow -2 997 86 10000 6.2 30 21:44 26.10.2019
5489 Snow -2 997 92 10000 6.7 40 21:22 26.10.2019
5490 Snow -2 997 92 10000 6.7 40 20:59 26.10.2019
5491 Snow -2 997 92 10000 6.2 40 20:39 26.10.2019
5492 Snow -1 996 86 10000 7.2 30 20:18 26.10.2019
5493 Snow -1 996 86 10000 7.2 30 20:18 26.10.2019
5494 Snow -1 996 86 10000 7.2 40 19:42 26.10.2019
5495 Snow -1 996 92 10000 7.7 40 19:21 26.10.2019
5496 Snow -1 996 92 10000 7.7 40 18:57 26.10.2019
5497 Snow -1 995 92 10000 7.2 40 18:39 26.10.2019
5498 Snow -1 995 92 8000 7.2 40 18:19 26.10.2019
5499 Snow -1 995 92 8000 7.2 40 17:56 26.10.2019
5500 Snow -1 995 92 5000 7.7 40 17:38 26.10.2019
5501 Snow 0 994 87 10000 7.7 40 17:19 26.10.2019
5502 Snow 0 994 87 10000 7.7 40 16:44 26.10.2019
5503 Snow 0 994 87 10000 8.2 50 16:25 26.10.2019
5504 Clouds 0 993 87 10000 8.7 50 15:59 26.10.2019
5505 Clouds 0 993 87 10000 8.7 50 15:59 26.10.2019
5506 Clouds 0 993 87 10000 8.7 50 15:37 26.10.2019
5507 Clouds 0 993 85 10000 7.7 50 15:18 26.10.2019
5508 Snow 0 993 90 10000 7.7 30 14:38 26.10.2019
5509 Snow 0 993 90 10000 7.2 40 14:19 26.10.2019
5510 Snow 0 992 90 10000 7.2 40 13:42 26.10.2019
5511 Snow 0 992 90 10000 7.7 40 13:23 26.10.2019
5512 Snow 0 994 90 0 5.78 42 12:50 26.10.2019
5513 Snow 0 991 90 10000 7.7 40 12:29 26.10.2019
5514 Snow 0 990 94 2300 7.2 30 11:58 26.10.2019
5515 Snow 0 990 94 2300 7.2 30 11:58 26.10.2019
5516 Snow 0 990 94 2300 7.2 30 11:40 26.10.2019
5517 Snow 0 990 94 2300 7.2 30 11:22 26.10.2019
5518 Snow 0 989 94 2500 7.2 30 10:46 26.10.2019
5519 Snow 0 989 94 2500 7.2 30 10:25 26.10.2019
5520 Snow 0 988 94 2300 6.7 30 09:49 26.10.2019
5521 Snow 0 988 94 2300 6.7 30 09:29 26.10.2019
5522 Snow 0 986 97 3700 6.2 20 08:48 26.10.2019
5523 Snow 0 986 97 3700 6.2 20 08:27 26.10.2019
5524 Snow 0 985 97 4300 6.2 30 07:57 26.10.2019
5525 Snow 0 985 97 4300 6.2 30 07:34 26.10.2019
5526 Snow 0 984 97 3900 6.2 30 06:56 26.10.2019
5527 Snow 0 984 97 4500 6.7 30 06:38 26.10.2019
5528 Clouds 0 983 95 3500 6.2 30 05:24 26.10.2019
5529 Snow 1 982 95 7000 7.2 40 04:59 26.10.2019
5530 Rain 1 982 100 4800 6.2 50 03:25 26.10.2019
5531 Drizzle 2 982 93 10000 5.1 60 02:23 26.10.2019
5532 Drizzle 2 982 93 10000 5.7 60 01:44 26.10.2019
5533 Rain 2 982 100 4600 6.7 60 00:33 26.10.2019
5534 Rain 2 983 100 9000 7.2 60 23:47 25.10.2019
5535 Rain 2 983 100 5000 6.7 60 23:21 25.10.2019
5536 Rain 2 984 100 6000 6.7 60 22:54 25.10.2019
5537 Rain 2 984 100 6000 6.7 60 22:36 25.10.2019
5538 Rain 2 984 100 3500 6.2 70 22:18 25.10.2019
5539 Rain 3 985 93 5000 6.7 60 21:54 25.10.2019
5540 Rain 3 985 93 5000 6.7 60 21:54 25.10.2019
5541 Rain 3 985 93 5000 6.7 60 21:36 25.10.2019
5542 Rain 3 985 100 4300 6.2 60 21:18 25.10.2019
5543 Rain 3 986 100 10000 6.2 60 20:42 25.10.2019
5544 Rain 3 987 100 6000 6.2 60 20:19 25.10.2019
5545 Rain 3 987 100 2800 6.2 60 19:45 25.10.2019
5546 Rain 3 987 100 2800 6.2 60 19:27 25.10.2019
5547 Rain 3 988 100 1700 5.7 60 18:47 25.10.2019
5548 Rain 3 988 100 1700 5.7 60 18:29 25.10.2019
5549 Rain 3 989 100 1900 5.1 80 17:56 25.10.2019
5550 Rain 3 989 100 1900 5.1 80 17:36 25.10.2019
5551 Rain 3 990 100 2400 5.1 80 17:18 25.10.2019
5552 Rain 3 991 100 1100 5.1 70 16:43 25.10.2019
5553 Rain 4 991 100 1100 5.1 80 16:22 25.10.2019
5554 Rain 4 992 100 900 5.1 60 15:55 25.10.2019
5555 Rain 4 992 100 900 5.1 60 15:37 25.10.2019
5556 Rain 4 992 100 1100 4.6 70 15:18 25.10.2019
5557 Rain 4 993 100 700 4.6 70 14:42 25.10.2019
5558 Rain 4 993 100 500 4.1 70 14:23 25.10.2019
5559 Rain 4 994 100 500 4.1 70 13:44 25.10.2019
5560 Rain 4 995 100 500 3.6 60 13:25 25.10.2019
5561 Rain 4 995 100 500 3.1 70 12:59 25.10.2019
5562 Rain 4 995 100 500 3.1 70 12:41 25.10.2019
5563 Rain 3 996 100 600 3.1 70 12:20 25.10.2019
5564 Rain 3 996 100 600 3.1 70 11:56 25.10.2019
5565 Rain 4 996 100 500 3.1 110 11:37 25.10.2019
5566 Rain 4 997 100 500 2.6 110 11:18 25.10.2019
5567 Rain 4 998 100 600 3.1 130 10:40 25.10.2019
5568 Rain 3 998 100 500 3.6 120 10:21 25.10.2019
5569 Rain 3 998 100 600 3.1 130 09:57 25.10.2019
5570 Rain 3 998 100 600 3.1 130 09:38 25.10.2019
5571 Rain 3 998 100 600 3.1 130 09:38 25.10.2019
5572 Rain 3 999 100 600 3.1 130 09:19 25.10.2019
5573 Rain 3 999 100 800 2.6 160 08:44 25.10.2019
5574 Rain 3 1000 100 1200 3.1 180 08:24 25.10.2019
5575 Rain 3 1000 100 900 3.6 170 07:52 25.10.2019
5576 Rain 3 1000 100 900 3.6 170 07:34 25.10.2019
5577 Rain 2 1001 100 500 3.6 190 06:41 25.10.2019
5578 Fog 2 1002 100 450 4.6 200 05:51 25.10.2019
5579 Fog 2 1002 100 450 4.6 200 05:32 25.10.2019
5580 Fog 2 1002 100 500 2.6 190 04:39 25.10.2019
5581 Fog 1 1002 100 400 3.6 210 02:46 25.10.2019
5582 Fog 1 1003 100 400 3.1 210 01:53 25.10.2019
5583 Fog 1 1003 100 600 2.1 220 00:41 25.10.2019
5584 Fog 1 1003 100 650 2.1 220 23:57 24.10.2019
5585 Fog 1 1003 100 1000 2.6 190 23:37 24.10.2019
5586 Fog 0 1003 98 700 0.5 0 23:19 24.10.2019
5587 Fog 0 1002 98 500 1.5 70 22:54 24.10.2019
5588 Fog 0 1002 98 500 1.5 70 22:36 24.10.2019
5589 Fog 0 1002 98 550 1 0 22:18 24.10.2019
5590 Fog 0 1002 98 600 2.6 60 21:54 24.10.2019
5591 Fog 0 1002 98 600 2.6 60 21:54 24.10.2019
5592 Fog 0 1002 98 600 2.6 60 21:54 24.10.2019
5593 Fog 0 1002 98 600 2.6 60 21:54 24.10.2019
5594 -273 0 0 0 0 0 21:54 24.10.2019
5595 Fog 0 1002 98 600 2.6 60 21:36 24.10.2019
5596 Fog 1 1002 100 700 2.1 70 21:18 24.10.2019
5597 Fog 0 1002 99 800 2.1 90 20:54 24.10.2019
5598 Fog 0 1002 99 800 2.1 90 20:36 24.10.2019
5599 Fog 0 1002 99 1000 3.1 80 20:18 24.10.2019
5600 Drizzle 0 1002 99 1100 3.1 60 19:41 24.10.2019
5601 Clouds 0 1002 99 1100 3.1 70 19:22 24.10.2019
5602 Clouds 0 1003 99 1100 3.6 90 18:58 24.10.2019
5603 Clouds 0 1003 99 1100 3.6 90 18:38 24.10.2019
5604 Clouds 0 1002 99 1100 4.1 80 18:20 24.10.2019
5605 Clouds 0 1003 99 1200 3.6 80 17:42 24.10.2019
5606 Clouds 0 1003 99 1600 3.6 80 17:21 24.10.2019
5607 Clouds 0 1004 99 900 3.6 80 16:58 24.10.2019
5608 Clouds 0 1004 99 900 3.6 80 16:40 24.10.2019
5609 Snow 0 1004 99 1000 4.1 90 16:22 24.10.2019
5610 Snow 0 1004 99 1000 4.1 90 15:59 24.10.2019
5611 Snow 0 1004 99 1300 4.6 80 15:40 24.10.2019
5612 Snow 0 1004 98 1200 3.6 80 15:22 24.10.2019
5613 Snow 0 1004 98 1200 4.1 80 14:58 24.10.2019
5614 Snow 0 1004 98 1200 4.1 80 14:40 24.10.2019
5615 Snow 0 1005 98 1400 3.6 90 14:20 24.10.2019
5616 Snow -1 1005 100 1500 3.6 80 13:42 24.10.2019
5617 Snow -1 1005 100 1500 3.1 80 13:20 24.10.2019
5618 Snow -1 1005 100 1500 3.1 80 12:58 24.10.2019
5619 Snow -1 1006 100 2000 3.1 70 12:40 24.10.2019
5620 Snow -1 1006 100 2000 3.1 90 12:20 24.10.2019
5621 Snow -1 1006 92 2500 3.1 90 11:57 24.10.2019
5622 Snow -1 1006 92 2500 3.1 90 11:38 24.10.2019
5623 Clouds -1 1006 92 3000 3.1 90 11:20 24.10.2019
5624 Clouds -1 1006 92 3000 3.1 90 10:58 24.10.2019
5625 Clouds -1 1007 92 10000 3.1 80 10:38 24.10.2019
5626 Clouds -1 1007 92 10000 3.1 80 10:38 24.10.2019
5627 Clouds -2 1007 100 10000 3.1 90 10:20 24.10.2019
5628 Clouds -2 1007 100 10000 3.6 90 09:38 24.10.2019
5629 Clouds -2 1007 92 10000 3.6 90 09:19 24.10.2019
5630 Clouds -3 1006 100 10000 3.6 80 08:55 24.10.2019
5631 Clouds -3 1006 100 10000 3.6 80 08:36 24.10.2019
5632 Fog -3 1006 100 10000 4.1 70 08:18 24.10.2019
5633 Mist -3 1006 100 2500 3.1 80 07:45 24.10.2019
5634 Fog -3 1006 92 1800 2.1 90 07:22 24.10.2019
5635 Fog -4 1007 100 800 3.1 50 06:40 24.10.2019
5636 Mist -4 1006 100 2400 2.6 50 06:20 24.10.2019
5637 Clouds -3 1006 92 10000 1 0 05:48 24.10.2019
5638 Clouds -3 1006 92 10000 1 0 05:28 24.10.2019
5639 Clouds -3 1006 100 10000 0.5 0 03:37 24.10.2019
5640 Mist -3 1006 100 3900 0.5 0 02:55 24.10.2019
5641 Mist -3 1006 100 2000 1 0 02:25 24.10.2019
5642 Fog -3 1006 100 650 1 210 01:49 24.10.2019
5643 Fog -3 1006 100 700 1 0 01:27 24.10.2019
5644 Fog -2 1005 100 450 0.5 0 00:41 24.10.2019
5645 Fog -2 1005 100 400 2.6 220 00:18 24.10.2019
5646 Fog -2 1005 100 450 2.6 210 23:43 23.10.2019
5647 Fog -2 1005 100 350 2.1 200 23:23 23.10.2019
5648 Fog -2 1005 100 350 1.5 200 22:57 23.10.2019
5649 Fog -2 1005 100 350 1.5 200 22:38 23.10.2019
5650 Fog -2 1005 100 350 1.5 200 22:38 23.10.2019
5651 Fog -2 1005 100 400 1.5 190 22:18 23.10.2019
5652 Fog -2 1005 100 400 1.5 190 21:57 23.10.2019
5653 Fog -2 1004 100 400 1 210 21:38 23.10.2019
5654 Fog -1 1004 92 400 2.1 230 21:19 23.10.2019
5655 Fog -1 1004 92 400 2.1 230 20:56 23.10.2019
5656 Fog -1 1004 100 400 2.6 240 20:38 23.10.2019
5657 Fog -1 1004 100 500 2.6 230 20:20 23.10.2019
5658 Fog -1 1003 100 650 2.1 240 19:55 23.10.2019
5659 Fog -1 1003 100 650 2.1 240 19:36 23.10.2019
5660 Fog -1 1003 100 600 2.6 230 19:18 23.10.2019
5661 Fog -1 1003 100 550 3.6 230 18:40 23.10.2019
5662 Fog 0 1003 96 600 2.6 220 18:19 23.10.2019
5663 Fog 0 1003 96 600 2.6 220 17:59 23.10.2019
5664 Fog 0 1003 96 900 2.6 230 17:41 23.10.2019
5665 Clouds 0 1002 96 10000 2.6 240 17:19 23.10.2019
5666 Clouds 0 1002 96 10000 2.6 240 17:19 23.10.2019
5667 Clouds 0 1002 96 10000 3.6 220 16:54 23.10.2019
5668 Clouds 0 1002 96 10000 3.6 220 16:36 23.10.2019
5669 Clouds 0 1002 96 10000 4.1 220 16:18 23.10.2019
5670 Clouds 1 1002 96 10000 4.1 220 15:40 23.10.2019
5671 Clouds 1 1002 86 10000 3.6 210 15:21 23.10.2019
5672 Clouds 1 1001 86 10000 2.1 210 14:57 23.10.2019
5673 Clouds 1 1001 86 10000 2.1 210 14:38 23.10.2019
5674 Clouds 1 1001 86 10000 2.1 190 14:19 23.10.2019
5675 Clouds 1 1001 86 10000 2.1 190 13:44 23.10.2019
5676 Clouds 1 1001 86 10000 2.1 190 13:44 23.10.2019
5677 Clouds 1 1001 86 10000 2.1 190 13:25 23.10.2019
5678 Clouds 1 1000 86 10000 1 0 12:59 23.10.2019
5679 Clouds 0 1000 89 10000 2.1 50 12:41 23.10.2019
5680 Clouds 1 999 86 10000 2.1 360 12:19 23.10.2019
5681 Clouds 1 999 86 10000 2.1 360 11:58 23.10.2019
5682 Clouds 1 999 86 10000 2.6 340 11:40 23.10.2019
5683 Rain 1 999 88 10000 2.1 320 11:21 23.10.2019
5684 Drizzle 0 999 88 10000 1.5 340 10:56 23.10.2019
5685 Drizzle 0 999 88 10000 1.5 340 10:38 23.10.2019
5686 Drizzle 0 999 88 10000 1.5 340 10:38 23.10.2019
5687 Clouds 0 998 88 10000 1.5 320 10:19 23.10.2019
5688 Rain 0 998 89 10000 2.6 330 09:40 23.10.2019
5689 Clouds 0 997 95 10000 3.1 320 09:22 23.10.2019
5690 Clouds 0 996 95 10000 2.6 280 08:54 23.10.2019
5691 Clouds 0 996 95 10000 2.6 280 08:36 23.10.2019
5692 Clouds 1 996 86 10000 2.6 300 08:18 23.10.2019
5693 Clouds 1 995 95 10000 3.1 330 07:41 23.10.2019
5694 Clouds 1 994 95 10000 2.6 330 07:19 23.10.2019
5695 Clouds 1 994 95 10000 2.1 310 06:41 23.10.2019
5696 Clouds 1 993 94 10000 3.1 330 06:19 23.10.2019
5697 Clouds 2 992 93 10000 3.6 310 05:19 23.10.2019
5698 Clouds 1 989 94 10000 1 0 03:46 23.10.2019
5699 Clouds 2 987 83 10000 3.1 250 02:43 23.10.2019
5700 Clouds 2 985 83 10000 4.6 240 01:40 23.10.2019
5701 Clouds 2 985 83 10000 4.1 240 01:18 23.10.2019
5702 Clouds 2 984 93 10000 5.1 230 00:34 23.10.2019
5703 Clouds 3 983 86 10000 6.7 230 23:55 22.10.2019
5704 Clouds 3 983 86 10000 6.7 230 23:37 22.10.2019
5705 Clouds 3 983 86 10000 6.7 230 23:37 22.10.2019
5706 Clouds 4 983 80 10000 6.2 230 23:18 22.10.2019
5707 Clouds 4 982 86 10000 5.7 230 22:40 22.10.2019
5708 Clouds 4 982 86 10000 7.7 220 22:22 22.10.2019
5709 Clouds 4 982 86 10000 7.7 220 21:57 22.10.2019
5710 Clouds 3 982 93 10000 7.2 230 21:38 22.10.2019
5711 Clouds 3 982 93 10000 6.7 220 21:19 22.10.2019
5712 Clouds 3 982 93 10000 6.7 220 20:58 22.10.2019
5713 Clouds 3 983 93 10000 7.7 210 20:40 22.10.2019
5714 Clouds 3 983 93 10000 6.2 210 20:22 22.10.2019
5715 Clouds 3 983 93 10000 6.2 210 19:56 22.10.2019
5716 Clouds 3 983 93 10000 6.2 210 19:38 22.10.2019
5717 Clouds 3 984 93 10000 6.7 210 19:20 22.10.2019
5718 Clouds 3 984 93 10000 6.2 210 18:54 22.10.2019
5719 Clouds 3 984 93 10000 6.2 210 18:36 22.10.2019
5720 Clouds 3 984 93 10000 5.7 210 18:18 22.10.2019
5721 Rain 2 985 100 10000 5.7 200 17:39 22.10.2019
5722 Rain 2 985 93 10000 5.7 200 17:20 22.10.2019
5723 Rain 2 985 93 10000 5.7 200 16:59 22.10.2019
5724 Snow 1 986 100 10000 6.7 200 16:39 22.10.2019
5725 Snow 1 986 100 10000 6.7 200 16:39 22.10.2019
5726 Snow 1 986 100 10000 6.7 200 16:39 22.10.2019
5727 Snow 1 987 100 4100 7.7 200 16:20 22.10.2019
5728 Snow 1 987 100 4100 7.7 200 15:58 22.10.2019
5729 Rain 2 987 100 10000 8.2 190 15:40 22.10.2019
5730 Rain 2 988 100 10000 7.7 190 15:19 22.10.2019
5731 Rain 2 989 93 4800 4.6 170 14:44 22.10.2019
5732 Drizzle 1 990 100 2000 5.1 170 14:21 22.10.2019
5733 Drizzle 1 991 100 2000 4.6 180 13:43 22.10.2019
5734 Drizzle 1 991 89 1500 5.7 170 13:23 22.10.2019
5735 Drizzle 1 991 89 1500 5.7 170 12:59 22.10.2019
5736 Drizzle 0 992 89 1400 5.7 170 12:41 22.10.2019
5737 Fog 0 993 97 900 3.6 140 12:21 22.10.2019
5738 Fog 0 993 97 900 3.6 140 11:57 22.10.2019
5739 Clouds 0 994 97 1500 4.6 150 11:38 22.10.2019
5740 Snow 0 995 97 8000 4.1 160 11:20 22.10.2019
5741 Snow 0 995 97 8000 4.1 160 10:56 22.10.2019
5742 Snow 0 996 97 10000 4.1 160 10:37 22.10.2019
5743 Clouds 0 997 97 5000 5.1 160 10:18 22.10.2019
5744 Clouds 0 997 97 7000 5.1 170 09:54 22.10.2019
5745 Clouds 0 997 97 7000 5.1 170 09:36 22.10.2019
5746 Clouds 0 998 95 3000 4.1 150 09:18 22.10.2019
5747 Clouds 0 999 95 2500 4.1 150 08:42 22.10.2019
5748 Snow 0 999 95 1700 3.6 160 08:21 22.10.2019
5749 Clouds 0 1000 95 1300 3.6 170 07:45 22.10.2019
5750 Clouds 0 1000 95 1300 3.6 170 07:26 22.10.2019
5751 Mist 0 1001 95 1400 4.6 160 06:48 22.10.2019
5752 Mist 0 1001 95 1400 4.6 160 06:30 22.10.2019
5753 Clouds 0 1002 95 3400 3.6 170 05:50 22.10.2019
5754 Clouds 0 1002 95 3400 3.6 170 05:50 22.10.2019
5755 Snow -1 1003 100 4200 3.6 160 05:19 22.10.2019
5756 Clouds -2 1006 92 10000 3.6 180 02:33 22.10.2019
5757 Clouds -3 1007 100 10000 3.6 170 01:51 22.10.2019
5758 Clouds -3 1007 100 10000 3.6 170 01:26 22.10.2019
5759 Clouds -3 1007 100 10000 4.1 170 00:57 22.10.2019
5760 Clouds -3 1008 92 10000 3.1 170 00:39 22.10.2019
5761 Clouds -3 1008 92 10000 3.6 180 00:20 22.10.2019
5762 Clouds -3 1008 92 10000 4.1 190 23:39 21.10.2019
5763 Clouds -3 1008 86 10000 4.1 190 23:20 21.10.2019
5764 Clouds -3 1008 86 10000 4.1 190 22:59 21.10.2019
5765 Clouds -3 1009 86 10000 4.1 190 22:40 21.10.2019
5766 Clouds -3 1009 86 10000 3.6 190 22:20 21.10.2019
5767 Clouds -3 1009 86 10000 3.6 190 21:59 21.10.2019
5768 Clouds -4 1009 92 10000 4.1 200 21:39 21.10.2019
5769 Clouds -4 1009 92 10000 4.1 200 21:39 21.10.2019
5770 Clouds -4 1010 92 10000 4.1 220 21:21 21.10.2019
5771 Clouds -4 1010 92 10000 4.1 220 20:58 21.10.2019
5772 Clouds -4 1010 92 10000 4.1 220 20:40 21.10.2019
5773 Clouds -4 1010 92 10000 4.1 220 20:40 21.10.2019
5774 Clouds -4 1010 92 10000 5.1 220 20:21 21.10.2019
5775 Clouds -4 1010 92 10000 5.1 220 19:57 21.10.2019
5776 Clouds -4 1010 92 10000 5.1 220 19:57 21.10.2019
5777 Clouds -4 1010 92 10000 5.1 210 19:39 21.10.2019
5778 Clouds -4 1011 85 10000 3.6 220 19:21 21.10.2019
5779 Clouds -5 1011 92 10000 3.6 220 18:55 21.10.2019
5780 Clouds -5 1011 92 10000 3.6 220 18:36 21.10.2019
5781 Clouds -5 1011 92 10000 3.6 220 18:18 21.10.2019
5782 Clouds -4 1011 85 10000 3.6 220 17:55 21.10.2019
5783 Clouds -4 1011 85 10000 3.6 220 17:37 21.10.2019
5784 Clouds -4 1011 85 10000 3.6 220 17:18 21.10.2019
5785 Clouds -4 1011 85 10000 3.6 220 16:54 21.10.2019
5786 Clouds -4 1011 85 10000 3.6 220 16:36 21.10.2019
5787 Clouds -3 1012 86 10000 3.6 220 16:18 21.10.2019
5788 Clouds -3 1012 86 10000 4.1 220 15:42 21.10.2019
5789 Clouds -3 1012 86 10000 3.6 220 15:22 21.10.2019
5790 Clouds -3 1012 86 10000 3.6 220 14:56 21.10.2019
5791 Clouds -3 1012 86 10000 4.6 220 14:37 21.10.2019
5792 Clouds -2 1012 79 10000 4.6 230 14:18 21.10.2019
5793 Clouds -2 1012 79 10000 4.6 220 13:42 21.10.2019
5794 Clouds -3 1012 86 10000 4.1 230 13:21 21.10.2019
5795 Clouds -3 1012 86 10000 4.1 230 12:59 21.10.2019
5796 Clouds -3 1012 86 10000 4.1 210 12:40 21.10.2019
5797 Clouds -3 1012 86 10000 3.1 220 12:21 21.10.2019
5798 Clouds -4 1012 92 10000 3.6 230 11:55 21.10.2019
5799 Clouds -4 1012 92 10000 3.6 230 11:36 21.10.2019
5800 Clouds -4 1012 92 10000 3.6 220 11:18 21.10.2019
5801 Clouds -4 1012 92 10000 2.6 200 10:54 21.10.2019
5802 Clouds -4 1012 92 10000 2.6 200 10:54 21.10.2019
5803 Clouds -4 1012 92 10000 2.6 200 10:54 21.10.2019
5804 Clouds -4 1012 92 10000 2.6 200 10:54 21.10.2019
5805 Clouds -4 1012 92 10000 2.6 200 10:36 21.10.2019
5806 Clouds -5 1012 92 10000 2.6 190 10:18 21.10.2019
5807 Clouds -5 1012 92 10000 3.1 170 09:39 21.10.2019
5808 Clear -5 1012 92 10000 2.6 160 09:21 21.10.2019
5809 Clear -6 1012 92 10000 2.6 150 08:42 21.10.2019
5810 Clouds -6 1012 92 10000 1.5 160 08:23 21.10.2019
5811 Clouds -6 1012 92 10000 2.6 160 07:55 21.10.2019
5812 Clouds -6 1012 92 10000 2.6 160 07:36 21.10.2019
5813 Clouds -6 1012 92 10000 1 0 07:18 21.10.2019
5814 Clouds -5 1012 92 10000 1 220 06:43 21.10.2019
5815 Clouds -5 1012 92 10000 2.6 230 06:24 21.10.2019
5816 Clouds -5 1012 92 10000 3.1 240 05:33 21.10.2019
5817 Clouds -4 1013 92 10000 1.5 240 03:41 21.10.2019
5818 Clouds -4 1014 92 10000 2.1 240 02:40 21.10.2019
5819 Clouds -4 1014 92 10000 1.5 240 02:20 21.10.2019
5820 Clouds -4 1014 92 10000 1.5 210 01:45 21.10.2019
5821 Clouds -4 1014 92 10000 1.5 210 01:45 21.10.2019
5822 Clouds -4 1015 92 10000 2.1 220 00:55 21.10.2019
5823 Clouds -4 1015 92 10000 2.1 220 00:28 21.10.2019
5824 Clouds -4 1015 85 10000 2.6 200 23:58 20.10.2019
5825 Clouds -5 1015 92 10000 3.6 180 23:39 20.10.2019
5826 Clouds -5 1016 92 10000 3.1 180 23:21 20.10.2019
5827 Clouds -6 1016 100 10000 3.1 160 22:43 20.10.2019
5828 Clear -6 1016 92 10000 3.1 140 22:24 20.10.2019
5829 Clear -6 1016 92 10000 3.1 140 21:59 20.10.2019
5830 Clear -6 1016 100 10000 3.6 140 21:40 20.10.2019
5831 Clear -5 1017 92 10000 3.6 130 21:22 20.10.2019
5832 Clear -5 1017 92 10000 3.6 130 21:22 20.10.2019
5833 Clear -5 1017 92 10000 3.6 130 20:56 20.10.2019
5834 Clear -6 1017 92 10000 3.6 130 20:38 20.10.2019
5835 Clear -5 1017 92 10000 3.6 130 20:18 20.10.2019
5836 Clear -5 1017 92 10000 3.6 130 20:18 20.10.2019
5837 Clear -5 1017 85 10000 3.6 120 19:55 20.10.2019
5838 Clear -5 1017 85 10000 3.6 120 19:37 20.10.2019
5839 Clear -5 1017 85 10000 2.6 110 19:18 20.10.2019
5840 Clear -4 1017 79 10000 2.6 90 18:40 20.10.2019
5841 Clear -4 1018 79 10000 3.1 80 18:22 20.10.2019
5842 Clear -4 1018 79 10000 3.1 80 17:57 20.10.2019
5843 Clear -4 1018 79 10000 2.6 60 17:38 20.10.2019
5844 Clear -4 1018 79 10000 1 60 17:20 20.10.2019
5845 Clear -4 1018 79 10000 0.5 0 16:43 20.10.2019
5846 Clear -3 1018 73 10000 1 70 16:24 20.10.2019
5847 Clear -3 1018 73 10000 1 70 15:59 20.10.2019
5848 Clear -2 1018 68 10000 1 70 15:40 20.10.2019
5849 Clear -2 1018 68 10000 1 70 15:40 20.10.2019
5850 Clear -2 1019 74 10000 2.1 50 15:21 20.10.2019
5851 Clear -2 1019 74 10000 2.1 50 14:58 20.10.2019
5852 Clear -2 1019 68 10000 1 0 14:38 20.10.2019
5853 Clear -2 1019 68 10000 1 0 14:38 20.10.2019
5854 Clear -2 1019 68 10000 2.1 100 14:19 20.10.2019
5855 Clear -2 1019 68 10000 2.1 100 13:56 20.10.2019
5856 Clear -2 1019 68 10000 1 0 13:37 20.10.2019
5857 Clear -3 1019 73 10000 2.1 70 13:18 20.10.2019
5858 Clear -3 1019 73 10000 2.1 70 12:56 20.10.2019
5859 Clear -3 1019 79 10000 2.1 40 12:38 20.10.2019
5860 Clear -3 1019 73 10000 1.5 20 12:20 20.10.2019
5861 Clear -4 1019 73 10000 2.6 50 11:55 20.10.2019
5862 Clear -4 1019 73 10000 2.6 50 11:37 20.10.2019
5863 Clear -5 1019 85 10000 2.6 40 11:18 20.10.2019
5864 Clear -5 1019 85 10000 2.6 360 10:41 20.10.2019
5865 Clear -6 1019 85 10000 3.1 10 10:22 20.10.2019
5866 Clear -6 1019 85 10000 3.1 10 09:57 20.10.2019
5867 Clear -6 1018 85 10000 3.6 10 09:39 20.10.2019
5868 Clear -7 1018 92 10000 3.6 10 09:21 20.10.2019
5869 Clear -7 1018 92 10000 3.6 10 08:48 20.10.2019
5870 Clear -7 1018 92 10000 3.6 10 08:23 20.10.2019
5871 Clear -7 1017 85 10000 3.6 360 07:50 20.10.2019
5872 Clear -7 1017 85 10000 3.6 360 07:30 20.10.2019
5873 Clear -7 1017 85 10000 3.6 360 07:30 20.10.2019
5874 Clear -7 1017 92 10000 3.6 360 06:34 20.10.2019
5875 Clear -6 1017 85 10000 4.1 360 05:58 20.10.2019
5876 Clear -6 1016 92 10000 3.6 360 04:27 20.10.2019
5877 Clear -5 1015 85 10000 3.6 360 03:41 20.10.2019
5878 Clear -5 1015 85 10000 4.6 360 03:20 20.10.2019
5879 Clear -5 1014 85 10000 4.6 360 02:36 20.10.2019
5880 Clear -4 1013 79 10000 5.1 10 01:58 20.10.2019
5881 Clear -4 1013 85 10000 5.7 10 01:23 20.10.2019
5882 Clear -4 1012 85 10000 5.7 10 00:55 20.10.2019
5883 Clear -4 1012 85 10000 5.7 360 00:22 20.10.2019
5884 Clear -4 1012 85 10000 5.7 360 23:59 19.10.2019
5885 Clear -3 1011 86 10000 6.2 10 23:40 19.10.2019
5886 Clouds -3 1011 86 10000 6.2 10 23:21 19.10.2019
5887 Clouds -3 1011 86 10000 6.2 10 22:55 19.10.2019
5888 Clear -3 1010 86 10000 5.7 10 22:37 19.10.2019
5889 Clear -3 1010 86 10000 6.7 20 22:18 19.10.2019
5890 Clear -2 1010 79 10000 6.7 20 21:45 19.10.2019
5891 Clouds -2 1009 86 10000 7.2 20 21:21 19.10.2019
5892 Clouds -2 1009 86 10000 7.2 20 20:44 19.10.2019
5893 Clouds -2 1009 86 10000 7.2 20 20:44 19.10.2019
5894 Clear -2 1009 86 10000 6.7 20 20:22 19.10.2019
5895 Clear -2 1009 86 10000 6.7 20 19:56 19.10.2019
5896 Clear -1 1008 80 10000 6.7 30 19:38 19.10.2019
5897 Clear -1 1008 86 10000 7.2 20 19:20 19.10.2019
5898 Clear -1 1008 86 10000 7.2 20 18:41 19.10.2019
5899 Clouds -1 1008 86 10000 7.7 20 18:23 19.10.2019
5900 Clouds -1 1007 92 10000 7.7 20 17:55 19.10.2019
5901 Clouds -1 1007 92 10000 7.7 20 17:36 19.10.2019
5902 Clouds 0 1007 80 10000 7.7 20 17:18 19.10.2019
5903 Clouds 0 1007 80 10000 8.2 20 16:38 19.10.2019
5904 Clouds 0 1007 80 10000 7.7 20 16:19 19.10.2019
5905 Clouds 0 1007 80 10000 6.2 20 15:44 19.10.2019
5906 Clouds 0 1007 80 10000 6.2 20 15:26 19.10.2019
5907 Clouds 0 1007 88 10000 5.1 20 14:40 19.10.2019
5908 Clouds 0 1007 88 10000 5.7 20 14:21 19.10.2019
5909 Clouds 0 1007 88 10000 5.7 20 13:59 19.10.2019
5910 Clouds 0 1007 88 10000 5.1 20 13:41 19.10.2019
5911 Clouds 0 1007 88 10000 5.7 10 13:21 19.10.2019
5912 Clouds 0 1007 88 10000 5.7 10 12:58 19.10.2019
5913 Clouds 1 1007 88 10000 4.6 10 12:38 19.10.2019
5914 Clouds 1 1006 96 10000 4.1 10 12:20 19.10.2019
5915 Clouds 0 1006 96 10000 4.1 10 11:42 19.10.2019
5916 Clouds 0 1006 96 10000 4.1 360 11:23 19.10.2019
5917 Clouds 0 1006 96 10000 4.1 360 11:23 19.10.2019
5918 Clouds 0 1006 96 10000 4.1 360 10:58 19.10.2019
5919 Clouds 0 1006 96 10000 3.6 360 10:40 19.10.2019
5920 Clouds 0 1006 96 10000 3.6 360 10:22 19.10.2019
5921 Fog 0 1006 96 1000 3.1 350 09:55 19.10.2019
5922 Mist 0 1006 96 1100 2.6 350 09:37 19.10.2019
5923 Mist 0 1006 98 1100 2.6 350 09:18 19.10.2019
5924 Rain 0 1005 98 1100 3.1 350 08:40 19.10.2019
5925 Rain 0 1005 98 1100 3.1 350 08:21 19.10.2019
5926 Rain 0 1005 98 1100 3.1 350 08:21 19.10.2019
5927 Clouds 0 1005 98 10000 2.1 320 07:45 19.10.2019
5928 Clouds 0 1005 98 10000 2.1 320 07:25 19.10.2019
5929 Rain 1 1005 98 10000 1.5 310 06:47 19.10.2019
5930 Rain 1 1005 98 10000 1.5 310 06:28 19.10.2019
5931 Rain 1 1005 100 650 0.5 0 05:34 19.10.2019
5932 Rain 1 1005 100 1400 2.1 160 04:24 19.10.2019
5933 Drizzle 1 1005 98 1000 2.1 140 02:47 19.10.2019
5934 Fog 0 1005 98 1000 2.6 150 01:53 19.10.2019
5935 Rain 0 1005 98 1000 2.6 140 01:25 19.10.2019
5936 Snow 0 1006 98 1900 3.1 130 00:48 19.10.2019
5937 Snow 0 1006 98 1900 3.1 130 00:27 19.10.2019
5938 Clouds 0 1006 99 3400 3.1 150 23:45 18.10.2019
5939 Clouds 0 1006 99 3400 3.1 150 23:26 18.10.2019
5940 Rain 0 1006 99 3100 3.1 150 22:57 18.10.2019
5941 Clouds 0 1006 99 2200 3.1 140 22:39 18.10.2019
5942 Clouds 0 1006 99 2300 3.1 140 22:20 18.10.2019
5943 Clouds 0 1006 99 2300 3.1 140 22:20 18.10.2019
5944 Clouds 0 1006 99 2300 3.1 140 21:58 18.10.2019
5945 Snow 0 1006 99 3800 3.6 150 21:38 18.10.2019
5946 Snow 0 1007 98 1800 3.1 150 21:20 18.10.2019
5947 Snow 0 1007 98 1800 3.1 150 20:56 18.10.2019
5948 Snow 0 1007 98 2200 3.1 150 20:38 18.10.2019
5949 Clouds 0 1007 98 1800 3.1 150 20:20 18.10.2019
5950 Clouds 0 1007 98 1800 3.1 150 19:55 18.10.2019
5951 Snow 0 1007 98 2100 3.1 160 19:37 18.10.2019
5952 Snow 0 1007 98 2100 3.1 160 19:37 18.10.2019
5953 Clouds 0 1007 98 1800 3.1 160 19:19 18.10.2019
5954 Clouds 0 1007 98 1700 3.6 160 18:43 18.10.2019
5955 Snow 0 1007 98 7000 3.6 160 18:24 18.10.2019
5956 Snow 0 1007 98 7000 3.6 160 18:24 18.10.2019
5957 Snow 0 1007 98 7000 3.6 160 17:59 18.10.2019
5958 Snow 0 1008 98 6000 3.6 160 17:38 18.10.2019
5959 Clouds 0 1008 98 10000 3.1 160 17:20 18.10.2019
5960 Clouds 0 1008 98 10000 3.1 160 17:20 18.10.2019
5961 Rain 0 1008 98 10000 3.1 160 16:44 18.10.2019
5962 Rain 0 1008 98 10000 3.1 160 16:44 18.10.2019
5963 Rain 0 1008 98 10000 3.1 160 16:44 18.10.2019
5964 Rain 0 1008 98 10000 3.1 160 16:43 18.10.2019
5965 Rain 0 1008 98 10000 3.1 160 16:43 18.10.2019
5966 Clouds 0 1008 98 10000 3.1 150 16:21 18.10.2019
5967 Clouds 0 1008 98 10000 3.1 150 15:58 18.10.2019
5968 Snow 0 1008 98 10000 3.1 170 15:38 18.10.2019
5969 Snow 0 1008 91 10000 3.1 170 15:20 18.10.2019
5970 Snow 0 1008 91 10000 3.1 170 14:57 18.10.2019
5971 Snow 0 1008 91 9000 3.1 170 14:38 18.10.2019
5972 Snow 0 1008 91 9000 3.1 170 14:38 18.10.2019
5973 Clouds 0 1008 91 10000 3.6 170 14:19 18.10.2019
5974 Clouds 0 1008 91 10000 3.6 170 13:56 18.10.2019
5975 Clouds 0 1009 91 10000 3.1 170 13:37 18.10.2019
5976 Clouds 0 1009 92 10000 3.6 160 13:18 18.10.2019
5977 Clouds 0 1009 92 10000 4.1 170 12:55 18.10.2019
5978 Clouds 0 1009 92 10000 4.1 170 12:37 18.10.2019
5979 Clouds 0 1009 87 10000 4.1 170 12:18 18.10.2019
5980 Clouds 0 1009 87 10000 3.6 160 11:41 18.10.2019
5981 Clouds -1 1009 92 10000 3.6 160 11:20 18.10.2019
5982 Clouds -1 1009 92 10000 3.6 160 10:57 18.10.2019
5983 Snow -1 1010 92 10000 3.1 160 10:39 18.10.2019
5984 Clouds -1 1010 92 10000 3.6 160 10:19 18.10.2019
5985 Clouds -1 1010 92 10000 3.6 160 09:57 18.10.2019
5986 Snow -1 1010 92 10000 3.1 160 09:39 18.10.2019
5987 Clouds -1 1010 92 5000 3.1 160 09:19 18.10.2019
5988 Snow -1 1010 92 10000 3.1 160 08:43 18.10.2019
5989 Clouds -1 1010 92 10000 3.1 160 08:24 18.10.2019
5990 Clouds -1 1010 86 10000 3.6 150 07:51 18.10.2019
5991 Clouds -1 1010 86 10000 3.6 150 07:33 18.10.2019
5992 Clouds -1 1011 86 10000 3.1 160 06:48 18.10.2019
5993 Clouds -1 1011 86 10000 3.1 160 06:30 18.10.2019
5994 Clouds -1 1011 86 10000 4.1 160 05:59 18.10.2019
5995 Clouds -1 1011 86 10000 4.1 150 05:24 18.10.2019
5996 Clouds -1 1011 86 10000 4.1 150 04:56 18.10.2019
5997 Clouds -1 1012 86 10000 3.1 160 03:34 18.10.2019
5998 Clouds -1 1012 86 10000 1.5 120 02:50 18.10.2019
5999 Clouds -1 1012 86 10000 1.5 120 02:32 18.10.2019
6000 Clouds -1 1013 86 10000 2.1 120 01:38 18.10.2019
6001 Clouds -1 1013 86 10000 2.6 140 00:54 18.10.2019
6002 Clouds -1 1013 86 10000 2.6 140 00:36 18.10.2019
6003 Clouds -1 1014 86 10000 2.6 130 00:18 18.10.2019
6004 Clouds -1 1014 86 10000 2.1 140 23:38 17.10.2019
6005 Clouds -1 1014 86 10000 3.1 140 23:19 17.10.2019
6006 Clouds -1 1014 86 10000 2.6 140 22:55 17.10.2019
6007 -273 0 0 0 0 0 22:55 17.10.2019
6008 Clouds -1 1014 86 10000 2.6 140 22:55 17.10.2019
6009 Clouds -1 1014 86 10000 2.6 140 22:37 17.10.2019
6010 Clouds -1 1014 86 10000 2.6 140 22:37 17.10.2019
6011 Clouds -1 1014 86 10000 3.6 140 22:18 17.10.2019
6012 Clouds -1 1014 86 10000 3.6 140 21:56 17.10.2019
6013 Clouds -1 1015 86 10000 2.1 150 21:37 17.10.2019
6014 Clouds -1 1015 86 10000 2.1 150 21:37 17.10.2019
6015 Clouds -1 1015 86 10000 2.1 160 21:19 17.10.2019
6016 Clouds -1 1015 86 10000 2.1 160 20:56 17.10.2019
6017 Clouds -1 1015 86 10000 2.1 160 20:38 17.10.2019
6018 Clouds -1 1015 92 10000 4.1 120 20:18 17.10.2019
6019 Clouds -1 1015 92 10000 3.1 120 19:42 17.10.2019
6020 Clouds -1 1015 92 10000 3.1 120 19:42 17.10.2019
6021 Clouds -1 1016 92 10000 2.6 110 19:21 17.10.2019
6022 Clouds -1 1016 92 10000 2.6 110 18:59 17.10.2019
6023 Snow -1 1016 92 10000 2.6 100 18:39 17.10.2019
6024 Snow -1 1016 92 5000 2.6 80 18:21 17.10.2019
6025 Clouds -1 1016 86 10000 2.1 80 17:55 17.10.2019
6026 Clouds -1 1016 86 10000 2.1 80 17:55 17.10.2019
6027 Clouds -1 1016 86 10000 2.1 80 17:36 17.10.2019
6028 Clouds -1 1016 92 10000 2.1 70 17:18 17.10.2019
6029 Clouds -1 1017 92 10000 1.5 50 16:41 17.10.2019
6030 Clouds -1 1017 86 10000 2.1 80 16:19 17.10.2019
6031 Clouds -1 1017 86 10000 2.1 80 16:19 17.10.2019
6032 Clouds -1 1017 86 10000 2.1 80 15:57 17.10.2019
6033 Clouds -1 1017 86 10000 2.6 110 15:39 17.10.2019
6034 Clouds -1 1017 86 10000 2.1 110 15:20 17.10.2019
6035 Clouds -1 1017 86 10000 2.1 110 15:20 17.10.2019
6036 Clouds -1 1017 86 10000 2.1 110 14:57 17.10.2019
6037 Snow -1 1017 92 10000 2.1 110 14:38 17.10.2019
6038 Rain 0 1017 75 10000 2.6 100 14:20 17.10.2019
6039 Clouds 0 1018 75 10000 1 90 13:41 17.10.2019
6040 Clouds 0 1018 75 10000 1.5 90 13:21 17.10.2019
6041 Clouds 0 1018 75 10000 1.5 90 12:58 17.10.2019
6042 Clouds 0 1018 75 10000 2.6 110 12:38 17.10.2019
6043 Clouds 0 1018 77 10000 2.6 90 12:19 17.10.2019
6044 Clouds -1 1018 86 10000 3.1 110 11:55 17.10.2019
6045 Clouds -1 1018 86 10000 3.1 110 11:55 17.10.2019
6046 Clouds -1 1018 86 10000 3.1 110 11:55 17.10.2019
6047 Clouds -1 1018 86 10000 3.1 110 11:55 17.10.2019
6048 Clouds -1 1018 86 10000 3.1 110 11:37 17.10.2019
6049 Clouds -1 1018 86 10000 2.1 100 11:18 17.10.2019
6050 Clouds -1 1018 92 10000 2.1 80 10:41 17.10.2019
6051 Clouds -1 1018 92 10000 2.6 70 10:19 17.10.2019
6052 -273 0 0 0 0 0 09:56 17.10.2019
6053 Clouds -1 1018 92 10000 2.6 70 09:56 17.10.2019
6054 Clouds -1 1018 92 10000 2.1 70 09:38 17.10.2019
6055 Clouds -1 1018 92 10000 2.1 70 09:19 17.10.2019
6056 Clouds -1 1018 92 10000 1.5 70 08:48 17.10.2019
6057 Clouds -1 1018 92 10000 1.5 70 08:27 17.10.2019
6058 Clouds -1 1018 92 10000 1.5 20 07:59 17.10.2019
6059 -273 0 0 0 0 0 07:41 17.10.2019
6060 Clouds -1 1018 92 10000 1.5 40 07:41 17.10.2019
6061 Clouds -1 1018 92 10000 1.5 30 07:21 17.10.2019
6062 Clouds -1 1018 92 10000 1.5 30 07:21 17.10.2019
6063 Snow -1 1018 92 10000 1.5 50 06:43 17.10.2019
6064 Snow -1 1018 92 10000 1.5 360 06:24 17.10.2019
6065 Snow -1 1018 92 10000 1.5 360 05:59 17.10.2019
6066 Snow -1 1018 92 10000 1.5 30 05:35 17.10.2019
6067 Clouds -1 1018 92 10000 1 0 04:58 17.10.2019
6068 Clouds -1 1018 92 10000 1.5 360 04:31 17.10.2019
6069 Clouds -1 1018 92 10000 2.1 360 03:45 17.10.2019
6070 Clouds -1 1018 92 10000 2.1 340 01:56 17.10.2019
6071 Clouds -1 1018 92 10000 2.1 340 01:56 17.10.2019
6072 Clouds -1 1018 92 10000 2.1 350 00:42 17.10.2019
6073 Clouds -1 1018 92 10000 2.6 360 00:20 17.10.2019
6074 Clouds -1 1018 92 10000 2.6 340 23:42 16.10.2019
6075 Clouds -1 1018 92 10000 2.1 340 23:22 16.10.2019
6076 Clouds -1 1018 92 10000 2.1 340 22:58 16.10.2019
6077 Snow -1 1018 92 10000 2.6 340 22:38 16.10.2019
6078 Snow -1 1018 100 10000 2.6 350 22:20 16.10.2019
6079 Snow -1 1018 100 10000 2.6 350 21:58 16.10.2019
6080 Clouds -1 1018 100 10000 2.1 360 21:38 16.10.2019
6081 Clouds -1 1018 100 10000 2.6 0 21:20 16.10.2019
6082 Clouds -1 1018 100 10000 2.6 0 20:59 16.10.2019
6083 Clouds -1 1018 100 10000 2.6 0 20:59 16.10.2019
6084 Clouds 0 1018 94 10000 2.1 350 20:41 16.10.2019
6085 Clouds 0 1018 94 10000 2.6 360 20:22 16.10.2019
6086 Clouds 0 1018 94 10000 2.6 360 19:59 16.10.2019
6087 Clouds 0 1018 94 10000 2.6 350 19:40 16.10.2019
6088 Clouds 0 1018 94 10000 2.6 350 19:21 16.10.2019
6089 Clouds 0 1018 94 10000 2.6 340 18:56 16.10.2019
6090 Clouds 0 1018 94 10000 2.6 340 18:56 16.10.2019
6091 Clouds 0 1018 94 10000 2.6 340 18:37 16.10.2019
6092 Clouds 0 1018 92 10000 1.5 310 18:18 16.10.2019
6093 Clouds 0 1018 92 10000 1.5 310 18:18 16.10.2019
6094 Clouds 0 1018 92 10000 2.1 350 17:54 16.10.2019
6095 Clouds 0 1018 92 10000 2.1 350 17:36 16.10.2019
6096 Clouds 0 1018 92 10000 1.5 330 17:18 16.10.2019
6097 Clouds 0 1018 92 10000 1 0 16:43 16.10.2019
6098 Clouds 0 1017 92 10000 1.5 20 16:22 16.10.2019
6099 Clouds 0 1017 92 10000 1.5 20 15:58 16.10.2019
6100 Clouds 0 1018 92 10000 1.5 320 15:39 16.10.2019
6101 Rain 1 1018 83 10000 2.1 310 15:19 16.10.2019
6102 Rain 1 1018 83 10000 2.1 310 14:58 16.10.2019
6103 Rain 1 1018 83 10000 2.1 310 14:39 16.10.2019
6104 Rain 1 1018 80 10000 2.1 330 14:19 16.10.2019
6105 Rain 1 1018 80 10000 2.1 330 13:57 16.10.2019
6106 Clouds 1 1018 80 10000 1.5 360 13:38 16.10.2019
6107 Clouds 1 1018 80 10000 1.5 360 13:38 16.10.2019
6108 Clouds 1 1018 80 10000 1.5 330 13:20 16.10.2019
6109 Clouds 0 1018 80 10000 1.5 330 12:42 16.10.2019
6110 Rain 0 1018 87 6000 1.5 330 12:19 16.10.2019
6111 -273 0 0 0 0 0 11:45 16.10.2019
6112 Rain 0 1018 87 3000 2.1 330 11:19 16.10.2019
6113 Mist 0 1018 87 1500 2.1 330 10:55 16.10.2019
6114 Mist 0 1018 87 1500 2.1 330 10:36 16.10.2019
6115 Snow 0 1018 87 1500 2.1 330 10:18 16.10.2019
6116 Snow 0 1018 83 1200 1.5 320 09:40 16.10.2019
6117 Drizzle 0 1017 94 500 0.5 20 09:21 16.10.2019
6118 Fog 0 1017 94 800 0.5 0 08:46 16.10.2019
6119 Fog 0 1017 94 800 0.5 0 08:26 16.10.2019
6120 Fog 0 1017 94 350 0.5 0 07:58 16.10.2019
6121 Fog 0 1017 94 200 0.5 0 07:40 16.10.2019
6122 Fog 0 1017 94 300 0.5 60 07:21 16.10.2019
6123 Fog 0 1017 94 500 0.5 0 06:46 16.10.2019
6124 Fog 0 1017 94 500 0.5 0 06:27 16.10.2019
6125 Fog 0 1017 97 750 2.1 150 04:24 16.10.2019
6126 Clouds 0 1017 98 2300 1.5 110 02:50 16.10.2019
6127 Clouds 0 1017 98 2700 2.1 170 01:20 16.10.2019
6128 Clouds 0 1017 98 2700 2.1 170 00:58 16.10.2019
6129 Snow 1 1017 98 1900 2.1 140 00:39 16.10.2019
6130 Mist 1 1017 97 2300 2.6 150 23:42 15.10.2019
6131 Clouds 1 1017 97 10000 2.6 160 23:23 15.10.2019
6132 Clouds 1 1017 97 10000 2.6 160 22:59 15.10.2019
6133 Rain 1 1017 97 10000 2.6 150 22:40 15.10.2019
6134 Rain 1 1017 97 10000 3.1 170 22:21 15.10.2019
6135 Rain 1 1017 97 10000 3.1 170 21:57 15.10.2019
6136 Rain 1 1017 97 10000 3.6 160 21:39 15.10.2019
6137 Snow 1 1017 95 10000 3.6 150 21:20 15.10.2019
6138 Snow 1 1017 95 10000 3.6 150 21:20 15.10.2019
6139 Snow 1 1017 95 10000 3.6 150 20:58 15.10.2019
6140 Rain 1 1017 95 10000 3.1 150 20:40 15.10.2019
6141 Clouds 1 1017 95 10000 3.1 150 20:21 15.10.2019
6142 Clouds 1 1017 95 10000 3.1 150 19:59 15.10.2019
6143 Clouds 0 1017 95 10000 3.6 160 19:41 15.10.2019
6144 Clouds 0 1018 95 10000 3.1 140 19:20 15.10.2019
6145 Snow 0 1018 95 10000 3.1 130 18:55 15.10.2019
6146 Snow 0 1018 95 10000 3.1 130 18:55 15.10.2019
6147 Snow 0 1018 95 10000 3.1 130 18:37 15.10.2019
6148 Clouds 0 1018 90 10000 3.1 130 18:19 15.10.2019
6149 -273 0 0 0 0 0 17:42 15.10.2019
6150 -273 0 0 0 0 0 17:41 15.10.2019
6151 Clouds 0 1018 90 10000 3.1 140 17:41 15.10.2019
6152 Clouds 0 1018 90 10000 3.1 150 17:20 15.10.2019
6153 Clouds 0 1018 90 10000 3.1 150 17:20 15.10.2019
6154 Clouds 0 1018 90 10000 3.1 150 16:58 15.10.2019
6155 Clear 0 1018 90 10000 2.1 170 16:39 15.10.2019
6156 Clear 0 1018 90 10000 2.1 180 16:20 15.10.2019
6157 Clear 1 1018 74 10000 3.1 180 15:55 15.10.2019
6158 Clear 1 1018 74 10000 3.1 180 15:55 15.10.2019
6159 Clear 1 1018 74 10000 3.1 180 15:36 15.10.2019
6160 Clear 1 1018 74 10000 3.1 190 15:18 15.10.2019
6161 Clear 1 1018 74 10000 2.6 200 14:38 15.10.2019
6162 Clouds 1 1018 69 10000 2.6 210 14:20 15.10.2019
6163 Clouds 1 1018 69 10000 2.6 210 14:20 15.10.2019
6164 Clouds 1 1018 69 10000 2.6 210 13:58 15.10.2019
6165 Clouds 0 1018 73 10000 3.1 200 13:40 15.10.2019
6166 Clouds 0 1017 73 10000 2.6 200 13:19 15.10.2019
6167 Clouds 0 1017 73 10000 2.1 200 12:44 15.10.2019
6168 Clouds -1 1017 92 10000 2.1 210 12:22 15.10.2019
6169 Clouds -1 1017 92 10000 2.1 210 11:57 15.10.2019
6170 Clouds -1 1017 92 10000 2.1 210 11:38 15.10.2019
6171 Clouds -2 1017 100 10000 1.5 200 11:19 15.10.2019
6172 Clouds -2 1017 92 10000 1.5 240 10:45 15.10.2019
6173 Clouds -3 1017 100 10000 2.1 230 10:22 15.10.2019
6174 Clouds -3 1017 100 10000 2.1 230 09:58 15.10.2019
6175 Clouds -3 1016 92 10000 2.6 230 09:39 15.10.2019
6176 Clouds -3 1016 92 10000 2.6 230 09:20 15.10.2019
6177 Clouds -3 1016 92 10000 2.6 230 08:56 15.10.2019
6178 Clouds -3 1015 92 10000 2.1 240 08:37 15.10.2019
6179 Clouds -3 1015 92 10000 2.1 220 08:18 15.10.2019
6180 Clouds -3 1015 100 10000 3.1 230 07:41 15.10.2019
6181 Fog -2 1015 100 3000 2.6 230 07:21 15.10.2019
6182 Mist -1 1014 92 3000 3.1 240 06:47 15.10.2019
6183 Clouds -1 1014 100 10000 2.1 250 06:29 15.10.2019
6184 Clouds -1 1014 100 10000 2.1 230 05:48 15.10.2019
6185 Clouds -1 1014 100 10000 2.1 230 05:29 15.10.2019
6186 Clouds 0 1014 94 2100 2.1 230 04:39 15.10.2019
6187 Clouds 0 1013 94 1900 1.5 250 03:38 15.10.2019
6188 Snow 0 1012 94 1000 1.5 250 02:51 15.10.2019
6189 Snow 0 1012 94 1100 1 0 01:49 15.10.2019
6190 Snow 0 1012 94 4300 1 0 01:22 15.10.2019
6191 Snow 0 1012 94 1300 1 0 00:50 15.10.2019
6192 Fog 0 1011 94 900 1 0 00:22 15.10.2019
6193 Fog 0 1011 94 650 1 0 23:45 14.10.2019
6194 Clouds 0 1011 94 1000 1 0 23:21 14.10.2019
6195 Clouds 0 1011 94 1000 1 0 22:59 14.10.2019
6196 Fog 0 1011 94 1200 1 0 22:38 14.10.2019
6197 Fog 0 1010 94 900 1 0 22:19 14.10.2019
6198 Fog 0 1010 94 900 1 0 21:56 14.10.2019
6199 Mist 0 1010 94 2400 0.5 0 21:37 14.10.2019
6200 Clouds 0 1010 96 6000 0.5 0 21:19 14.10.2019
6201 Rain 0 1010 94 3100 1 0 20:55 14.10.2019
6202 Rain 0 1010 94 3100 1 0 20:55 14.10.2019
6203 Rain 0 1010 94 3100 1 0 20:54 14.10.2019
6204 -273 0 0 0 0 0 20:54 14.10.2019
6205 Rain 0 1010 94 3100 1 0 20:36 14.10.2019
6206 Rain 0 1010 94 3100 1 0 20:36 14.10.2019
6207 Fog 0 1009 94 1500 1.5 310 20:18 14.10.2019
6208 Mist 0 1009 94 2200 1.5 320 19:41 14.10.2019
6209 Mist 0 1009 94 2200 1.5 320 19:41 14.10.2019
6210 Mist 0 1009 94 3700 1.5 310 19:23 14.10.2019
6211 Mist 0 1009 94 3700 1.5 310 19:23 14.10.2019
6212 Mist 0 1009 94 3700 1.5 310 18:58 14.10.2019
6213 Mist 0 1009 94 4400 1.5 320 18:39 14.10.2019
6214 Rain 0 1008 97 6000 2.1 330 18:19 14.10.2019
6215 Rain 0 1008 97 6000 2.1 330 17:57 14.10.2019
6216 Rain 0 1008 97 6000 2.1 330 17:57 14.10.2019
6217 Rain 0 1008 97 6000 2.1 330 17:38 14.10.2019
6218 Rain 0 1008 97 6000 2.1 330 17:38 14.10.2019
6219 Snow 0 1008 97 4300 2.1 320 17:19 14.10.2019
6220 Rain 0 1008 97 6000 2.6 320 16:43 14.10.2019
6221 Rain 1 1007 97 10000 2.1 320 16:21 14.10.2019
6222 Snow 1 1007 97 10000 2.1 310 15:42 14.10.2019
6223 Clouds 1 1007 96 10000 2.1 310 15:23 14.10.2019
6224 Clouds 1 1007 96 10000 2.1 310 14:57 14.10.2019
6225 Clouds 1 1007 96 10000 2.1 300 14:39 14.10.2019
6226 Snow 1 1007 96 10000 1.5 280 14:19 14.10.2019
6227 Snow 1 1007 96 10000 1.5 280 14:19 14.10.2019
6228 Clouds 0 1007 96 10000 1.5 290 13:43 14.10.2019
6229 Fog 0 1007 97 10000 1.5 290 13:21 14.10.2019
6230 Fog 0 1007 97 10000 1.5 290 12:55 14.10.2019
6231 Fog 0 1007 97 10000 1.5 290 12:55 14.10.2019
6232 Fog 0 1007 97 10000 1.5 290 12:36 14.10.2019
6233 Fog 0 1007 95 5000 1.5 310 12:18 14.10.2019
6234 Clouds 0 1006 95 10000 1 0 11:44 14.10.2019
6235 Clouds 0 1006 95 10000 1 0 11:24 14.10.2019
6236 Clouds 0 1006 95 10000 1 0 10:55 14.10.2019
6237 Snow 0 1006 95 10000 1.5 310 10:37 14.10.2019
6238 Snow 0 1006 95 10000 2.1 310 10:18 14.10.2019
6239 Snow 0 1006 95 5000 2.6 300 09:41 14.10.2019
6240 Snow 0 1006 95 5000 2.6 300 09:41 14.10.2019
6241 Snow 0 1005 96 3000 1.5 290 09:20 14.10.2019
6242 Snow 0 1005 96 2000 1.5 300 08:49 14.10.2019
6243 Snow 0 1005 96 1900 2.1 300 08:23 14.10.2019
6244 Snow 0 1005 96 1500 2.1 300 07:47 14.10.2019
6245 Snow 0 1005 96 1800 1.5 280 07:24 14.10.2019
6246 Snow 0 1005 96 2800 1.5 280 06:57 14.10.2019
6247 Snow 0 1005 96 2800 1.5 280 06:28 14.10.2019
6248 Snow 0 1005 98 10000 1.5 280 05:55 14.10.2019
6249 Snow 0 1005 98 5000 1.5 290 04:59 14.10.2019
6250 Snow 0 1005 98 10000 2.1 290 03:49 14.10.2019
6251 Fog 0 1004 97 2000 1.5 280 03:22 14.10.2019
6252 Snow 0 1004 97 800 2.1 250 01:56 14.10.2019
6253 Clouds 0 1004 94 550 2.1 240 01:18 14.10.2019
6254 Fog 0 1004 94 550 1.5 250 00:40 14.10.2019
6255 Fog 0 1004 97 500 1.5 240 00:18 14.10.2019
6256 -273 0 0 0 0 0 23:40 13.10.2019
6257 Clouds 0 1003 97 750 2.1 250 23:19 13.10.2019
6258 Clouds 0 1003 97 750 2.1 250 22:54 13.10.2019
6259 Clouds 0 1003 97 750 2.1 250 22:36 13.10.2019
6260 Clouds 0 1003 97 1200 2.6 240 22:18 13.10.2019
6261 Clouds 0 1003 97 1200 2.6 240 22:18 13.10.2019
6262 Clouds 0 1003 97 1400 2.6 230 21:55 13.10.2019
6263 Clouds 0 1003 97 1400 2.6 230 21:36 13.10.2019
6264 Clouds 0 1003 98 2100 2.6 230 21:18 13.10.2019
6265 Clouds 0 1003 98 2100 2.6 230 21:18 13.10.2019
6266 Clouds 0 1002 98 3900 2.1 230 20:55 13.10.2019
6267 Clouds 0 1002 98 3900 2.1 230 20:36 13.10.2019
6268 Snow 0 1002 98 9000 2.6 230 20:18 13.10.2019
6269 Clouds 0 1002 98 9000 2.1 230 19:54 13.10.2019
6270 Clouds 0 1002 98 9000 2.1 230 19:36 13.10.2019
6271 Clouds 0 1002 98 10000 1.5 240 19:18 13.10.2019
6272 Snow 0 1002 98 10000 1.5 230 18:39 13.10.2019
6273 Rain 0 1002 95 10000 1 0 18:20 13.10.2019
6274 Rain 0 1002 95 10000 1 0 17:59 13.10.2019
6275 Clouds 0 1001 95 10000 1.5 240 17:40 13.10.2019
6276 Clouds 0 1001 95 10000 1 240 17:22 13.10.2019
6277 Clouds 0 1001 95 10000 1 240 17:22 13.10.2019
6278 Clouds 0 1001 95 10000 1 0 16:43 13.10.2019
6279 Snow 0 1001 95 10000 1.5 280 16:19 13.10.2019
6280 Snow 0 1001 95 10000 1.5 280 15:57 13.10.2019
6281 Rain 1 1000 95 7000 1 0 15:39 13.10.2019
6282 Snow 1 1000 86 10000 1.5 300 15:20 13.10.2019
6283 Snow 1 1000 86 10000 1.5 300 14:57 13.10.2019
6284 Snow 0 1000 86 9000 1.5 270 14:39 13.10.2019
6285 Snow 0 1000 86 5000 1.5 300 14:20 13.10.2019
6286 Rain 1 999 86 10000 1.5 290 13:43 13.10.2019
6287 Rain 1 999 86 10000 1.5 290 13:43 13.10.2019
6288 Clouds 1 999 86 10000 1.5 270 13:24 13.10.2019
6289 Clouds 1 999 86 10000 2.1 300 12:59 13.10.2019
6290 Clouds 1 999 86 10000 2.1 300 12:59 13.10.2019
6291 Clouds 1 999 86 10000 2.1 300 12:40 13.10.2019
6292 Clouds 1 998 86 10000 1.5 290 12:21 13.10.2019
6293 Clouds 1 998 86 10000 1.5 290 11:59 13.10.2019
6294 Rain 0 998 90 10000 1.5 300 11:40 13.10.2019
6295 Snow 0 998 90 10000 1.5 300 11:21 13.10.2019
6296 Clouds 0 998 90 10000 1.5 310 10:59 13.10.2019
6297 Clouds 0 998 90 10000 1.5 310 10:40 13.10.2019
6298 Snow 0 997 90 8000 2.1 310 10:22 13.10.2019
6299 Clouds 0 997 90 10000 2.1 290 09:40 13.10.2019
6300 Clouds 0 997 94 10000 2.1 300 09:21 13.10.2019
6301 Clouds 0 997 96 10000 1.5 320 08:55 13.10.2019
6302 Clouds 0 997 96 10000 1.5 330 08:27 13.10.2019
6303 -273 0 0 0 0 0 08:27 13.10.2019
6304 Clouds 0 997 96 10000 1.5 330 07:56 13.10.2019
6305 Clouds -1 996 100 10000 2.6 340 07:38 13.10.2019
6306 Clouds -1 996 100 10000 2.6 340 06:54 13.10.2019
6307 Clouds -1 996 100 10000 2.6 340 06:54 13.10.2019
6308 Clouds -1 996 100 10000 2.6 320 06:26 13.10.2019
6309 Clouds -1 996 100 10000 2.1 320 05:29 13.10.2019
6310 Clouds -1 995 100 10000 2.6 320 04:35 13.10.2019
6311 Clouds -1 995 100 10000 2.1 340 03:35 13.10.2019
6312 Clouds -1 995 100 10000 2.1 350 02:32 13.10.2019
6313 Snow -1 995 100 6000 1.5 340 01:47 13.10.2019
6314 Snow -1 995 92 10000 2.1 350 01:21 13.10.2019
6315 Snow -1 995 100 9000 2.1 350 00:42 13.10.2019
6316 Snow -1 994 100 10000 2.1 360 00:19 13.10.2019
6317 Clouds 0 994 93 10000 2.1 350 23:42 12.10.2019
6318 Clouds 0 994 93 10000 2.1 350 23:23 12.10.2019
6319 Clouds 0 994 93 10000 2.1 350 23:23 12.10.2019
6320 Clouds 0 994 93 10000 2.1 10 22:59 12.10.2019
6321 Clouds 0 994 93 10000 2.1 10 22:40 12.10.2019
6322 Clouds 0 994 93 10000 2.1 10 22:40 12.10.2019
6323 Clouds 0 994 93 10000 3.1 10 22:22 12.10.2019
6324 Clouds 0 994 93 10000 3.1 10 21:59 12.10.2019
6325 Clouds -1 994 92 10000 4.1 20 21:40 12.10.2019
6326 Clouds 0 993 92 10000 3.6 10 21:22 12.10.2019
6327 Clouds 0 993 92 10000 3.6 10 20:55 12.10.2019
6328 Clouds 0 993 92 10000 3.6 10 20:36 12.10.2019
6329 Clouds 0 993 92 10000 2.6 360 20:18 12.10.2019
6330 Clouds 0 993 92 10000 2.6 360 19:36 12.10.2019
6331 Clouds 0 993 92 10000 2.6 360 19:18 12.10.2019
6332 Clouds 0 993 92 10000 3.6 30 18:43 12.10.2019
6333 Clouds 0 993 92 10000 4.1 30 18:24 12.10.2019
6334 Clouds 0 993 90 10000 4.6 30 17:46 12.10.2019
6335 Clouds 0 993 90 10000 5.1 30 17:22 12.10.2019
6336 Clouds 0 993 90 10000 5.1 30 16:59 12.10.2019
6337 Clouds 0 993 90 10000 5.1 30 16:59 12.10.2019
6338 Clouds 0 992 90 10000 5.1 40 16:40 12.10.2019
6339 Clouds 0 992 90 10000 5.1 20 16:21 12.10.2019
6340 Clouds 0 992 90 10000 4.6 40 15:56 12.10.2019
6341 Clouds 0 992 90 10000 4.6 40 15:37 12.10.2019
6342 Snow 0 992 86 10000 5.1 20 15:18 12.10.2019
6343 Snow 0 992 86 8000 4.6 30 14:39 12.10.2019
6344 Clouds 0 992 86 4200 4.1 30 14:20 12.10.2019
6345 Clouds 0 992 86 10000 4.6 30 13:50 12.10.2019
6346 Clouds 0 992 86 10000 4.6 30 13:32 12.10.2019
6347 Clouds 0 992 86 10000 4.6 30 12:55 12.10.2019
6348 Clouds 0 992 86 10000 4.6 30 12:37 12.10.2019
6349 Snow 0 992 88 10000 4.1 20 12:18 12.10.2019
6350 Snow 0 991 88 3200 4.1 20 11:41 12.10.2019
6351 Clouds 0 992 88 10000 3.6 30 11:22 12.10.2019
6352 Clouds 0 991 88 10000 4.6 40 10:57 12.10.2019
6353 Clouds 0 991 88 10000 4.6 40 10:38 12.10.2019
6354 Clouds -1 991 100 10000 4.6 40 10:19 12.10.2019
6355 Clouds -1 991 100 10000 4.6 40 09:56 12.10.2019
6356 Clouds -1 991 100 10000 5.1 30 09:37 12.10.2019
6357 Clouds -1 991 100 10000 4.6 40 09:19 12.10.2019
6358 Clouds -1 991 100 10000 4.6 30 08:43 12.10.2019
6359 Clouds -1 991 100 10000 4.1 30 08:23 12.10.2019
6360 Clouds -1 991 92 10000 4.1 30 07:49 12.10.2019
6361 Clouds -1 991 92 10000 4.1 30 07:30 12.10.2019
6362 Snow -1 991 92 10000 4.1 30 05:54 12.10.2019
6363 Snow -1 991 92 10000 3.6 30 05:26 12.10.2019
6364 Snow -1 992 92 6000 3.6 30 04:31 12.10.2019
6365 Snow -1 992 92 10000 4.6 20 03:53 12.10.2019
6366 Snow -1 992 100 10000 3.6 10 02:37 12.10.2019
6367 Clouds -1 992 100 10000 3.6 10 01:31 12.10.2019
6368 Clouds -1 992 100 10000 3.6 10 00:54 12.10.2019
6369 Clouds -1 992 100 10000 3.6 10 00:35 12.10.2019
6370 Clouds -1 992 100 10000 4.1 10 23:54 11.10.2019
6371 Clouds -1 992 100 10000 4.1 10 23:36 11.10.2019
6372 Clouds -1 992 100 10000 4.6 10 23:18 11.10.2019
6373 Clouds -1 992 92 10000 4.6 20 22:37 11.10.2019
6374 Snow -1 992 92 10000 4.6 30 22:18 11.10.2019
6375 Snow -1 992 100 10000 4.6 30 21:40 11.10.2019
6376 Snow -1 992 100 10000 4.6 30 21:21 11.10.2019
6377 Snow -1 992 100 10000 5.1 30 20:55 11.10.2019
6378 Snow -1 992 100 10000 5.1 30 20:37 11.10.2019
6379 Snow -1 992 100 10000 4.6 20 20:18 11.10.2019
6380 Snow 0 992 92 6000 4.1 30 19:55 11.10.2019
6381 Snow 0 992 92 6000 4.1 30 19:36 11.10.2019
6382 Snow 0 992 92 6000 4.6 30 19:18 11.10.2019
6383 Snow 0 993 92 6000 5.1 30 18:39 11.10.2019
6384 Snow 0 993 90 4500 4.6 30 18:19 11.10.2019
6385 Snow 0 993 90 5000 4.6 30 17:59 11.10.2019
6386 Snow 0 993 90 5000 4.6 30 17:38 11.10.2019
6387 Snow 0 993 90 10000 4.6 40 17:20 11.10.2019
6388 Snow 0 993 90 10000 4.6 40 16:59 11.10.2019
6389 Snow 0 993 90 10000 4.6 40 16:39 11.10.2019
6390 Snow 0 993 90 4300 5.1 30 16:19 11.10.2019
6391 Snow 1 993 90 10000 4.6 40 15:57 11.10.2019
6392 Snow 1 993 90 10000 4.6 40 15:37 11.10.2019
6393 Snow 1 993 90 5000 4.6 40 15:18 11.10.2019
6394 Snow 1 993 90 5000 4.6 40 15:18 11.10.2019
6395 Snow 1 993 90 10000 4.6 40 14:42 11.10.2019
6396 Snow 1 993 90 10000 5.1 40 14:23 11.10.2019
6397 Snow 0 993 90 10000 5.1 50 13:47 11.10.2019
6398 Snow 0 993 85 10000 5.1 50 13:26 11.10.2019
6399 Snow 0 993 85 10000 5.7 40 12:58 11.10.2019
6400 Snow 0 993 85 10000 4.6 50 12:40 11.10.2019
6401 Clouds 0 993 95 10000 4.6 50 12:21 11.10.2019
6402 Snow 0 993 95 3000 5.1 50 11:59 11.10.2019
6403 Snow 0 993 95 3000 5.1 50 11:39 11.10.2019
6404 Snow 0 993 95 2500 4.6 50 11:21 11.10.2019
6405 Fog 0 993 95 600 5.1 50 10:56 11.10.2019
6406 Fog 0 993 95 600 5.1 50 10:56 11.10.2019
6407 Fog 0 993 95 600 5.1 50 10:37 11.10.2019
6408 Fog 0 993 95 700 4.6 60 10:18 11.10.2019
6409 Fog 0 993 95 700 4.6 60 10:18 11.10.2019
6410 Fog 0 993 95 500 4.6 60 09:42 11.10.2019
6411 Fog 0 994 97 400 4.1 50 09:21 11.10.2019
6412 Fog 0 994 97 400 4.1 50 08:59 11.10.2019
6413 Fog 0 994 97 400 3.6 60 08:39 11.10.2019
6414 Fog 0 994 97 500 3.6 60 08:20 11.10.2019
6415 Fog 0 994 97 600 3.1 60 07:54 11.10.2019
6416 Fog 0 994 97 600 3.1 60 07:34 11.10.2019
6417 Snow 0 994 97 700 3.1 60 06:50 11.10.2019
6418 Clouds 0 995 98 750 2.6 70 06:25 11.10.2019
6419 Clouds 0 995 98 700 2.6 0 05:48 11.10.2019
6420 Clouds 0 995 98 900 2.1 70 05:30 11.10.2019
6421 Clouds 0 995 98 1300 1.5 60 04:58 11.10.2019
6422 Snow 0 995 98 3300 1.5 100 03:40 11.10.2019
6423 Clouds 0 996 98 3400 0.5 210 01:26 11.10.2019
6424 Clouds 0 996 98 2600 0.5 240 00:31 11.10.2019
6425 Clouds 0 996 98 2600 0.5 240 00:31 11.10.2019
6426 Snow 0 996 98 1700 1 230 23:58 10.10.2019
6427 Snow 0 996 98 1100 1 240 23:40 10.10.2019
6428 Snow 0 996 98 1200 1.5 220 23:19 10.10.2019
6429 Snow 0 996 98 1300 1 230 22:56 10.10.2019
6430 Snow 0 996 98 1300 1 230 22:36 10.10.2019
6431 -273 0 0 0 0 0 22:18 10.10.2019
6432 Rain 1 997 98 1300 2.1 230 21:42 10.10.2019
6433 Rain 1 997 100 1800 1.5 230 21:22 10.10.2019
6434 Rain 1 997 100 1800 1.5 230 20:58 10.10.2019
6435 Rain 1 997 100 2200 2.1 220 20:39 10.10.2019
6436 Rain 1 996 100 2200 1 230 20:19 10.10.2019
6437 Rain 1 997 98 3900 1 230 19:56 10.10.2019
6438 Rain 1 997 98 3900 1 230 19:38 10.10.2019
6439 Rain 1 997 98 10000 1 240 19:19 10.10.2019
6440 Rain 1 997 98 10000 1 0 18:42 10.10.2019
6441 Clouds 1 997 98 10000 1 0 18:21 10.10.2019
6442 Clouds 1 997 98 10000 1 0 17:58 10.10.2019
6443 Clouds 1 997 100 10000 1 0 17:39 10.10.2019
6444 Clouds 1 997 100 10000 1.5 280 17:18 10.10.2019
6445 Clouds 1 997 100 10000 1.5 260 16:55 10.10.2019
6446 Clouds 1 997 100 10000 1.5 260 16:37 10.10.2019
6447 Clouds 1 997 100 10000 1.5 270 16:18 10.10.2019
6448 Clouds 2 997 93 10000 2.6 260 15:39 10.10.2019
6449 Clouds 2 997 93 6000 2.1 240 15:21 10.10.2019
6450 Clouds 2 997 93 6000 2.1 240 14:56 10.10.2019
6451 Mist 2 997 93 4000 1.5 230 14:37 10.10.2019
6452 Rain 2 997 96 10000 1 0 14:19 10.10.2019
6453 Clouds 2 997 96 10000 1.5 300 13:55 10.10.2019
6454 Clouds 2 997 96 10000 1.5 300 13:37 10.10.2019
6455 Clouds 2 997 90 10000 2.6 260 13:18 10.10.2019
6456 Rain 2 997 90 10000 2.1 280 12:41 10.10.2019
6457 Rain 1 997 97 10000 2.6 280 12:20 10.10.2019
6458 Rain 1 997 97 10000 2.6 280 11:58 10.10.2019
6459 Rain 2 997 93 10000 2.1 280 11:58 10.10.2019
6460 Rain 2 997 93 10000 2.1 280 11:39 10.10.2019
6461 Fog 2 997 93 10000 2.6 270 11:19 10.10.2019
6462 Mist 1 997 100 3000 2.6 270 10:45 10.10.2019
6463 Fog 1 997 97 10000 2.6 240 10:27 10.10.2019
6464 Fog 1 997 97 10000 2.6 240 09:58 10.10.2019
6465 Rain 1 997 100 10000 2.1 250 09:40 10.10.2019
6466 Snow 1 997 98 10000 2.1 260 09:21 10.10.2019
6467 Snow 1 997 98 10000 1.5 290 08:58 10.10.2019
6468 Snow 1 997 98 10000 1.5 290 08:38 10.10.2019
6469 Snow 1 997 98 10000 1.5 260 08:19 10.10.2019
6470 Snow 1 997 98 10000 2.1 270 07:45 10.10.2019
6471 Clouds 1 997 98 10000 1 290 07:23 10.10.2019
6472 Clouds 1 997 98 10000 2.1 300 06:49 10.10.2019
6473 Clouds 1 997 98 10000 2.1 300 06:49 10.10.2019
6474 Clouds 1 997 98 10000 2.1 300 06:29 10.10.2019
6475 Clouds 1 996 97 10000 1.5 300 05:28 10.10.2019
6476 Clouds 1 996 97 10000 2.1 320 04:54 10.10.2019
6477 Clouds 1 996 97 10000 2.1 320 04:33 10.10.2019
6478 Clouds 1 996 100 10000 2.1 300 01:46 10.10.2019
6479 Clouds 1 996 100 10000 2.1 300 01:46 10.10.2019
6480 Clouds 1 996 100 10000 2.1 310 01:26 10.10.2019
6481 Clouds 1 996 100 10000 2.1 310 01:00 10.10.2019
6482 Rain 1 996 100 10000 2.6 340 00:23 10.10.2019
6483 Rain 1 996 100 10000 2.6 320 23:40 09.10.2019
6484 Rain 1 996 100 10000 2.6 310 23:22 09.10.2019
6485 Rain 1 996 100 10000 2.6 310 22:59 09.10.2019
6486 Rain 1 996 100 10000 3.1 320 22:40 09.10.2019
6487 Rain 1 996 100 10000 3.1 320 22:22 09.10.2019
6488 Rain 2 996 93 10000 3.1 320 21:41 09.10.2019
6489 Clouds 2 996 93 10000 3.1 330 21:21 09.10.2019
6490 Clouds 2 996 93 10000 3.1 330 20:56 09.10.2019
6491 Clouds 2 996 93 10000 3.1 320 20:38 09.10.2019
6492 Clouds 2 996 93 10000 3.6 320 20:19 09.10.2019
6493 Clouds 2 996 93 10000 3.6 320 20:19 09.10.2019
6494 Clouds 2 996 93 10000 3.1 320 19:58 09.10.2019
6495 Clouds 2 996 93 10000 3.1 320 19:40 09.10.2019
6496 Clouds 2 996 93 10000 3.1 320 19:21 09.10.2019
6497 Rain 2 996 93 10000 3.6 320 18:38 09.10.2019
6498 Rain 1 996 100 10000 3.1 320 18:20 09.10.2019
6499 Rain 1 996 100 10000 3.1 330 17:57 09.10.2019
6500 Rain 1 996 100 10000 3.1 330 17:37 09.10.2019
6501 Rain 2 996 93 10000 3.6 320 17:19 09.10.2019
6502 Rain 2 996 93 10000 3.6 320 16:55 09.10.2019
6503 -273 0 0 0 0 0 16:54 09.10.2019
6504 Rain 2 996 93 10000 3.6 320 16:36 09.10.2019
6505 Rain 2 996 93 10000 3.6 320 16:18 09.10.2019
6506 Rain 2 996 93 10000 3.1 320 15:54 09.10.2019
6507 Rain 2 996 93 10000 3.1 320 15:36 09.10.2019
6508 Rain 2 996 93 10000 3.6 320 15:18 09.10.2019
6509 Rain 2 996 93 10000 3.6 320 15:18 09.10.2019
6510 Rain 2 996 93 10000 3.6 320 14:41 09.10.2019
6511 Clouds 2 996 93 10000 4.1 320 14:18 09.10.2019
6512 Rain 2 996 93 10000 3.6 320 13:40 09.10.2019
6513 Drizzle 2 996 93 9000 4.1 330 13:22 09.10.2019
6514 Drizzle 2 996 93 9000 4.1 330 12:59 09.10.2019
6515 Drizzle 1 996 100 9000 4.1 330 12:41 09.10.2019
6516 Drizzle 1 996 100 9000 4.1 340 12:22 09.10.2019
6517 Drizzle 1 996 100 9000 4.1 340 12:22 09.10.2019
6518 Clouds 1 996 100 10000 4.1 340 11:56 09.10.2019
6519 Clouds 1 996 100 10000 4.1 340 11:37 09.10.2019
6520 Clouds 1 996 100 10000 3.6 330 11:19 09.10.2019
6521 Clouds 1 996 96 10000 4.6 330 10:44 09.10.2019
6522 Snow 0 996 96 6000 4.6 330 10:22 09.10.2019
6523 Snow 0 996 96 6000 4.6 330 09:59 09.10.2019
6524 Snow 0 996 96 4500 4.1 330 09:40 09.10.2019
6525 Snow 0 996 97 4000 4.1 330 09:19 09.10.2019
6526 Snow 0 996 96 6000 4.1 330 08:41 09.10.2019
6527 Snow 0 997 96 7000 4.1 330 08:23 09.10.2019
6528 Snow 0 997 96 7000 4.1 330 07:58 09.10.2019
6529 Snow 0 997 96 5000 4.1 330 07:37 09.10.2019
6530 Snow 0 997 96 6000 4.1 340 07:19 09.10.2019
6531 Snow 0 997 96 4000 4.1 330 06:51 09.10.2019
6532 Snow 0 997 97 10000 3.6 340 05:56 09.10.2019
6533 Snow 0 997 97 10000 3.6 340 05:28 09.10.2019
6534 Snow 0 998 97 10000 4.1 340 04:24 09.10.2019
6535 Snow 0 999 95 8000 3.6 340 02:50 09.10.2019
6536 Snow 0 999 95 5000 4.1 340 01:43 09.10.2019
6537 Clouds 0 999 94 10000 4.1 340 01:19 09.10.2019
6538 Snow 0 1000 94 10000 3.6 340 00:56 09.10.2019
6539 Snow 0 1000 94 10000 3.6 340 00:38 09.10.2019
6540 Snow 0 1000 94 10000 3.6 340 00:38 09.10.2019
6541 Snow 0 1000 95 10000 4.1 340 00:19 09.10.2019
6542 Clouds 0 1000 95 10000 3.6 340 23:39 08.10.2019
6543 Clouds 0 1001 95 10000 4.1 340 23:18 08.10.2019
6544 Clouds 0 1001 95 10000 4.1 340 22:56 08.10.2019
6545 Snow 0 1001 95 10000 3.6 340 22:38 08.10.2019
6546 Clouds 0 1001 95 10000 4.1 350 22:19 08.10.2019
6547 Snow 0 1001 95 10000 4.1 350 21:57 08.10.2019
6548 Snow 0 1001 95 10000 4.1 350 21:38 08.10.2019
6549 Snow 0 1002 92 4400 4.1 350 21:18 08.10.2019
6550 Snow -1 1002 100 3700 3.6 360 20:55 08.10.2019
6551 Snow -1 1002 100 3700 3.6 360 20:55 08.10.2019
6552 Snow -1 1002 100 3700 3.6 360 20:37 08.10.2019
6553 Snow -1 1002 100 3700 3.6 360 20:37 08.10.2019
6554 Snow 0 1003 89 7000 3.6 360 20:18 08.10.2019
6555 Snow 0 1003 89 10000 3.6 360 19:56 08.10.2019
6556 Snow 0 1003 89 10000 3.6 360 19:36 08.10.2019
6557 Snow 0 1003 89 10000 3.6 360 19:18 08.10.2019
6558 Snow 0 1004 89 10000 3.1 360 18:42 08.10.2019
6559 Clouds 0 1004 84 10000 3.6 10 18:24 08.10.2019
6560 Clouds 0 1004 84 10000 3.6 10 17:57 08.10.2019
6561 Clouds 0 1004 84 10000 3.6 10 17:57 08.10.2019
6562 Snow 1 1004 80 10000 3.6 20 17:39 08.10.2019
6563 Rain 1 1005 80 10000 3.6 20 17:20 08.10.2019
6564 Clouds 1 1005 80 10000 2.6 360 16:56 08.10.2019
6565 Clouds 1 1005 80 10000 2.6 360 16:56 08.10.2019
6566 Clouds 1 1005 80 10000 2.6 360 16:37 08.10.2019
6567 Clouds 1 1005 80 10000 4.1 30 16:18 08.10.2019
6568 Clouds 1 1005 80 10000 3.6 20 15:39 08.10.2019
6569 Clouds 1 1006 80 10000 3.6 30 15:20 08.10.2019
6570 Clouds 1 1006 80 10000 3.6 30 15:20 08.10.2019
6571 Clouds 1 1006 80 10000 3.6 30 14:56 08.10.2019
6572 Clouds 1 1006 80 10000 3.6 20 14:37 08.10.2019
6573 Rain 1 1007 86 10000 3.1 30 14:19 08.10.2019
6574 Snow 1 1007 80 4000 4.1 40 13:55 08.10.2019
6575 Snow 1 1007 80 4000 4.1 40 13:37 08.10.2019
6576 Snow 1 1007 80 10000 4.1 20 13:18 08.10.2019
6577 Snow 1 1007 80 10000 4.1 20 13:18 08.10.2019
6578 Snow 1 1007 80 10000 4.1 20 13:18 08.10.2019
6579 Snow 1 1008 86 10000 4.6 30 12:41 08.10.2019
6580 Clouds 1 1008 80 10000 5.7 40 12:20 08.10.2019
6581 Clouds 1 1008 80 10000 5.7 40 11:57 08.10.2019
6582 Clouds 1 1008 80 10000 5.7 30 11:57 08.10.2019
6583 Clouds 1 1008 80 10000 5.7 30 11:38 08.10.2019
6584 Clouds 1 1009 86 10000 3.6 70 11:20 08.10.2019
6585 Clouds 1 1009 86 10000 4.1 60 10:42 08.10.2019
6586 Clouds 1 1009 83 10000 3.6 30 10:23 08.10.2019
6587 Clouds 1 1009 83 10000 3.6 30 09:59 08.10.2019
6588 Clouds 1 1010 86 10000 4.1 30 09:40 08.10.2019
6589 Clouds 0 1010 95 10000 3.6 40 09:22 08.10.2019
6590 Clouds 0 1010 95 10000 4.1 40 08:45 08.10.2019
6591 Clouds 0 1010 96 10000 3.6 40 08:25 08.10.2019
6592 Clouds 0 1011 96 10000 4.1 40 07:48 08.10.2019
6593 Clouds 0 1011 96 10000 3.1 40 07:24 08.10.2019
6594 Clouds 0 1011 96 10000 3.1 60 06:59 08.10.2019
6595 Clouds 0 1011 96 10000 3.1 60 06:39 08.10.2019
6596 Clouds 0 1012 97 10000 3.1 80 06:21 08.10.2019
6597 Clouds 0 1012 97 10000 3.1 80 05:43 08.10.2019
6598 Clouds 1 1012 97 10000 3.6 70 05:19 08.10.2019
6599 Clouds 1 1012 100 10000 4.1 70 03:31 08.10.2019
6600 Rain 1 1012 100 10000 4.6 70 02:42 08.10.2019
6601 Rain 2 1012 93 8000 4.6 60 01:58 08.10.2019
6602 Rain 2 1013 93 5000 4.6 70 01:40 08.10.2019
6603 Clouds 2 1013 93 10000 4.1 60 00:55 08.10.2019
6604 Clouds 2 1013 93 6000 4.1 70 00:23 08.10.2019
6605 Clouds 2 1013 93 10000 4.6 60 23:46 07.10.2019
6606 Clouds 2 1013 93 10000 4.1 60 23:21 07.10.2019
6607 Clouds 2 1013 93 10000 4.1 60 23:21 07.10.2019
6608 Clouds 2 1013 93 10000 4.1 60 23:21 07.10.2019
6609 Clouds 2 1013 93 10000 4.1 60 22:59 07.10.2019
6610 Clouds 2 1013 100 10000 4.6 50 22:41 07.10.2019
6611 Clouds 2 1013 93 10000 3.6 40 22:23 07.10.2019
6612 Clouds 2 1013 93 10000 3.6 40 21:59 07.10.2019
6613 Clouds 2 1014 93 10000 4.1 30 21:40 07.10.2019
6614 Clouds 2 1014 93 10000 4.6 40 21:21 07.10.2019
6615 Clouds 2 1014 93 10000 4.6 40 20:59 07.10.2019
6616 Clouds 2 1014 93 10000 4.6 40 20:40 07.10.2019
6617 Clouds 2 1014 93 10000 4.6 40 20:40 07.10.2019
6618 Rain 2 1014 93 10000 3.6 20 20:21 07.10.2019
6619 Rain 2 1014 93 10000 3.6 20 19:59 07.10.2019
6620 Clouds 2 1014 93 10000 3.6 20 19:41 07.10.2019
6621 Clouds 2 1014 93 10000 4.6 30 19:20 07.10.2019
6622 Clouds 2 1014 93 10000 4.6 30 18:59 07.10.2019
6623 Clouds 2 1014 93 10000 3.6 40 18:39 07.10.2019
6624 Clouds 3 1014 86 10000 4.1 40 18:19 07.10.2019
6625 Clouds 3 1014 93 10000 3.1 30 17:43 07.10.2019
6626 Clear 3 1014 93 10000 3.6 30 17:23 07.10.2019
6627 Clear 3 1014 93 10000 3.6 30 16:59 07.10.2019
6628 Clear 2 1014 93 10000 2.6 50 16:41 07.10.2019
6629 Rain 2 1014 93 10000 2.6 60 16:22 07.10.2019
6630 Rain 3 1014 93 6000 1.5 20 15:46 07.10.2019
6631 Rain 3 1014 93 6000 1.5 20 15:26 07.10.2019
6632 Clear 4 1014 86 10000 2.6 10 14:58 07.10.2019
6633 Clear 3 1014 93 10000 2.1 20 14:40 07.10.2019
6634 Rain 2 1014 93 10000 1.5 10 14:22 07.10.2019
6635 Snow 2 1014 95 10000 3.6 40 13:43 07.10.2019
6636 Snow 3 1014 86 4000 4.1 40 13:21 07.10.2019
6637 Rain 4 1014 80 10000 3.1 30 12:57 07.10.2019
6638 Rain 4 1014 80 10000 3.1 30 12:39 07.10.2019
6639 Clouds 4 1014 86 10000 3.1 20 12:19 07.10.2019
6640 Clouds 4 1014 86 10000 3.1 20 11:58 07.10.2019
6641 Clouds 4 1014 86 10000 3.6 10 11:38 07.10.2019
6642 Clouds 3 1014 93 10000 3.1 360 11:20 07.10.2019
6643 Clouds 3 1014 93 10000 3.1 360 11:20 07.10.2019
6644 Rain 3 1014 93 10000 3.1 360 10:42 07.10.2019
6645 Clouds 3 1014 93 10000 3.6 350 10:21 07.10.2019
6646 Clouds 2 1014 100 10000 3.1 340 09:43 07.10.2019
6647 Clouds 2 1014 93 10000 3.6 350 09:25 07.10.2019
6648 Clouds 2 1014 93 10000 3.6 350 08:58 07.10.2019
6649 Rain 2 1014 93 10000 3.1 340 08:39 07.10.2019
6650 Rain 2 1014 93 10000 3.6 340 08:20 07.10.2019
6651 Rain 2 1014 93 10000 3.1 340 07:44 07.10.2019
6652 Rain 2 1014 93 10000 3.1 340 07:25 07.10.2019
6653 Rain 2 1014 93 10000 3.6 340 06:55 07.10.2019
6654 Rain 2 1014 93 10000 3.6 340 06:37 07.10.2019
6655 Clouds 2 1014 93 10000 3.6 340 05:50 07.10.2019
6656 Clouds 2 1014 94 10000 3.6 340 05:24 07.10.2019
6657 Rain 2 1014 94 10000 3.6 340 04:42 07.10.2019
6658 Clear 2 1014 94 10000 3.6 340 03:45 07.10.2019
6659 Clear 2 1014 94 10000 3.6 340 03:45 07.10.2019
6660 Clear 2 1014 96 10000 3.1 340 03:23 07.10.2019
6661 Clear 2 1014 96 10000 3.1 340 03:23 07.10.2019
6662 Clear 2 1014 96 10000 3.6 330 02:23 07.10.2019
6663 Clear 2 1014 96 10000 3.6 330 02:23 07.10.2019
6664 Clouds 2 1014 96 10000 3.6 330 01:57 07.10.2019
6665 Clouds 3 1014 95 10000 3.6 340 01:22 07.10.2019
6666 Clear 3 1014 95 10000 2.6 340 00:44 07.10.2019
6667 Clouds 3 1014 95 10000 3.1 340 00:22 07.10.2019
6668 Clear 3 1014 95 10000 3.1 330 23:56 06.10.2019
6669 Clear 3 1014 95 10000 3.1 330 23:38 06.10.2019
6670 Clear 3 1014 95 10000 3.6 330 23:18 06.10.2019
6671 Clear 3 1013 95 10000 3.1 330 22:42 06.10.2019
6672 Clear 3 1013 95 10000 3.1 330 22:22 06.10.2019
6673 Clear 3 1013 95 10000 2.6 340 21:58 06.10.2019
6674 Clear 3 1013 95 10000 2.6 340 21:38 06.10.2019
6675 Clear 4 1013 90 10000 3.6 330 21:19 06.10.2019
6676 Clear 4 1013 90 10000 3.6 320 20:58 06.10.2019
6677 Clear 4 1013 90 10000 3.6 320 20:40 06.10.2019
6678 Clear 4 1013 80 10000 3.6 320 20:21 06.10.2019
6679 Clear 4 1013 80 10000 3.6 320 19:58 06.10.2019
6680 Clouds 5 1013 75 10000 3.6 320 19:38 06.10.2019
6681 Rain 5 1014 75 10000 3.1 310 19:20 06.10.2019
6682 Rain 5 1014 75 10000 3.1 310 19:20 06.10.2019
6683 Rain 5 1014 75 10000 3.1 320 18:57 06.10.2019
6684 Rain 5 1014 75 10000 3.1 320 18:39 06.10.2019
6685 Rain 5 1014 75 10000 3.6 330 18:19 06.10.2019
6686 Rain 5 1014 75 10000 3.6 330 17:58 06.10.2019
6687 Clear 5 1014 80 10000 4.1 320 17:39 06.10.2019
6688 Clear 6 1014 80 10000 4.1 310 17:19 06.10.2019
6689 Clear 5 1014 75 10000 3.1 300 16:42 06.10.2019
6690 Clear 6 1014 70 10000 3.1 300 16:24 06.10.2019
6691 Clear 6 1014 70 10000 3.1 290 15:56 06.10.2019
6692 Clear 6 1014 70 10000 3.1 290 15:38 06.10.2019
6693 Clear 5 1015 75 10000 2.1 300 15:18 06.10.2019
6694 Clear 5 1015 75 10000 2.6 280 14:42 06.10.2019
6695 Clear 5 1015 75 10000 2.1 290 14:24 06.10.2019
6696 Clear 5 1015 75 10000 2.6 270 13:56 06.10.2019
6697 Clear 5 1015 75 10000 2.6 270 13:56 06.10.2019
6698 Clear 5 1015 75 10000 2.6 270 13:38 06.10.2019
6699 Clear 4 1015 93 10000 2.6 250 13:19 06.10.2019
6700 Clear 4 1015 86 10000 2.1 240 12:56 06.10.2019
6701 Clear 4 1015 86 10000 2.1 240 12:38 06.10.2019
6702 Clear 3 1016 86 10000 2.6 240 12:20 06.10.2019
6703 Clear 3 1016 86 10000 2.6 240 11:55 06.10.2019
6704 Clear 3 1016 86 10000 2.6 240 11:36 06.10.2019
6705 Clear 3 1016 86 10000 2.1 250 11:18 06.10.2019
6706 Clear 2 1016 93 10000 1.5 250 10:42 06.10.2019
6707 Clear 2 1016 93 10000 2.1 250 10:24 06.10.2019
6708 Clear 2 1016 75 10000 2.1 250 09:42 06.10.2019
6709 Clear 1 1017 91 10000 2.6 270 09:22 06.10.2019
6710 Clear 1 1017 91 10000 2.6 270 09:22 06.10.2019
6711 Clear 1 1016 91 10000 2.1 250 08:59 06.10.2019
6712 Clear 1 1016 91 10000 2.1 250 08:40 06.10.2019
6713 Clear 2 1016 90 10000 2.1 280 08:20 06.10.2019
6714 Clear 2 1017 90 10000 2.1 310 07:44 06.10.2019
6715 Clear 1 1017 90 10000 2.6 310 07:18 06.10.2019
6716 Clear 1 1017 93 10000 2.1 320 06:19 06.10.2019
6717 Clouds 1 1017 93 10000 3.1 320 05:28 06.10.2019
6718 Clouds 2 1017 93 10000 3.1 330 03:35 06.10.2019
6719 Rain 2 1017 93 10000 2.6 320 02:42 06.10.2019
6720 Rain 2 1017 93 10000 2.1 320 02:19 06.10.2019
6721 Rain 2 1017 93 10000 2.6 320 01:38 06.10.2019
6722 Rain 2 1017 93 10000 2.6 320 01:20 06.10.2019
6723 Rain 2 1017 93 10000 3.1 320 00:45 06.10.2019
6724 Rain 2 1017 93 10000 3.1 320 00:24 06.10.2019
6725 Rain 2 1017 93 10000 3.1 320 23:43 05.10.2019
6726 Rain 2 1017 96 10000 3.1 330 23:22 05.10.2019
6727 Clouds 2 1017 96 10000 2.6 330 22:58 05.10.2019
6728 Clouds 2 1017 96 10000 2.6 330 22:39 05.10.2019
6729 Clear 2 1017 96 10000 3.6 330 22:19 05.10.2019